<?xml version="1.0" encoding="utf-8"?>
<gpx xmlns:xsi="http://www.w3.org/2001/XMLSchema-instance" xmlns:xsd="http://www.w3.org/2001/XMLSchema" version="1.1" creator="Shapelink.com" xmlns="http://www.topografix.com/GPX/1/1" xmlns:gpxtpx="http://www.garmin.com/xmlschemas/TrackPointExtension/v1">
  <metadata>
    <name>Ciclismo 21.61 km, 2019-11-16</name>
    <desc></desc>
    <author><name>Peter Littke</name></author> 
    <time>2019-11-16T08:23:33Z</time>
  </metadata>
  <trk>
    <name>Ciclismo 21.61 km, 2019-11-16</name>
    <trkseg>
      <trkpt lat="59.340554" lon="18.083811">
        <ele>30</ele>
        <time>2019-11-16T08:23:56Z</time>
      </trkpt>
      <trkpt lat="59.340633" lon="18.083641">
        <ele>35</ele>
        <time>2019-11-16T08:24:00Z</time>
      </trkpt>
      <trkpt lat="59.340531" lon="18.083569">
        <ele>29</ele>
        <time>2019-11-16T08:24:02Z</time>
      </trkpt>
      <trkpt lat="59.340432" lon="18.083515">
        <ele>25</ele>
        <time>2019-11-16T08:24:04Z</time>
      </trkpt>
      <trkpt lat="59.34029" lon="18.08345">
        <ele>20</ele>
        <time>2019-11-16T08:24:06Z</time>
      </trkpt>
      <trkpt lat="59.340146" lon="18.083382">
        <ele>0</ele>
        <time>2019-11-16T08:24:07Z</time>
      </trkpt>
      <trkpt lat="59.340028" lon="18.083253">
        <ele>10</ele>
        <time>2019-11-16T08:24:10Z</time>
      </trkpt>
      <trkpt lat="59.339969" lon="18.083193">
        <ele>10</ele>
        <time>2019-11-16T08:24:11Z</time>
      </trkpt>
      <trkpt lat="59.339905" lon="18.083155">
        <ele>9</ele>
        <time>2019-11-16T08:24:12Z</time>
      </trkpt>
      <trkpt lat="59.339844" lon="18.083111">
        <ele>6</ele>
        <time>2019-11-16T08:24:13Z</time>
      </trkpt>
      <trkpt lat="59.339785" lon="18.083072">
        <ele>0</ele>
        <time>2019-11-16T08:24:13Z</time>
      </trkpt>
      <trkpt lat="59.339725" lon="18.083037">
        <ele>5</ele>
        <time>2019-11-16T08:24:14Z</time>
      </trkpt>
      <trkpt lat="59.339663" lon="18.082998">
        <ele>4</ele>
        <time>2019-11-16T08:24:16Z</time>
      </trkpt>
      <trkpt lat="59.339603" lon="18.082957">
        <ele>0</ele>
        <time>2019-11-16T08:24:16Z</time>
      </trkpt>
      <trkpt lat="59.33954" lon="18.082906">
        <ele>4</ele>
        <time>2019-11-16T08:24:17Z</time>
      </trkpt>
      <trkpt lat="59.339476" lon="18.082844">
        <ele>4</ele>
        <time>2019-11-16T08:24:19Z</time>
      </trkpt>
      <trkpt lat="59.339415" lon="18.082789">
        <ele>4</ele>
        <time>2019-11-16T08:24:20Z</time>
      </trkpt>
      <trkpt lat="59.339359" lon="18.082738">
        <ele>4</ele>
        <time>2019-11-16T08:24:21Z</time>
      </trkpt>
      <trkpt lat="59.339304" lon="18.082683">
        <ele>0</ele>
        <time>2019-11-16T08:24:21Z</time>
      </trkpt>
      <trkpt lat="59.339248" lon="18.082623">
        <ele>5</ele>
        <time>2019-11-16T08:24:22Z</time>
      </trkpt>
      <trkpt lat="59.339173" lon="18.082569">
        <ele>2</ele>
        <time>2019-11-16T08:24:24Z</time>
      </trkpt>
      <trkpt lat="59.339111" lon="18.082505">
        <ele>1</ele>
        <time>2019-11-16T08:24:25Z</time>
      </trkpt>
      <trkpt lat="59.339041" lon="18.082448">
        <ele>0</ele>
        <time>2019-11-16T08:24:26Z</time>
      </trkpt>
      <trkpt lat="59.338962" lon="18.082396">
        <ele>2</ele>
        <time>2019-11-16T08:24:27Z</time>
      </trkpt>
      <trkpt lat="59.338885" lon="18.082348">
        <ele>2</ele>
        <time>2019-11-16T08:24:28Z</time>
      </trkpt>
      <trkpt lat="59.338811" lon="18.082306">
        <ele>0</ele>
        <time>2019-11-16T08:24:28Z</time>
      </trkpt>
      <trkpt lat="59.338737" lon="18.082268">
        <ele>2</ele>
        <time>2019-11-16T08:24:29Z</time>
      </trkpt>
      <trkpt lat="59.338662" lon="18.082234">
        <ele>3</ele>
        <time>2019-11-16T08:24:31Z</time>
      </trkpt>
      <trkpt lat="59.338591" lon="18.082189">
        <ele>4</ele>
        <time>2019-11-16T08:24:32Z</time>
      </trkpt>
      <trkpt lat="59.338524" lon="18.082147">
        <ele>5</ele>
        <time>2019-11-16T08:24:33Z</time>
      </trkpt>
      <trkpt lat="59.338459" lon="18.082102">
        <ele>6</ele>
        <time>2019-11-16T08:24:34Z</time>
      </trkpt>
      <trkpt lat="59.338396" lon="18.082057">
        <ele>0</ele>
        <time>2019-11-16T08:24:34Z</time>
      </trkpt>
      <trkpt lat="59.338334" lon="18.082008">
        <ele>6</ele>
        <time>2019-11-16T08:24:35Z</time>
      </trkpt>
      <trkpt lat="59.33827" lon="18.081932">
        <ele>7</ele>
        <time>2019-11-16T08:24:36Z</time>
      </trkpt>
      <trkpt lat="59.338207" lon="18.08188">
        <ele>9</ele>
        <time>2019-11-16T08:24:38Z</time>
      </trkpt>
      <trkpt lat="59.338144" lon="18.081822">
        <ele>9</ele>
        <time>2019-11-16T08:24:39Z</time>
      </trkpt>
      <trkpt lat="59.338077" lon="18.08176">
        <ele>10</ele>
        <time>2019-11-16T08:24:40Z</time>
      </trkpt>
      <trkpt lat="59.33801" lon="18.081711">
        <ele>11</ele>
        <time>2019-11-16T08:24:41Z</time>
      </trkpt>
      <trkpt lat="59.337936" lon="18.081653">
        <ele>0</ele>
        <time>2019-11-16T08:24:41Z</time>
      </trkpt>
      <trkpt lat="59.337863" lon="18.081588">
        <ele>11</ele>
        <time>2019-11-16T08:24:42Z</time>
      </trkpt>
      <trkpt lat="59.337793" lon="18.081527">
        <ele>13</ele>
        <time>2019-11-16T08:24:44Z</time>
      </trkpt>
      <trkpt lat="59.337728" lon="18.081472">
        <ele>13</ele>
        <time>2019-11-16T08:24:45Z</time>
      </trkpt>
      <trkpt lat="59.337665" lon="18.081426">
        <ele>14</ele>
        <time>2019-11-16T08:24:46Z</time>
      </trkpt>
      <trkpt lat="59.337609" lon="18.081374">
        <ele>14</ele>
        <time>2019-11-16T08:24:47Z</time>
      </trkpt>
      <trkpt lat="59.337553" lon="18.08133">
        <ele>15</ele>
        <time>2019-11-16T08:24:48Z</time>
      </trkpt>
      <trkpt lat="59.337498" lon="18.08129">
        <ele>15</ele>
        <time>2019-11-16T08:24:49Z</time>
      </trkpt>
      <trkpt lat="59.337396" lon="18.081224">
        <ele>0</ele>
        <time>2019-11-16T08:24:50Z</time>
      </trkpt>
      <trkpt lat="59.337349" lon="18.081188">
        <ele>15</ele>
        <time>2019-11-16T08:24:51Z</time>
      </trkpt>
      <trkpt lat="59.3373" lon="18.081157">
        <ele>15</ele>
        <time>2019-11-16T08:24:53Z</time>
      </trkpt>
      <trkpt lat="59.337262" lon="18.081127">
        <ele>16</ele>
        <time>2019-11-16T08:24:54Z</time>
      </trkpt>
      <trkpt lat="59.337193" lon="18.081103">
        <ele>16</ele>
        <time>2019-11-16T08:24:58Z</time>
      </trkpt>
      <trkpt lat="59.337159" lon="18.081101">
        <ele>16</ele>
        <time>2019-11-16T08:25:00Z</time>
      </trkpt>
      <trkpt lat="59.337134" lon="18.081103">
        <ele>16</ele>
        <time>2019-11-16T08:25:02Z</time>
      </trkpt>
      <trkpt lat="59.337117" lon="18.08108">
        <ele>17</ele>
        <time>2019-11-16T08:25:04Z</time>
      </trkpt>
      <trkpt lat="59.337102" lon="18.08104">
        <ele>18</ele>
        <time>2019-11-16T08:25:06Z</time>
      </trkpt>
      <trkpt lat="59.337076" lon="18.081005">
        <ele>20</ele>
        <time>2019-11-16T08:25:08Z</time>
      </trkpt>
      <trkpt lat="59.33706" lon="18.080963">
        <ele>20</ele>
        <time>2019-11-16T08:25:09Z</time>
      </trkpt>
      <trkpt lat="59.337047" lon="18.080908">
        <ele>0</ele>
        <time>2019-11-16T08:25:09Z</time>
      </trkpt>
      <trkpt lat="59.337028" lon="18.080863">
        <ele>19</ele>
        <time>2019-11-16T08:25:10Z</time>
      </trkpt>
      <trkpt lat="59.336999" lon="18.080831">
        <ele>18</ele>
        <time>2019-11-16T08:25:12Z</time>
      </trkpt>
      <trkpt lat="59.336971" lon="18.080809">
        <ele>18</ele>
        <time>2019-11-16T08:25:13Z</time>
      </trkpt>
      <trkpt lat="59.336942" lon="18.080786">
        <ele>0</ele>
        <time>2019-11-16T08:25:13Z</time>
      </trkpt>
      <trkpt lat="59.336908" lon="18.080762">
        <ele>19</ele>
        <time>2019-11-16T08:25:14Z</time>
      </trkpt>
      <trkpt lat="59.336867" lon="18.08074">
        <ele>19</ele>
        <time>2019-11-16T08:25:16Z</time>
      </trkpt>
      <trkpt lat="59.336823" lon="18.080717">
        <ele>19</ele>
        <time>2019-11-16T08:25:17Z</time>
      </trkpt>
      <trkpt lat="59.336773" lon="18.080679">
        <ele>19</ele>
        <time>2019-11-16T08:25:18Z</time>
      </trkpt>
      <trkpt lat="59.336721" lon="18.080649">
        <ele>19</ele>
        <time>2019-11-16T08:25:19Z</time>
      </trkpt>
      <trkpt lat="59.336666" lon="18.080604">
        <ele>19</ele>
        <time>2019-11-16T08:25:20Z</time>
      </trkpt>
      <trkpt lat="59.3366" lon="18.080563">
        <ele>19</ele>
        <time>2019-11-16T08:25:21Z</time>
      </trkpt>
      <trkpt lat="59.336537" lon="18.080514">
        <ele>0</ele>
        <time>2019-11-16T08:25:21Z</time>
      </trkpt>
      <trkpt lat="59.336475" lon="18.080434">
        <ele>19</ele>
        <time>2019-11-16T08:25:22Z</time>
      </trkpt>
      <trkpt lat="59.336419" lon="18.080368">
        <ele>19</ele>
        <time>2019-11-16T08:25:24Z</time>
      </trkpt>
      <trkpt lat="59.336358" lon="18.080303">
        <ele>19</ele>
        <time>2019-11-16T08:25:25Z</time>
      </trkpt>
      <trkpt lat="59.33629" lon="18.080237">
        <ele>19</ele>
        <time>2019-11-16T08:25:26Z</time>
      </trkpt>
      <trkpt lat="59.336219" lon="18.080185">
        <ele>19</ele>
        <time>2019-11-16T08:25:27Z</time>
      </trkpt>
      <trkpt lat="59.33615" lon="18.080116">
        <ele>19</ele>
        <time>2019-11-16T08:25:28Z</time>
      </trkpt>
      <trkpt lat="59.336079" lon="18.080048">
        <ele>0</ele>
        <time>2019-11-16T08:25:28Z</time>
      </trkpt>
      <trkpt lat="59.336014" lon="18.079993">
        <ele>19</ele>
        <time>2019-11-16T08:25:29Z</time>
      </trkpt>
      <trkpt lat="59.335954" lon="18.079943">
        <ele>20</ele>
        <time>2019-11-16T08:25:31Z</time>
      </trkpt>
      <trkpt lat="59.335889" lon="18.079899">
        <ele>20</ele>
        <time>2019-11-16T08:25:32Z</time>
      </trkpt>
      <trkpt lat="59.335823" lon="18.079852">
        <ele>0</ele>
        <time>2019-11-16T08:25:32Z</time>
      </trkpt>
      <trkpt lat="59.335759" lon="18.07981">
        <ele>21</ele>
        <time>2019-11-16T08:25:33Z</time>
      </trkpt>
      <trkpt lat="59.335696" lon="18.079749">
        <ele>21</ele>
        <time>2019-11-16T08:25:35Z</time>
      </trkpt>
      <trkpt lat="59.335631" lon="18.079692">
        <ele>0</ele>
        <time>2019-11-16T08:25:35Z</time>
      </trkpt>
      <trkpt lat="59.335563" lon="18.079636">
        <ele>21</ele>
        <time>2019-11-16T08:25:36Z</time>
      </trkpt>
      <trkpt lat="59.335497" lon="18.07958">
        <ele>20</ele>
        <time>2019-11-16T08:25:38Z</time>
      </trkpt>
      <trkpt lat="59.335426" lon="18.07953">
        <ele>20</ele>
        <time>2019-11-16T08:25:39Z</time>
      </trkpt>
      <trkpt lat="59.335357" lon="18.079479">
        <ele>20</ele>
        <time>2019-11-16T08:25:40Z</time>
      </trkpt>
      <trkpt lat="59.335282" lon="18.079427">
        <ele>20</ele>
        <time>2019-11-16T08:25:41Z</time>
      </trkpt>
      <trkpt lat="59.335209" lon="18.079377">
        <ele>0</ele>
        <time>2019-11-16T08:25:41Z</time>
      </trkpt>
      <trkpt lat="59.335134" lon="18.079318">
        <ele>19</ele>
        <time>2019-11-16T08:25:42Z</time>
      </trkpt>
      <trkpt lat="59.335062" lon="18.079246">
        <ele>19</ele>
        <time>2019-11-16T08:25:44Z</time>
      </trkpt>
      <trkpt lat="59.33499" lon="18.07917">
        <ele>18</ele>
        <time>2019-11-16T08:25:45Z</time>
      </trkpt>
      <trkpt lat="59.334913" lon="18.079091">
        <ele>18</ele>
        <time>2019-11-16T08:25:46Z</time>
      </trkpt>
      <trkpt lat="59.334834" lon="18.079015">
        <ele>18</ele>
        <time>2019-11-16T08:25:47Z</time>
      </trkpt>
      <trkpt lat="59.334745" lon="18.078941">
        <ele>0</ele>
        <time>2019-11-16T08:25:47Z</time>
      </trkpt>
      <trkpt lat="59.334653" lon="18.078869">
        <ele>17</ele>
        <time>2019-11-16T08:25:48Z</time>
      </trkpt>
      <trkpt lat="59.334546" lon="18.0788">
        <ele>16</ele>
        <time>2019-11-16T08:25:50Z</time>
      </trkpt>
      <trkpt lat="59.334462" lon="18.078737">
        <ele>16</ele>
        <time>2019-11-16T08:25:51Z</time>
      </trkpt>
      <trkpt lat="59.334382" lon="18.078677">
        <ele>0</ele>
        <time>2019-11-16T08:25:51Z</time>
      </trkpt>
      <trkpt lat="59.334313" lon="18.078624">
        <ele>16</ele>
        <time>2019-11-16T08:25:52Z</time>
      </trkpt>
      <trkpt lat="59.334174" lon="18.078529">
        <ele>0</ele>
        <time>2019-11-16T08:25:54Z</time>
      </trkpt>
      <trkpt lat="59.334062" lon="18.078426">
        <ele>16</ele>
        <time>2019-11-16T08:25:57Z</time>
      </trkpt>
      <trkpt lat="59.333919" lon="18.078335">
        <ele>16</ele>
        <time>2019-11-16T08:25:59Z</time>
      </trkpt>
      <trkpt lat="59.333789" lon="18.078229">
        <ele>15</ele>
        <time>2019-11-16T08:26:00Z</time>
      </trkpt>
      <trkpt lat="59.333651" lon="18.078102">
        <ele>15</ele>
        <time>2019-11-16T08:26:03Z</time>
      </trkpt>
      <trkpt lat="59.333498" lon="18.077973">
        <ele>15</ele>
        <time>2019-11-16T08:26:05Z</time>
      </trkpt>
      <trkpt lat="59.333364" lon="18.077816">
        <ele>0</ele>
        <time>2019-11-16T08:26:06Z</time>
      </trkpt>
      <trkpt lat="59.333267" lon="18.077757">
        <ele>14</ele>
        <time>2019-11-16T08:26:07Z</time>
      </trkpt>
      <trkpt lat="59.333181" lon="18.077697">
        <ele>13</ele>
        <time>2019-11-16T08:26:09Z</time>
      </trkpt>
      <trkpt lat="59.333025" lon="18.077539">
        <ele>0</ele>
        <time>2019-11-16T08:26:10Z</time>
      </trkpt>
      <trkpt lat="59.332887" lon="18.0774">
        <ele>0</ele>
        <time>2019-11-16T08:26:12Z</time>
      </trkpt>
      <trkpt lat="59.332776" lon="18.077311">
        <ele>10</ele>
        <time>2019-11-16T08:26:15Z</time>
      </trkpt>
      <trkpt lat="59.332756" lon="18.077249">
        <ele>10</ele>
        <time>2019-11-16T08:26:16Z</time>
      </trkpt>
      <trkpt lat="59.332744" lon="18.077185">
        <ele>9</ele>
        <time>2019-11-16T08:26:17Z</time>
      </trkpt>
      <trkpt lat="59.332725" lon="18.07714">
        <ele>8</ele>
        <time>2019-11-16T08:26:18Z</time>
      </trkpt>
      <trkpt lat="59.332729" lon="18.077088">
        <ele>8</ele>
        <time>2019-11-16T08:26:19Z</time>
      </trkpt>
      <trkpt lat="59.332743" lon="18.077032">
        <ele>8</ele>
        <time>2019-11-16T08:26:20Z</time>
      </trkpt>
      <trkpt lat="59.332761" lon="18.076974">
        <ele>7</ele>
        <time>2019-11-16T08:26:21Z</time>
      </trkpt>
      <trkpt lat="59.332777" lon="18.076914">
        <ele>7</ele>
        <time>2019-11-16T08:26:22Z</time>
      </trkpt>
      <trkpt lat="59.332794" lon="18.07685">
        <ele>7</ele>
        <time>2019-11-16T08:26:23Z</time>
      </trkpt>
      <trkpt lat="59.332813" lon="18.076786">
        <ele>7</ele>
        <time>2019-11-16T08:26:24Z</time>
      </trkpt>
      <trkpt lat="59.332835" lon="18.076715">
        <ele>0</ele>
        <time>2019-11-16T08:26:24Z</time>
      </trkpt>
      <trkpt lat="59.332859" lon="18.076638">
        <ele>7</ele>
        <time>2019-11-16T08:26:25Z</time>
      </trkpt>
      <trkpt lat="59.332884" lon="18.07656">
        <ele>6</ele>
        <time>2019-11-16T08:26:27Z</time>
      </trkpt>
      <trkpt lat="59.332911" lon="18.076485">
        <ele>6</ele>
        <time>2019-11-16T08:26:28Z</time>
      </trkpt>
      <trkpt lat="59.332941" lon="18.07641">
        <ele>6</ele>
        <time>2019-11-16T08:26:29Z</time>
      </trkpt>
      <trkpt lat="59.332969" lon="18.076337">
        <ele>0</ele>
        <time>2019-11-16T08:26:29Z</time>
      </trkpt>
      <trkpt lat="59.332991" lon="18.076264">
        <ele>6</ele>
        <time>2019-11-16T08:26:30Z</time>
      </trkpt>
      <trkpt lat="59.333001" lon="18.076192">
        <ele>6</ele>
        <time>2019-11-16T08:26:32Z</time>
      </trkpt>
      <trkpt lat="59.332992" lon="18.076128">
        <ele>6</ele>
        <time>2019-11-16T08:26:33Z</time>
      </trkpt>
      <trkpt lat="59.332971" lon="18.076083">
        <ele>6</ele>
        <time>2019-11-16T08:26:34Z</time>
      </trkpt>
      <trkpt lat="59.332946" lon="18.076058">
        <ele>5</ele>
        <time>2019-11-16T08:26:35Z</time>
      </trkpt>
      <trkpt lat="59.332919" lon="18.076032">
        <ele>4</ele>
        <time>2019-11-16T08:26:36Z</time>
      </trkpt>
      <trkpt lat="59.33288" lon="18.076004">
        <ele>0</ele>
        <time>2019-11-16T08:26:36Z</time>
      </trkpt>
      <trkpt lat="59.332833" lon="18.075967">
        <ele>4</ele>
        <time>2019-11-16T08:26:37Z</time>
      </trkpt>
      <trkpt lat="59.332784" lon="18.075928">
        <ele>4</ele>
        <time>2019-11-16T08:26:39Z</time>
      </trkpt>
      <trkpt lat="59.332741" lon="18.075881">
        <ele>4</ele>
        <time>2019-11-16T08:26:40Z</time>
      </trkpt>
      <trkpt lat="59.332701" lon="18.075832">
        <ele>4</ele>
        <time>2019-11-16T08:26:41Z</time>
      </trkpt>
      <trkpt lat="59.332665" lon="18.075777">
        <ele>5</ele>
        <time>2019-11-16T08:26:42Z</time>
      </trkpt>
      <trkpt lat="59.332635" lon="18.07571">
        <ele>5</ele>
        <time>2019-11-16T08:26:43Z</time>
      </trkpt>
      <trkpt lat="59.332612" lon="18.075628">
        <ele>5</ele>
        <time>2019-11-16T08:26:44Z</time>
      </trkpt>
      <trkpt lat="59.332589" lon="18.075544">
        <ele>5</ele>
        <time>2019-11-16T08:26:45Z</time>
      </trkpt>
      <trkpt lat="59.332572" lon="18.075462">
        <ele>5</ele>
        <time>2019-11-16T08:26:46Z</time>
      </trkpt>
      <trkpt lat="59.332555" lon="18.07539">
        <ele>5</ele>
        <time>2019-11-16T08:26:47Z</time>
      </trkpt>
      <trkpt lat="59.332533" lon="18.075336">
        <ele>0</ele>
        <time>2019-11-16T08:26:47Z</time>
      </trkpt>
      <trkpt lat="59.332507" lon="18.075305">
        <ele>5</ele>
        <time>2019-11-16T08:26:48Z</time>
      </trkpt>
      <trkpt lat="59.332472" lon="18.075292">
        <ele>5</ele>
        <time>2019-11-16T08:26:49Z</time>
      </trkpt>
      <trkpt lat="59.332427" lon="18.07528">
        <ele>5</ele>
        <time>2019-11-16T08:26:51Z</time>
      </trkpt>
      <trkpt lat="59.332383" lon="18.075248">
        <ele>4</ele>
        <time>2019-11-16T08:26:52Z</time>
      </trkpt>
      <trkpt lat="59.332341" lon="18.075191">
        <ele>4</ele>
        <time>2019-11-16T08:26:53Z</time>
      </trkpt>
      <trkpt lat="59.332302" lon="18.075122">
        <ele>4</ele>
        <time>2019-11-16T08:26:54Z</time>
      </trkpt>
      <trkpt lat="59.332255" lon="18.07505">
        <ele>4</ele>
        <time>2019-11-16T08:26:55Z</time>
      </trkpt>
      <trkpt lat="59.332211" lon="18.074981">
        <ele>4</ele>
        <time>2019-11-16T08:26:56Z</time>
      </trkpt>
      <trkpt lat="59.332166" lon="18.074919">
        <ele>5</ele>
        <time>2019-11-16T08:26:57Z</time>
      </trkpt>
      <trkpt lat="59.332122" lon="18.074863">
        <ele>5</ele>
        <time>2019-11-16T08:26:58Z</time>
      </trkpt>
      <trkpt lat="59.332074" lon="18.074807">
        <ele>0</ele>
        <time>2019-11-16T08:26:58Z</time>
      </trkpt>
      <trkpt lat="59.33203" lon="18.074746">
        <ele>5</ele>
        <time>2019-11-16T08:26:59Z</time>
      </trkpt>
      <trkpt lat="59.331985" lon="18.074692">
        <ele>5</ele>
        <time>2019-11-16T08:27:01Z</time>
      </trkpt>
      <trkpt lat="59.331938" lon="18.074635">
        <ele>5</ele>
        <time>2019-11-16T08:27:02Z</time>
      </trkpt>
      <trkpt lat="59.33189" lon="18.074578">
        <ele>6</ele>
        <time>2019-11-16T08:27:03Z</time>
      </trkpt>
      <trkpt lat="59.331841" lon="18.074526">
        <ele>6</ele>
        <time>2019-11-16T08:27:04Z</time>
      </trkpt>
      <trkpt lat="59.331789" lon="18.07448">
        <ele>6</ele>
        <time>2019-11-16T08:27:05Z</time>
      </trkpt>
      <trkpt lat="59.331727" lon="18.07443">
        <ele>6</ele>
        <time>2019-11-16T08:27:06Z</time>
      </trkpt>
      <trkpt lat="59.331671" lon="18.074374">
        <ele>0</ele>
        <time>2019-11-16T08:27:06Z</time>
      </trkpt>
      <trkpt lat="59.331619" lon="18.074312">
        <ele>6</ele>
        <time>2019-11-16T08:27:07Z</time>
      </trkpt>
      <trkpt lat="59.331552" lon="18.074119">
        <ele>7</ele>
        <time>2019-11-16T08:27:09Z</time>
      </trkpt>
      <trkpt lat="59.331532" lon="18.073987">
        <ele>7</ele>
        <time>2019-11-16T08:27:11Z</time>
      </trkpt>
      <trkpt lat="59.331518" lon="18.073838">
        <ele>8</ele>
        <time>2019-11-16T08:27:12Z</time>
      </trkpt>
      <trkpt lat="59.331503" lon="18.0737">
        <ele>8</ele>
        <time>2019-11-16T08:27:13Z</time>
      </trkpt>
      <trkpt lat="59.331491" lon="18.073567">
        <ele>8</ele>
        <time>2019-11-16T08:27:14Z</time>
      </trkpt>
      <trkpt lat="59.33147" lon="18.073445">
        <ele>0</ele>
        <time>2019-11-16T08:27:14Z</time>
      </trkpt>
      <trkpt lat="59.331455" lon="18.073322">
        <ele>8</ele>
        <time>2019-11-16T08:27:15Z</time>
      </trkpt>
      <trkpt lat="59.331438" lon="18.073201">
        <ele>9</ele>
        <time>2019-11-16T08:27:17Z</time>
      </trkpt>
      <trkpt lat="59.331422" lon="18.073083">
        <ele>9</ele>
        <time>2019-11-16T08:27:18Z</time>
      </trkpt>
      <trkpt lat="59.331404" lon="18.07297">
        <ele>9</ele>
        <time>2019-11-16T08:27:19Z</time>
      </trkpt>
      <trkpt lat="59.331389" lon="18.072864">
        <ele>9</ele>
        <time>2019-11-16T08:27:20Z</time>
      </trkpt>
      <trkpt lat="59.331373" lon="18.07277">
        <ele>9</ele>
        <time>2019-11-16T08:27:21Z</time>
      </trkpt>
      <trkpt lat="59.33136" lon="18.072692">
        <ele>9</ele>
        <time>2019-11-16T08:27:22Z</time>
      </trkpt>
      <trkpt lat="59.331343" lon="18.072633">
        <ele>9</ele>
        <time>2019-11-16T08:27:23Z</time>
      </trkpt>
      <trkpt lat="59.331329" lon="18.072588">
        <ele>0</ele>
        <time>2019-11-16T08:27:23Z</time>
      </trkpt>
      <trkpt lat="59.331309" lon="18.072552">
        <ele>9</ele>
        <time>2019-11-16T08:27:24Z</time>
      </trkpt>
      <trkpt lat="59.331283" lon="18.072529">
        <ele>8</ele>
        <time>2019-11-16T08:27:26Z</time>
      </trkpt>
      <trkpt lat="59.331247" lon="18.072513">
        <ele>0</ele>
        <time>2019-11-16T08:27:26Z</time>
      </trkpt>
      <trkpt lat="59.331205" lon="18.072512">
        <ele>8</ele>
        <time>2019-11-16T08:27:27Z</time>
      </trkpt>
      <trkpt lat="59.331164" lon="18.07252">
        <ele>8</ele>
        <time>2019-11-16T08:27:29Z</time>
      </trkpt>
      <trkpt lat="59.33112" lon="18.072533">
        <ele>8</ele>
        <time>2019-11-16T08:27:30Z</time>
      </trkpt>
      <trkpt lat="59.331078" lon="18.072552">
        <ele>9</ele>
        <time>2019-11-16T08:27:31Z</time>
      </trkpt>
      <trkpt lat="59.331026" lon="18.072585">
        <ele>9</ele>
        <time>2019-11-16T08:27:32Z</time>
      </trkpt>
      <trkpt lat="59.33097" lon="18.07262">
        <ele>9</ele>
        <time>2019-11-16T08:27:33Z</time>
      </trkpt>
      <trkpt lat="59.330912" lon="18.072651">
        <ele>9</ele>
        <time>2019-11-16T08:27:34Z</time>
      </trkpt>
      <trkpt lat="59.330854" lon="18.072681">
        <ele>0</ele>
        <time>2019-11-16T08:27:34Z</time>
      </trkpt>
      <trkpt lat="59.330795" lon="18.072713">
        <ele>9</ele>
        <time>2019-11-16T08:27:35Z</time>
      </trkpt>
      <trkpt lat="59.330735" lon="18.072746">
        <ele>10</ele>
        <time>2019-11-16T08:27:37Z</time>
      </trkpt>
      <trkpt lat="59.330616" lon="18.072824">
        <ele>9</ele>
        <time>2019-11-16T08:27:39Z</time>
      </trkpt>
      <trkpt lat="59.330558" lon="18.072867">
        <ele>9</ele>
        <time>2019-11-16T08:27:40Z</time>
      </trkpt>
      <trkpt lat="59.330505" lon="18.072898">
        <ele>9</ele>
        <time>2019-11-16T08:27:41Z</time>
      </trkpt>
      <trkpt lat="59.330451" lon="18.072923">
        <ele>10</ele>
        <time>2019-11-16T08:27:42Z</time>
      </trkpt>
      <trkpt lat="59.330397" lon="18.072944">
        <ele>10</ele>
        <time>2019-11-16T08:27:43Z</time>
      </trkpt>
      <trkpt lat="59.330342" lon="18.072962">
        <ele>0</ele>
        <time>2019-11-16T08:27:43Z</time>
      </trkpt>
      <trkpt lat="59.330286" lon="18.072984">
        <ele>10</ele>
        <time>2019-11-16T08:27:44Z</time>
      </trkpt>
      <trkpt lat="59.330228" lon="18.073003">
        <ele>0</ele>
        <time>2019-11-16T08:27:45Z</time>
      </trkpt>
      <trkpt lat="59.330108" lon="18.07306">
        <ele>11</ele>
        <time>2019-11-16T08:27:48Z</time>
      </trkpt>
      <trkpt lat="59.329996" lon="18.073105">
        <ele>12</ele>
        <time>2019-11-16T08:27:50Z</time>
      </trkpt>
      <trkpt lat="59.32989" lon="18.073144">
        <ele>0</ele>
        <time>2019-11-16T08:27:51Z</time>
      </trkpt>
      <trkpt lat="59.329803" lon="18.07319">
        <ele>13</ele>
        <time>2019-11-16T08:27:54Z</time>
      </trkpt>
      <trkpt lat="59.329702" lon="18.073213">
        <ele>12</ele>
        <time>2019-11-16T08:27:57Z</time>
      </trkpt>
      <trkpt lat="59.329669" lon="18.073197">
        <ele>12</ele>
        <time>2019-11-16T08:27:58Z</time>
      </trkpt>
      <trkpt lat="59.329631" lon="18.073189">
        <ele>12</ele>
        <time>2019-11-16T08:27:59Z</time>
      </trkpt>
      <trkpt lat="59.329585" lon="18.073172">
        <ele>12</ele>
        <time>2019-11-16T08:28:00Z</time>
      </trkpt>
      <trkpt lat="59.329476" lon="18.07315">
        <ele>10</ele>
        <time>2019-11-16T08:28:02Z</time>
      </trkpt>
      <trkpt lat="59.329416" lon="18.073145">
        <ele>10</ele>
        <time>2019-11-16T08:28:03Z</time>
      </trkpt>
      <trkpt lat="59.329358" lon="18.07314">
        <ele>0</ele>
        <time>2019-11-16T08:28:03Z</time>
      </trkpt>
      <trkpt lat="59.329297" lon="18.073131">
        <ele>9</ele>
        <time>2019-11-16T08:28:04Z</time>
      </trkpt>
      <trkpt lat="59.329238" lon="18.073119">
        <ele>9</ele>
        <time>2019-11-16T08:28:05Z</time>
      </trkpt>
      <trkpt lat="59.329184" lon="18.0731">
        <ele>8</ele>
        <time>2019-11-16T08:28:07Z</time>
      </trkpt>
      <trkpt lat="59.329128" lon="18.073082">
        <ele>7</ele>
        <time>2019-11-16T08:28:08Z</time>
      </trkpt>
      <trkpt lat="59.329074" lon="18.073068">
        <ele>7</ele>
        <time>2019-11-16T08:28:09Z</time>
      </trkpt>
      <trkpt lat="59.329019" lon="18.073056">
        <ele>7</ele>
        <time>2019-11-16T08:28:10Z</time>
      </trkpt>
      <trkpt lat="59.328963" lon="18.073043">
        <ele>7</ele>
        <time>2019-11-16T08:28:11Z</time>
      </trkpt>
      <trkpt lat="59.328906" lon="18.073028">
        <ele>7</ele>
        <time>2019-11-16T08:28:12Z</time>
      </trkpt>
      <trkpt lat="59.32885" lon="18.073013">
        <ele>0</ele>
        <time>2019-11-16T08:28:12Z</time>
      </trkpt>
      <trkpt lat="59.328795" lon="18.073">
        <ele>7</ele>
        <time>2019-11-16T08:28:13Z</time>
      </trkpt>
      <trkpt lat="59.328739" lon="18.072987">
        <ele>6</ele>
        <time>2019-11-16T08:28:15Z</time>
      </trkpt>
      <trkpt lat="59.328684" lon="18.072974">
        <ele>6</ele>
        <time>2019-11-16T08:28:16Z</time>
      </trkpt>
      <trkpt lat="59.328628" lon="18.072962">
        <ele>6</ele>
        <time>2019-11-16T08:28:17Z</time>
      </trkpt>
      <trkpt lat="59.328571" lon="18.072948">
        <ele>6</ele>
        <time>2019-11-16T08:28:18Z</time>
      </trkpt>
      <trkpt lat="59.328512" lon="18.072936">
        <ele>6</ele>
        <time>2019-11-16T08:28:19Z</time>
      </trkpt>
      <trkpt lat="59.328453" lon="18.072924">
        <ele>5</ele>
        <time>2019-11-16T08:28:20Z</time>
      </trkpt>
      <trkpt lat="59.328393" lon="18.072913">
        <ele>0</ele>
        <time>2019-11-16T08:28:20Z</time>
      </trkpt>
      <trkpt lat="59.328332" lon="18.072902">
        <ele>5</ele>
        <time>2019-11-16T08:28:21Z</time>
      </trkpt>
      <trkpt lat="59.32827" lon="18.072888">
        <ele>5</ele>
        <time>2019-11-16T08:28:23Z</time>
      </trkpt>
      <trkpt lat="59.328206" lon="18.072876">
        <ele>0</ele>
        <time>2019-11-16T08:28:23Z</time>
      </trkpt>
      <trkpt lat="59.328146" lon="18.072863">
        <ele>4</ele>
        <time>2019-11-16T08:28:24Z</time>
      </trkpt>
      <trkpt lat="59.328085" lon="18.072849">
        <ele>4</ele>
        <time>2019-11-16T08:28:26Z</time>
      </trkpt>
      <trkpt lat="59.328023" lon="18.072837">
        <ele>4</ele>
        <time>2019-11-16T08:28:27Z</time>
      </trkpt>
      <trkpt lat="59.327961" lon="18.072833">
        <ele>4</ele>
        <time>2019-11-16T08:28:28Z</time>
      </trkpt>
      <trkpt lat="59.327902" lon="18.07284">
        <ele>0</ele>
        <time>2019-11-16T08:28:28Z</time>
      </trkpt>
      <trkpt lat="59.327844" lon="18.07286">
        <ele>4</ele>
        <time>2019-11-16T08:28:29Z</time>
      </trkpt>
      <trkpt lat="59.327789" lon="18.072894">
        <ele>3</ele>
        <time>2019-11-16T08:28:31Z</time>
      </trkpt>
      <trkpt lat="59.327735" lon="18.072939">
        <ele>3</ele>
        <time>2019-11-16T08:28:32Z</time>
      </trkpt>
      <trkpt lat="59.327684" lon="18.072994">
        <ele>3</ele>
        <time>2019-11-16T08:28:33Z</time>
      </trkpt>
      <trkpt lat="59.327634" lon="18.073053">
        <ele>3</ele>
        <time>2019-11-16T08:28:34Z</time>
      </trkpt>
      <trkpt lat="59.327585" lon="18.073112">
        <ele>3</ele>
        <time>2019-11-16T08:28:35Z</time>
      </trkpt>
      <trkpt lat="59.327536" lon="18.073172">
        <ele>3</ele>
        <time>2019-11-16T08:28:36Z</time>
      </trkpt>
      <trkpt lat="59.327487" lon="18.073232">
        <ele>3</ele>
        <time>2019-11-16T08:28:37Z</time>
      </trkpt>
      <trkpt lat="59.327439" lon="18.073291">
        <ele>0</ele>
        <time>2019-11-16T08:28:37Z</time>
      </trkpt>
      <trkpt lat="59.32739" lon="18.07335">
        <ele>3</ele>
        <time>2019-11-16T08:28:38Z</time>
      </trkpt>
      <trkpt lat="59.327342" lon="18.073409">
        <ele>3</ele>
        <time>2019-11-16T08:28:40Z</time>
      </trkpt>
      <trkpt lat="59.327293" lon="18.073468">
        <ele>3</ele>
        <time>2019-11-16T08:28:41Z</time>
      </trkpt>
      <trkpt lat="59.327245" lon="18.073525">
        <ele>3</ele>
        <time>2019-11-16T08:28:42Z</time>
      </trkpt>
      <trkpt lat="59.327197" lon="18.073583">
        <ele>0</ele>
        <time>2019-11-16T08:28:42Z</time>
      </trkpt>
      <trkpt lat="59.32715" lon="18.073642">
        <ele>3</ele>
        <time>2019-11-16T08:28:43Z</time>
      </trkpt>
      <trkpt lat="59.327101" lon="18.073701">
        <ele>3</ele>
        <time>2019-11-16T08:28:45Z</time>
      </trkpt>
      <trkpt lat="59.327053" lon="18.07376">
        <ele>3</ele>
        <time>2019-11-16T08:28:46Z</time>
      </trkpt>
      <trkpt lat="59.327005" lon="18.073819">
        <ele>0</ele>
        <time>2019-11-16T08:28:46Z</time>
      </trkpt>
      <trkpt lat="59.326957" lon="18.073879">
        <ele>4</ele>
        <time>2019-11-16T08:28:47Z</time>
      </trkpt>
      <trkpt lat="59.326909" lon="18.07394">
        <ele>4</ele>
        <time>2019-11-16T08:28:49Z</time>
      </trkpt>
      <trkpt lat="59.326859" lon="18.074003">
        <ele>4</ele>
        <time>2019-11-16T08:28:50Z</time>
      </trkpt>
      <trkpt lat="59.326807" lon="18.074067">
        <ele>4</ele>
        <time>2019-11-16T08:28:51Z</time>
      </trkpt>
      <trkpt lat="59.326754" lon="18.074129">
        <ele>4</ele>
        <time>2019-11-16T08:28:52Z</time>
      </trkpt>
      <trkpt lat="59.326702" lon="18.074192">
        <ele>4</ele>
        <time>2019-11-16T08:28:53Z</time>
      </trkpt>
      <trkpt lat="59.326652" lon="18.074255">
        <ele>4</ele>
        <time>2019-11-16T08:28:54Z</time>
      </trkpt>
      <trkpt lat="59.326602" lon="18.074317">
        <ele>0</ele>
        <time>2019-11-16T08:28:54Z</time>
      </trkpt>
      <trkpt lat="59.326553" lon="18.07438">
        <ele>4</ele>
        <time>2019-11-16T08:28:55Z</time>
      </trkpt>
      <trkpt lat="59.326503" lon="18.074443">
        <ele>4</ele>
        <time>2019-11-16T08:28:57Z</time>
      </trkpt>
      <trkpt lat="59.326453" lon="18.074506">
        <ele>4</ele>
        <time>2019-11-16T08:28:58Z</time>
      </trkpt>
      <trkpt lat="59.326402" lon="18.074571">
        <ele>4</ele>
        <time>2019-11-16T08:28:59Z</time>
      </trkpt>
      <trkpt lat="59.326351" lon="18.074638">
        <ele>4</ele>
        <time>2019-11-16T08:29:00Z</time>
      </trkpt>
      <trkpt lat="59.3263" lon="18.074707">
        <ele>4</ele>
        <time>2019-11-16T08:29:01Z</time>
      </trkpt>
      <trkpt lat="59.326249" lon="18.074776">
        <ele>0</ele>
        <time>2019-11-16T08:29:01Z</time>
      </trkpt>
      <trkpt lat="59.326196" lon="18.074841">
        <ele>4</ele>
        <time>2019-11-16T08:29:02Z</time>
      </trkpt>
      <trkpt lat="59.326141" lon="18.074902">
        <ele>4</ele>
        <time>2019-11-16T08:29:03Z</time>
      </trkpt>
      <trkpt lat="59.326086" lon="18.074957">
        <ele>4</ele>
        <time>2019-11-16T08:29:05Z</time>
      </trkpt>
      <trkpt lat="59.326028" lon="18.075008">
        <ele>4</ele>
        <time>2019-11-16T08:29:06Z</time>
      </trkpt>
      <trkpt lat="59.325973" lon="18.075059">
        <ele>4</ele>
        <time>2019-11-16T08:29:07Z</time>
      </trkpt>
      <trkpt lat="59.325919" lon="18.075114">
        <ele>4</ele>
        <time>2019-11-16T08:29:08Z</time>
      </trkpt>
      <trkpt lat="59.325866" lon="18.075172">
        <ele>4</ele>
        <time>2019-11-16T08:29:09Z</time>
      </trkpt>
      <trkpt lat="59.325813" lon="18.075228">
        <ele>4</ele>
        <time>2019-11-16T08:29:10Z</time>
      </trkpt>
      <trkpt lat="59.325762" lon="18.075288">
        <ele>0</ele>
        <time>2019-11-16T08:29:10Z</time>
      </trkpt>
      <trkpt lat="59.32571" lon="18.075344">
        <ele>4</ele>
        <time>2019-11-16T08:29:11Z</time>
      </trkpt>
      <trkpt lat="59.325658" lon="18.075399">
        <ele>4</ele>
        <time>2019-11-16T08:29:13Z</time>
      </trkpt>
      <trkpt lat="59.325604" lon="18.075454">
        <ele>4</ele>
        <time>2019-11-16T08:29:14Z</time>
      </trkpt>
      <trkpt lat="59.325545" lon="18.075499">
        <ele>4</ele>
        <time>2019-11-16T08:29:15Z</time>
      </trkpt>
      <trkpt lat="59.325489" lon="18.075539">
        <ele>4</ele>
        <time>2019-11-16T08:29:16Z</time>
      </trkpt>
      <trkpt lat="59.325431" lon="18.075562">
        <ele>4</ele>
        <time>2019-11-16T08:29:17Z</time>
      </trkpt>
      <trkpt lat="59.325377" lon="18.075584">
        <ele>4</ele>
        <time>2019-11-16T08:29:18Z</time>
      </trkpt>
      <trkpt lat="59.325321" lon="18.075601">
        <ele>4</ele>
        <time>2019-11-16T08:29:19Z</time>
      </trkpt>
      <trkpt lat="59.325264" lon="18.075612">
        <ele>0</ele>
        <time>2019-11-16T08:29:19Z</time>
      </trkpt>
      <trkpt lat="59.32521" lon="18.075631">
        <ele>4</ele>
        <time>2019-11-16T08:29:20Z</time>
      </trkpt>
      <trkpt lat="59.325119" lon="18.075666">
        <ele>4</ele>
        <time>2019-11-16T08:29:23Z</time>
      </trkpt>
      <trkpt lat="59.325008" lon="18.075668">
        <ele>5</ele>
        <time>2019-11-16T08:29:25Z</time>
      </trkpt>
      <trkpt lat="59.324888" lon="18.075684">
        <ele>5</ele>
        <time>2019-11-16T08:29:27Z</time>
      </trkpt>
      <trkpt lat="59.324763" lon="18.075655">
        <ele>0</ele>
        <time>2019-11-16T08:29:28Z</time>
      </trkpt>
      <trkpt lat="59.324636" lon="18.075579">
        <ele>5</ele>
        <time>2019-11-16T08:29:31Z</time>
      </trkpt>
      <trkpt lat="59.324503" lon="18.075519">
        <ele>4</ele>
        <time>2019-11-16T08:29:33Z</time>
      </trkpt>
      <trkpt lat="59.324436" lon="18.075502">
        <ele>4</ele>
        <time>2019-11-16T08:29:34Z</time>
      </trkpt>
      <trkpt lat="59.32431" lon="18.075462">
        <ele>0</ele>
        <time>2019-11-16T08:29:35Z</time>
      </trkpt>
      <trkpt lat="59.324245" lon="18.075445">
        <ele>4</ele>
        <time>2019-11-16T08:29:36Z</time>
      </trkpt>
      <trkpt lat="59.324182" lon="18.075426">
        <ele>3</ele>
        <time>2019-11-16T08:29:38Z</time>
      </trkpt>
      <trkpt lat="59.32412" lon="18.075405">
        <ele>3</ele>
        <time>2019-11-16T08:29:39Z</time>
      </trkpt>
      <trkpt lat="59.32406" lon="18.07538">
        <ele>0</ele>
        <time>2019-11-16T08:29:39Z</time>
      </trkpt>
      <trkpt lat="59.323998" lon="18.075357">
        <ele>3</ele>
        <time>2019-11-16T08:29:40Z</time>
      </trkpt>
      <trkpt lat="59.323932" lon="18.075335">
        <ele>3</ele>
        <time>2019-11-16T08:29:42Z</time>
      </trkpt>
      <trkpt lat="59.323865" lon="18.075317">
        <ele>3</ele>
        <time>2019-11-16T08:29:43Z</time>
      </trkpt>
      <trkpt lat="59.323802" lon="18.075295">
        <ele>0</ele>
        <time>2019-11-16T08:29:43Z</time>
      </trkpt>
      <trkpt lat="59.32374" lon="18.07527">
        <ele>3</ele>
        <time>2019-11-16T08:29:44Z</time>
      </trkpt>
      <trkpt lat="59.323676" lon="18.075246">
        <ele>3</ele>
        <time>2019-11-16T08:29:46Z</time>
      </trkpt>
      <trkpt lat="59.323616" lon="18.075222">
        <ele>3</ele>
        <time>2019-11-16T08:29:47Z</time>
      </trkpt>
      <trkpt lat="59.323559" lon="18.075198">
        <ele>3</ele>
        <time>2019-11-16T08:29:48Z</time>
      </trkpt>
      <trkpt lat="59.323505" lon="18.075173">
        <ele>3</ele>
        <time>2019-11-16T08:29:49Z</time>
      </trkpt>
      <trkpt lat="59.323452" lon="18.07515">
        <ele>4</ele>
        <time>2019-11-16T08:29:50Z</time>
      </trkpt>
      <trkpt lat="59.323397" lon="18.075128">
        <ele>4</ele>
        <time>2019-11-16T08:29:51Z</time>
      </trkpt>
      <trkpt lat="59.323345" lon="18.075106">
        <ele>4</ele>
        <time>2019-11-16T08:29:52Z</time>
      </trkpt>
      <trkpt lat="59.323291" lon="18.075086">
        <ele>0</ele>
        <time>2019-11-16T08:29:52Z</time>
      </trkpt>
      <trkpt lat="59.323237" lon="18.075065">
        <ele>4</ele>
        <time>2019-11-16T08:29:53Z</time>
      </trkpt>
      <trkpt lat="59.323182" lon="18.075045">
        <ele>4</ele>
        <time>2019-11-16T08:29:55Z</time>
      </trkpt>
      <trkpt lat="59.323128" lon="18.075023">
        <ele>4</ele>
        <time>2019-11-16T08:29:56Z</time>
      </trkpt>
      <trkpt lat="59.323073" lon="18.075">
        <ele>4</ele>
        <time>2019-11-16T08:29:57Z</time>
      </trkpt>
      <trkpt lat="59.323018" lon="18.074976">
        <ele>4</ele>
        <time>2019-11-16T08:29:58Z</time>
      </trkpt>
      <trkpt lat="59.322962" lon="18.074947">
        <ele>0</ele>
        <time>2019-11-16T08:29:58Z</time>
      </trkpt>
      <trkpt lat="59.322906" lon="18.074909">
        <ele>4</ele>
        <time>2019-11-16T08:29:59Z</time>
      </trkpt>
      <trkpt lat="59.32285" lon="18.074863">
        <ele>4</ele>
        <time>2019-11-16T08:30:01Z</time>
      </trkpt>
      <trkpt lat="59.322791" lon="18.074809">
        <ele>0</ele>
        <time>2019-11-16T08:30:01Z</time>
      </trkpt>
      <trkpt lat="59.322732" lon="18.074754">
        <ele>4</ele>
        <time>2019-11-16T08:30:02Z</time>
      </trkpt>
      <trkpt lat="59.322676" lon="18.0747">
        <ele>4</ele>
        <time>2019-11-16T08:30:04Z</time>
      </trkpt>
      <trkpt lat="59.322622" lon="18.074642">
        <ele>3</ele>
        <time>2019-11-16T08:30:05Z</time>
      </trkpt>
      <trkpt lat="59.322568" lon="18.074582">
        <ele>3</ele>
        <time>2019-11-16T08:30:06Z</time>
      </trkpt>
      <trkpt lat="59.322513" lon="18.074522">
        <ele>3</ele>
        <time>2019-11-16T08:30:07Z</time>
      </trkpt>
      <trkpt lat="59.322459" lon="18.074466">
        <ele>3</ele>
        <time>2019-11-16T08:30:08Z</time>
      </trkpt>
      <trkpt lat="59.322404" lon="18.074413">
        <ele>0</ele>
        <time>2019-11-16T08:30:08Z</time>
      </trkpt>
      <trkpt lat="59.322347" lon="18.074361">
        <ele>3</ele>
        <time>2019-11-16T08:30:09Z</time>
      </trkpt>
      <trkpt lat="59.322291" lon="18.074312">
        <ele>2</ele>
        <time>2019-11-16T08:30:11Z</time>
      </trkpt>
      <trkpt lat="59.322236" lon="18.074261">
        <ele>2</ele>
        <time>2019-11-16T08:30:12Z</time>
      </trkpt>
      <trkpt lat="59.322181" lon="18.074209">
        <ele>2</ele>
        <time>2019-11-16T08:30:13Z</time>
      </trkpt>
      <trkpt lat="59.322127" lon="18.074155">
        <ele>2</ele>
        <time>2019-11-16T08:30:14Z</time>
      </trkpt>
      <trkpt lat="59.322078" lon="18.074093">
        <ele>1</ele>
        <time>2019-11-16T08:30:15Z</time>
      </trkpt>
      <trkpt lat="59.322033" lon="18.074027">
        <ele>1</ele>
        <time>2019-11-16T08:30:16Z</time>
      </trkpt>
      <trkpt lat="59.321988" lon="18.073968">
        <ele>1</ele>
        <time>2019-11-16T08:30:17Z</time>
      </trkpt>
      <trkpt lat="59.321945" lon="18.073919">
        <ele>0</ele>
        <time>2019-11-16T08:30:17Z</time>
      </trkpt>
      <trkpt lat="59.321911" lon="18.073868">
        <ele>1</ele>
        <time>2019-11-16T08:30:18Z</time>
      </trkpt>
      <trkpt lat="59.321888" lon="18.073802">
        <ele>1</ele>
        <time>2019-11-16T08:30:20Z</time>
      </trkpt>
      <trkpt lat="59.321884" lon="18.073718">
        <ele>1</ele>
        <time>2019-11-16T08:30:21Z</time>
      </trkpt>
      <trkpt lat="59.321895" lon="18.073633">
        <ele>0</ele>
        <time>2019-11-16T08:30:22Z</time>
      </trkpt>
      <trkpt lat="59.321909" lon="18.073548">
        <ele>1</ele>
        <time>2019-11-16T08:30:23Z</time>
      </trkpt>
      <trkpt lat="59.321925" lon="18.07346">
        <ele>1</ele>
        <time>2019-11-16T08:30:24Z</time>
      </trkpt>
      <trkpt lat="59.321942" lon="18.073372">
        <ele>0</ele>
        <time>2019-11-16T08:30:25Z</time>
      </trkpt>
      <trkpt lat="59.321961" lon="18.073285">
        <ele>0</ele>
        <time>2019-11-16T08:30:26Z</time>
      </trkpt>
      <trkpt lat="59.32198" lon="18.073199">
        <ele>0</ele>
        <time>2019-11-16T08:30:27Z</time>
      </trkpt>
      <trkpt lat="59.321997" lon="18.073116">
        <ele>1</ele>
        <time>2019-11-16T08:30:28Z</time>
      </trkpt>
      <trkpt lat="59.32201" lon="18.073038">
        <ele>0</ele>
        <time>2019-11-16T08:30:28Z</time>
      </trkpt>
      <trkpt lat="59.322021" lon="18.072971">
        <ele>1</ele>
        <time>2019-11-16T08:30:29Z</time>
      </trkpt>
      <trkpt lat="59.322027" lon="18.072912">
        <ele>1</ele>
        <time>2019-11-16T08:30:31Z</time>
      </trkpt>
      <trkpt lat="59.32203" lon="18.072858">
        <ele>1</ele>
        <time>2019-11-16T08:30:32Z</time>
      </trkpt>
      <trkpt lat="59.322029" lon="18.072806">
        <ele>1</ele>
        <time>2019-11-16T08:30:33Z</time>
      </trkpt>
      <trkpt lat="59.322026" lon="18.072758">
        <ele>1</ele>
        <time>2019-11-16T08:30:34Z</time>
      </trkpt>
      <trkpt lat="59.322021" lon="18.072715">
        <ele>1</ele>
        <time>2019-11-16T08:30:35Z</time>
      </trkpt>
      <trkpt lat="59.322019" lon="18.072671">
        <ele>1</ele>
        <time>2019-11-16T08:30:36Z</time>
      </trkpt>
      <trkpt lat="59.322014" lon="18.072618">
        <ele>0</ele>
        <time>2019-11-16T08:30:36Z</time>
      </trkpt>
      <trkpt lat="59.322012" lon="18.072552">
        <ele>1</ele>
        <time>2019-11-16T08:30:37Z</time>
      </trkpt>
      <trkpt lat="59.322006" lon="18.072477">
        <ele>1</ele>
        <time>2019-11-16T08:30:39Z</time>
      </trkpt>
      <trkpt lat="59.321991" lon="18.0724">
        <ele>1</ele>
        <time>2019-11-16T08:30:40Z</time>
      </trkpt>
      <trkpt lat="59.321968" lon="18.072333">
        <ele>1</ele>
        <time>2019-11-16T08:30:41Z</time>
      </trkpt>
      <trkpt lat="59.321934" lon="18.072282">
        <ele>1</ele>
        <time>2019-11-16T08:30:42Z</time>
      </trkpt>
      <trkpt lat="59.321893" lon="18.072247">
        <ele>1</ele>
        <time>2019-11-16T08:30:43Z</time>
      </trkpt>
      <trkpt lat="59.321852" lon="18.072222">
        <ele>0</ele>
        <time>2019-11-16T08:30:43Z</time>
      </trkpt>
      <trkpt lat="59.321811" lon="18.0722">
        <ele>1</ele>
        <time>2019-11-16T08:30:44Z</time>
      </trkpt>
      <trkpt lat="59.32177" lon="18.072183">
        <ele>1</ele>
        <time>2019-11-16T08:30:46Z</time>
      </trkpt>
      <trkpt lat="59.32173" lon="18.072175">
        <ele>2</ele>
        <time>2019-11-16T08:30:47Z</time>
      </trkpt>
      <trkpt lat="59.32169" lon="18.072177">
        <ele>2</ele>
        <time>2019-11-16T08:30:48Z</time>
      </trkpt>
      <trkpt lat="59.321653" lon="18.072186">
        <ele>2</ele>
        <time>2019-11-16T08:30:49Z</time>
      </trkpt>
      <trkpt lat="59.321613" lon="18.07219">
        <ele>2</ele>
        <time>2019-11-16T08:30:50Z</time>
      </trkpt>
      <trkpt lat="59.321572" lon="18.072179">
        <ele>3</ele>
        <time>2019-11-16T08:30:51Z</time>
      </trkpt>
      <trkpt lat="59.321532" lon="18.072155">
        <ele>3</ele>
        <time>2019-11-16T08:30:52Z</time>
      </trkpt>
      <trkpt lat="59.321492" lon="18.072128">
        <ele>3</ele>
        <time>2019-11-16T08:30:53Z</time>
      </trkpt>
      <trkpt lat="59.321453" lon="18.072101">
        <ele>3</ele>
        <time>2019-11-16T08:30:54Z</time>
      </trkpt>
      <trkpt lat="59.321415" lon="18.072073">
        <ele>3</ele>
        <time>2019-11-16T08:30:55Z</time>
      </trkpt>
      <trkpt lat="59.321377" lon="18.072048">
        <ele>0</ele>
        <time>2019-11-16T08:30:55Z</time>
      </trkpt>
      <trkpt lat="59.321338" lon="18.072022">
        <ele>3</ele>
        <time>2019-11-16T08:30:56Z</time>
      </trkpt>
      <trkpt lat="59.321301" lon="18.071996">
        <ele>4</ele>
        <time>2019-11-16T08:30:58Z</time>
      </trkpt>
      <trkpt lat="59.321264" lon="18.07197">
        <ele>4</ele>
        <time>2019-11-16T08:30:59Z</time>
      </trkpt>
      <trkpt lat="59.321226" lon="18.071944">
        <ele>4</ele>
        <time>2019-11-16T08:31:00Z</time>
      </trkpt>
      <trkpt lat="59.32119" lon="18.071914">
        <ele>4</ele>
        <time>2019-11-16T08:31:01Z</time>
      </trkpt>
      <trkpt lat="59.321156" lon="18.071876">
        <ele>4</ele>
        <time>2019-11-16T08:31:02Z</time>
      </trkpt>
      <trkpt lat="59.321126" lon="18.071825">
        <ele>4</ele>
        <time>2019-11-16T08:31:03Z</time>
      </trkpt>
      <trkpt lat="59.3211" lon="18.071768">
        <ele>4</ele>
        <time>2019-11-16T08:31:04Z</time>
      </trkpt>
      <trkpt lat="59.32108" lon="18.071704">
        <ele>4</ele>
        <time>2019-11-16T08:31:05Z</time>
      </trkpt>
      <trkpt lat="59.321065" lon="18.071636">
        <ele>4</ele>
        <time>2019-11-16T08:31:06Z</time>
      </trkpt>
      <trkpt lat="59.321055" lon="18.07157">
        <ele>5</ele>
        <time>2019-11-16T08:31:07Z</time>
      </trkpt>
      <trkpt lat="59.321046" lon="18.071502">
        <ele>5</ele>
        <time>2019-11-16T08:31:08Z</time>
      </trkpt>
      <trkpt lat="59.321038" lon="18.07144">
        <ele>0</ele>
        <time>2019-11-16T08:31:08Z</time>
      </trkpt>
      <trkpt lat="59.32103" lon="18.07138">
        <ele>5</ele>
        <time>2019-11-16T08:31:09Z</time>
      </trkpt>
      <trkpt lat="59.321022" lon="18.071318">
        <ele>5</ele>
        <time>2019-11-16T08:31:11Z</time>
      </trkpt>
      <trkpt lat="59.321015" lon="18.07126">
        <ele>6</ele>
        <time>2019-11-16T08:31:12Z</time>
      </trkpt>
      <trkpt lat="59.321009" lon="18.071205">
        <ele>6</ele>
        <time>2019-11-16T08:31:13Z</time>
      </trkpt>
      <trkpt lat="59.321" lon="18.071154">
        <ele>6</ele>
        <time>2019-11-16T08:31:14Z</time>
      </trkpt>
      <trkpt lat="59.320986" lon="18.071105">
        <ele>0</ele>
        <time>2019-11-16T08:31:14Z</time>
      </trkpt>
      <trkpt lat="59.320965" lon="18.071064">
        <ele>6</ele>
        <time>2019-11-16T08:31:15Z</time>
      </trkpt>
      <trkpt lat="59.320938" lon="18.071032">
        <ele>6</ele>
        <time>2019-11-16T08:31:17Z</time>
      </trkpt>
      <trkpt lat="59.320908" lon="18.07101">
        <ele>7</ele>
        <time>2019-11-16T08:31:18Z</time>
      </trkpt>
      <trkpt lat="59.320877" lon="18.070987">
        <ele>7</ele>
        <time>2019-11-16T08:31:19Z</time>
      </trkpt>
      <trkpt lat="59.320846" lon="18.070966">
        <ele>7</ele>
        <time>2019-11-16T08:31:20Z</time>
      </trkpt>
      <trkpt lat="59.320815" lon="18.070944">
        <ele>7</ele>
        <time>2019-11-16T08:31:21Z</time>
      </trkpt>
      <trkpt lat="59.320784" lon="18.07092">
        <ele>7</ele>
        <time>2019-11-16T08:31:22Z</time>
      </trkpt>
      <trkpt lat="59.320753" lon="18.070896">
        <ele>7</ele>
        <time>2019-11-16T08:31:23Z</time>
      </trkpt>
      <trkpt lat="59.320721" lon="18.070876">
        <ele>7</ele>
        <time>2019-11-16T08:31:24Z</time>
      </trkpt>
      <trkpt lat="59.320689" lon="18.070858">
        <ele>0</ele>
        <time>2019-11-16T08:31:24Z</time>
      </trkpt>
      <trkpt lat="59.320657" lon="18.070846">
        <ele>7</ele>
        <time>2019-11-16T08:31:25Z</time>
      </trkpt>
      <trkpt lat="59.320624" lon="18.070836">
        <ele>7</ele>
        <time>2019-11-16T08:31:27Z</time>
      </trkpt>
      <trkpt lat="59.32059" lon="18.070828">
        <ele>7</ele>
        <time>2019-11-16T08:31:28Z</time>
      </trkpt>
      <trkpt lat="59.320557" lon="18.070814">
        <ele>8</ele>
        <time>2019-11-16T08:31:29Z</time>
      </trkpt>
      <trkpt lat="59.320529" lon="18.07078">
        <ele>8</ele>
        <time>2019-11-16T08:31:30Z</time>
      </trkpt>
      <trkpt lat="59.320511" lon="18.070726">
        <ele>8</ele>
        <time>2019-11-16T08:31:31Z</time>
      </trkpt>
      <trkpt lat="59.320498" lon="18.07066">
        <ele>8</ele>
        <time>2019-11-16T08:31:32Z</time>
      </trkpt>
      <trkpt lat="59.320484" lon="18.070586">
        <ele>8</ele>
        <time>2019-11-16T08:31:33Z</time>
      </trkpt>
      <trkpt lat="59.320471" lon="18.070502">
        <ele>0</ele>
        <time>2019-11-16T08:31:33Z</time>
      </trkpt>
      <trkpt lat="59.320456" lon="18.07042">
        <ele>8</ele>
        <time>2019-11-16T08:31:34Z</time>
      </trkpt>
      <trkpt lat="59.320437" lon="18.070344">
        <ele>8</ele>
        <time>2019-11-16T08:31:36Z</time>
      </trkpt>
      <trkpt lat="59.32041" lon="18.070284">
        <ele>8</ele>
        <time>2019-11-16T08:31:37Z</time>
      </trkpt>
      <trkpt lat="59.320377" lon="18.070255">
        <ele>0</ele>
        <time>2019-11-16T08:31:37Z</time>
      </trkpt>
      <trkpt lat="59.32034" lon="18.070251">
        <ele>8</ele>
        <time>2019-11-16T08:31:38Z</time>
      </trkpt>
      <trkpt lat="59.320299" lon="18.070264">
        <ele>8</ele>
        <time>2019-11-16T08:31:40Z</time>
      </trkpt>
      <trkpt lat="59.320257" lon="18.070278">
        <ele>9</ele>
        <time>2019-11-16T08:31:41Z</time>
      </trkpt>
      <trkpt lat="59.320215" lon="18.070294">
        <ele>9</ele>
        <time>2019-11-16T08:31:42Z</time>
      </trkpt>
      <trkpt lat="59.320172" lon="18.070304">
        <ele>9</ele>
        <time>2019-11-16T08:31:43Z</time>
      </trkpt>
      <trkpt lat="59.32013" lon="18.070317">
        <ele>9</ele>
        <time>2019-11-16T08:31:44Z</time>
      </trkpt>
      <trkpt lat="59.320091" lon="18.070332">
        <ele>9</ele>
        <time>2019-11-16T08:31:45Z</time>
      </trkpt>
      <trkpt lat="59.320051" lon="18.070347">
        <ele>9</ele>
        <time>2019-11-16T08:31:46Z</time>
      </trkpt>
      <trkpt lat="59.320012" lon="18.070364">
        <ele>10</ele>
        <time>2019-11-16T08:31:47Z</time>
      </trkpt>
      <trkpt lat="59.319972" lon="18.070379">
        <ele>10</ele>
        <time>2019-11-16T08:31:48Z</time>
      </trkpt>
      <trkpt lat="59.319932" lon="18.070386">
        <ele>10</ele>
        <time>2019-11-16T08:31:49Z</time>
      </trkpt>
      <trkpt lat="59.319891" lon="18.070386">
        <ele>10</ele>
        <time>2019-11-16T08:31:50Z</time>
      </trkpt>
      <trkpt lat="59.319849" lon="18.0704">
        <ele>0</ele>
        <time>2019-11-16T08:31:50Z</time>
      </trkpt>
      <trkpt lat="59.319808" lon="18.070422">
        <ele>10</ele>
        <time>2019-11-16T08:31:51Z</time>
      </trkpt>
      <trkpt lat="59.319766" lon="18.07044">
        <ele>0</ele>
        <time>2019-11-16T08:31:52Z</time>
      </trkpt>
      <trkpt lat="59.319724" lon="18.070462">
        <ele>10</ele>
        <time>2019-11-16T08:31:53Z</time>
      </trkpt>
      <trkpt lat="59.319681" lon="18.070488">
        <ele>11</ele>
        <time>2019-11-16T08:31:55Z</time>
      </trkpt>
      <trkpt lat="59.319639" lon="18.070516">
        <ele>11</ele>
        <time>2019-11-16T08:31:56Z</time>
      </trkpt>
      <trkpt lat="59.3196" lon="18.070542">
        <ele>11</ele>
        <time>2019-11-16T08:31:57Z</time>
      </trkpt>
      <trkpt lat="59.319565" lon="18.070568">
        <ele>11</ele>
        <time>2019-11-16T08:31:58Z</time>
      </trkpt>
      <trkpt lat="59.319531" lon="18.070592">
        <ele>11</ele>
        <time>2019-11-16T08:31:59Z</time>
      </trkpt>
      <trkpt lat="59.3195" lon="18.070618">
        <ele>11</ele>
        <time>2019-11-16T08:32:00Z</time>
      </trkpt>
      <trkpt lat="59.319468" lon="18.070639">
        <ele>11</ele>
        <time>2019-11-16T08:32:01Z</time>
      </trkpt>
      <trkpt lat="59.319436" lon="18.070659">
        <ele>11</ele>
        <time>2019-11-16T08:32:02Z</time>
      </trkpt>
      <trkpt lat="59.319401" lon="18.070675">
        <ele>0</ele>
        <time>2019-11-16T08:32:02Z</time>
      </trkpt>
      <trkpt lat="59.319369" lon="18.070693">
        <ele>12</ele>
        <time>2019-11-16T08:32:03Z</time>
      </trkpt>
      <trkpt lat="59.31934" lon="18.070714">
        <ele>12</ele>
        <time>2019-11-16T08:32:05Z</time>
      </trkpt>
      <trkpt lat="59.31931" lon="18.070735">
        <ele>12</ele>
        <time>2019-11-16T08:32:06Z</time>
      </trkpt>
      <trkpt lat="59.319277" lon="18.070755">
        <ele>12</ele>
        <time>2019-11-16T08:32:07Z</time>
      </trkpt>
      <trkpt lat="59.319247" lon="18.07078">
        <ele>12</ele>
        <time>2019-11-16T08:32:08Z</time>
      </trkpt>
      <trkpt lat="59.319224" lon="18.070807">
        <ele>12</ele>
        <time>2019-11-16T08:32:09Z</time>
      </trkpt>
      <trkpt lat="59.319208" lon="18.070838">
        <ele>13</ele>
        <time>2019-11-16T08:32:10Z</time>
      </trkpt>
      <trkpt lat="59.319184" lon="18.070874">
        <ele>13</ele>
        <time>2019-11-16T08:32:12Z</time>
      </trkpt>
      <trkpt lat="59.319157" lon="18.070883">
        <ele>13</ele>
        <time>2019-11-16T08:32:15Z</time>
      </trkpt>
      <trkpt lat="59.319123" lon="18.070891">
        <ele>14</ele>
        <time>2019-11-16T08:32:17Z</time>
      </trkpt>
      <trkpt lat="59.319103" lon="18.070905">
        <ele>14</ele>
        <time>2019-11-16T08:32:18Z</time>
      </trkpt>
      <trkpt lat="59.319079" lon="18.070925">
        <ele>14</ele>
        <time>2019-11-16T08:32:20Z</time>
      </trkpt>
      <trkpt lat="59.319031" lon="18.070973">
        <ele>14</ele>
        <time>2019-11-16T08:32:23Z</time>
      </trkpt>
      <trkpt lat="59.318954" lon="18.071025">
        <ele>15</ele>
        <time>2019-11-16T08:32:28Z</time>
      </trkpt>
      <trkpt lat="59.318914" lon="18.071017">
        <ele>0</ele>
        <time>2019-11-16T08:32:29Z</time>
      </trkpt>
      <trkpt lat="59.318886" lon="18.071018">
        <ele>15</ele>
        <time>2019-11-16T08:32:30Z</time>
      </trkpt>
      <trkpt lat="59.318857" lon="18.071032">
        <ele>16</ele>
        <time>2019-11-16T08:32:31Z</time>
      </trkpt>
      <trkpt lat="59.318834" lon="18.071035">
        <ele>15</ele>
        <time>2019-11-16T08:32:33Z</time>
      </trkpt>
      <trkpt lat="59.318814" lon="18.071032">
        <ele>15</ele>
        <time>2019-11-16T08:32:34Z</time>
      </trkpt>
      <trkpt lat="59.318793" lon="18.071029">
        <ele>16</ele>
        <time>2019-11-16T08:32:35Z</time>
      </trkpt>
      <trkpt lat="59.318759" lon="18.071042">
        <ele>16</ele>
        <time>2019-11-16T08:32:37Z</time>
      </trkpt>
      <trkpt lat="59.31873" lon="18.071052">
        <ele>16</ele>
        <time>2019-11-16T08:32:39Z</time>
      </trkpt>
      <trkpt lat="59.318703" lon="18.071056">
        <ele>16</ele>
        <time>2019-11-16T08:32:41Z</time>
      </trkpt>
      <trkpt lat="59.318646" lon="18.071066">
        <ele>15</ele>
        <time>2019-11-16T08:32:44Z</time>
      </trkpt>
      <trkpt lat="59.318623" lon="18.071074">
        <ele>15</ele>
        <time>2019-11-16T08:32:45Z</time>
      </trkpt>
      <trkpt lat="59.318519" lon="18.071127">
        <ele>15</ele>
        <time>2019-11-16T08:32:49Z</time>
      </trkpt>
      <trkpt lat="59.318491" lon="18.071138">
        <ele>0</ele>
        <time>2019-11-16T08:32:49Z</time>
      </trkpt>
      <trkpt lat="59.318466" lon="18.071149">
        <ele>15</ele>
        <time>2019-11-16T08:32:50Z</time>
      </trkpt>
      <trkpt lat="59.318447" lon="18.071159">
        <ele>0</ele>
        <time>2019-11-16T08:32:51Z</time>
      </trkpt>
      <trkpt lat="59.318355" lon="18.071195">
        <ele>15</ele>
        <time>2019-11-16T08:32:56Z</time>
      </trkpt>
      <trkpt lat="59.318266" lon="18.071258">
        <ele>15</ele>
        <time>2019-11-16T08:32:59Z</time>
      </trkpt>
      <trkpt lat="59.318143" lon="18.071353">
        <ele>16</ele>
        <time>2019-11-16T08:33:02Z</time>
      </trkpt>
      <trkpt lat="59.318099" lon="18.071355">
        <ele>17</ele>
        <time>2019-11-16T08:33:03Z</time>
      </trkpt>
      <trkpt lat="59.31799" lon="18.071396">
        <ele>17</ele>
        <time>2019-11-16T08:33:06Z</time>
      </trkpt>
      <trkpt lat="59.317892" lon="18.071447">
        <ele>0</ele>
        <time>2019-11-16T08:33:08Z</time>
      </trkpt>
      <trkpt lat="59.317769" lon="18.071511">
        <ele>17</ele>
        <time>2019-11-16T08:33:12Z</time>
      </trkpt>
      <trkpt lat="59.317672" lon="18.071559">
        <ele>16</ele>
        <time>2019-11-16T08:33:14Z</time>
      </trkpt>
      <trkpt lat="59.317575" lon="18.071614">
        <ele>16</ele>
        <time>2019-11-16T08:33:16Z</time>
      </trkpt>
      <trkpt lat="59.317457" lon="18.0717">
        <ele>0</ele>
        <time>2019-11-16T08:33:18Z</time>
      </trkpt>
      <trkpt lat="59.317359" lon="18.071734">
        <ele>18</ele>
        <time>2019-11-16T08:33:21Z</time>
      </trkpt>
      <trkpt lat="59.317257" lon="18.071765">
        <ele>19</ele>
        <time>2019-11-16T08:33:23Z</time>
      </trkpt>
      <trkpt lat="59.317149" lon="18.071803">
        <ele>20</ele>
        <time>2019-11-16T08:33:25Z</time>
      </trkpt>
      <trkpt lat="59.31704" lon="18.071856">
        <ele>20</ele>
        <time>2019-11-16T08:33:27Z</time>
      </trkpt>
      <trkpt lat="59.316937" lon="18.071914">
        <ele>20</ele>
        <time>2019-11-16T08:33:28Z</time>
      </trkpt>
      <trkpt lat="59.316852" lon="18.071976">
        <ele>21</ele>
        <time>2019-11-16T08:33:31Z</time>
      </trkpt>
      <trkpt lat="59.316758" lon="18.07203">
        <ele>21</ele>
        <time>2019-11-16T08:33:33Z</time>
      </trkpt>
      <trkpt lat="59.316656" lon="18.072058">
        <ele>21</ele>
        <time>2019-11-16T08:33:35Z</time>
      </trkpt>
      <trkpt lat="59.316567" lon="18.072124">
        <ele>21</ele>
        <time>2019-11-16T08:33:37Z</time>
      </trkpt>
      <trkpt lat="59.316473" lon="18.072205">
        <ele>0</ele>
        <time>2019-11-16T08:33:38Z</time>
      </trkpt>
      <trkpt lat="59.316359" lon="18.072286">
        <ele>21</ele>
        <time>2019-11-16T08:33:41Z</time>
      </trkpt>
      <trkpt lat="59.316231" lon="18.072347">
        <ele>21</ele>
        <time>2019-11-16T08:33:43Z</time>
      </trkpt>
      <trkpt lat="59.316071" lon="18.072412">
        <ele>22</ele>
        <time>2019-11-16T08:33:45Z</time>
      </trkpt>
      <trkpt lat="59.315995" lon="18.072434">
        <ele>0</ele>
        <time>2019-11-16T08:33:45Z</time>
      </trkpt>
      <trkpt lat="59.315921" lon="18.072462">
        <ele>22</ele>
        <time>2019-11-16T08:33:46Z</time>
      </trkpt>
      <trkpt lat="59.315843" lon="18.072491">
        <ele>22</ele>
        <time>2019-11-16T08:33:47Z</time>
      </trkpt>
      <trkpt lat="59.315778" lon="18.072532">
        <ele>22</ele>
        <time>2019-11-16T08:33:49Z</time>
      </trkpt>
      <trkpt lat="59.315712" lon="18.072572">
        <ele>22</ele>
        <time>2019-11-16T08:33:50Z</time>
      </trkpt>
      <trkpt lat="59.315646" lon="18.072612">
        <ele>23</ele>
        <time>2019-11-16T08:33:51Z</time>
      </trkpt>
      <trkpt lat="59.315577" lon="18.072643">
        <ele>23</ele>
        <time>2019-11-16T08:33:52Z</time>
      </trkpt>
      <trkpt lat="59.315501" lon="18.072666">
        <ele>0</ele>
        <time>2019-11-16T08:33:52Z</time>
      </trkpt>
      <trkpt lat="59.315432" lon="18.072691">
        <ele>23</ele>
        <time>2019-11-16T08:33:53Z</time>
      </trkpt>
      <trkpt lat="59.315358" lon="18.072726">
        <ele>24</ele>
        <time>2019-11-16T08:33:55Z</time>
      </trkpt>
      <trkpt lat="59.31528" lon="18.072767">
        <ele>25</ele>
        <time>2019-11-16T08:33:56Z</time>
      </trkpt>
      <trkpt lat="59.315208" lon="18.072803">
        <ele>25</ele>
        <time>2019-11-16T08:33:57Z</time>
      </trkpt>
      <trkpt lat="59.315141" lon="18.072837">
        <ele>25</ele>
        <time>2019-11-16T08:33:58Z</time>
      </trkpt>
      <trkpt lat="59.315074" lon="18.072869">
        <ele>0</ele>
        <time>2019-11-16T08:33:58Z</time>
      </trkpt>
      <trkpt lat="59.315011" lon="18.072903">
        <ele>26</ele>
        <time>2019-11-16T08:33:59Z</time>
      </trkpt>
      <trkpt lat="59.314952" lon="18.072938">
        <ele>26</ele>
        <time>2019-11-16T08:34:01Z</time>
      </trkpt>
      <trkpt lat="59.314896" lon="18.072975">
        <ele>26</ele>
        <time>2019-11-16T08:34:02Z</time>
      </trkpt>
      <trkpt lat="59.314843" lon="18.073016">
        <ele>26</ele>
        <time>2019-11-16T08:34:03Z</time>
      </trkpt>
      <trkpt lat="59.314793" lon="18.07305">
        <ele>26</ele>
        <time>2019-11-16T08:34:04Z</time>
      </trkpt>
      <trkpt lat="59.314743" lon="18.073077">
        <ele>26</ele>
        <time>2019-11-16T08:34:05Z</time>
      </trkpt>
      <trkpt lat="59.31469" lon="18.073105">
        <ele>0</ele>
        <time>2019-11-16T08:34:05Z</time>
      </trkpt>
      <trkpt lat="59.314636" lon="18.073137">
        <ele>27</ele>
        <time>2019-11-16T08:34:06Z</time>
      </trkpt>
      <trkpt lat="59.314581" lon="18.073186">
        <ele>0</ele>
        <time>2019-11-16T08:34:07Z</time>
      </trkpt>
      <trkpt lat="59.314525" lon="18.073244">
        <ele>27</ele>
        <time>2019-11-16T08:34:08Z</time>
      </trkpt>
      <trkpt lat="59.314469" lon="18.073293">
        <ele>27</ele>
        <time>2019-11-16T08:34:10Z</time>
      </trkpt>
      <trkpt lat="59.314412" lon="18.073346">
        <ele>27</ele>
        <time>2019-11-16T08:34:11Z</time>
      </trkpt>
      <trkpt lat="59.314356" lon="18.073395">
        <ele>27</ele>
        <time>2019-11-16T08:34:12Z</time>
      </trkpt>
      <trkpt lat="59.314299" lon="18.073451">
        <ele>27</ele>
        <time>2019-11-16T08:34:13Z</time>
      </trkpt>
      <trkpt lat="59.314239" lon="18.073445">
        <ele>27</ele>
        <time>2019-11-16T08:34:14Z</time>
      </trkpt>
      <trkpt lat="59.314174" lon="18.073431">
        <ele>28</ele>
        <time>2019-11-16T08:34:15Z</time>
      </trkpt>
      <trkpt lat="59.314116" lon="18.073446">
        <ele>0</ele>
        <time>2019-11-16T08:34:15Z</time>
      </trkpt>
      <trkpt lat="59.314065" lon="18.073474">
        <ele>29</ele>
        <time>2019-11-16T08:34:16Z</time>
      </trkpt>
      <trkpt lat="59.314013" lon="18.073506">
        <ele>30</ele>
        <time>2019-11-16T08:34:18Z</time>
      </trkpt>
      <trkpt lat="59.313961" lon="18.073538">
        <ele>30</ele>
        <time>2019-11-16T08:34:19Z</time>
      </trkpt>
      <trkpt lat="59.313907" lon="18.073567">
        <ele>30</ele>
        <time>2019-11-16T08:34:20Z</time>
      </trkpt>
      <trkpt lat="59.313852" lon="18.073597">
        <ele>30</ele>
        <time>2019-11-16T08:34:21Z</time>
      </trkpt>
      <trkpt lat="59.313796" lon="18.073626">
        <ele>30</ele>
        <time>2019-11-16T08:34:22Z</time>
      </trkpt>
      <trkpt lat="59.313743" lon="18.073657">
        <ele>31</ele>
        <time>2019-11-16T08:34:23Z</time>
      </trkpt>
      <trkpt lat="59.31369" lon="18.073689">
        <ele>31</ele>
        <time>2019-11-16T08:34:24Z</time>
      </trkpt>
      <trkpt lat="59.313639" lon="18.073724">
        <ele>0</ele>
        <time>2019-11-16T08:34:24Z</time>
      </trkpt>
      <trkpt lat="59.313591" lon="18.073759">
        <ele>32</ele>
        <time>2019-11-16T08:34:25Z</time>
      </trkpt>
      <trkpt lat="59.31355" lon="18.073801">
        <ele>33</ele>
        <time>2019-11-16T08:34:27Z</time>
      </trkpt>
      <trkpt lat="59.313507" lon="18.073835">
        <ele>34</ele>
        <time>2019-11-16T08:34:28Z</time>
      </trkpt>
      <trkpt lat="59.313463" lon="18.073866">
        <ele>34</ele>
        <time>2019-11-16T08:34:29Z</time>
      </trkpt>
      <trkpt lat="59.313411" lon="18.073893">
        <ele>35</ele>
        <time>2019-11-16T08:34:30Z</time>
      </trkpt>
      <trkpt lat="59.313352" lon="18.073917">
        <ele>35</ele>
        <time>2019-11-16T08:34:31Z</time>
      </trkpt>
      <trkpt lat="59.313296" lon="18.073942">
        <ele>36</ele>
        <time>2019-11-16T08:34:32Z</time>
      </trkpt>
      <trkpt lat="59.313242" lon="18.073971">
        <ele>37</ele>
        <time>2019-11-16T08:34:33Z</time>
      </trkpt>
      <trkpt lat="59.313188" lon="18.073998">
        <ele>37</ele>
        <time>2019-11-16T08:34:34Z</time>
      </trkpt>
      <trkpt lat="59.313134" lon="18.074024">
        <ele>0</ele>
        <time>2019-11-16T08:34:34Z</time>
      </trkpt>
      <trkpt lat="59.313077" lon="18.074041">
        <ele>38</ele>
        <time>2019-11-16T08:34:35Z</time>
      </trkpt>
      <trkpt lat="59.313006" lon="18.074037">
        <ele>38</ele>
        <time>2019-11-16T08:34:37Z</time>
      </trkpt>
      <trkpt lat="59.312934" lon="18.07402">
        <ele>38</ele>
        <time>2019-11-16T08:34:38Z</time>
      </trkpt>
      <trkpt lat="59.312879" lon="18.074009">
        <ele>0</ele>
        <time>2019-11-16T08:34:38Z</time>
      </trkpt>
      <trkpt lat="59.312826" lon="18.074005">
        <ele>38</ele>
        <time>2019-11-16T08:34:39Z</time>
      </trkpt>
      <trkpt lat="59.312771" lon="18.074013">
        <ele>39</ele>
        <time>2019-11-16T08:34:41Z</time>
      </trkpt>
      <trkpt lat="59.312716" lon="18.074033">
        <ele>40</ele>
        <time>2019-11-16T08:34:42Z</time>
      </trkpt>
      <trkpt lat="59.312658" lon="18.07406">
        <ele>0</ele>
        <time>2019-11-16T08:34:42Z</time>
      </trkpt>
      <trkpt lat="59.312596" lon="18.07409">
        <ele>40</ele>
        <time>2019-11-16T08:34:43Z</time>
      </trkpt>
      <trkpt lat="59.312535" lon="18.074118">
        <ele>41</ele>
        <time>2019-11-16T08:34:44Z</time>
      </trkpt>
      <trkpt lat="59.312478" lon="18.074147">
        <ele>42</ele>
        <time>2019-11-16T08:34:46Z</time>
      </trkpt>
      <trkpt lat="59.312421" lon="18.074178">
        <ele>42</ele>
        <time>2019-11-16T08:34:47Z</time>
      </trkpt>
      <trkpt lat="59.312363" lon="18.074209">
        <ele>43</ele>
        <time>2019-11-16T08:34:48Z</time>
      </trkpt>
      <trkpt lat="59.312308" lon="18.074237">
        <ele>43</ele>
        <time>2019-11-16T08:34:49Z</time>
      </trkpt>
      <trkpt lat="59.312253" lon="18.074264">
        <ele>43</ele>
        <time>2019-11-16T08:34:50Z</time>
      </trkpt>
      <trkpt lat="59.3122" lon="18.074291">
        <ele>0</ele>
        <time>2019-11-16T08:34:50Z</time>
      </trkpt>
      <trkpt lat="59.312147" lon="18.074317">
        <ele>43</ele>
        <time>2019-11-16T08:34:51Z</time>
      </trkpt>
      <trkpt lat="59.312095" lon="18.074343">
        <ele>43</ele>
        <time>2019-11-16T08:34:53Z</time>
      </trkpt>
      <trkpt lat="59.312042" lon="18.074369">
        <ele>43</ele>
        <time>2019-11-16T08:34:54Z</time>
      </trkpt>
      <trkpt lat="59.31199" lon="18.074392">
        <ele>44</ele>
        <time>2019-11-16T08:34:55Z</time>
      </trkpt>
      <trkpt lat="59.311936" lon="18.074415">
        <ele>44</ele>
        <time>2019-11-16T08:34:56Z</time>
      </trkpt>
      <trkpt lat="59.311885" lon="18.074438">
        <ele>44</ele>
        <time>2019-11-16T08:34:57Z</time>
      </trkpt>
      <trkpt lat="59.311841" lon="18.074458">
        <ele>44</ele>
        <time>2019-11-16T08:34:58Z</time>
      </trkpt>
      <trkpt lat="59.311797" lon="18.074486">
        <ele>45</ele>
        <time>2019-11-16T08:34:59Z</time>
      </trkpt>
      <trkpt lat="59.311741" lon="18.07451">
        <ele>44</ele>
        <time>2019-11-16T08:35:00Z</time>
      </trkpt>
      <trkpt lat="59.311682" lon="18.074531">
        <ele>43</ele>
        <time>2019-11-16T08:35:00Z</time>
      </trkpt>
      <trkpt lat="59.311618" lon="18.074544">
        <ele>44</ele>
        <time>2019-11-16T08:35:01Z</time>
      </trkpt>
      <trkpt lat="59.311556" lon="18.074559">
        <ele>0</ele>
        <time>2019-11-16T08:35:02Z</time>
      </trkpt>
      <trkpt lat="59.311499" lon="18.074588">
        <ele>41</ele>
        <time>2019-11-16T08:35:03Z</time>
      </trkpt>
      <trkpt lat="59.311442" lon="18.074622">
        <ele>42</ele>
        <time>2019-11-16T08:35:05Z</time>
      </trkpt>
      <trkpt lat="59.311384" lon="18.074655">
        <ele>42</ele>
        <time>2019-11-16T08:35:06Z</time>
      </trkpt>
      <trkpt lat="59.311325" lon="18.074686">
        <ele>42</ele>
        <time>2019-11-16T08:35:07Z</time>
      </trkpt>
      <trkpt lat="59.311266" lon="18.074716">
        <ele>43</ele>
        <time>2019-11-16T08:35:08Z</time>
      </trkpt>
      <trkpt lat="59.311208" lon="18.074744">
        <ele>0</ele>
        <time>2019-11-16T08:35:08Z</time>
      </trkpt>
      <trkpt lat="59.311149" lon="18.074775">
        <ele>43</ele>
        <time>2019-11-16T08:35:09Z</time>
      </trkpt>
      <trkpt lat="59.311092" lon="18.074806">
        <ele>43</ele>
        <time>2019-11-16T08:35:11Z</time>
      </trkpt>
      <trkpt lat="59.311036" lon="18.074836">
        <ele>43</ele>
        <time>2019-11-16T08:35:12Z</time>
      </trkpt>
      <trkpt lat="59.310979" lon="18.074865">
        <ele>43</ele>
        <time>2019-11-16T08:35:13Z</time>
      </trkpt>
      <trkpt lat="59.310924" lon="18.074894">
        <ele>43</ele>
        <time>2019-11-16T08:35:14Z</time>
      </trkpt>
      <trkpt lat="59.310872" lon="18.074922">
        <ele>43</ele>
        <time>2019-11-16T08:35:15Z</time>
      </trkpt>
      <trkpt lat="59.310822" lon="18.07495">
        <ele>44</ele>
        <time>2019-11-16T08:35:16Z</time>
      </trkpt>
      <trkpt lat="59.310771" lon="18.074977">
        <ele>44</ele>
        <time>2019-11-16T08:35:17Z</time>
      </trkpt>
      <trkpt lat="59.310722" lon="18.075003">
        <ele>0</ele>
        <time>2019-11-16T08:35:17Z</time>
      </trkpt>
      <trkpt lat="59.310672" lon="18.075026">
        <ele>44</ele>
        <time>2019-11-16T08:35:18Z</time>
      </trkpt>
      <trkpt lat="59.310625" lon="18.075056">
        <ele>45</ele>
        <time>2019-11-16T08:35:20Z</time>
      </trkpt>
      <trkpt lat="59.310572" lon="18.075079">
        <ele>44</ele>
        <time>2019-11-16T08:35:21Z</time>
      </trkpt>
      <trkpt lat="59.310521" lon="18.075104">
        <ele>0</ele>
        <time>2019-11-16T08:35:21Z</time>
      </trkpt>
      <trkpt lat="59.310472" lon="18.075135">
        <ele>44</ele>
        <time>2019-11-16T08:35:22Z</time>
      </trkpt>
      <trkpt lat="59.310418" lon="18.075169">
        <ele>45</ele>
        <time>2019-11-16T08:35:24Z</time>
      </trkpt>
      <trkpt lat="59.310365" lon="18.075202">
        <ele>45</ele>
        <time>2019-11-16T08:35:25Z</time>
      </trkpt>
      <trkpt lat="59.310312" lon="18.075233">
        <ele>45</ele>
        <time>2019-11-16T08:35:26Z</time>
      </trkpt>
      <trkpt lat="59.310258" lon="18.075262">
        <ele>0</ele>
        <time>2019-11-16T08:35:26Z</time>
      </trkpt>
      <trkpt lat="59.310204" lon="18.07529">
        <ele>45</ele>
        <time>2019-11-16T08:35:27Z</time>
      </trkpt>
      <trkpt lat="59.31015" lon="18.075318">
        <ele>45</ele>
        <time>2019-11-16T08:35:29Z</time>
      </trkpt>
      <trkpt lat="59.310096" lon="18.075347">
        <ele>45</ele>
        <time>2019-11-16T08:35:30Z</time>
      </trkpt>
      <trkpt lat="59.310042" lon="18.075373">
        <ele>46</ele>
        <time>2019-11-16T08:35:31Z</time>
      </trkpt>
      <trkpt lat="59.309988" lon="18.075402">
        <ele>46</ele>
        <time>2019-11-16T08:35:32Z</time>
      </trkpt>
      <trkpt lat="59.309932" lon="18.075432">
        <ele>46</ele>
        <time>2019-11-16T08:35:33Z</time>
      </trkpt>
      <trkpt lat="59.309879" lon="18.075469">
        <ele>48</ele>
        <time>2019-11-16T08:35:34Z</time>
      </trkpt>
      <trkpt lat="59.309821" lon="18.075502">
        <ele>48</ele>
        <time>2019-11-16T08:35:35Z</time>
      </trkpt>
      <trkpt lat="59.309766" lon="18.075531">
        <ele>0</ele>
        <time>2019-11-16T08:35:35Z</time>
      </trkpt>
      <trkpt lat="59.309711" lon="18.075563">
        <ele>49</ele>
        <time>2019-11-16T08:35:36Z</time>
      </trkpt>
      <trkpt lat="59.309657" lon="18.075601">
        <ele>50</ele>
        <time>2019-11-16T08:35:38Z</time>
      </trkpt>
      <trkpt lat="59.309604" lon="18.075634">
        <ele>51</ele>
        <time>2019-11-16T08:35:39Z</time>
      </trkpt>
      <trkpt lat="59.309551" lon="18.075665">
        <ele>51</ele>
        <time>2019-11-16T08:35:40Z</time>
      </trkpt>
      <trkpt lat="59.309493" lon="18.075696">
        <ele>0</ele>
        <time>2019-11-16T08:35:40Z</time>
      </trkpt>
      <trkpt lat="59.309435" lon="18.075731">
        <ele>51</ele>
        <time>2019-11-16T08:35:41Z</time>
      </trkpt>
      <trkpt lat="59.309378" lon="18.075761">
        <ele>52</ele>
        <time>2019-11-16T08:35:43Z</time>
      </trkpt>
      <trkpt lat="59.309323" lon="18.075791">
        <ele>52</ele>
        <time>2019-11-16T08:35:44Z</time>
      </trkpt>
      <trkpt lat="59.309265" lon="18.075818">
        <ele>0</ele>
        <time>2019-11-16T08:35:44Z</time>
      </trkpt>
      <trkpt lat="59.309213" lon="18.07585">
        <ele>53</ele>
        <time>2019-11-16T08:35:45Z</time>
      </trkpt>
      <trkpt lat="59.309164" lon="18.075883">
        <ele>54</ele>
        <time>2019-11-16T08:35:47Z</time>
      </trkpt>
      <trkpt lat="59.309114" lon="18.075914">
        <ele>55</ele>
        <time>2019-11-16T08:35:48Z</time>
      </trkpt>
      <trkpt lat="59.309064" lon="18.075944">
        <ele>56</ele>
        <time>2019-11-16T08:35:49Z</time>
      </trkpt>
      <trkpt lat="59.309014" lon="18.075974">
        <ele>57</ele>
        <time>2019-11-16T08:35:50Z</time>
      </trkpt>
      <trkpt lat="59.308963" lon="18.076003">
        <ele>58</ele>
        <time>2019-11-16T08:35:51Z</time>
      </trkpt>
      <trkpt lat="59.30891" lon="18.076033">
        <ele>58</ele>
        <time>2019-11-16T08:35:52Z</time>
      </trkpt>
      <trkpt lat="59.308856" lon="18.076063">
        <ele>59</ele>
        <time>2019-11-16T08:35:53Z</time>
      </trkpt>
      <trkpt lat="59.308802" lon="18.076093">
        <ele>0</ele>
        <time>2019-11-16T08:35:53Z</time>
      </trkpt>
      <trkpt lat="59.308746" lon="18.076122">
        <ele>59</ele>
        <time>2019-11-16T08:35:54Z</time>
      </trkpt>
      <trkpt lat="59.308692" lon="18.076148">
        <ele>60</ele>
        <time>2019-11-16T08:35:56Z</time>
      </trkpt>
      <trkpt lat="59.308636" lon="18.076169">
        <ele>60</ele>
        <time>2019-11-16T08:35:57Z</time>
      </trkpt>
      <trkpt lat="59.308583" lon="18.076188">
        <ele>61</ele>
        <time>2019-11-16T08:35:58Z</time>
      </trkpt>
      <trkpt lat="59.308537" lon="18.076213">
        <ele>61</ele>
        <time>2019-11-16T08:35:59Z</time>
      </trkpt>
      <trkpt lat="59.308489" lon="18.076242">
        <ele>0</ele>
        <time>2019-11-16T08:35:59Z</time>
      </trkpt>
      <trkpt lat="59.30844" lon="18.07628">
        <ele>62</ele>
        <time>2019-11-16T08:36:00Z</time>
      </trkpt>
      <trkpt lat="59.308388" lon="18.076323">
        <ele>63</ele>
        <time>2019-11-16T08:36:02Z</time>
      </trkpt>
      <trkpt lat="59.308333" lon="18.076363">
        <ele>0</ele>
        <time>2019-11-16T08:36:02Z</time>
      </trkpt>
      <trkpt lat="59.308278" lon="18.076396">
        <ele>63</ele>
        <time>2019-11-16T08:36:03Z</time>
      </trkpt>
      <trkpt lat="59.308224" lon="18.076423">
        <ele>64</ele>
        <time>2019-11-16T08:36:05Z</time>
      </trkpt>
      <trkpt lat="59.308168" lon="18.076452">
        <ele>65</ele>
        <time>2019-11-16T08:36:06Z</time>
      </trkpt>
      <trkpt lat="59.30811" lon="18.076482">
        <ele>65</ele>
        <time>2019-11-16T08:36:07Z</time>
      </trkpt>
      <trkpt lat="59.308053" lon="18.076511">
        <ele>66</ele>
        <time>2019-11-16T08:36:08Z</time>
      </trkpt>
      <trkpt lat="59.307985" lon="18.076534">
        <ele>65</ele>
        <time>2019-11-16T08:36:09Z</time>
      </trkpt>
      <trkpt lat="59.307913" lon="18.076552">
        <ele>64</ele>
        <time>2019-11-16T08:36:10Z</time>
      </trkpt>
      <trkpt lat="59.307849" lon="18.076581">
        <ele>0</ele>
        <time>2019-11-16T08:36:10Z</time>
      </trkpt>
      <trkpt lat="59.307786" lon="18.076616">
        <ele>64</ele>
        <time>2019-11-16T08:36:11Z</time>
      </trkpt>
      <trkpt lat="59.30772" lon="18.076652">
        <ele>63</ele>
        <time>2019-11-16T08:36:13Z</time>
      </trkpt>
      <trkpt lat="59.307652" lon="18.076687">
        <ele>63</ele>
        <time>2019-11-16T08:36:14Z</time>
      </trkpt>
      <trkpt lat="59.307596" lon="18.076708">
        <ele>61</ele>
        <time>2019-11-16T08:36:15Z</time>
      </trkpt>
      <trkpt lat="59.307527" lon="18.076741">
        <ele>62</ele>
        <time>2019-11-16T08:36:16Z</time>
      </trkpt>
      <trkpt lat="59.307457" lon="18.076774">
        <ele>62</ele>
        <time>2019-11-16T08:36:17Z</time>
      </trkpt>
      <trkpt lat="59.30739" lon="18.076811">
        <ele>0</ele>
        <time>2019-11-16T08:36:17Z</time>
      </trkpt>
      <trkpt lat="59.307323" lon="18.076848">
        <ele>63</ele>
        <time>2019-11-16T08:36:18Z</time>
      </trkpt>
      <trkpt lat="59.307257" lon="18.076884">
        <ele>64</ele>
        <time>2019-11-16T08:36:19Z</time>
      </trkpt>
      <trkpt lat="59.307192" lon="18.076917">
        <ele>65</ele>
        <time>2019-11-16T08:36:21Z</time>
      </trkpt>
      <trkpt lat="59.30713" lon="18.076953">
        <ele>66</ele>
        <time>2019-11-16T08:36:22Z</time>
      </trkpt>
      <trkpt lat="59.307066" lon="18.076984">
        <ele>66</ele>
        <time>2019-11-16T08:36:23Z</time>
      </trkpt>
      <trkpt lat="59.307004" lon="18.077018">
        <ele>66</ele>
        <time>2019-11-16T08:36:24Z</time>
      </trkpt>
      <trkpt lat="59.306944" lon="18.077049">
        <ele>67</ele>
        <time>2019-11-16T08:36:25Z</time>
      </trkpt>
      <trkpt lat="59.306886" lon="18.077079">
        <ele>0</ele>
        <time>2019-11-16T08:36:25Z</time>
      </trkpt>
      <trkpt lat="59.306829" lon="18.077111">
        <ele>67</ele>
        <time>2019-11-16T08:36:26Z</time>
      </trkpt>
      <trkpt lat="59.306774" lon="18.077143">
        <ele>68</ele>
        <time>2019-11-16T08:36:28Z</time>
      </trkpt>
      <trkpt lat="59.306719" lon="18.077173">
        <ele>68</ele>
        <time>2019-11-16T08:36:29Z</time>
      </trkpt>
      <trkpt lat="59.306664" lon="18.0772">
        <ele>68</ele>
        <time>2019-11-16T08:36:30Z</time>
      </trkpt>
      <trkpt lat="59.306608" lon="18.07723">
        <ele>68</ele>
        <time>2019-11-16T08:36:31Z</time>
      </trkpt>
      <trkpt lat="59.306546" lon="18.077255">
        <ele>68</ele>
        <time>2019-11-16T08:36:32Z</time>
      </trkpt>
      <trkpt lat="59.306484" lon="18.077275">
        <ele>66</ele>
        <time>2019-11-16T08:36:33Z</time>
      </trkpt>
      <trkpt lat="59.30642" lon="18.077297">
        <ele>0</ele>
        <time>2019-11-16T08:36:33Z</time>
      </trkpt>
      <trkpt lat="59.306355" lon="18.07732">
        <ele>66</ele>
        <time>2019-11-16T08:36:34Z</time>
      </trkpt>
      <trkpt lat="59.306294" lon="18.077348">
        <ele>63</ele>
        <time>2019-11-16T08:36:36Z</time>
      </trkpt>
      <trkpt lat="59.306232" lon="18.077369">
        <ele>61</ele>
        <time>2019-11-16T08:36:37Z</time>
      </trkpt>
      <trkpt lat="59.306175" lon="18.077394">
        <ele>0</ele>
        <time>2019-11-16T08:36:37Z</time>
      </trkpt>
      <trkpt lat="59.306122" lon="18.077416">
        <ele>59</ele>
        <time>2019-11-16T08:36:38Z</time>
      </trkpt>
      <trkpt lat="59.306069" lon="18.077438">
        <ele>54</ele>
        <time>2019-11-16T08:36:40Z</time>
      </trkpt>
      <trkpt lat="59.306021" lon="18.07746">
        <ele>52</ele>
        <time>2019-11-16T08:36:41Z</time>
      </trkpt>
      <trkpt lat="59.305979" lon="18.077478">
        <ele>50</ele>
        <time>2019-11-16T08:36:42Z</time>
      </trkpt>
      <trkpt lat="59.305937" lon="18.0775">
        <ele>48</ele>
        <time>2019-11-16T08:36:43Z</time>
      </trkpt>
      <trkpt lat="59.305894" lon="18.077523">
        <ele>0</ele>
        <time>2019-11-16T08:36:43Z</time>
      </trkpt>
      <trkpt lat="59.305851" lon="18.077545">
        <ele>46</ele>
        <time>2019-11-16T08:36:44Z</time>
      </trkpt>
      <trkpt lat="59.305806" lon="18.077565">
        <ele>44</ele>
        <time>2019-11-16T08:36:46Z</time>
      </trkpt>
      <trkpt lat="59.30576" lon="18.077586">
        <ele>43</ele>
        <time>2019-11-16T08:36:47Z</time>
      </trkpt>
      <trkpt lat="59.305716" lon="18.077609">
        <ele>42</ele>
        <time>2019-11-16T08:36:48Z</time>
      </trkpt>
      <trkpt lat="59.305672" lon="18.077633">
        <ele>41</ele>
        <time>2019-11-16T08:36:49Z</time>
      </trkpt>
      <trkpt lat="59.305629" lon="18.077658">
        <ele>40</ele>
        <time>2019-11-16T08:36:50Z</time>
      </trkpt>
      <trkpt lat="59.305584" lon="18.077683">
        <ele>40</ele>
        <time>2019-11-16T08:36:51Z</time>
      </trkpt>
      <trkpt lat="59.305542" lon="18.077709">
        <ele>39</ele>
        <time>2019-11-16T08:36:52Z</time>
      </trkpt>
      <trkpt lat="59.305501" lon="18.077732">
        <ele>38</ele>
        <time>2019-11-16T08:36:53Z</time>
      </trkpt>
      <trkpt lat="59.30546" lon="18.077755">
        <ele>38</ele>
        <time>2019-11-16T08:36:54Z</time>
      </trkpt>
      <trkpt lat="59.305419" lon="18.077779">
        <ele>0</ele>
        <time>2019-11-16T08:36:54Z</time>
      </trkpt>
      <trkpt lat="59.30538" lon="18.077804">
        <ele>37</ele>
        <time>2019-11-16T08:36:55Z</time>
      </trkpt>
      <trkpt lat="59.305341" lon="18.077827">
        <ele>0</ele>
        <time>2019-11-16T08:36:56Z</time>
      </trkpt>
      <trkpt lat="59.305303" lon="18.07785">
        <ele>36</ele>
        <time>2019-11-16T08:36:57Z</time>
      </trkpt>
      <trkpt lat="59.305266" lon="18.077874">
        <ele>35</ele>
        <time>2019-11-16T08:36:59Z</time>
      </trkpt>
      <trkpt lat="59.305228" lon="18.077899">
        <ele>35</ele>
        <time>2019-11-16T08:37:00Z</time>
      </trkpt>
      <trkpt lat="59.305191" lon="18.077921">
        <ele>35</ele>
        <time>2019-11-16T08:37:01Z</time>
      </trkpt>
      <trkpt lat="59.305153" lon="18.077941">
        <ele>35</ele>
        <time>2019-11-16T08:37:02Z</time>
      </trkpt>
      <trkpt lat="59.305116" lon="18.077963">
        <ele>34</ele>
        <time>2019-11-16T08:37:03Z</time>
      </trkpt>
      <trkpt lat="59.305081" lon="18.077984">
        <ele>34</ele>
        <time>2019-11-16T08:37:04Z</time>
      </trkpt>
      <trkpt lat="59.305047" lon="18.078006">
        <ele>34</ele>
        <time>2019-11-16T08:37:05Z</time>
      </trkpt>
      <trkpt lat="59.30501" lon="18.078027">
        <ele>34</ele>
        <time>2019-11-16T08:37:06Z</time>
      </trkpt>
      <trkpt lat="59.304975" lon="18.078047">
        <ele>0</ele>
        <time>2019-11-16T08:37:06Z</time>
      </trkpt>
      <trkpt lat="59.304941" lon="18.078067">
        <ele>33</ele>
        <time>2019-11-16T08:37:07Z</time>
      </trkpt>
      <trkpt lat="59.304909" lon="18.078087">
        <ele>33</ele>
        <time>2019-11-16T08:37:09Z</time>
      </trkpt>
      <trkpt lat="59.304877" lon="18.078106">
        <ele>33</ele>
        <time>2019-11-16T08:37:10Z</time>
      </trkpt>
      <trkpt lat="59.304844" lon="18.078124">
        <ele>33</ele>
        <time>2019-11-16T08:37:11Z</time>
      </trkpt>
      <trkpt lat="59.304812" lon="18.078145">
        <ele>33</ele>
        <time>2019-11-16T08:37:12Z</time>
      </trkpt>
      <trkpt lat="59.304779" lon="18.078167">
        <ele>32</ele>
        <time>2019-11-16T08:37:13Z</time>
      </trkpt>
      <trkpt lat="59.304747" lon="18.078185">
        <ele>32</ele>
        <time>2019-11-16T08:37:14Z</time>
      </trkpt>
      <trkpt lat="59.304714" lon="18.078203">
        <ele>32</ele>
        <time>2019-11-16T08:37:15Z</time>
      </trkpt>
      <trkpt lat="59.304683" lon="18.078222">
        <ele>0</ele>
        <time>2019-11-16T08:37:15Z</time>
      </trkpt>
      <trkpt lat="59.304652" lon="18.078243">
        <ele>32</ele>
        <time>2019-11-16T08:37:16Z</time>
      </trkpt>
      <trkpt lat="59.304617" lon="18.078265">
        <ele>32</ele>
        <time>2019-11-16T08:37:18Z</time>
      </trkpt>
      <trkpt lat="59.304581" lon="18.078288">
        <ele>32</ele>
        <time>2019-11-16T08:37:19Z</time>
      </trkpt>
      <trkpt lat="59.304546" lon="18.07831">
        <ele>32</ele>
        <time>2019-11-16T08:37:20Z</time>
      </trkpt>
      <trkpt lat="59.304511" lon="18.078332">
        <ele>32</ele>
        <time>2019-11-16T08:37:21Z</time>
      </trkpt>
      <trkpt lat="59.304475" lon="18.078353">
        <ele>0</ele>
        <time>2019-11-16T08:37:21Z</time>
      </trkpt>
      <trkpt lat="59.304438" lon="18.078374">
        <ele>32</ele>
        <time>2019-11-16T08:37:22Z</time>
      </trkpt>
      <trkpt lat="59.304401" lon="18.078397">
        <ele>32</ele>
        <time>2019-11-16T08:37:24Z</time>
      </trkpt>
      <trkpt lat="59.304364" lon="18.078421">
        <ele>32</ele>
        <time>2019-11-16T08:37:25Z</time>
      </trkpt>
      <trkpt lat="59.304326" lon="18.078444">
        <ele>32</ele>
        <time>2019-11-16T08:37:26Z</time>
      </trkpt>
      <trkpt lat="59.304289" lon="18.078467">
        <ele>32</ele>
        <time>2019-11-16T08:37:27Z</time>
      </trkpt>
      <trkpt lat="59.304253" lon="18.078491">
        <ele>32</ele>
        <time>2019-11-16T08:37:28Z</time>
      </trkpt>
      <trkpt lat="59.304216" lon="18.078515">
        <ele>32</ele>
        <time>2019-11-16T08:37:29Z</time>
      </trkpt>
      <trkpt lat="59.304178" lon="18.078538">
        <ele>32</ele>
        <time>2019-11-16T08:37:30Z</time>
      </trkpt>
      <trkpt lat="59.304141" lon="18.078561">
        <ele>32</ele>
        <time>2019-11-16T08:37:31Z</time>
      </trkpt>
      <trkpt lat="59.304105" lon="18.078585">
        <ele>32</ele>
        <time>2019-11-16T08:37:32Z</time>
      </trkpt>
      <trkpt lat="59.304068" lon="18.078607">
        <ele>32</ele>
        <time>2019-11-16T08:37:33Z</time>
      </trkpt>
      <trkpt lat="59.30403" lon="18.078629">
        <ele>32</ele>
        <time>2019-11-16T08:37:34Z</time>
      </trkpt>
      <trkpt lat="59.303993" lon="18.078652">
        <ele>0</ele>
        <time>2019-11-16T08:37:34Z</time>
      </trkpt>
      <trkpt lat="59.303956" lon="18.078676">
        <ele>32</ele>
        <time>2019-11-16T08:37:35Z</time>
      </trkpt>
      <trkpt lat="59.30392" lon="18.078701">
        <ele>32</ele>
        <time>2019-11-16T08:37:37Z</time>
      </trkpt>
      <trkpt lat="59.303883" lon="18.078726">
        <ele>32</ele>
        <time>2019-11-16T08:37:38Z</time>
      </trkpt>
      <trkpt lat="59.303846" lon="18.078749">
        <ele>32</ele>
        <time>2019-11-16T08:37:39Z</time>
      </trkpt>
      <trkpt lat="59.303808" lon="18.07877">
        <ele>33</ele>
        <time>2019-11-16T08:37:40Z</time>
      </trkpt>
      <trkpt lat="59.303771" lon="18.078792">
        <ele>33</ele>
        <time>2019-11-16T08:37:41Z</time>
      </trkpt>
      <trkpt lat="59.303734" lon="18.078814">
        <ele>33</ele>
        <time>2019-11-16T08:37:42Z</time>
      </trkpt>
      <trkpt lat="59.303697" lon="18.078837">
        <ele>33</ele>
        <time>2019-11-16T08:37:43Z</time>
      </trkpt>
      <trkpt lat="59.303659" lon="18.07886">
        <ele>33</ele>
        <time>2019-11-16T08:37:44Z</time>
      </trkpt>
      <trkpt lat="59.303622" lon="18.078883">
        <ele>33</ele>
        <time>2019-11-16T08:37:45Z</time>
      </trkpt>
      <trkpt lat="59.303585" lon="18.078906">
        <ele>33</ele>
        <time>2019-11-16T08:37:46Z</time>
      </trkpt>
      <trkpt lat="59.303548" lon="18.07893">
        <ele>33</ele>
        <time>2019-11-16T08:37:47Z</time>
      </trkpt>
      <trkpt lat="59.303512" lon="18.078954">
        <ele>0</ele>
        <time>2019-11-16T08:37:47Z</time>
      </trkpt>
      <trkpt lat="59.303474" lon="18.078978">
        <ele>33</ele>
        <time>2019-11-16T08:37:48Z</time>
      </trkpt>
      <trkpt lat="59.303435" lon="18.079001">
        <ele>33</ele>
        <time>2019-11-16T08:37:50Z</time>
      </trkpt>
      <trkpt lat="59.303397" lon="18.079025">
        <ele>33</ele>
        <time>2019-11-16T08:37:51Z</time>
      </trkpt>
      <trkpt lat="59.303356" lon="18.07905">
        <ele>34</ele>
        <time>2019-11-16T08:37:52Z</time>
      </trkpt>
      <trkpt lat="59.303316" lon="18.079076">
        <ele>34</ele>
        <time>2019-11-16T08:37:53Z</time>
      </trkpt>
      <trkpt lat="59.303276" lon="18.079102">
        <ele>0</ele>
        <time>2019-11-16T08:37:53Z</time>
      </trkpt>
      <trkpt lat="59.303236" lon="18.079129">
        <ele>34</ele>
        <time>2019-11-16T08:37:54Z</time>
      </trkpt>
      <trkpt lat="59.303195" lon="18.079155">
        <ele>34</ele>
        <time>2019-11-16T08:37:56Z</time>
      </trkpt>
      <trkpt lat="59.303152" lon="18.079181">
        <ele>34</ele>
        <time>2019-11-16T08:37:57Z</time>
      </trkpt>
      <trkpt lat="59.303112" lon="18.079206">
        <ele>34</ele>
        <time>2019-11-16T08:37:58Z</time>
      </trkpt>
      <trkpt lat="59.303072" lon="18.079231">
        <ele>0</ele>
        <time>2019-11-16T08:37:58Z</time>
      </trkpt>
      <trkpt lat="59.303031" lon="18.079256">
        <ele>34</ele>
        <time>2019-11-16T08:37:59Z</time>
      </trkpt>
      <trkpt lat="59.30299" lon="18.07928">
        <ele>34</ele>
        <time>2019-11-16T08:38:01Z</time>
      </trkpt>
      <trkpt lat="59.302949" lon="18.079305">
        <ele>34</ele>
        <time>2019-11-16T08:38:02Z</time>
      </trkpt>
      <trkpt lat="59.302907" lon="18.079334">
        <ele>34</ele>
        <time>2019-11-16T08:38:03Z</time>
      </trkpt>
      <trkpt lat="59.302863" lon="18.079362">
        <ele>34</ele>
        <time>2019-11-16T08:38:04Z</time>
      </trkpt>
      <trkpt lat="59.302818" lon="18.07939">
        <ele>34</ele>
        <time>2019-11-16T08:38:05Z</time>
      </trkpt>
      <trkpt lat="59.302774" lon="18.079416">
        <ele>34</ele>
        <time>2019-11-16T08:38:06Z</time>
      </trkpt>
      <trkpt lat="59.302732" lon="18.079441">
        <ele>34</ele>
        <time>2019-11-16T08:38:07Z</time>
      </trkpt>
      <trkpt lat="59.302689" lon="18.079469">
        <ele>34</ele>
        <time>2019-11-16T08:38:08Z</time>
      </trkpt>
      <trkpt lat="59.302646" lon="18.079496">
        <ele>34</ele>
        <time>2019-11-16T08:38:09Z</time>
      </trkpt>
      <trkpt lat="59.302603" lon="18.079522">
        <ele>34</ele>
        <time>2019-11-16T08:38:10Z</time>
      </trkpt>
      <trkpt lat="59.30256" lon="18.079549">
        <ele>0</ele>
        <time>2019-11-16T08:38:10Z</time>
      </trkpt>
      <trkpt lat="59.302516" lon="18.079577">
        <ele>34</ele>
        <time>2019-11-16T08:38:11Z</time>
      </trkpt>
      <trkpt lat="59.302473" lon="18.079605">
        <ele>0</ele>
        <time>2019-11-16T08:38:12Z</time>
      </trkpt>
      <trkpt lat="59.302428" lon="18.079633">
        <ele>34</ele>
        <time>2019-11-16T08:38:13Z</time>
      </trkpt>
      <trkpt lat="59.302383" lon="18.079663">
        <ele>34</ele>
        <time>2019-11-16T08:38:15Z</time>
      </trkpt>
      <trkpt lat="59.302338" lon="18.079693">
        <ele>34</ele>
        <time>2019-11-16T08:38:16Z</time>
      </trkpt>
      <trkpt lat="59.302295" lon="18.079722">
        <ele>34</ele>
        <time>2019-11-16T08:38:17Z</time>
      </trkpt>
      <trkpt lat="59.30225" lon="18.07975">
        <ele>34</ele>
        <time>2019-11-16T08:38:18Z</time>
      </trkpt>
      <trkpt lat="59.302205" lon="18.079777">
        <ele>34</ele>
        <time>2019-11-16T08:38:19Z</time>
      </trkpt>
      <trkpt lat="59.30216" lon="18.079805">
        <ele>34</ele>
        <time>2019-11-16T08:38:20Z</time>
      </trkpt>
      <trkpt lat="59.302115" lon="18.079833">
        <ele>0</ele>
        <time>2019-11-16T08:38:20Z</time>
      </trkpt>
      <trkpt lat="59.30207" lon="18.079861">
        <ele>34</ele>
        <time>2019-11-16T08:38:21Z</time>
      </trkpt>
      <trkpt lat="59.302026" lon="18.079888">
        <ele>34</ele>
        <time>2019-11-16T08:38:23Z</time>
      </trkpt>
      <trkpt lat="59.301981" lon="18.079914">
        <ele>34</ele>
        <time>2019-11-16T08:38:24Z</time>
      </trkpt>
      <trkpt lat="59.301936" lon="18.079941">
        <ele>34</ele>
        <time>2019-11-16T08:38:25Z</time>
      </trkpt>
      <trkpt lat="59.30189" lon="18.079968">
        <ele>34</ele>
        <time>2019-11-16T08:38:26Z</time>
      </trkpt>
      <trkpt lat="59.301845" lon="18.079994">
        <ele>35</ele>
        <time>2019-11-16T08:38:27Z</time>
      </trkpt>
      <trkpt lat="59.301797" lon="18.080021">
        <ele>35</ele>
        <time>2019-11-16T08:38:28Z</time>
      </trkpt>
      <trkpt lat="59.301749" lon="18.080049">
        <ele>35</ele>
        <time>2019-11-16T08:38:29Z</time>
      </trkpt>
      <trkpt lat="59.3017" lon="18.080078">
        <ele>35</ele>
        <time>2019-11-16T08:38:30Z</time>
      </trkpt>
      <trkpt lat="59.301651" lon="18.080107">
        <ele>35</ele>
        <time>2019-11-16T08:38:31Z</time>
      </trkpt>
      <trkpt lat="59.301604" lon="18.080136">
        <ele>0</ele>
        <time>2019-11-16T08:38:31Z</time>
      </trkpt>
      <trkpt lat="59.301556" lon="18.080168">
        <ele>35</ele>
        <time>2019-11-16T08:38:32Z</time>
      </trkpt>
      <trkpt lat="59.301512" lon="18.080203">
        <ele>35</ele>
        <time>2019-11-16T08:38:34Z</time>
      </trkpt>
      <trkpt lat="59.30147" lon="18.080234">
        <ele>35</ele>
        <time>2019-11-16T08:38:35Z</time>
      </trkpt>
      <trkpt lat="59.301428" lon="18.080261">
        <ele>35</ele>
        <time>2019-11-16T08:38:36Z</time>
      </trkpt>
      <trkpt lat="59.301384" lon="18.080283">
        <ele>35</ele>
        <time>2019-11-16T08:38:37Z</time>
      </trkpt>
      <trkpt lat="59.301337" lon="18.080303">
        <ele>35</ele>
        <time>2019-11-16T08:38:38Z</time>
      </trkpt>
      <trkpt lat="59.301287" lon="18.080321">
        <ele>35</ele>
        <time>2019-11-16T08:38:39Z</time>
      </trkpt>
      <trkpt lat="59.301232" lon="18.080328">
        <ele>35</ele>
        <time>2019-11-16T08:38:40Z</time>
      </trkpt>
      <trkpt lat="59.301181" lon="18.080322">
        <ele>35</ele>
        <time>2019-11-16T08:38:41Z</time>
      </trkpt>
      <trkpt lat="59.301131" lon="18.080324">
        <ele>0</ele>
        <time>2019-11-16T08:38:41Z</time>
      </trkpt>
      <trkpt lat="59.301077" lon="18.080332">
        <ele>34</ele>
        <time>2019-11-16T08:38:42Z</time>
      </trkpt>
      <trkpt lat="59.301018" lon="18.080343">
        <ele>34</ele>
        <time>2019-11-16T08:38:44Z</time>
      </trkpt>
      <trkpt lat="59.300961" lon="18.080355">
        <ele>34</ele>
        <time>2019-11-16T08:38:45Z</time>
      </trkpt>
      <trkpt lat="59.300905" lon="18.080371">
        <ele>34</ele>
        <time>2019-11-16T08:38:46Z</time>
      </trkpt>
      <trkpt lat="59.300853" lon="18.080384">
        <ele>34</ele>
        <time>2019-11-16T08:38:47Z</time>
      </trkpt>
      <trkpt lat="59.3008" lon="18.080401">
        <ele>34</ele>
        <time>2019-11-16T08:38:48Z</time>
      </trkpt>
      <trkpt lat="59.30075" lon="18.080422">
        <ele>34</ele>
        <time>2019-11-16T08:38:49Z</time>
      </trkpt>
      <trkpt lat="59.300702" lon="18.080444">
        <ele>34</ele>
        <time>2019-11-16T08:38:50Z</time>
      </trkpt>
      <trkpt lat="59.300656" lon="18.080471">
        <ele>0</ele>
        <time>2019-11-16T08:38:50Z</time>
      </trkpt>
      <trkpt lat="59.300609" lon="18.080504">
        <ele>34</ele>
        <time>2019-11-16T08:38:51Z</time>
      </trkpt>
      <trkpt lat="59.30056" lon="18.080539">
        <ele>34</ele>
        <time>2019-11-16T08:38:53Z</time>
      </trkpt>
      <trkpt lat="59.300511" lon="18.080569">
        <ele>35</ele>
        <time>2019-11-16T08:38:54Z</time>
      </trkpt>
      <trkpt lat="59.300462" lon="18.080598">
        <ele>35</ele>
        <time>2019-11-16T08:38:55Z</time>
      </trkpt>
      <trkpt lat="59.300412" lon="18.080628">
        <ele>35</ele>
        <time>2019-11-16T08:38:56Z</time>
      </trkpt>
      <trkpt lat="59.30036" lon="18.080661">
        <ele>35</ele>
        <time>2019-11-16T08:38:57Z</time>
      </trkpt>
      <trkpt lat="59.30031" lon="18.080694">
        <ele>35</ele>
        <time>2019-11-16T08:38:58Z</time>
      </trkpt>
      <trkpt lat="59.300258" lon="18.080726">
        <ele>35</ele>
        <time>2019-11-16T08:38:59Z</time>
      </trkpt>
      <trkpt lat="59.300206" lon="18.080759">
        <ele>35</ele>
        <time>2019-11-16T08:39:00Z</time>
      </trkpt>
      <trkpt lat="59.300155" lon="18.080792">
        <ele>34</ele>
        <time>2019-11-16T08:39:00Z</time>
      </trkpt>
      <trkpt lat="59.300103" lon="18.080827">
        <ele>35</ele>
        <time>2019-11-16T08:39:01Z</time>
      </trkpt>
      <trkpt lat="59.300049" lon="18.08086">
        <ele>35</ele>
        <time>2019-11-16T08:39:03Z</time>
      </trkpt>
      <trkpt lat="59.299996" lon="18.080889">
        <ele>35</ele>
        <time>2019-11-16T08:39:04Z</time>
      </trkpt>
      <trkpt lat="59.299944" lon="18.080917">
        <ele>35</ele>
        <time>2019-11-16T08:39:05Z</time>
      </trkpt>
      <trkpt lat="59.29989" lon="18.080946">
        <ele>35</ele>
        <time>2019-11-16T08:39:06Z</time>
      </trkpt>
      <trkpt lat="59.299838" lon="18.080973">
        <ele>35</ele>
        <time>2019-11-16T08:39:07Z</time>
      </trkpt>
      <trkpt lat="59.299787" lon="18.081005">
        <ele>35</ele>
        <time>2019-11-16T08:39:08Z</time>
      </trkpt>
      <trkpt lat="59.299737" lon="18.081036">
        <ele>35</ele>
        <time>2019-11-16T08:39:09Z</time>
      </trkpt>
      <trkpt lat="59.299687" lon="18.081068">
        <ele>0</ele>
        <time>2019-11-16T08:39:09Z</time>
      </trkpt>
      <trkpt lat="59.299636" lon="18.081103">
        <ele>35</ele>
        <time>2019-11-16T08:39:10Z</time>
      </trkpt>
      <trkpt lat="59.299587" lon="18.081139">
        <ele>36</ele>
        <time>2019-11-16T08:39:12Z</time>
      </trkpt>
      <trkpt lat="59.299537" lon="18.081172">
        <ele>36</ele>
        <time>2019-11-16T08:39:13Z</time>
      </trkpt>
      <trkpt lat="59.299489" lon="18.081202">
        <ele>36</ele>
        <time>2019-11-16T08:39:14Z</time>
      </trkpt>
      <trkpt lat="59.299446" lon="18.081226">
        <ele>36</ele>
        <time>2019-11-16T08:39:15Z</time>
      </trkpt>
      <trkpt lat="59.299409" lon="18.08125">
        <ele>36</ele>
        <time>2019-11-16T08:39:16Z</time>
      </trkpt>
      <trkpt lat="59.299372" lon="18.081282">
        <ele>36</ele>
        <time>2019-11-16T08:39:17Z</time>
      </trkpt>
      <trkpt lat="59.299336" lon="18.081309">
        <ele>36</ele>
        <time>2019-11-16T08:39:18Z</time>
      </trkpt>
      <trkpt lat="59.299299" lon="18.08134">
        <ele>36</ele>
        <time>2019-11-16T08:39:19Z</time>
      </trkpt>
      <trkpt lat="59.29927" lon="18.081378">
        <ele>36</ele>
        <time>2019-11-16T08:39:20Z</time>
      </trkpt>
      <trkpt lat="59.299242" lon="18.081408">
        <ele>0</ele>
        <time>2019-11-16T08:39:20Z</time>
      </trkpt>
      <trkpt lat="59.299213" lon="18.081439">
        <ele>36</ele>
        <time>2019-11-16T08:39:21Z</time>
      </trkpt>
      <trkpt lat="59.29918" lon="18.081479">
        <ele>37</ele>
        <time>2019-11-16T08:39:23Z</time>
      </trkpt>
      <trkpt lat="59.299146" lon="18.081518">
        <ele>37</ele>
        <time>2019-11-16T08:39:24Z</time>
      </trkpt>
      <trkpt lat="59.299047" lon="18.081628">
        <ele>37</ele>
        <time>2019-11-16T08:39:27Z</time>
      </trkpt>
      <trkpt lat="59.298961" lon="18.081681">
        <ele>0</ele>
        <time>2019-11-16T08:39:28Z</time>
      </trkpt>
      <trkpt lat="59.298842" lon="18.081739">
        <ele>38</ele>
        <time>2019-11-16T08:39:31Z</time>
      </trkpt>
      <trkpt lat="59.298785" lon="18.081765">
        <ele>0</ele>
        <time>2019-11-16T08:39:31Z</time>
      </trkpt>
      <trkpt lat="59.298726" lon="18.081794">
        <ele>38</ele>
        <time>2019-11-16T08:39:32Z</time>
      </trkpt>
      <trkpt lat="59.298673" lon="18.081831">
        <ele>38</ele>
        <time>2019-11-16T08:39:34Z</time>
      </trkpt>
      <trkpt lat="59.298621" lon="18.081873">
        <ele>38</ele>
        <time>2019-11-16T08:39:35Z</time>
      </trkpt>
      <trkpt lat="59.298571" lon="18.081923">
        <ele>38</ele>
        <time>2019-11-16T08:39:36Z</time>
      </trkpt>
      <trkpt lat="59.298517" lon="18.081975">
        <ele>38</ele>
        <time>2019-11-16T08:39:37Z</time>
      </trkpt>
      <trkpt lat="59.298468" lon="18.082015">
        <ele>38</ele>
        <time>2019-11-16T08:39:38Z</time>
      </trkpt>
      <trkpt lat="59.298423" lon="18.082042">
        <ele>39</ele>
        <time>2019-11-16T08:39:39Z</time>
      </trkpt>
      <trkpt lat="59.298384" lon="18.082068">
        <ele>39</ele>
        <time>2019-11-16T08:39:40Z</time>
      </trkpt>
      <trkpt lat="59.298347" lon="18.082091">
        <ele>39</ele>
        <time>2019-11-16T08:39:41Z</time>
      </trkpt>
      <trkpt lat="59.298305" lon="18.082129">
        <ele>0</ele>
        <time>2019-11-16T08:39:41Z</time>
      </trkpt>
      <trkpt lat="59.29826" lon="18.082159">
        <ele>39</ele>
        <time>2019-11-16T08:39:42Z</time>
      </trkpt>
      <trkpt lat="59.298218" lon="18.082188">
        <ele>39</ele>
        <time>2019-11-16T08:39:44Z</time>
      </trkpt>
      <trkpt lat="59.298173" lon="18.082215">
        <ele>39</ele>
        <time>2019-11-16T08:39:45Z</time>
      </trkpt>
      <trkpt lat="59.298127" lon="18.082247">
        <ele>39</ele>
        <time>2019-11-16T08:39:46Z</time>
      </trkpt>
      <trkpt lat="59.298081" lon="18.082281">
        <ele>39</ele>
        <time>2019-11-16T08:39:47Z</time>
      </trkpt>
      <trkpt lat="59.298035" lon="18.082313">
        <ele>0</ele>
        <time>2019-11-16T08:39:47Z</time>
      </trkpt>
      <trkpt lat="59.297989" lon="18.082342">
        <ele>39</ele>
        <time>2019-11-16T08:39:48Z</time>
      </trkpt>
      <trkpt lat="59.297943" lon="18.082368">
        <ele>40</ele>
        <time>2019-11-16T08:39:50Z</time>
      </trkpt>
      <trkpt lat="59.297896" lon="18.082391">
        <ele>39</ele>
        <time>2019-11-16T08:39:51Z</time>
      </trkpt>
      <trkpt lat="59.297847" lon="18.082417">
        <ele>0</ele>
        <time>2019-11-16T08:39:51Z</time>
      </trkpt>
      <trkpt lat="59.297799" lon="18.082443">
        <ele>39</ele>
        <time>2019-11-16T08:39:52Z</time>
      </trkpt>
      <trkpt lat="59.297751" lon="18.08247">
        <ele>39</ele>
        <time>2019-11-16T08:39:54Z</time>
      </trkpt>
      <trkpt lat="59.297704" lon="18.082497">
        <ele>39</ele>
        <time>2019-11-16T08:39:55Z</time>
      </trkpt>
      <trkpt lat="59.297659" lon="18.082525">
        <ele>39</ele>
        <time>2019-11-16T08:39:56Z</time>
      </trkpt>
      <trkpt lat="59.297613" lon="18.082554">
        <ele>39</ele>
        <time>2019-11-16T08:39:57Z</time>
      </trkpt>
      <trkpt lat="59.297569" lon="18.082581">
        <ele>39</ele>
        <time>2019-11-16T08:39:58Z</time>
      </trkpt>
      <trkpt lat="59.297526" lon="18.082608">
        <ele>39</ele>
        <time>2019-11-16T08:39:59Z</time>
      </trkpt>
      <trkpt lat="59.297481" lon="18.082636">
        <ele>40</ele>
        <time>2019-11-16T08:40:00Z</time>
      </trkpt>
      <trkpt lat="59.297435" lon="18.082664">
        <ele>40</ele>
        <time>2019-11-16T08:40:01Z</time>
      </trkpt>
      <trkpt lat="59.297392" lon="18.082689">
        <ele>40</ele>
        <time>2019-11-16T08:40:02Z</time>
      </trkpt>
      <trkpt lat="59.297349" lon="18.082711">
        <ele>0</ele>
        <time>2019-11-16T08:40:02Z</time>
      </trkpt>
      <trkpt lat="59.297301" lon="18.082731">
        <ele>40</ele>
        <time>2019-11-16T08:40:03Z</time>
      </trkpt>
      <trkpt lat="59.297252" lon="18.082746">
        <ele>40</ele>
        <time>2019-11-16T08:40:05Z</time>
      </trkpt>
      <trkpt lat="59.297205" lon="18.08276">
        <ele>40</ele>
        <time>2019-11-16T08:40:06Z</time>
      </trkpt>
      <trkpt lat="59.29716" lon="18.082773">
        <ele>0</ele>
        <time>2019-11-16T08:40:06Z</time>
      </trkpt>
      <trkpt lat="59.297116" lon="18.08279">
        <ele>41</ele>
        <time>2019-11-16T08:40:07Z</time>
      </trkpt>
      <trkpt lat="59.297073" lon="18.082812">
        <ele>41</ele>
        <time>2019-11-16T08:40:09Z</time>
      </trkpt>
      <trkpt lat="59.297032" lon="18.082833">
        <ele>41</ele>
        <time>2019-11-16T08:40:10Z</time>
      </trkpt>
      <trkpt lat="59.296992" lon="18.082851">
        <ele>41</ele>
        <time>2019-11-16T08:40:11Z</time>
      </trkpt>
      <trkpt lat="59.296947" lon="18.08287">
        <ele>41</ele>
        <time>2019-11-16T08:40:12Z</time>
      </trkpt>
      <trkpt lat="59.296904" lon="18.082895">
        <ele>41</ele>
        <time>2019-11-16T08:40:13Z</time>
      </trkpt>
      <trkpt lat="59.296861" lon="18.08293">
        <ele>0</ele>
        <time>2019-11-16T08:40:13Z</time>
      </trkpt>
      <trkpt lat="59.296824" lon="18.082969">
        <ele>41</ele>
        <time>2019-11-16T08:40:14Z</time>
      </trkpt>
      <trkpt lat="59.296788" lon="18.083007">
        <ele>41</ele>
        <time>2019-11-16T08:40:16Z</time>
      </trkpt>
      <trkpt lat="59.296753" lon="18.083041">
        <ele>42</ele>
        <time>2019-11-16T08:40:17Z</time>
      </trkpt>
      <trkpt lat="59.296721" lon="18.083073">
        <ele>42</ele>
        <time>2019-11-16T08:40:18Z</time>
      </trkpt>
      <trkpt lat="59.296689" lon="18.083103">
        <ele>42</ele>
        <time>2019-11-16T08:40:19Z</time>
      </trkpt>
      <trkpt lat="59.296658" lon="18.083119">
        <ele>42</ele>
        <time>2019-11-16T08:40:20Z</time>
      </trkpt>
      <trkpt lat="59.296623" lon="18.08314">
        <ele>43</ele>
        <time>2019-11-16T08:40:21Z</time>
      </trkpt>
      <trkpt lat="59.296589" lon="18.083175">
        <ele>43</ele>
        <time>2019-11-16T08:40:22Z</time>
      </trkpt>
      <trkpt lat="59.296553" lon="18.083214">
        <ele>43</ele>
        <time>2019-11-16T08:40:23Z</time>
      </trkpt>
      <trkpt lat="59.296516" lon="18.083251">
        <ele>43</ele>
        <time>2019-11-16T08:40:24Z</time>
      </trkpt>
      <trkpt lat="59.296477" lon="18.083286">
        <ele>43</ele>
        <time>2019-11-16T08:40:25Z</time>
      </trkpt>
      <trkpt lat="59.296438" lon="18.083314">
        <ele>0</ele>
        <time>2019-11-16T08:40:25Z</time>
      </trkpt>
      <trkpt lat="59.296398" lon="18.08334">
        <ele>43</ele>
        <time>2019-11-16T08:40:26Z</time>
      </trkpt>
      <trkpt lat="59.296357" lon="18.083363">
        <ele>43</ele>
        <time>2019-11-16T08:40:27Z</time>
      </trkpt>
      <trkpt lat="59.296315" lon="18.083387">
        <ele>43</ele>
        <time>2019-11-16T08:40:29Z</time>
      </trkpt>
      <trkpt lat="59.29627" lon="18.083415">
        <ele>44</ele>
        <time>2019-11-16T08:40:30Z</time>
      </trkpt>
      <trkpt lat="59.296226" lon="18.083444">
        <ele>44</ele>
        <time>2019-11-16T08:40:31Z</time>
      </trkpt>
      <trkpt lat="59.29618" lon="18.083473">
        <ele>44</ele>
        <time>2019-11-16T08:40:32Z</time>
      </trkpt>
      <trkpt lat="59.296135" lon="18.083501">
        <ele>44</ele>
        <time>2019-11-16T08:40:33Z</time>
      </trkpt>
      <trkpt lat="59.296094" lon="18.083528">
        <ele>44</ele>
        <time>2019-11-16T08:40:34Z</time>
      </trkpt>
      <trkpt lat="59.296051" lon="18.083554">
        <ele>44</ele>
        <time>2019-11-16T08:40:35Z</time>
      </trkpt>
      <trkpt lat="59.296009" lon="18.083579">
        <ele>44</ele>
        <time>2019-11-16T08:40:36Z</time>
      </trkpt>
      <trkpt lat="59.295966" lon="18.083605">
        <ele>44</ele>
        <time>2019-11-16T08:40:37Z</time>
      </trkpt>
      <trkpt lat="59.295921" lon="18.083634">
        <ele>0</ele>
        <time>2019-11-16T08:40:37Z</time>
      </trkpt>
      <trkpt lat="59.295874" lon="18.083664">
        <ele>44</ele>
        <time>2019-11-16T08:40:38Z</time>
      </trkpt>
      <trkpt lat="59.295826" lon="18.083696">
        <ele>45</ele>
        <time>2019-11-16T08:40:40Z</time>
      </trkpt>
      <trkpt lat="59.295776" lon="18.083729">
        <ele>45</ele>
        <time>2019-11-16T08:40:41Z</time>
      </trkpt>
      <trkpt lat="59.295725" lon="18.083762">
        <ele>45</ele>
        <time>2019-11-16T08:40:42Z</time>
      </trkpt>
      <trkpt lat="59.295674" lon="18.083795">
        <ele>45</ele>
        <time>2019-11-16T08:40:43Z</time>
      </trkpt>
      <trkpt lat="59.295621" lon="18.083829">
        <ele>45</ele>
        <time>2019-11-16T08:40:44Z</time>
      </trkpt>
      <trkpt lat="59.295568" lon="18.083864">
        <ele>0</ele>
        <time>2019-11-16T08:40:44Z</time>
      </trkpt>
      <trkpt lat="59.295513" lon="18.083899">
        <ele>45</ele>
        <time>2019-11-16T08:40:45Z</time>
      </trkpt>
      <trkpt lat="59.295458" lon="18.083936">
        <ele>0</ele>
        <time>2019-11-16T08:40:46Z</time>
      </trkpt>
      <trkpt lat="59.295402" lon="18.083972">
        <ele>45</ele>
        <time>2019-11-16T08:40:47Z</time>
      </trkpt>
      <trkpt lat="59.295346" lon="18.084005">
        <ele>45</ele>
        <time>2019-11-16T08:40:49Z</time>
      </trkpt>
      <trkpt lat="59.29529" lon="18.084037">
        <ele>45</ele>
        <time>2019-11-16T08:40:50Z</time>
      </trkpt>
      <trkpt lat="59.295233" lon="18.084072">
        <ele>45</ele>
        <time>2019-11-16T08:40:51Z</time>
      </trkpt>
      <trkpt lat="59.295177" lon="18.084104">
        <ele>45</ele>
        <time>2019-11-16T08:40:52Z</time>
      </trkpt>
      <trkpt lat="59.295119" lon="18.084139">
        <ele>45</ele>
        <time>2019-11-16T08:40:53Z</time>
      </trkpt>
      <trkpt lat="59.29506" lon="18.084173">
        <ele>45</ele>
        <time>2019-11-16T08:40:54Z</time>
      </trkpt>
      <trkpt lat="59.295001" lon="18.084207">
        <ele>0</ele>
        <time>2019-11-16T08:40:54Z</time>
      </trkpt>
      <trkpt lat="59.294941" lon="18.084242">
        <ele>45</ele>
        <time>2019-11-16T08:40:55Z</time>
      </trkpt>
      <trkpt lat="59.294881" lon="18.084277">
        <ele>45</ele>
        <time>2019-11-16T08:40:57Z</time>
      </trkpt>
      <trkpt lat="59.29482" lon="18.084312">
        <ele>45</ele>
        <time>2019-11-16T08:40:58Z</time>
      </trkpt>
      <trkpt lat="59.294759" lon="18.084347">
        <ele>45</ele>
        <time>2019-11-16T08:40:59Z</time>
      </trkpt>
      <trkpt lat="59.294697" lon="18.08438">
        <ele>45</ele>
        <time>2019-11-16T08:41:00Z</time>
      </trkpt>
      <trkpt lat="59.294634" lon="18.08441">
        <ele>45</ele>
        <time>2019-11-16T08:41:01Z</time>
      </trkpt>
      <trkpt lat="59.294574" lon="18.084442">
        <ele>45</ele>
        <time>2019-11-16T08:41:02Z</time>
      </trkpt>
      <trkpt lat="59.294518" lon="18.084473">
        <ele>0</ele>
        <time>2019-11-16T08:41:02Z</time>
      </trkpt>
      <trkpt lat="59.294461" lon="18.084502">
        <ele>45</ele>
        <time>2019-11-16T08:41:03Z</time>
      </trkpt>
      <trkpt lat="59.294405" lon="18.084531">
        <ele>45</ele>
        <time>2019-11-16T08:41:04Z</time>
      </trkpt>
      <trkpt lat="59.294286" lon="18.084582">
        <ele>45</ele>
        <time>2019-11-16T08:41:07Z</time>
      </trkpt>
      <trkpt lat="59.294172" lon="18.084644">
        <ele>45</ele>
        <time>2019-11-16T08:41:09Z</time>
      </trkpt>
      <trkpt lat="59.294042" lon="18.08471">
        <ele>45</ele>
        <time>2019-11-16T08:41:11Z</time>
      </trkpt>
      <trkpt lat="59.293982" lon="18.084752">
        <ele>0</ele>
        <time>2019-11-16T08:41:11Z</time>
      </trkpt>
      <trkpt lat="59.293919" lon="18.08479">
        <ele>45</ele>
        <time>2019-11-16T08:41:12Z</time>
      </trkpt>
      <trkpt lat="59.293866" lon="18.084818">
        <ele>45</ele>
        <time>2019-11-16T08:41:14Z</time>
      </trkpt>
      <trkpt lat="59.293812" lon="18.084844">
        <ele>46</ele>
        <time>2019-11-16T08:41:15Z</time>
      </trkpt>
      <trkpt lat="59.29376" lon="18.08487">
        <ele>46</ele>
        <time>2019-11-16T08:41:16Z</time>
      </trkpt>
      <trkpt lat="59.293699" lon="18.0849">
        <ele>46</ele>
        <time>2019-11-16T08:41:17Z</time>
      </trkpt>
      <trkpt lat="59.293638" lon="18.084926">
        <ele>46</ele>
        <time>2019-11-16T08:41:18Z</time>
      </trkpt>
      <trkpt lat="59.29357" lon="18.084956">
        <ele>46</ele>
        <time>2019-11-16T08:41:19Z</time>
      </trkpt>
      <trkpt lat="59.293504" lon="18.084981">
        <ele>0</ele>
        <time>2019-11-16T08:41:19Z</time>
      </trkpt>
      <trkpt lat="59.29344" lon="18.085005">
        <ele>46</ele>
        <time>2019-11-16T08:41:20Z</time>
      </trkpt>
      <trkpt lat="59.293372" lon="18.085033">
        <ele>47</ele>
        <time>2019-11-16T08:41:22Z</time>
      </trkpt>
      <trkpt lat="59.293305" lon="18.085056">
        <ele>0</ele>
        <time>2019-11-16T08:41:22Z</time>
      </trkpt>
      <trkpt lat="59.293246" lon="18.085076">
        <ele>48</ele>
        <time>2019-11-16T08:41:23Z</time>
      </trkpt>
      <trkpt lat="59.293182" lon="18.085102">
        <ele>48</ele>
        <time>2019-11-16T08:41:25Z</time>
      </trkpt>
      <trkpt lat="59.293126" lon="18.085121">
        <ele>49</ele>
        <time>2019-11-16T08:41:26Z</time>
      </trkpt>
      <trkpt lat="59.293074" lon="18.08514">
        <ele>49</ele>
        <time>2019-11-16T08:41:27Z</time>
      </trkpt>
      <trkpt lat="59.293028" lon="18.085156">
        <ele>0</ele>
        <time>2019-11-16T08:41:27Z</time>
      </trkpt>
      <trkpt lat="59.292981" lon="18.085168">
        <ele>49</ele>
        <time>2019-11-16T08:41:28Z</time>
      </trkpt>
      <trkpt lat="59.292936" lon="18.085182">
        <ele>50</ele>
        <time>2019-11-16T08:41:30Z</time>
      </trkpt>
      <trkpt lat="59.29289" lon="18.0852">
        <ele>50</ele>
        <time>2019-11-16T08:41:31Z</time>
      </trkpt>
      <trkpt lat="59.292848" lon="18.085208">
        <ele>50</ele>
        <time>2019-11-16T08:41:32Z</time>
      </trkpt>
      <trkpt lat="59.292801" lon="18.085196">
        <ele>50</ele>
        <time>2019-11-16T08:41:33Z</time>
      </trkpt>
      <trkpt lat="59.292759" lon="18.085164">
        <ele>50</ele>
        <time>2019-11-16T08:41:34Z</time>
      </trkpt>
      <trkpt lat="59.292718" lon="18.085114">
        <ele>50</ele>
        <time>2019-11-16T08:41:35Z</time>
      </trkpt>
      <trkpt lat="59.292677" lon="18.085064">
        <ele>50</ele>
        <time>2019-11-16T08:41:36Z</time>
      </trkpt>
      <trkpt lat="59.29263" lon="18.085018">
        <ele>50</ele>
        <time>2019-11-16T08:41:37Z</time>
      </trkpt>
      <trkpt lat="59.292582" lon="18.084998">
        <ele>0</ele>
        <time>2019-11-16T08:41:37Z</time>
      </trkpt>
      <trkpt lat="59.292536" lon="18.084992">
        <ele>50</ele>
        <time>2019-11-16T08:41:38Z</time>
      </trkpt>
      <trkpt lat="59.292488" lon="18.085005">
        <ele>50</ele>
        <time>2019-11-16T08:41:40Z</time>
      </trkpt>
      <trkpt lat="59.292436" lon="18.08504">
        <ele>51</ele>
        <time>2019-11-16T08:41:41Z</time>
      </trkpt>
      <trkpt lat="59.292382" lon="18.08509">
        <ele>0</ele>
        <time>2019-11-16T08:41:41Z</time>
      </trkpt>
      <trkpt lat="59.292328" lon="18.085142">
        <ele>51</ele>
        <time>2019-11-16T08:41:42Z</time>
      </trkpt>
      <trkpt lat="59.292276" lon="18.08519">
        <ele>51</ele>
        <time>2019-11-16T08:41:44Z</time>
      </trkpt>
      <trkpt lat="59.29223" lon="18.085226">
        <ele>51</ele>
        <time>2019-11-16T08:41:45Z</time>
      </trkpt>
      <trkpt lat="59.292185" lon="18.085268">
        <ele>51</ele>
        <time>2019-11-16T08:41:46Z</time>
      </trkpt>
      <trkpt lat="59.292141" lon="18.085314">
        <ele>51</ele>
        <time>2019-11-16T08:41:47Z</time>
      </trkpt>
      <trkpt lat="59.292085" lon="18.085374">
        <ele>0</ele>
        <time>2019-11-16T08:41:47Z</time>
      </trkpt>
      <trkpt lat="59.292002" lon="18.085516">
        <ele>52</ele>
        <time>2019-11-16T08:41:50Z</time>
      </trkpt>
      <trkpt lat="59.291904" lon="18.085648">
        <ele>52</ele>
        <time>2019-11-16T08:41:52Z</time>
      </trkpt>
      <trkpt lat="59.291794" lon="18.08576">
        <ele>53</ele>
        <time>2019-11-16T08:41:54Z</time>
      </trkpt>
      <trkpt lat="59.291667" lon="18.085886">
        <ele>0</ele>
        <time>2019-11-16T08:41:55Z</time>
      </trkpt>
      <trkpt lat="59.291559" lon="18.086004">
        <ele>53</ele>
        <time>2019-11-16T08:41:58Z</time>
      </trkpt>
      <trkpt lat="59.291452" lon="18.08612">
        <ele>53</ele>
        <time>2019-11-16T08:42:00Z</time>
      </trkpt>
      <trkpt lat="59.291336" lon="18.08623">
        <ele>53</ele>
        <time>2019-11-16T08:42:01Z</time>
      </trkpt>
      <trkpt lat="59.291235" lon="18.086332">
        <ele>0</ele>
        <time>2019-11-16T08:42:03Z</time>
      </trkpt>
      <trkpt lat="59.291124" lon="18.086427">
        <ele>54</ele>
        <time>2019-11-16T08:42:06Z</time>
      </trkpt>
      <trkpt lat="59.290979" lon="18.086521">
        <ele>55</ele>
        <time>2019-11-16T08:42:08Z</time>
      </trkpt>
      <trkpt lat="59.290833" lon="18.086577">
        <ele>55</ele>
        <time>2019-11-16T08:42:09Z</time>
      </trkpt>
      <trkpt lat="59.2907" lon="18.086625">
        <ele>0</ele>
        <time>2019-11-16T08:42:11Z</time>
      </trkpt>
      <trkpt lat="59.290572" lon="18.08668">
        <ele>55</ele>
        <time>2019-11-16T08:42:14Z</time>
      </trkpt>
      <trkpt lat="59.290508" lon="18.086691">
        <ele>56</ele>
        <time>2019-11-16T08:42:15Z</time>
      </trkpt>
      <trkpt lat="59.29045" lon="18.086673">
        <ele>56</ele>
        <time>2019-11-16T08:42:16Z</time>
      </trkpt>
      <trkpt lat="59.290395" lon="18.086616">
        <ele>56</ele>
        <time>2019-11-16T08:42:17Z</time>
      </trkpt>
      <trkpt lat="59.290335" lon="18.086583">
        <ele>56</ele>
        <time>2019-11-16T08:42:18Z</time>
      </trkpt>
      <trkpt lat="59.29027" lon="18.08655">
        <ele>0</ele>
        <time>2019-11-16T08:42:18Z</time>
      </trkpt>
      <trkpt lat="59.2902" lon="18.086538">
        <ele>55</ele>
        <time>2019-11-16T08:42:19Z</time>
      </trkpt>
      <trkpt lat="59.290126" lon="18.086542">
        <ele>55</ele>
        <time>2019-11-16T08:42:20Z</time>
      </trkpt>
      <trkpt lat="59.290052" lon="18.086561">
        <ele>54</ele>
        <time>2019-11-16T08:42:22Z</time>
      </trkpt>
      <trkpt lat="59.289977" lon="18.086585">
        <ele>53</ele>
        <time>2019-11-16T08:42:23Z</time>
      </trkpt>
      <trkpt lat="59.289892" lon="18.086604">
        <ele>52</ele>
        <time>2019-11-16T08:42:24Z</time>
      </trkpt>
      <trkpt lat="59.289803" lon="18.086629">
        <ele>0</ele>
        <time>2019-11-16T08:42:24Z</time>
      </trkpt>
      <trkpt lat="59.289706" lon="18.086639">
        <ele>51</ele>
        <time>2019-11-16T08:42:25Z</time>
      </trkpt>
      <trkpt lat="59.289614" lon="18.086664">
        <ele>46</ele>
        <time>2019-11-16T08:42:27Z</time>
      </trkpt>
      <trkpt lat="59.289519" lon="18.0867">
        <ele>45</ele>
        <time>2019-11-16T08:42:28Z</time>
      </trkpt>
      <trkpt lat="59.289425" lon="18.086739">
        <ele>43</ele>
        <time>2019-11-16T08:42:29Z</time>
      </trkpt>
      <trkpt lat="59.289328" lon="18.086786">
        <ele>0</ele>
        <time>2019-11-16T08:42:29Z</time>
      </trkpt>
      <trkpt lat="59.289232" lon="18.086839">
        <ele>42</ele>
        <time>2019-11-16T08:42:30Z</time>
      </trkpt>
      <trkpt lat="59.289133" lon="18.086901">
        <ele>40</ele>
        <time>2019-11-16T08:42:32Z</time>
      </trkpt>
      <trkpt lat="59.289033" lon="18.086961">
        <ele>39</ele>
        <time>2019-11-16T08:42:33Z</time>
      </trkpt>
      <trkpt lat="59.288932" lon="18.087018">
        <ele>38</ele>
        <time>2019-11-16T08:42:34Z</time>
      </trkpt>
      <trkpt lat="59.288831" lon="18.087073">
        <ele>0</ele>
        <time>2019-11-16T08:42:34Z</time>
      </trkpt>
      <trkpt lat="59.288733" lon="18.08712">
        <ele>38</ele>
        <time>2019-11-16T08:42:35Z</time>
      </trkpt>
      <trkpt lat="59.288633" lon="18.087163">
        <ele>37</ele>
        <time>2019-11-16T08:42:37Z</time>
      </trkpt>
      <trkpt lat="59.288529" lon="18.087201">
        <ele>37</ele>
        <time>2019-11-16T08:42:38Z</time>
      </trkpt>
      <trkpt lat="59.28842" lon="18.087266">
        <ele>0</ele>
        <time>2019-11-16T08:42:38Z</time>
      </trkpt>
      <trkpt lat="59.288311" lon="18.087318">
        <ele>37</ele>
        <time>2019-11-16T08:42:39Z</time>
      </trkpt>
      <trkpt lat="59.288209" lon="18.087357">
        <ele>36</ele>
        <time>2019-11-16T08:42:40Z</time>
      </trkpt>
      <trkpt lat="59.288111" lon="18.087398">
        <ele>35</ele>
        <time>2019-11-16T08:42:42Z</time>
      </trkpt>
      <trkpt lat="59.288022" lon="18.087441">
        <ele>35</ele>
        <time>2019-11-16T08:42:43Z</time>
      </trkpt>
      <trkpt lat="59.28787" lon="18.087527">
        <ele>0</ele>
        <time>2019-11-16T08:42:44Z</time>
      </trkpt>
      <trkpt lat="59.287728" lon="18.087618">
        <ele>34</ele>
        <time>2019-11-16T08:42:47Z</time>
      </trkpt>
      <trkpt lat="59.287666" lon="18.087662">
        <ele>34</ele>
        <time>2019-11-16T08:42:48Z</time>
      </trkpt>
      <trkpt lat="59.287609" lon="18.087709">
        <ele>34</ele>
        <time>2019-11-16T08:42:49Z</time>
      </trkpt>
      <trkpt lat="59.287555" lon="18.087751">
        <ele>34</ele>
        <time>2019-11-16T08:42:50Z</time>
      </trkpt>
      <trkpt lat="59.287503" lon="18.087789">
        <ele>34</ele>
        <time>2019-11-16T08:42:51Z</time>
      </trkpt>
      <trkpt lat="59.287453" lon="18.087826">
        <ele>34</ele>
        <time>2019-11-16T08:42:52Z</time>
      </trkpt>
      <trkpt lat="59.287407" lon="18.087866">
        <ele>0</ele>
        <time>2019-11-16T08:42:52Z</time>
      </trkpt>
      <trkpt lat="59.287362" lon="18.087904">
        <ele>34</ele>
        <time>2019-11-16T08:42:53Z</time>
      </trkpt>
      <trkpt lat="59.287316" lon="18.087943">
        <ele>34</ele>
        <time>2019-11-16T08:42:55Z</time>
      </trkpt>
      <trkpt lat="59.287273" lon="18.087981">
        <ele>34</ele>
        <time>2019-11-16T08:42:56Z</time>
      </trkpt>
      <trkpt lat="59.287229" lon="18.088013">
        <ele>34</ele>
        <time>2019-11-16T08:42:57Z</time>
      </trkpt>
      <trkpt lat="59.287183" lon="18.08804">
        <ele>0</ele>
        <time>2019-11-16T08:42:57Z</time>
      </trkpt>
      <trkpt lat="59.287202" lon="18.088031">
        <ele>34</ele>
        <time>2019-11-16T08:42:58Z</time>
      </trkpt>
      <trkpt lat="59.287159" lon="18.08805">
        <ele>35</ele>
        <time>2019-11-16T08:43:01Z</time>
      </trkpt>
      <trkpt lat="59.287119" lon="18.088073">
        <ele>35</ele>
        <time>2019-11-16T08:43:06Z</time>
      </trkpt>
      <trkpt lat="59.287074" lon="18.088093">
        <ele>35</ele>
        <time>2019-11-16T08:43:07Z</time>
      </trkpt>
      <trkpt lat="59.287" lon="18.08813">
        <ele>35</ele>
        <time>2019-11-16T08:43:08Z</time>
      </trkpt>
      <trkpt lat="59.286919" lon="18.088167">
        <ele>0</ele>
        <time>2019-11-16T08:43:08Z</time>
      </trkpt>
      <trkpt lat="59.28684" lon="18.088202">
        <ele>35</ele>
        <time>2019-11-16T08:43:09Z</time>
      </trkpt>
      <trkpt lat="59.286765" lon="18.088234">
        <ele>35</ele>
        <time>2019-11-16T08:43:11Z</time>
      </trkpt>
      <trkpt lat="59.286692" lon="18.088269">
        <ele>34</ele>
        <time>2019-11-16T08:43:12Z</time>
      </trkpt>
      <trkpt lat="59.286631" lon="18.088301">
        <ele>34</ele>
        <time>2019-11-16T08:43:13Z</time>
      </trkpt>
      <trkpt lat="59.286573" lon="18.088332">
        <ele>34</ele>
        <time>2019-11-16T08:43:14Z</time>
      </trkpt>
      <trkpt lat="59.286506" lon="18.088369">
        <ele>34</ele>
        <time>2019-11-16T08:43:15Z</time>
      </trkpt>
      <trkpt lat="59.286442" lon="18.088403">
        <ele>0</ele>
        <time>2019-11-16T08:43:15Z</time>
      </trkpt>
      <trkpt lat="59.286381" lon="18.088433">
        <ele>34</ele>
        <time>2019-11-16T08:43:16Z</time>
      </trkpt>
      <trkpt lat="59.286321" lon="18.088461">
        <ele>34</ele>
        <time>2019-11-16T08:43:17Z</time>
      </trkpt>
      <trkpt lat="59.286262" lon="18.088492">
        <ele>35</ele>
        <time>2019-11-16T08:43:19Z</time>
      </trkpt>
      <trkpt lat="59.286202" lon="18.088524">
        <ele>35</ele>
        <time>2019-11-16T08:43:20Z</time>
      </trkpt>
      <trkpt lat="59.286142" lon="18.088557">
        <ele>35</ele>
        <time>2019-11-16T08:43:21Z</time>
      </trkpt>
      <trkpt lat="59.286079" lon="18.088593">
        <ele>35</ele>
        <time>2019-11-16T08:43:22Z</time>
      </trkpt>
      <trkpt lat="59.286015" lon="18.088629">
        <ele>35</ele>
        <time>2019-11-16T08:43:23Z</time>
      </trkpt>
      <trkpt lat="59.285952" lon="18.088664">
        <ele>0</ele>
        <time>2019-11-16T08:43:23Z</time>
      </trkpt>
      <trkpt lat="59.285889" lon="18.088696">
        <ele>35</ele>
        <time>2019-11-16T08:43:24Z</time>
      </trkpt>
      <trkpt lat="59.285825" lon="18.088727">
        <ele>35</ele>
        <time>2019-11-16T08:43:26Z</time>
      </trkpt>
      <trkpt lat="59.285761" lon="18.088758">
        <ele>35</ele>
        <time>2019-11-16T08:43:27Z</time>
      </trkpt>
      <trkpt lat="59.285703" lon="18.08879">
        <ele>35</ele>
        <time>2019-11-16T08:43:28Z</time>
      </trkpt>
      <trkpt lat="59.285727" lon="18.088777">
        <ele>35</ele>
        <time>2019-11-16T08:43:29Z</time>
      </trkpt>
      <trkpt lat="59.285682" lon="18.088802">
        <ele>35</ele>
        <time>2019-11-16T08:43:32Z</time>
      </trkpt>
      <trkpt lat="59.285631" lon="18.088828">
        <ele>35</ele>
        <time>2019-11-16T08:43:33Z</time>
      </trkpt>
      <trkpt lat="59.285576" lon="18.088857">
        <ele>35</ele>
        <time>2019-11-16T08:43:34Z</time>
      </trkpt>
      <trkpt lat="59.285512" lon="18.08889">
        <ele>0</ele>
        <time>2019-11-16T08:43:34Z</time>
      </trkpt>
      <trkpt lat="59.28543" lon="18.088934">
        <ele>35</ele>
        <time>2019-11-16T08:43:35Z</time>
      </trkpt>
      <trkpt lat="59.285355" lon="18.088974">
        <ele>36</ele>
        <time>2019-11-16T08:43:36Z</time>
      </trkpt>
      <trkpt lat="59.285277" lon="18.089014">
        <ele>36</ele>
        <time>2019-11-16T08:43:38Z</time>
      </trkpt>
      <trkpt lat="59.2852" lon="18.089052">
        <ele>36</ele>
        <time>2019-11-16T08:43:39Z</time>
      </trkpt>
      <trkpt lat="59.28512" lon="18.089083">
        <ele>35</ele>
        <time>2019-11-16T08:43:40Z</time>
      </trkpt>
      <trkpt lat="59.28504" lon="18.089131">
        <ele>0</ele>
        <time>2019-11-16T08:43:40Z</time>
      </trkpt>
      <trkpt lat="59.284971" lon="18.089172">
        <ele>36</ele>
        <time>2019-11-16T08:43:41Z</time>
      </trkpt>
      <trkpt lat="59.284902" lon="18.089214">
        <ele>36</ele>
        <time>2019-11-16T08:43:43Z</time>
      </trkpt>
      <trkpt lat="59.284837" lon="18.089248">
        <ele>36</ele>
        <time>2019-11-16T08:43:44Z</time>
      </trkpt>
      <trkpt lat="59.28477" lon="18.089271">
        <ele>36</ele>
        <time>2019-11-16T08:43:45Z</time>
      </trkpt>
      <trkpt lat="59.284697" lon="18.089298">
        <ele>36</ele>
        <time>2019-11-16T08:43:46Z</time>
      </trkpt>
      <trkpt lat="59.284634" lon="18.089325">
        <ele>36</ele>
        <time>2019-11-16T08:43:47Z</time>
      </trkpt>
      <trkpt lat="59.284577" lon="18.08935">
        <ele>0</ele>
        <time>2019-11-16T08:43:47Z</time>
      </trkpt>
      <trkpt lat="59.284513" lon="18.089381">
        <ele>36</ele>
        <time>2019-11-16T08:43:48Z</time>
      </trkpt>
      <trkpt lat="59.284443" lon="18.089417">
        <ele>36</ele>
        <time>2019-11-16T08:43:50Z</time>
      </trkpt>
      <trkpt lat="59.284375" lon="18.089448">
        <ele>36</ele>
        <time>2019-11-16T08:43:51Z</time>
      </trkpt>
      <trkpt lat="59.284306" lon="18.089479">
        <ele>36</ele>
        <time>2019-11-16T08:43:52Z</time>
      </trkpt>
      <trkpt lat="59.284229" lon="18.089518">
        <ele>37</ele>
        <time>2019-11-16T08:43:53Z</time>
      </trkpt>
      <trkpt lat="59.284158" lon="18.089556">
        <ele>37</ele>
        <time>2019-11-16T08:43:54Z</time>
      </trkpt>
      <trkpt lat="59.284097" lon="18.089593">
        <ele>0</ele>
        <time>2019-11-16T08:43:54Z</time>
      </trkpt>
      <trkpt lat="59.284032" lon="18.089629">
        <ele>38</ele>
        <time>2019-11-16T08:43:55Z</time>
      </trkpt>
      <trkpt lat="59.283977" lon="18.08966">
        <ele>38</ele>
        <time>2019-11-16T08:43:57Z</time>
      </trkpt>
      <trkpt lat="59.283998" lon="18.089649">
        <ele>38</ele>
        <time>2019-11-16T08:43:58Z</time>
      </trkpt>
      <trkpt lat="59.283978" lon="18.089658">
        <ele>39</ele>
        <time>2019-11-16T08:44:00Z</time>
      </trkpt>
      <trkpt lat="59.283931" lon="18.08966">
        <ele>38</ele>
        <time>2019-11-16T08:44:02Z</time>
      </trkpt>
      <trkpt lat="59.283874" lon="18.089671">
        <ele>37</ele>
        <time>2019-11-16T08:44:03Z</time>
      </trkpt>
      <trkpt lat="59.283791" lon="18.089715">
        <ele>37</ele>
        <time>2019-11-16T08:44:04Z</time>
      </trkpt>
      <trkpt lat="59.283722" lon="18.089745">
        <ele>37</ele>
        <time>2019-11-16T08:44:05Z</time>
      </trkpt>
      <trkpt lat="59.283654" lon="18.089773">
        <ele>0</ele>
        <time>2019-11-16T08:44:05Z</time>
      </trkpt>
      <trkpt lat="59.283582" lon="18.089797">
        <ele>37</ele>
        <time>2019-11-16T08:44:06Z</time>
      </trkpt>
      <trkpt lat="59.283496" lon="18.089826">
        <ele>36</ele>
        <time>2019-11-16T08:44:08Z</time>
      </trkpt>
      <trkpt lat="59.283416" lon="18.089862">
        <ele>36</ele>
        <time>2019-11-16T08:44:09Z</time>
      </trkpt>
      <trkpt lat="59.283343" lon="18.089894">
        <ele>36</ele>
        <time>2019-11-16T08:44:10Z</time>
      </trkpt>
      <trkpt lat="59.283271" lon="18.089926">
        <ele>36</ele>
        <time>2019-11-16T08:44:11Z</time>
      </trkpt>
      <trkpt lat="59.2832" lon="18.089957">
        <ele>36</ele>
        <time>2019-11-16T08:44:12Z</time>
      </trkpt>
      <trkpt lat="59.283127" lon="18.089987">
        <ele>0</ele>
        <time>2019-11-16T08:44:12Z</time>
      </trkpt>
      <trkpt lat="59.283049" lon="18.090015">
        <ele>36</ele>
        <time>2019-11-16T08:44:13Z</time>
      </trkpt>
      <trkpt lat="59.282972" lon="18.090049">
        <ele>36</ele>
        <time>2019-11-16T08:44:14Z</time>
      </trkpt>
      <trkpt lat="59.282901" lon="18.090079">
        <ele>36</ele>
        <time>2019-11-16T08:44:16Z</time>
      </trkpt>
      <trkpt lat="59.282831" lon="18.090107">
        <ele>36</ele>
        <time>2019-11-16T08:44:17Z</time>
      </trkpt>
      <trkpt lat="59.282764" lon="18.090134">
        <ele>36</ele>
        <time>2019-11-16T08:44:18Z</time>
      </trkpt>
      <trkpt lat="59.282693" lon="18.090163">
        <ele>0</ele>
        <time>2019-11-16T08:44:18Z</time>
      </trkpt>
      <trkpt lat="59.282623" lon="18.090192">
        <ele>36</ele>
        <time>2019-11-16T08:44:19Z</time>
      </trkpt>
      <trkpt lat="59.28255" lon="18.090215">
        <ele>36</ele>
        <time>2019-11-16T08:44:21Z</time>
      </trkpt>
      <trkpt lat="59.282479" lon="18.090246">
        <ele>36</ele>
        <time>2019-11-16T08:44:22Z</time>
      </trkpt>
      <trkpt lat="59.282411" lon="18.090278">
        <ele>37</ele>
        <time>2019-11-16T08:44:23Z</time>
      </trkpt>
      <trkpt lat="59.282343" lon="18.090308">
        <ele>37</ele>
        <time>2019-11-16T08:44:24Z</time>
      </trkpt>
      <trkpt lat="59.282276" lon="18.090329">
        <ele>37</ele>
        <time>2019-11-16T08:44:25Z</time>
      </trkpt>
      <trkpt lat="59.282205" lon="18.090349">
        <ele>0</ele>
        <time>2019-11-16T08:44:25Z</time>
      </trkpt>
      <trkpt lat="59.28214" lon="18.090373">
        <ele>36</ele>
        <time>2019-11-16T08:44:26Z</time>
      </trkpt>
      <trkpt lat="59.282077" lon="18.090404">
        <ele>37</ele>
        <time>2019-11-16T08:44:28Z</time>
      </trkpt>
      <trkpt lat="59.282024" lon="18.090426">
        <ele>37</ele>
        <time>2019-11-16T08:44:29Z</time>
      </trkpt>
      <trkpt lat="59.28197" lon="18.090446">
        <ele>37</ele>
        <time>2019-11-16T08:44:30Z</time>
      </trkpt>
      <trkpt lat="59.281917" lon="18.090468">
        <ele>37</ele>
        <time>2019-11-16T08:44:31Z</time>
      </trkpt>
      <trkpt lat="59.281856" lon="18.090493">
        <ele>37</ele>
        <time>2019-11-16T08:44:32Z</time>
      </trkpt>
      <trkpt lat="59.281799" lon="18.090515">
        <ele>0</ele>
        <time>2019-11-16T08:44:32Z</time>
      </trkpt>
      <trkpt lat="59.281742" lon="18.090538">
        <ele>37</ele>
        <time>2019-11-16T08:44:33Z</time>
      </trkpt>
      <trkpt lat="59.281684" lon="18.090562">
        <ele>0</ele>
        <time>2019-11-16T08:44:34Z</time>
      </trkpt>
      <trkpt lat="59.281624" lon="18.090587">
        <ele>38</ele>
        <time>2019-11-16T08:44:35Z</time>
      </trkpt>
      <trkpt lat="59.281566" lon="18.090611">
        <ele>38</ele>
        <time>2019-11-16T08:44:37Z</time>
      </trkpt>
      <trkpt lat="59.281507" lon="18.090633">
        <ele>38</ele>
        <time>2019-11-16T08:44:38Z</time>
      </trkpt>
      <trkpt lat="59.281451" lon="18.090655">
        <ele>38</ele>
        <time>2019-11-16T08:44:39Z</time>
      </trkpt>
      <trkpt lat="59.281391" lon="18.090678">
        <ele>38</ele>
        <time>2019-11-16T08:44:40Z</time>
      </trkpt>
      <trkpt lat="59.281332" lon="18.0907">
        <ele>38</ele>
        <time>2019-11-16T08:44:41Z</time>
      </trkpt>
      <trkpt lat="59.28127" lon="18.090722">
        <ele>38</ele>
        <time>2019-11-16T08:44:42Z</time>
      </trkpt>
      <trkpt lat="59.28121" lon="18.090743">
        <ele>0</ele>
        <time>2019-11-16T08:44:42Z</time>
      </trkpt>
      <trkpt lat="59.281152" lon="18.090764">
        <ele>38</ele>
        <time>2019-11-16T08:44:43Z</time>
      </trkpt>
      <trkpt lat="59.281095" lon="18.090786">
        <ele>38</ele>
        <time>2019-11-16T08:44:45Z</time>
      </trkpt>
      <trkpt lat="59.281036" lon="18.09081">
        <ele>38</ele>
        <time>2019-11-16T08:44:46Z</time>
      </trkpt>
      <trkpt lat="59.280977" lon="18.090832">
        <ele>38</ele>
        <time>2019-11-16T08:44:47Z</time>
      </trkpt>
      <trkpt lat="59.280918" lon="18.090855">
        <ele>38</ele>
        <time>2019-11-16T08:44:48Z</time>
      </trkpt>
      <trkpt lat="59.280863" lon="18.090874">
        <ele>38</ele>
        <time>2019-11-16T08:44:49Z</time>
      </trkpt>
      <trkpt lat="59.280808" lon="18.090893">
        <ele>38</ele>
        <time>2019-11-16T08:44:50Z</time>
      </trkpt>
      <trkpt lat="59.280754" lon="18.090911">
        <ele>37</ele>
        <time>2019-11-16T08:44:51Z</time>
      </trkpt>
      <trkpt lat="59.280702" lon="18.09093">
        <ele>0</ele>
        <time>2019-11-16T08:44:51Z</time>
      </trkpt>
      <trkpt lat="59.280651" lon="18.090951">
        <ele>37</ele>
        <time>2019-11-16T08:44:52Z</time>
      </trkpt>
      <trkpt lat="59.2806" lon="18.090972">
        <ele>37</ele>
        <time>2019-11-16T08:44:54Z</time>
      </trkpt>
      <trkpt lat="59.280547" lon="18.090991">
        <ele>37</ele>
        <time>2019-11-16T08:44:55Z</time>
      </trkpt>
      <trkpt lat="59.280494" lon="18.091008">
        <ele>37</ele>
        <time>2019-11-16T08:44:56Z</time>
      </trkpt>
      <trkpt lat="59.280441" lon="18.091027">
        <ele>37</ele>
        <time>2019-11-16T08:44:57Z</time>
      </trkpt>
      <trkpt lat="59.280387" lon="18.091047">
        <ele>37</ele>
        <time>2019-11-16T08:44:58Z</time>
      </trkpt>
      <trkpt lat="59.280333" lon="18.091066">
        <ele>37</ele>
        <time>2019-11-16T08:44:59Z</time>
      </trkpt>
      <trkpt lat="59.280279" lon="18.091085">
        <ele>37</ele>
        <time>2019-11-16T08:45:00Z</time>
      </trkpt>
      <trkpt lat="59.280224" lon="18.091104">
        <ele>37</ele>
        <time>2019-11-16T08:45:00Z</time>
      </trkpt>
      <trkpt lat="59.280171" lon="18.091124">
        <ele>38</ele>
        <time>2019-11-16T08:45:01Z</time>
      </trkpt>
      <trkpt lat="59.280117" lon="18.091144">
        <ele>38</ele>
        <time>2019-11-16T08:45:03Z</time>
      </trkpt>
      <trkpt lat="59.280059" lon="18.091167">
        <ele>38</ele>
        <time>2019-11-16T08:45:04Z</time>
      </trkpt>
      <trkpt lat="59.280005" lon="18.091188">
        <ele>38</ele>
        <time>2019-11-16T08:45:05Z</time>
      </trkpt>
      <trkpt lat="59.279949" lon="18.091209">
        <ele>38</ele>
        <time>2019-11-16T08:45:06Z</time>
      </trkpt>
      <trkpt lat="59.279895" lon="18.091229">
        <ele>38</ele>
        <time>2019-11-16T08:45:07Z</time>
      </trkpt>
      <trkpt lat="59.27984" lon="18.09125">
        <ele>38</ele>
        <time>2019-11-16T08:45:08Z</time>
      </trkpt>
      <trkpt lat="59.279783" lon="18.091268">
        <ele>38</ele>
        <time>2019-11-16T08:45:09Z</time>
      </trkpt>
      <trkpt lat="59.279727" lon="18.091285">
        <ele>0</ele>
        <time>2019-11-16T08:45:09Z</time>
      </trkpt>
      <trkpt lat="59.279665" lon="18.091299">
        <ele>38</ele>
        <time>2019-11-16T08:45:10Z</time>
      </trkpt>
      <trkpt lat="59.279607" lon="18.091311">
        <ele>37</ele>
        <time>2019-11-16T08:45:11Z</time>
      </trkpt>
      <trkpt lat="59.279557" lon="18.091321">
        <ele>36</ele>
        <time>2019-11-16T08:45:13Z</time>
      </trkpt>
      <trkpt lat="59.279511" lon="18.091331">
        <ele>36</ele>
        <time>2019-11-16T08:45:14Z</time>
      </trkpt>
      <trkpt lat="59.279474" lon="18.09134">
        <ele>35</ele>
        <time>2019-11-16T08:45:15Z</time>
      </trkpt>
      <trkpt lat="59.279446" lon="18.091347">
        <ele>35</ele>
        <time>2019-11-16T08:45:16Z</time>
      </trkpt>
      <trkpt lat="59.279422" lon="18.091349">
        <ele>35</ele>
        <time>2019-11-16T08:45:17Z</time>
      </trkpt>
      <trkpt lat="59.279394" lon="18.091351">
        <ele>34</ele>
        <time>2019-11-16T08:45:18Z</time>
      </trkpt>
      <trkpt lat="59.279359" lon="18.091356">
        <ele>34</ele>
        <time>2019-11-16T08:45:19Z</time>
      </trkpt>
      <trkpt lat="59.27932" lon="18.091365">
        <ele>34</ele>
        <time>2019-11-16T08:45:20Z</time>
      </trkpt>
      <trkpt lat="59.279279" lon="18.091376">
        <ele>34</ele>
        <time>2019-11-16T08:45:21Z</time>
      </trkpt>
      <trkpt lat="59.279235" lon="18.091392">
        <ele>0</ele>
        <time>2019-11-16T08:45:21Z</time>
      </trkpt>
      <trkpt lat="59.27919" lon="18.091409">
        <ele>33</ele>
        <time>2019-11-16T08:45:22Z</time>
      </trkpt>
      <trkpt lat="59.279144" lon="18.091436">
        <ele>33</ele>
        <time>2019-11-16T08:45:24Z</time>
      </trkpt>
      <trkpt lat="59.279101" lon="18.091474">
        <ele>33</ele>
        <time>2019-11-16T08:45:25Z</time>
      </trkpt>
      <trkpt lat="59.279056" lon="18.091512">
        <ele>33</ele>
        <time>2019-11-16T08:45:26Z</time>
      </trkpt>
      <trkpt lat="59.279012" lon="18.091542">
        <ele>33</ele>
        <time>2019-11-16T08:45:27Z</time>
      </trkpt>
      <trkpt lat="59.278965" lon="18.091568">
        <ele>33</ele>
        <time>2019-11-16T08:45:28Z</time>
      </trkpt>
      <trkpt lat="59.278916" lon="18.091591">
        <ele>34</ele>
        <time>2019-11-16T08:45:29Z</time>
      </trkpt>
      <trkpt lat="59.278864" lon="18.091613">
        <ele>0</ele>
        <time>2019-11-16T08:45:29Z</time>
      </trkpt>
      <trkpt lat="59.278811" lon="18.091635">
        <ele>34</ele>
        <time>2019-11-16T08:45:30Z</time>
      </trkpt>
      <trkpt lat="59.278752" lon="18.091658">
        <ele>0</ele>
        <time>2019-11-16T08:45:31Z</time>
      </trkpt>
      <trkpt lat="59.278698" lon="18.091678">
        <ele>34</ele>
        <time>2019-11-16T08:45:32Z</time>
      </trkpt>
      <trkpt lat="59.278645" lon="18.091699">
        <ele>33</ele>
        <time>2019-11-16T08:45:34Z</time>
      </trkpt>
      <trkpt lat="59.278589" lon="18.091716">
        <ele>33</ele>
        <time>2019-11-16T08:45:35Z</time>
      </trkpt>
      <trkpt lat="59.278535" lon="18.091726">
        <ele>33</ele>
        <time>2019-11-16T08:45:36Z</time>
      </trkpt>
      <trkpt lat="59.27848" lon="18.091732">
        <ele>33</ele>
        <time>2019-11-16T08:45:37Z</time>
      </trkpt>
      <trkpt lat="59.278424" lon="18.091736">
        <ele>32</ele>
        <time>2019-11-16T08:45:38Z</time>
      </trkpt>
      <trkpt lat="59.27837" lon="18.091734">
        <ele>32</ele>
        <time>2019-11-16T08:45:39Z</time>
      </trkpt>
      <trkpt lat="59.278316" lon="18.091732">
        <ele>32</ele>
        <time>2019-11-16T08:45:40Z</time>
      </trkpt>
      <trkpt lat="59.278266" lon="18.091738">
        <ele>0</ele>
        <time>2019-11-16T08:45:40Z</time>
      </trkpt>
      <trkpt lat="59.27822" lon="18.091761">
        <ele>32</ele>
        <time>2019-11-16T08:45:41Z</time>
      </trkpt>
      <trkpt lat="59.278176" lon="18.091795">
        <ele>32</ele>
        <time>2019-11-16T08:45:43Z</time>
      </trkpt>
      <trkpt lat="59.278131" lon="18.091824">
        <ele>32</ele>
        <time>2019-11-16T08:45:44Z</time>
      </trkpt>
      <trkpt lat="59.278086" lon="18.091839">
        <ele>32</ele>
        <time>2019-11-16T08:45:45Z</time>
      </trkpt>
      <trkpt lat="59.278039" lon="18.091847">
        <ele>31</ele>
        <time>2019-11-16T08:45:46Z</time>
      </trkpt>
      <trkpt lat="59.277994" lon="18.091851">
        <ele>32</ele>
        <time>2019-11-16T08:45:47Z</time>
      </trkpt>
      <trkpt lat="59.277948" lon="18.091854">
        <ele>31</ele>
        <time>2019-11-16T08:45:48Z</time>
      </trkpt>
      <trkpt lat="59.277903" lon="18.091855">
        <ele>0</ele>
        <time>2019-11-16T08:45:48Z</time>
      </trkpt>
      <trkpt lat="59.277858" lon="18.091857">
        <ele>32</ele>
        <time>2019-11-16T08:45:49Z</time>
      </trkpt>
      <trkpt lat="59.277814" lon="18.091861">
        <ele>31</ele>
        <time>2019-11-16T08:45:51Z</time>
      </trkpt>
      <trkpt lat="59.277769" lon="18.091866">
        <ele>0</ele>
        <time>2019-11-16T08:45:51Z</time>
      </trkpt>
      <trkpt lat="59.277724" lon="18.091872">
        <ele>31</ele>
        <time>2019-11-16T08:45:52Z</time>
      </trkpt>
      <trkpt lat="59.277677" lon="18.091879">
        <ele>32</ele>
        <time>2019-11-16T08:45:54Z</time>
      </trkpt>
      <trkpt lat="59.277631" lon="18.091886">
        <ele>32</ele>
        <time>2019-11-16T08:45:55Z</time>
      </trkpt>
      <trkpt lat="59.277585" lon="18.091896">
        <ele>32</ele>
        <time>2019-11-16T08:45:56Z</time>
      </trkpt>
      <trkpt lat="59.277539" lon="18.091908">
        <ele>32</ele>
        <time>2019-11-16T08:45:57Z</time>
      </trkpt>
      <trkpt lat="59.277494" lon="18.091917">
        <ele>32</ele>
        <time>2019-11-16T08:45:58Z</time>
      </trkpt>
      <trkpt lat="59.277449" lon="18.091925">
        <ele>33</ele>
        <time>2019-11-16T08:45:59Z</time>
      </trkpt>
      <trkpt lat="59.277405" lon="18.091933">
        <ele>33</ele>
        <time>2019-11-16T08:46:00Z</time>
      </trkpt>
      <trkpt lat="59.277362" lon="18.091943">
        <ele>33</ele>
        <time>2019-11-16T08:46:01Z</time>
      </trkpt>
      <trkpt lat="59.27732" lon="18.091953">
        <ele>33</ele>
        <time>2019-11-16T08:46:02Z</time>
      </trkpt>
      <trkpt lat="59.277278" lon="18.091963">
        <ele>0</ele>
        <time>2019-11-16T08:46:02Z</time>
      </trkpt>
      <trkpt lat="59.277235" lon="18.091974">
        <ele>33</ele>
        <time>2019-11-16T08:46:03Z</time>
      </trkpt>
      <trkpt lat="59.277193" lon="18.091983">
        <ele>33</ele>
        <time>2019-11-16T08:46:05Z</time>
      </trkpt>
      <trkpt lat="59.277147" lon="18.091995">
        <ele>33</ele>
        <time>2019-11-16T08:46:06Z</time>
      </trkpt>
      <trkpt lat="59.277103" lon="18.092005">
        <ele>34</ele>
        <time>2019-11-16T08:46:07Z</time>
      </trkpt>
      <trkpt lat="59.277058" lon="18.092018">
        <ele>0</ele>
        <time>2019-11-16T08:46:07Z</time>
      </trkpt>
      <trkpt lat="59.277012" lon="18.092032">
        <ele>34</ele>
        <time>2019-11-16T08:46:08Z</time>
      </trkpt>
      <trkpt lat="59.276964" lon="18.092044">
        <ele>34</ele>
        <time>2019-11-16T08:46:10Z</time>
      </trkpt>
      <trkpt lat="59.276918" lon="18.092057">
        <ele>34</ele>
        <time>2019-11-16T08:46:11Z</time>
      </trkpt>
      <trkpt lat="59.276872" lon="18.092071">
        <ele>34</ele>
        <time>2019-11-16T08:46:12Z</time>
      </trkpt>
      <trkpt lat="59.276827" lon="18.092086">
        <ele>34</ele>
        <time>2019-11-16T08:46:13Z</time>
      </trkpt>
      <trkpt lat="59.276781" lon="18.092101">
        <ele>0</ele>
        <time>2019-11-16T08:46:13Z</time>
      </trkpt>
      <trkpt lat="59.276734" lon="18.092117">
        <ele>34</ele>
        <time>2019-11-16T08:46:14Z</time>
      </trkpt>
      <trkpt lat="59.276687" lon="18.092134">
        <ele>35</ele>
        <time>2019-11-16T08:46:16Z</time>
      </trkpt>
      <trkpt lat="59.276641" lon="18.092149">
        <ele>35</ele>
        <time>2019-11-16T08:46:17Z</time>
      </trkpt>
      <trkpt lat="59.276597" lon="18.092165">
        <ele>35</ele>
        <time>2019-11-16T08:46:18Z</time>
      </trkpt>
      <trkpt lat="59.27655" lon="18.092183">
        <ele>35</ele>
        <time>2019-11-16T08:46:19Z</time>
      </trkpt>
      <trkpt lat="59.276502" lon="18.092201">
        <ele>35</ele>
        <time>2019-11-16T08:46:20Z</time>
      </trkpt>
      <trkpt lat="59.276452" lon="18.092223">
        <ele>35</ele>
        <time>2019-11-16T08:46:21Z</time>
      </trkpt>
      <trkpt lat="59.276399" lon="18.092242">
        <ele>35</ele>
        <time>2019-11-16T08:46:22Z</time>
      </trkpt>
      <trkpt lat="59.276347" lon="18.092262">
        <ele>35</ele>
        <time>2019-11-16T08:46:23Z</time>
      </trkpt>
      <trkpt lat="59.276295" lon="18.092283">
        <ele>0</ele>
        <time>2019-11-16T08:46:23Z</time>
      </trkpt>
      <trkpt lat="59.276244" lon="18.092303">
        <ele>35</ele>
        <time>2019-11-16T08:46:24Z</time>
      </trkpt>
      <trkpt lat="59.276193" lon="18.092322">
        <ele>36</ele>
        <time>2019-11-16T08:46:26Z</time>
      </trkpt>
      <trkpt lat="59.276143" lon="18.09234">
        <ele>0</ele>
        <time>2019-11-16T08:46:26Z</time>
      </trkpt>
      <trkpt lat="59.276092" lon="18.092356">
        <ele>36</ele>
        <time>2019-11-16T08:46:27Z</time>
      </trkpt>
      <trkpt lat="59.276037" lon="18.092373">
        <ele>36</ele>
        <time>2019-11-16T08:46:29Z</time>
      </trkpt>
      <trkpt lat="59.275982" lon="18.092389">
        <ele>36</ele>
        <time>2019-11-16T08:46:30Z</time>
      </trkpt>
      <trkpt lat="59.275928" lon="18.092402">
        <ele>36</ele>
        <time>2019-11-16T08:46:31Z</time>
      </trkpt>
      <trkpt lat="59.275874" lon="18.092415">
        <ele>36</ele>
        <time>2019-11-16T08:46:32Z</time>
      </trkpt>
      <trkpt lat="59.275821" lon="18.09243">
        <ele>36</ele>
        <time>2019-11-16T08:46:33Z</time>
      </trkpt>
      <trkpt lat="59.27577" lon="18.092444">
        <ele>0</ele>
        <time>2019-11-16T08:46:33Z</time>
      </trkpt>
      <trkpt lat="59.27572" lon="18.092457">
        <ele>35</ele>
        <time>2019-11-16T08:46:34Z</time>
      </trkpt>
      <trkpt lat="59.275671" lon="18.092471">
        <ele>36</ele>
        <time>2019-11-16T08:46:36Z</time>
      </trkpt>
      <trkpt lat="59.275623" lon="18.092485">
        <ele>36</ele>
        <time>2019-11-16T08:46:37Z</time>
      </trkpt>
      <trkpt lat="59.275573" lon="18.092497">
        <ele>36</ele>
        <time>2019-11-16T08:46:38Z</time>
      </trkpt>
      <trkpt lat="59.275521" lon="18.092509">
        <ele>36</ele>
        <time>2019-11-16T08:46:39Z</time>
      </trkpt>
      <trkpt lat="59.275465" lon="18.092521">
        <ele>35</ele>
        <time>2019-11-16T08:46:40Z</time>
      </trkpt>
      <trkpt lat="59.27541" lon="18.092529">
        <ele>35</ele>
        <time>2019-11-16T08:46:41Z</time>
      </trkpt>
      <trkpt lat="59.275354" lon="18.092537">
        <ele>35</ele>
        <time>2019-11-16T08:46:42Z</time>
      </trkpt>
      <trkpt lat="59.275298" lon="18.092547">
        <ele>0</ele>
        <time>2019-11-16T08:46:42Z</time>
      </trkpt>
      <trkpt lat="59.275244" lon="18.092557">
        <ele>35</ele>
        <time>2019-11-16T08:46:43Z</time>
      </trkpt>
      <trkpt lat="59.275189" lon="18.092566">
        <ele>34</ele>
        <time>2019-11-16T08:46:45Z</time>
      </trkpt>
      <trkpt lat="59.275136" lon="18.092574">
        <ele>0</ele>
        <time>2019-11-16T08:46:45Z</time>
      </trkpt>
      <trkpt lat="59.275083" lon="18.092579">
        <ele>34</ele>
        <time>2019-11-16T08:46:46Z</time>
      </trkpt>
      <trkpt lat="59.275033" lon="18.09258">
        <ele>34</ele>
        <time>2019-11-16T08:46:48Z</time>
      </trkpt>
      <trkpt lat="59.274982" lon="18.092579">
        <ele>34</ele>
        <time>2019-11-16T08:46:49Z</time>
      </trkpt>
      <trkpt lat="59.27493" lon="18.092576">
        <ele>34</ele>
        <time>2019-11-16T08:46:50Z</time>
      </trkpt>
      <trkpt lat="59.27488" lon="18.092568">
        <ele>34</ele>
        <time>2019-11-16T08:46:51Z</time>
      </trkpt>
      <trkpt lat="59.274832" lon="18.092549">
        <ele>34</ele>
        <time>2019-11-16T08:46:52Z</time>
      </trkpt>
      <trkpt lat="59.274786" lon="18.092514">
        <ele>0</ele>
        <time>2019-11-16T08:46:52Z</time>
      </trkpt>
      <trkpt lat="59.274745" lon="18.092467">
        <ele>34</ele>
        <time>2019-11-16T08:46:53Z</time>
      </trkpt>
      <trkpt lat="59.274707" lon="18.092412">
        <ele>34</ele>
        <time>2019-11-16T08:46:55Z</time>
      </trkpt>
      <trkpt lat="59.27467" lon="18.092353">
        <ele>34</ele>
        <time>2019-11-16T08:46:56Z</time>
      </trkpt>
      <trkpt lat="59.274633" lon="18.092294">
        <ele>34</ele>
        <time>2019-11-16T08:46:57Z</time>
      </trkpt>
      <trkpt lat="59.274596" lon="18.092236">
        <ele>34</ele>
        <time>2019-11-16T08:46:58Z</time>
      </trkpt>
      <trkpt lat="59.274559" lon="18.092179">
        <ele>34</ele>
        <time>2019-11-16T08:46:59Z</time>
      </trkpt>
      <trkpt lat="59.274522" lon="18.092124">
        <ele>34</ele>
        <time>2019-11-16T08:47:00Z</time>
      </trkpt>
      <trkpt lat="59.274483" lon="18.092079">
        <ele>34</ele>
        <time>2019-11-16T08:47:01Z</time>
      </trkpt>
      <trkpt lat="59.274442" lon="18.092047">
        <ele>34</ele>
        <time>2019-11-16T08:47:02Z</time>
      </trkpt>
      <trkpt lat="59.274398" lon="18.092022">
        <ele>0</ele>
        <time>2019-11-16T08:47:02Z</time>
      </trkpt>
      <trkpt lat="59.274352" lon="18.091996">
        <ele>33</ele>
        <time>2019-11-16T08:47:03Z</time>
      </trkpt>
      <trkpt lat="59.274304" lon="18.091967">
        <ele>0</ele>
        <time>2019-11-16T08:47:04Z</time>
      </trkpt>
      <trkpt lat="59.274258" lon="18.091942">
        <ele>33</ele>
        <time>2019-11-16T08:47:05Z</time>
      </trkpt>
      <trkpt lat="59.274212" lon="18.091915">
        <ele>33</ele>
        <time>2019-11-16T08:47:07Z</time>
      </trkpt>
      <trkpt lat="59.274169" lon="18.091885">
        <ele>33</ele>
        <time>2019-11-16T08:47:08Z</time>
      </trkpt>
      <trkpt lat="59.274129" lon="18.091847">
        <ele>33</ele>
        <time>2019-11-16T08:47:09Z</time>
      </trkpt>
      <trkpt lat="59.274095" lon="18.091796">
        <ele>34</ele>
        <time>2019-11-16T08:47:10Z</time>
      </trkpt>
      <trkpt lat="59.274065" lon="18.091736">
        <ele>34</ele>
        <time>2019-11-16T08:47:11Z</time>
      </trkpt>
      <trkpt lat="59.274037" lon="18.091671">
        <ele>34</ele>
        <time>2019-11-16T08:47:12Z</time>
      </trkpt>
      <trkpt lat="59.27401" lon="18.091603">
        <ele>34</ele>
        <time>2019-11-16T08:47:13Z</time>
      </trkpt>
      <trkpt lat="59.273984" lon="18.091535">
        <ele>0</ele>
        <time>2019-11-16T08:47:13Z</time>
      </trkpt>
      <trkpt lat="59.273957" lon="18.091468">
        <ele>34</ele>
        <time>2019-11-16T08:47:14Z</time>
      </trkpt>
      <trkpt lat="59.27393" lon="18.0914">
        <ele>34</ele>
        <time>2019-11-16T08:47:16Z</time>
      </trkpt>
      <trkpt lat="59.273905" lon="18.091331">
        <ele>34</ele>
        <time>2019-11-16T08:47:17Z</time>
      </trkpt>
      <trkpt lat="59.273879" lon="18.091262">
        <ele>34</ele>
        <time>2019-11-16T08:47:18Z</time>
      </trkpt>
      <trkpt lat="59.273852" lon="18.091195">
        <ele>34</ele>
        <time>2019-11-16T08:47:19Z</time>
      </trkpt>
      <trkpt lat="59.273824" lon="18.091128">
        <ele>34</ele>
        <time>2019-11-16T08:47:20Z</time>
      </trkpt>
      <trkpt lat="59.273798" lon="18.091061">
        <ele>34</ele>
        <time>2019-11-16T08:47:21Z</time>
      </trkpt>
      <trkpt lat="59.273771" lon="18.090994">
        <ele>34</ele>
        <time>2019-11-16T08:47:22Z</time>
      </trkpt>
      <trkpt lat="59.273742" lon="18.090933">
        <ele>35</ele>
        <time>2019-11-16T08:47:23Z</time>
      </trkpt>
      <trkpt lat="59.273709" lon="18.09089">
        <ele>0</ele>
        <time>2019-11-16T08:47:23Z</time>
      </trkpt>
      <trkpt lat="59.273669" lon="18.090873">
        <ele>35</ele>
        <time>2019-11-16T08:47:24Z</time>
      </trkpt>
      <trkpt lat="59.273627" lon="18.090878">
        <ele>0</ele>
        <time>2019-11-16T08:47:25Z</time>
      </trkpt>
      <trkpt lat="59.273587" lon="18.090895">
        <ele>35</ele>
        <time>2019-11-16T08:47:26Z</time>
      </trkpt>
      <trkpt lat="59.273552" lon="18.090914">
        <ele>35</ele>
        <time>2019-11-16T08:47:28Z</time>
      </trkpt>
      <trkpt lat="59.273513" lon="18.090935">
        <ele>35</ele>
        <time>2019-11-16T08:47:29Z</time>
      </trkpt>
      <trkpt lat="59.273473" lon="18.090956">
        <ele>35</ele>
        <time>2019-11-16T08:47:30Z</time>
      </trkpt>
      <trkpt lat="59.273433" lon="18.090975">
        <ele>35</ele>
        <time>2019-11-16T08:47:31Z</time>
      </trkpt>
      <trkpt lat="59.273393" lon="18.090997">
        <ele>36</ele>
        <time>2019-11-16T08:47:32Z</time>
      </trkpt>
      <trkpt lat="59.273353" lon="18.091017">
        <ele>36</ele>
        <time>2019-11-16T08:47:33Z</time>
      </trkpt>
      <trkpt lat="59.27331" lon="18.09104">
        <ele>36</ele>
        <time>2019-11-16T08:47:34Z</time>
      </trkpt>
      <trkpt lat="59.27327" lon="18.091061">
        <ele>36</ele>
        <time>2019-11-16T08:47:35Z</time>
      </trkpt>
      <trkpt lat="59.273232" lon="18.091086">
        <ele>36</ele>
        <time>2019-11-16T08:47:36Z</time>
      </trkpt>
      <trkpt lat="59.273193" lon="18.091108">
        <ele>37</ele>
        <time>2019-11-16T08:47:37Z</time>
      </trkpt>
      <trkpt lat="59.273154" lon="18.091127">
        <ele>0</ele>
        <time>2019-11-16T08:47:37Z</time>
      </trkpt>
      <trkpt lat="59.273116" lon="18.091148">
        <ele>37</ele>
        <time>2019-11-16T08:47:38Z</time>
      </trkpt>
      <trkpt lat="59.273077" lon="18.091174">
        <ele>37</ele>
        <time>2019-11-16T08:47:40Z</time>
      </trkpt>
      <trkpt lat="59.273039" lon="18.091191">
        <ele>37</ele>
        <time>2019-11-16T08:47:41Z</time>
      </trkpt>
      <trkpt lat="59.272996" lon="18.091218">
        <ele>37</ele>
        <time>2019-11-16T08:47:42Z</time>
      </trkpt>
      <trkpt lat="59.272952" lon="18.091246">
        <ele>0</ele>
        <time>2019-11-16T08:47:42Z</time>
      </trkpt>
      <trkpt lat="59.272912" lon="18.091279">
        <ele>37</ele>
        <time>2019-11-16T08:47:43Z</time>
      </trkpt>
      <trkpt lat="59.272869" lon="18.091325">
        <ele>37</ele>
        <time>2019-11-16T08:47:45Z</time>
      </trkpt>
      <trkpt lat="59.272817" lon="18.091406">
        <ele>37</ele>
        <time>2019-11-16T08:47:46Z</time>
      </trkpt>
      <trkpt lat="59.272767" lon="18.091513">
        <ele>37</ele>
        <time>2019-11-16T08:47:47Z</time>
      </trkpt>
      <trkpt lat="59.272723" lon="18.091629">
        <ele>0</ele>
        <time>2019-11-16T08:47:47Z</time>
      </trkpt>
      <trkpt lat="59.272697" lon="18.091748">
        <ele>37</ele>
        <time>2019-11-16T08:47:48Z</time>
      </trkpt>
      <trkpt lat="59.27268" lon="18.09186">
        <ele>37</ele>
        <time>2019-11-16T08:47:50Z</time>
      </trkpt>
      <trkpt lat="59.272664" lon="18.091974">
        <ele>37</ele>
        <time>2019-11-16T08:47:51Z</time>
      </trkpt>
      <trkpt lat="59.272651" lon="18.09209">
        <ele>37</ele>
        <time>2019-11-16T08:47:52Z</time>
      </trkpt>
      <trkpt lat="59.272642" lon="18.092201">
        <ele>38</ele>
        <time>2019-11-16T08:47:53Z</time>
      </trkpt>
      <trkpt lat="59.272629" lon="18.092316">
        <ele>38</ele>
        <time>2019-11-16T08:47:54Z</time>
      </trkpt>
      <trkpt lat="59.272616" lon="18.092434">
        <ele>38</ele>
        <time>2019-11-16T08:47:55Z</time>
      </trkpt>
      <trkpt lat="59.2726" lon="18.092552">
        <ele>0</ele>
        <time>2019-11-16T08:47:55Z</time>
      </trkpt>
      <trkpt lat="59.272584" lon="18.092669">
        <ele>38</ele>
        <time>2019-11-16T08:47:56Z</time>
      </trkpt>
      <trkpt lat="59.272565" lon="18.092786">
        <ele>38</ele>
        <time>2019-11-16T08:47:58Z</time>
      </trkpt>
      <trkpt lat="59.272544" lon="18.092904">
        <ele>38</ele>
        <time>2019-11-16T08:47:59Z</time>
      </trkpt>
      <trkpt lat="59.272522" lon="18.09302">
        <ele>38</ele>
        <time>2019-11-16T08:48:00Z</time>
      </trkpt>
      <trkpt lat="59.272501" lon="18.093131">
        <ele>38</ele>
        <time>2019-11-16T08:48:01Z</time>
      </trkpt>
      <trkpt lat="59.272482" lon="18.093242">
        <ele>0</ele>
        <time>2019-11-16T08:48:01Z</time>
      </trkpt>
      <trkpt lat="59.272463" lon="18.093344">
        <ele>38</ele>
        <time>2019-11-16T08:48:02Z</time>
      </trkpt>
      <trkpt lat="59.272438" lon="18.093424">
        <ele>38</ele>
        <time>2019-11-16T08:48:04Z</time>
      </trkpt>
      <trkpt lat="59.272396" lon="18.093485">
        <ele>0</ele>
        <time>2019-11-16T08:48:04Z</time>
      </trkpt>
      <trkpt lat="59.272341" lon="18.093516">
        <ele>38</ele>
        <time>2019-11-16T08:48:05Z</time>
      </trkpt>
      <trkpt lat="59.272283" lon="18.093531">
        <ele>38</ele>
        <time>2019-11-16T08:48:07Z</time>
      </trkpt>
      <trkpt lat="59.272225" lon="18.09354">
        <ele>38</ele>
        <time>2019-11-16T08:48:08Z</time>
      </trkpt>
      <trkpt lat="59.272168" lon="18.093552">
        <ele>38</ele>
        <time>2019-11-16T08:48:09Z</time>
      </trkpt>
      <trkpt lat="59.272113" lon="18.093567">
        <ele>38</ele>
        <time>2019-11-16T08:48:10Z</time>
      </trkpt>
      <trkpt lat="59.272057" lon="18.093589">
        <ele>37</ele>
        <time>2019-11-16T08:48:11Z</time>
      </trkpt>
      <trkpt lat="59.272003" lon="18.093615">
        <ele>37</ele>
        <time>2019-11-16T08:48:12Z</time>
      </trkpt>
      <trkpt lat="59.271947" lon="18.093645">
        <ele>0</ele>
        <time>2019-11-16T08:48:12Z</time>
      </trkpt>
      <trkpt lat="59.271886" lon="18.093678">
        <ele>37</ele>
        <time>2019-11-16T08:48:13Z</time>
      </trkpt>
      <trkpt lat="59.271825" lon="18.093709">
        <ele>37</ele>
        <time>2019-11-16T08:48:15Z</time>
      </trkpt>
      <trkpt lat="59.271762" lon="18.093741">
        <ele>37</ele>
        <time>2019-11-16T08:48:16Z</time>
      </trkpt>
      <trkpt lat="59.2717" lon="18.093773">
        <ele>37</ele>
        <time>2019-11-16T08:48:17Z</time>
      </trkpt>
      <trkpt lat="59.271639" lon="18.093803">
        <ele>37</ele>
        <time>2019-11-16T08:48:18Z</time>
      </trkpt>
      <trkpt lat="59.271574" lon="18.093835">
        <ele>37</ele>
        <time>2019-11-16T08:48:19Z</time>
      </trkpt>
      <trkpt lat="59.271505" lon="18.093867">
        <ele>37</ele>
        <time>2019-11-16T08:48:20Z</time>
      </trkpt>
      <trkpt lat="59.271433" lon="18.093897">
        <ele>0</ele>
        <time>2019-11-16T08:48:20Z</time>
      </trkpt>
      <trkpt lat="59.271361" lon="18.093924">
        <ele>37</ele>
        <time>2019-11-16T08:48:21Z</time>
      </trkpt>
      <trkpt lat="59.271289" lon="18.093944">
        <ele>37</ele>
        <time>2019-11-16T08:48:23Z</time>
      </trkpt>
      <trkpt lat="59.271216" lon="18.093966">
        <ele>37</ele>
        <time>2019-11-16T08:48:24Z</time>
      </trkpt>
      <trkpt lat="59.271143" lon="18.093985">
        <ele>37</ele>
        <time>2019-11-16T08:48:25Z</time>
      </trkpt>
      <trkpt lat="59.271071" lon="18.094008">
        <ele>36</ele>
        <time>2019-11-16T08:48:26Z</time>
      </trkpt>
      <trkpt lat="59.271003" lon="18.094035">
        <ele>36</ele>
        <time>2019-11-16T08:48:27Z</time>
      </trkpt>
      <trkpt lat="59.270935" lon="18.094066">
        <ele>0</ele>
        <time>2019-11-16T08:48:27Z</time>
      </trkpt>
      <trkpt lat="59.270866" lon="18.0941">
        <ele>36</ele>
        <time>2019-11-16T08:48:28Z</time>
      </trkpt>
      <trkpt lat="59.270796" lon="18.094136">
        <ele>36</ele>
        <time>2019-11-16T08:48:30Z</time>
      </trkpt>
      <trkpt lat="59.270726" lon="18.09417">
        <ele>36</ele>
        <time>2019-11-16T08:48:31Z</time>
      </trkpt>
      <trkpt lat="59.270658" lon="18.094201">
        <ele>36</ele>
        <time>2019-11-16T08:48:32Z</time>
      </trkpt>
      <trkpt lat="59.270588" lon="18.09423">
        <ele>36</ele>
        <time>2019-11-16T08:48:33Z</time>
      </trkpt>
      <trkpt lat="59.270517" lon="18.094257">
        <ele>36</ele>
        <time>2019-11-16T08:48:34Z</time>
      </trkpt>
      <trkpt lat="59.270447" lon="18.094286">
        <ele>0</ele>
        <time>2019-11-16T08:48:34Z</time>
      </trkpt>
      <trkpt lat="59.270375" lon="18.094314">
        <ele>36</ele>
        <time>2019-11-16T08:48:35Z</time>
      </trkpt>
      <trkpt lat="59.270301" lon="18.094338">
        <ele>36</ele>
        <time>2019-11-16T08:48:37Z</time>
      </trkpt>
      <trkpt lat="59.270225" lon="18.094364">
        <ele>35</ele>
        <time>2019-11-16T08:48:38Z</time>
      </trkpt>
      <trkpt lat="59.270156" lon="18.09439">
        <ele>35</ele>
        <time>2019-11-16T08:48:39Z</time>
      </trkpt>
      <trkpt lat="59.270087" lon="18.09442">
        <ele>0</ele>
        <time>2019-11-16T08:48:39Z</time>
      </trkpt>
      <trkpt lat="59.270019" lon="18.094451">
        <ele>35</ele>
        <time>2019-11-16T08:48:40Z</time>
      </trkpt>
      <trkpt lat="59.269953" lon="18.094484">
        <ele>0</ele>
        <time>2019-11-16T08:48:41Z</time>
      </trkpt>
      <trkpt lat="59.26989" lon="18.094523">
        <ele>35</ele>
        <time>2019-11-16T08:48:42Z</time>
      </trkpt>
      <trkpt lat="59.269829" lon="18.094568">
        <ele>35</ele>
        <time>2019-11-16T08:48:44Z</time>
      </trkpt>
      <trkpt lat="59.269772" lon="18.094619">
        <ele>35</ele>
        <time>2019-11-16T08:48:45Z</time>
      </trkpt>
      <trkpt lat="59.269713" lon="18.094672">
        <ele>35</ele>
        <time>2019-11-16T08:48:46Z</time>
      </trkpt>
      <trkpt lat="59.269656" lon="18.094724">
        <ele>35</ele>
        <time>2019-11-16T08:48:47Z</time>
      </trkpt>
      <trkpt lat="59.269604" lon="18.094764">
        <ele>36</ele>
        <time>2019-11-16T08:48:48Z</time>
      </trkpt>
      <trkpt lat="59.26955" lon="18.094786">
        <ele>36</ele>
        <time>2019-11-16T08:48:49Z</time>
      </trkpt>
      <trkpt lat="59.269497" lon="18.094798">
        <ele>0</ele>
        <time>2019-11-16T08:48:49Z</time>
      </trkpt>
      <trkpt lat="59.269439" lon="18.09482">
        <ele>36</ele>
        <time>2019-11-16T08:48:50Z</time>
      </trkpt>
      <trkpt lat="59.269381" lon="18.094842">
        <ele>36</ele>
        <time>2019-11-16T08:48:52Z</time>
      </trkpt>
      <trkpt lat="59.269323" lon="18.094866">
        <ele>36</ele>
        <time>2019-11-16T08:48:53Z</time>
      </trkpt>
      <trkpt lat="59.269265" lon="18.094887">
        <ele>37</ele>
        <time>2019-11-16T08:48:54Z</time>
      </trkpt>
      <trkpt lat="59.26921" lon="18.094907">
        <ele>37</ele>
        <time>2019-11-16T08:48:55Z</time>
      </trkpt>
      <trkpt lat="59.269151" lon="18.094935">
        <ele>37</ele>
        <time>2019-11-16T08:48:56Z</time>
      </trkpt>
      <trkpt lat="59.269093" lon="18.094964">
        <ele>37</ele>
        <time>2019-11-16T08:48:57Z</time>
      </trkpt>
      <trkpt lat="59.269036" lon="18.094991">
        <ele>0</ele>
        <time>2019-11-16T08:48:57Z</time>
      </trkpt>
      <trkpt lat="59.268983" lon="18.095018">
        <ele>37</ele>
        <time>2019-11-16T08:48:58Z</time>
      </trkpt>
      <trkpt lat="59.268933" lon="18.095048">
        <ele>37</ele>
        <time>2019-11-16T08:48:59Z</time>
      </trkpt>
      <trkpt lat="59.268884" lon="18.095078">
        <ele>37</ele>
        <time>2019-11-16T08:49:01Z</time>
      </trkpt>
      <trkpt lat="59.268833" lon="18.095111">
        <ele>38</ele>
        <time>2019-11-16T08:49:02Z</time>
      </trkpt>
      <trkpt lat="59.268781" lon="18.095138">
        <ele>38</ele>
        <time>2019-11-16T08:49:03Z</time>
      </trkpt>
      <trkpt lat="59.268728" lon="18.095165">
        <ele>38</ele>
        <time>2019-11-16T08:49:04Z</time>
      </trkpt>
      <trkpt lat="59.268672" lon="18.095193">
        <ele>38</ele>
        <time>2019-11-16T08:49:05Z</time>
      </trkpt>
      <trkpt lat="59.268612" lon="18.095228">
        <ele>38</ele>
        <time>2019-11-16T08:49:06Z</time>
      </trkpt>
      <trkpt lat="59.268561" lon="18.095266">
        <ele>0</ele>
        <time>2019-11-16T08:49:06Z</time>
      </trkpt>
      <trkpt lat="59.268508" lon="18.095299">
        <ele>38</ele>
        <time>2019-11-16T08:49:07Z</time>
      </trkpt>
      <trkpt lat="59.268458" lon="18.095333">
        <ele>38</ele>
        <time>2019-11-16T08:49:09Z</time>
      </trkpt>
      <trkpt lat="59.268407" lon="18.095366">
        <ele>38</ele>
        <time>2019-11-16T08:49:10Z</time>
      </trkpt>
      <trkpt lat="59.268353" lon="18.0954">
        <ele>39</ele>
        <time>2019-11-16T08:49:11Z</time>
      </trkpt>
      <trkpt lat="59.268304" lon="18.095433">
        <ele>39</ele>
        <time>2019-11-16T08:49:12Z</time>
      </trkpt>
      <trkpt lat="59.268259" lon="18.095465">
        <ele>39</ele>
        <time>2019-11-16T08:49:13Z</time>
      </trkpt>
      <trkpt lat="59.2682" lon="18.095507">
        <ele>39</ele>
        <time>2019-11-16T08:49:14Z</time>
      </trkpt>
      <trkpt lat="59.268141" lon="18.095547">
        <ele>39</ele>
        <time>2019-11-16T08:49:15Z</time>
      </trkpt>
      <trkpt lat="59.268084" lon="18.095586">
        <ele>0</ele>
        <time>2019-11-16T08:49:15Z</time>
      </trkpt>
      <trkpt lat="59.268034" lon="18.095622">
        <ele>39</ele>
        <time>2019-11-16T08:49:16Z</time>
      </trkpt>
      <trkpt lat="59.267977" lon="18.095657">
        <ele>0</ele>
        <time>2019-11-16T08:49:17Z</time>
      </trkpt>
      <trkpt lat="59.267914" lon="18.095689">
        <ele>39</ele>
        <time>2019-11-16T08:49:18Z</time>
      </trkpt>
      <trkpt lat="59.267849" lon="18.095721">
        <ele>38</ele>
        <time>2019-11-16T08:49:20Z</time>
      </trkpt>
      <trkpt lat="59.267774" lon="18.095754">
        <ele>37</ele>
        <time>2019-11-16T08:49:21Z</time>
      </trkpt>
      <trkpt lat="59.267704" lon="18.095778">
        <ele>37</ele>
        <time>2019-11-16T08:49:22Z</time>
      </trkpt>
      <trkpt lat="59.267639" lon="18.095799">
        <ele>36</ele>
        <time>2019-11-16T08:49:23Z</time>
      </trkpt>
      <trkpt lat="59.267578" lon="18.095817">
        <ele>0</ele>
        <time>2019-11-16T08:49:23Z</time>
      </trkpt>
      <trkpt lat="59.267516" lon="18.095837">
        <ele>36</ele>
        <time>2019-11-16T08:49:24Z</time>
      </trkpt>
      <trkpt lat="59.267456" lon="18.095856">
        <ele>36</ele>
        <time>2019-11-16T08:49:26Z</time>
      </trkpt>
      <trkpt lat="59.267397" lon="18.095876">
        <ele>36</ele>
        <time>2019-11-16T08:49:27Z</time>
      </trkpt>
      <trkpt lat="59.26734" lon="18.095896">
        <ele>36</ele>
        <time>2019-11-16T08:49:28Z</time>
      </trkpt>
      <trkpt lat="59.267284" lon="18.095913">
        <ele>36</ele>
        <time>2019-11-16T08:49:29Z</time>
      </trkpt>
      <trkpt lat="59.267228" lon="18.095931">
        <ele>36</ele>
        <time>2019-11-16T08:49:30Z</time>
      </trkpt>
      <trkpt lat="59.267176" lon="18.095949">
        <ele>36</ele>
        <time>2019-11-16T08:49:31Z</time>
      </trkpt>
      <trkpt lat="59.267127" lon="18.095967">
        <ele>36</ele>
        <time>2019-11-16T08:49:32Z</time>
      </trkpt>
      <trkpt lat="59.267073" lon="18.095983">
        <ele>0</ele>
        <time>2019-11-16T08:49:32Z</time>
      </trkpt>
      <trkpt lat="59.267019" lon="18.095998">
        <ele>36</ele>
        <time>2019-11-16T08:49:33Z</time>
      </trkpt>
      <trkpt lat="59.266964" lon="18.096018">
        <ele>37</ele>
        <time>2019-11-16T08:49:35Z</time>
      </trkpt>
      <trkpt lat="59.26691" lon="18.096046">
        <ele>37</ele>
        <time>2019-11-16T08:49:36Z</time>
      </trkpt>
      <trkpt lat="59.266858" lon="18.096085">
        <ele>0</ele>
        <time>2019-11-16T08:49:36Z</time>
      </trkpt>
      <trkpt lat="59.266809" lon="18.09613">
        <ele>37</ele>
        <time>2019-11-16T08:49:37Z</time>
      </trkpt>
      <trkpt lat="59.266764" lon="18.096184">
        <ele>0</ele>
        <time>2019-11-16T08:49:38Z</time>
      </trkpt>
      <trkpt lat="59.266718" lon="18.096246">
        <ele>37</ele>
        <time>2019-11-16T08:49:39Z</time>
      </trkpt>
      <trkpt lat="59.266669" lon="18.096312">
        <ele>37</ele>
        <time>2019-11-16T08:49:41Z</time>
      </trkpt>
      <trkpt lat="59.266623" lon="18.096378">
        <ele>0</ele>
        <time>2019-11-16T08:49:41Z</time>
      </trkpt>
      <trkpt lat="59.266577" lon="18.096443">
        <ele>37</ele>
        <time>2019-11-16T08:49:42Z</time>
      </trkpt>
      <trkpt lat="59.266529" lon="18.096511">
        <ele>37</ele>
        <time>2019-11-16T08:49:44Z</time>
      </trkpt>
      <trkpt lat="59.266482" lon="18.096578">
        <ele>37</ele>
        <time>2019-11-16T08:49:45Z</time>
      </trkpt>
      <trkpt lat="59.266434" lon="18.096645">
        <ele>37</ele>
        <time>2019-11-16T08:49:46Z</time>
      </trkpt>
      <trkpt lat="59.266384" lon="18.096709">
        <ele>37</ele>
        <time>2019-11-16T08:49:47Z</time>
      </trkpt>
      <trkpt lat="59.266339" lon="18.096768">
        <ele>37</ele>
        <time>2019-11-16T08:49:48Z</time>
      </trkpt>
      <trkpt lat="59.266292" lon="18.096821">
        <ele>37</ele>
        <time>2019-11-16T08:49:49Z</time>
      </trkpt>
      <trkpt lat="59.266241" lon="18.096869">
        <ele>0</ele>
        <time>2019-11-16T08:49:49Z</time>
      </trkpt>
      <trkpt lat="59.266188" lon="18.096911">
        <ele>37</ele>
        <time>2019-11-16T08:49:50Z</time>
      </trkpt>
      <trkpt lat="59.266135" lon="18.096947">
        <ele>37</ele>
        <time>2019-11-16T08:49:52Z</time>
      </trkpt>
      <trkpt lat="59.266082" lon="18.096978">
        <ele>37</ele>
        <time>2019-11-16T08:49:53Z</time>
      </trkpt>
      <trkpt lat="59.266028" lon="18.097008">
        <ele>37</ele>
        <time>2019-11-16T08:49:54Z</time>
      </trkpt>
      <trkpt lat="59.265975" lon="18.09704">
        <ele>37</ele>
        <time>2019-11-16T08:49:55Z</time>
      </trkpt>
      <trkpt lat="59.26592" lon="18.097074">
        <ele>0</ele>
        <time>2019-11-16T08:49:55Z</time>
      </trkpt>
      <trkpt lat="59.265864" lon="18.097106">
        <ele>37</ele>
        <time>2019-11-16T08:49:56Z</time>
      </trkpt>
      <trkpt lat="59.265808" lon="18.097137">
        <ele>37</ele>
        <time>2019-11-16T08:49:58Z</time>
      </trkpt>
      <trkpt lat="59.265753" lon="18.097167">
        <ele>0</ele>
        <time>2019-11-16T08:49:58Z</time>
      </trkpt>
      <trkpt lat="59.265693" lon="18.097193">
        <ele>37</ele>
        <time>2019-11-16T08:49:59Z</time>
      </trkpt>
      <trkpt lat="59.265629" lon="18.097215">
        <ele>36</ele>
        <time>2019-11-16T08:50:01Z</time>
      </trkpt>
      <trkpt lat="59.265562" lon="18.09724">
        <ele>36</ele>
        <time>2019-11-16T08:50:02Z</time>
      </trkpt>
      <trkpt lat="59.265493" lon="18.097266">
        <ele>36</ele>
        <time>2019-11-16T08:50:03Z</time>
      </trkpt>
      <trkpt lat="59.265423" lon="18.097294">
        <ele>36</ele>
        <time>2019-11-16T08:50:04Z</time>
      </trkpt>
      <trkpt lat="59.265351" lon="18.097317">
        <ele>36</ele>
        <time>2019-11-16T08:50:05Z</time>
      </trkpt>
      <trkpt lat="59.265278" lon="18.097334">
        <ele>0</ele>
        <time>2019-11-16T08:50:05Z</time>
      </trkpt>
      <trkpt lat="59.265209" lon="18.097353">
        <ele>36</ele>
        <time>2019-11-16T08:50:06Z</time>
      </trkpt>
      <trkpt lat="59.265145" lon="18.097379">
        <ele>36</ele>
        <time>2019-11-16T08:50:08Z</time>
      </trkpt>
      <trkpt lat="59.265084" lon="18.097407">
        <ele>36</ele>
        <time>2019-11-16T08:50:09Z</time>
      </trkpt>
      <trkpt lat="59.265024" lon="18.097433">
        <ele>36</ele>
        <time>2019-11-16T08:50:10Z</time>
      </trkpt>
      <trkpt lat="59.26497" lon="18.097457">
        <ele>36</ele>
        <time>2019-11-16T08:50:11Z</time>
      </trkpt>
      <trkpt lat="59.264918" lon="18.097479">
        <ele>36</ele>
        <time>2019-11-16T08:50:12Z</time>
      </trkpt>
      <trkpt lat="59.26487" lon="18.097502">
        <ele>36</ele>
        <time>2019-11-16T08:50:13Z</time>
      </trkpt>
      <trkpt lat="59.264823" lon="18.097523">
        <ele>36</ele>
        <time>2019-11-16T08:50:14Z</time>
      </trkpt>
      <trkpt lat="59.264774" lon="18.097545">
        <ele>0</ele>
        <time>2019-11-16T08:50:14Z</time>
      </trkpt>
      <trkpt lat="59.264724" lon="18.097565">
        <ele>36</ele>
        <time>2019-11-16T08:50:15Z</time>
      </trkpt>
      <trkpt lat="59.264676" lon="18.097579">
        <ele>36</ele>
        <time>2019-11-16T08:50:17Z</time>
      </trkpt>
      <trkpt lat="59.26463" lon="18.097593">
        <ele>36</ele>
        <time>2019-11-16T08:50:18Z</time>
      </trkpt>
      <trkpt lat="59.264583" lon="18.09761">
        <ele>36</ele>
        <time>2019-11-16T08:50:19Z</time>
      </trkpt>
      <trkpt lat="59.264535" lon="18.097629">
        <ele>36</ele>
        <time>2019-11-16T08:50:20Z</time>
      </trkpt>
      <trkpt lat="59.264489" lon="18.097651">
        <ele>36</ele>
        <time>2019-11-16T08:50:21Z</time>
      </trkpt>
      <trkpt lat="59.264442" lon="18.097674">
        <ele>37</ele>
        <time>2019-11-16T08:50:22Z</time>
      </trkpt>
      <trkpt lat="59.264395" lon="18.097697">
        <ele>37</ele>
        <time>2019-11-16T08:50:23Z</time>
      </trkpt>
      <trkpt lat="59.264349" lon="18.097717">
        <ele>37</ele>
        <time>2019-11-16T08:50:24Z</time>
      </trkpt>
      <trkpt lat="59.264303" lon="18.097737">
        <ele>0</ele>
        <time>2019-11-16T08:50:24Z</time>
      </trkpt>
      <trkpt lat="59.264254" lon="18.097756">
        <ele>37</ele>
        <time>2019-11-16T08:50:25Z</time>
      </trkpt>
      <trkpt lat="59.264203" lon="18.097774">
        <ele>37</ele>
        <time>2019-11-16T08:50:27Z</time>
      </trkpt>
      <trkpt lat="59.26415" lon="18.097794">
        <ele>37</ele>
        <time>2019-11-16T08:50:28Z</time>
      </trkpt>
      <trkpt lat="59.264099" lon="18.097813">
        <ele>37</ele>
        <time>2019-11-16T08:50:29Z</time>
      </trkpt>
      <trkpt lat="59.264048" lon="18.097832">
        <ele>37</ele>
        <time>2019-11-16T08:50:30Z</time>
      </trkpt>
      <trkpt lat="59.263995" lon="18.09785">
        <ele>37</ele>
        <time>2019-11-16T08:50:31Z</time>
      </trkpt>
      <trkpt lat="59.263937" lon="18.097866">
        <ele>37</ele>
        <time>2019-11-16T08:50:32Z</time>
      </trkpt>
      <trkpt lat="59.263876" lon="18.097887">
        <ele>37</ele>
        <time>2019-11-16T08:50:33Z</time>
      </trkpt>
      <trkpt lat="59.263812" lon="18.097912">
        <ele>0</ele>
        <time>2019-11-16T08:50:33Z</time>
      </trkpt>
      <trkpt lat="59.263745" lon="18.097937">
        <ele>37</ele>
        <time>2019-11-16T08:50:34Z</time>
      </trkpt>
      <trkpt lat="59.263677" lon="18.097961">
        <ele>37</ele>
        <time>2019-11-16T08:50:35Z</time>
      </trkpt>
      <trkpt lat="59.263611" lon="18.097987">
        <ele>37</ele>
        <time>2019-11-16T08:50:37Z</time>
      </trkpt>
      <trkpt lat="59.263547" lon="18.098012">
        <ele>37</ele>
        <time>2019-11-16T08:50:38Z</time>
      </trkpt>
      <trkpt lat="59.263476" lon="18.098035">
        <ele>37</ele>
        <time>2019-11-16T08:50:39Z</time>
      </trkpt>
      <trkpt lat="59.263402" lon="18.098054">
        <ele>37</ele>
        <time>2019-11-16T08:50:40Z</time>
      </trkpt>
      <trkpt lat="59.263324" lon="18.098072">
        <ele>0</ele>
        <time>2019-11-16T08:50:40Z</time>
      </trkpt>
      <trkpt lat="59.263253" lon="18.098088">
        <ele>37</ele>
        <time>2019-11-16T08:50:41Z</time>
      </trkpt>
      <trkpt lat="59.263179" lon="18.098106">
        <ele>36</ele>
        <time>2019-11-16T08:50:43Z</time>
      </trkpt>
      <trkpt lat="59.263096" lon="18.098113">
        <ele>36</ele>
        <time>2019-11-16T08:50:44Z</time>
      </trkpt>
      <trkpt lat="59.263009" lon="18.098117">
        <ele>36</ele>
        <time>2019-11-16T08:50:45Z</time>
      </trkpt>
      <trkpt lat="59.262921" lon="18.098124">
        <ele>36</ele>
        <time>2019-11-16T08:50:46Z</time>
      </trkpt>
      <trkpt lat="59.262838" lon="18.09813">
        <ele>36</ele>
        <time>2019-11-16T08:50:47Z</time>
      </trkpt>
      <trkpt lat="59.262751" lon="18.098134">
        <ele>0</ele>
        <time>2019-11-16T08:50:47Z</time>
      </trkpt>
      <trkpt lat="59.262665" lon="18.098132">
        <ele>36</ele>
        <time>2019-11-16T08:50:48Z</time>
      </trkpt>
      <trkpt lat="59.262576" lon="18.09813">
        <ele>34</ele>
        <time>2019-11-16T08:50:50Z</time>
      </trkpt>
      <trkpt lat="59.262488" lon="18.098123">
        <ele>34</ele>
        <time>2019-11-16T08:50:51Z</time>
      </trkpt>
      <trkpt lat="59.262402" lon="18.098105">
        <ele>33</ele>
        <time>2019-11-16T08:50:52Z</time>
      </trkpt>
      <trkpt lat="59.26232" lon="18.098073">
        <ele>0</ele>
        <time>2019-11-16T08:50:52Z</time>
      </trkpt>
      <trkpt lat="59.262243" lon="18.09802">
        <ele>32</ele>
        <time>2019-11-16T08:50:53Z</time>
      </trkpt>
      <trkpt lat="59.262171" lon="18.097948">
        <ele>31</ele>
        <time>2019-11-16T08:50:55Z</time>
      </trkpt>
      <trkpt lat="59.262106" lon="18.097859">
        <ele>31</ele>
        <time>2019-11-16T08:50:56Z</time>
      </trkpt>
      <trkpt lat="59.262044" lon="18.097761">
        <ele>31</ele>
        <time>2019-11-16T08:50:57Z</time>
      </trkpt>
      <trkpt lat="59.261983" lon="18.097663">
        <ele>30</ele>
        <time>2019-11-16T08:50:58Z</time>
      </trkpt>
      <trkpt lat="59.261923" lon="18.097565">
        <ele>30</ele>
        <time>2019-11-16T08:50:59Z</time>
      </trkpt>
      <trkpt lat="59.261863" lon="18.097468">
        <ele>0</ele>
        <time>2019-11-16T08:50:59Z</time>
      </trkpt>
      <trkpt lat="59.261805" lon="18.097373">
        <ele>30</ele>
        <time>2019-11-16T08:51:00Z</time>
      </trkpt>
      <trkpt lat="59.261747" lon="18.097277">
        <ele>30</ele>
        <time>2019-11-16T08:51:02Z</time>
      </trkpt>
      <trkpt lat="59.261689" lon="18.097182">
        <ele>29</ele>
        <time>2019-11-16T08:51:03Z</time>
      </trkpt>
      <trkpt lat="59.261631" lon="18.097086">
        <ele>29</ele>
        <time>2019-11-16T08:51:04Z</time>
      </trkpt>
      <trkpt lat="59.261574" lon="18.096991">
        <ele>29</ele>
        <time>2019-11-16T08:51:05Z</time>
      </trkpt>
      <trkpt lat="59.261518" lon="18.096899">
        <ele>0</ele>
        <time>2019-11-16T08:51:05Z</time>
      </trkpt>
      <trkpt lat="59.26146" lon="18.096812">
        <ele>29</ele>
        <time>2019-11-16T08:51:06Z</time>
      </trkpt>
      <trkpt lat="59.261402" lon="18.096732">
        <ele>29</ele>
        <time>2019-11-16T08:51:08Z</time>
      </trkpt>
      <trkpt lat="59.261341" lon="18.096661">
        <ele>29</ele>
        <time>2019-11-16T08:51:09Z</time>
      </trkpt>
      <trkpt lat="59.261277" lon="18.096601">
        <ele>29</ele>
        <time>2019-11-16T08:51:10Z</time>
      </trkpt>
      <trkpt lat="59.261213" lon="18.096549">
        <ele>29</ele>
        <time>2019-11-16T08:51:11Z</time>
      </trkpt>
      <trkpt lat="59.261149" lon="18.096504">
        <ele>0</ele>
        <time>2019-11-16T08:51:11Z</time>
      </trkpt>
      <trkpt lat="59.261085" lon="18.096466">
        <ele>29</ele>
        <time>2019-11-16T08:51:12Z</time>
      </trkpt>
      <trkpt lat="59.26102" lon="18.096437">
        <ele>29</ele>
        <time>2019-11-16T08:51:13Z</time>
      </trkpt>
      <trkpt lat="59.260954" lon="18.096419">
        <ele>29</ele>
        <time>2019-11-16T08:51:15Z</time>
      </trkpt>
      <trkpt lat="59.260886" lon="18.096415">
        <ele>28</ele>
        <time>2019-11-16T08:51:16Z</time>
      </trkpt>
      <trkpt lat="59.260816" lon="18.096425">
        <ele>28</ele>
        <time>2019-11-16T08:51:17Z</time>
      </trkpt>
      <trkpt lat="59.260743" lon="18.09644">
        <ele>28</ele>
        <time>2019-11-16T08:51:18Z</time>
      </trkpt>
      <trkpt lat="59.260668" lon="18.096456">
        <ele>27</ele>
        <time>2019-11-16T08:51:19Z</time>
      </trkpt>
      <trkpt lat="59.26059" lon="18.096474">
        <ele>0</ele>
        <time>2019-11-16T08:51:19Z</time>
      </trkpt>
      <trkpt lat="59.260511" lon="18.096495">
        <ele>27</ele>
        <time>2019-11-16T08:51:20Z</time>
      </trkpt>
      <trkpt lat="59.260434" lon="18.096523">
        <ele>26</ele>
        <time>2019-11-16T08:51:22Z</time>
      </trkpt>
      <trkpt lat="59.260358" lon="18.096558">
        <ele>26</ele>
        <time>2019-11-16T08:51:23Z</time>
      </trkpt>
      <trkpt lat="59.260278" lon="18.096601">
        <ele>26</ele>
        <time>2019-11-16T08:51:24Z</time>
      </trkpt>
      <trkpt lat="59.260195" lon="18.096652">
        <ele>26</ele>
        <time>2019-11-16T08:51:25Z</time>
      </trkpt>
      <trkpt lat="59.260114" lon="18.096693">
        <ele>26</ele>
        <time>2019-11-16T08:51:26Z</time>
      </trkpt>
      <trkpt lat="59.260044" lon="18.096747">
        <ele>0</ele>
        <time>2019-11-16T08:51:26Z</time>
      </trkpt>
      <trkpt lat="59.259985" lon="18.096811">
        <ele>26</ele>
        <time>2019-11-16T08:51:27Z</time>
      </trkpt>
      <trkpt lat="59.259932" lon="18.096867">
        <ele>26</ele>
        <time>2019-11-16T08:51:29Z</time>
      </trkpt>
      <trkpt lat="59.259883" lon="18.096932">
        <ele>26</ele>
        <time>2019-11-16T08:51:30Z</time>
      </trkpt>
      <trkpt lat="59.259834" lon="18.096998">
        <ele>0</ele>
        <time>2019-11-16T08:51:30Z</time>
      </trkpt>
      <trkpt lat="59.259787" lon="18.097074">
        <ele>26</ele>
        <time>2019-11-16T08:51:31Z</time>
      </trkpt>
      <trkpt lat="59.259749" lon="18.097148">
        <ele>27</ele>
        <time>2019-11-16T08:51:33Z</time>
      </trkpt>
      <trkpt lat="59.259716" lon="18.09723">
        <ele>27</ele>
        <time>2019-11-16T08:51:34Z</time>
      </trkpt>
      <trkpt lat="59.259692" lon="18.09732">
        <ele>0</ele>
        <time>2019-11-16T08:51:34Z</time>
      </trkpt>
      <trkpt lat="59.259674" lon="18.097416">
        <ele>27</ele>
        <time>2019-11-16T08:51:35Z</time>
      </trkpt>
      <trkpt lat="59.259661" lon="18.097515">
        <ele>27</ele>
        <time>2019-11-16T08:51:37Z</time>
      </trkpt>
      <trkpt lat="59.25965" lon="18.097619">
        <ele>27</ele>
        <time>2019-11-16T08:51:38Z</time>
      </trkpt>
      <trkpt lat="59.259639" lon="18.097726">
        <ele>27</ele>
        <time>2019-11-16T08:51:39Z</time>
      </trkpt>
      <trkpt lat="59.259631" lon="18.097835">
        <ele>27</ele>
        <time>2019-11-16T08:51:40Z</time>
      </trkpt>
      <trkpt lat="59.259623" lon="18.097945">
        <ele>27</ele>
        <time>2019-11-16T08:51:41Z</time>
      </trkpt>
      <trkpt lat="59.259615" lon="18.098056">
        <ele>27</ele>
        <time>2019-11-16T08:51:42Z</time>
      </trkpt>
      <trkpt lat="59.259605" lon="18.09817">
        <ele>27</ele>
        <time>2019-11-16T08:51:43Z</time>
      </trkpt>
      <trkpt lat="59.259596" lon="18.098283">
        <ele>0</ele>
        <time>2019-11-16T08:51:43Z</time>
      </trkpt>
      <trkpt lat="59.259587" lon="18.098397">
        <ele>27</ele>
        <time>2019-11-16T08:51:44Z</time>
      </trkpt>
      <trkpt lat="59.259578" lon="18.09851">
        <ele>27</ele>
        <time>2019-11-16T08:51:46Z</time>
      </trkpt>
      <trkpt lat="59.259566" lon="18.098624">
        <ele>27</ele>
        <time>2019-11-16T08:51:47Z</time>
      </trkpt>
      <trkpt lat="59.259546" lon="18.098734">
        <ele>27</ele>
        <time>2019-11-16T08:51:48Z</time>
      </trkpt>
      <trkpt lat="59.259519" lon="18.098838">
        <ele>27</ele>
        <time>2019-11-16T08:51:49Z</time>
      </trkpt>
      <trkpt lat="59.259486" lon="18.098932">
        <ele>0</ele>
        <time>2019-11-16T08:51:49Z</time>
      </trkpt>
      <trkpt lat="59.259443" lon="18.099016">
        <ele>27</ele>
        <time>2019-11-16T08:51:50Z</time>
      </trkpt>
      <trkpt lat="59.259395" lon="18.099087">
        <ele>0</ele>
        <time>2019-11-16T08:51:51Z</time>
      </trkpt>
      <trkpt lat="59.259344" lon="18.099147">
        <ele>26</ele>
        <time>2019-11-16T08:51:52Z</time>
      </trkpt>
      <trkpt lat="59.259292" lon="18.099196">
        <ele>26</ele>
        <time>2019-11-16T08:51:54Z</time>
      </trkpt>
      <trkpt lat="59.259238" lon="18.099233">
        <ele>26</ele>
        <time>2019-11-16T08:51:55Z</time>
      </trkpt>
      <trkpt lat="59.259182" lon="18.099255">
        <ele>26</ele>
        <time>2019-11-16T08:51:56Z</time>
      </trkpt>
      <trkpt lat="59.259127" lon="18.099262">
        <ele>26</ele>
        <time>2019-11-16T08:51:57Z</time>
      </trkpt>
      <trkpt lat="59.259072" lon="18.099266">
        <ele>26</ele>
        <time>2019-11-16T08:51:58Z</time>
      </trkpt>
      <trkpt lat="59.259019" lon="18.099267">
        <ele>26</ele>
        <time>2019-11-16T08:51:59Z</time>
      </trkpt>
      <trkpt lat="59.258966" lon="18.09927">
        <ele>26</ele>
        <time>2019-11-16T08:52:00Z</time>
      </trkpt>
      <trkpt lat="59.258914" lon="18.099272">
        <ele>25</ele>
        <time>2019-11-16T08:52:00Z</time>
      </trkpt>
      <trkpt lat="59.25886" lon="18.099277">
        <ele>26</ele>
        <time>2019-11-16T08:52:01Z</time>
      </trkpt>
      <trkpt lat="59.258804" lon="18.099282">
        <ele>26</ele>
        <time>2019-11-16T08:52:03Z</time>
      </trkpt>
      <trkpt lat="59.258747" lon="18.099285">
        <ele>26</ele>
        <time>2019-11-16T08:52:04Z</time>
      </trkpt>
      <trkpt lat="59.258689" lon="18.099287">
        <ele>26</ele>
        <time>2019-11-16T08:52:05Z</time>
      </trkpt>
      <trkpt lat="59.25863" lon="18.099289">
        <ele>26</ele>
        <time>2019-11-16T08:52:06Z</time>
      </trkpt>
      <trkpt lat="59.258571" lon="18.09929">
        <ele>26</ele>
        <time>2019-11-16T08:52:07Z</time>
      </trkpt>
      <trkpt lat="59.258514" lon="18.099291">
        <ele>26</ele>
        <time>2019-11-16T08:52:08Z</time>
      </trkpt>
      <trkpt lat="59.258456" lon="18.09929">
        <ele>0</ele>
        <time>2019-11-16T08:52:08Z</time>
      </trkpt>
      <trkpt lat="59.258399" lon="18.099285">
        <ele>26</ele>
        <time>2019-11-16T08:52:09Z</time>
      </trkpt>
      <trkpt lat="59.258342" lon="18.099279">
        <ele>26</ele>
        <time>2019-11-16T08:52:10Z</time>
      </trkpt>
      <trkpt lat="59.258284" lon="18.099274">
        <ele>27</ele>
        <time>2019-11-16T08:52:12Z</time>
      </trkpt>
      <trkpt lat="59.258226" lon="18.099266">
        <ele>27</ele>
        <time>2019-11-16T08:52:13Z</time>
      </trkpt>
      <trkpt lat="59.258168" lon="18.099261">
        <ele>27</ele>
        <time>2019-11-16T08:52:14Z</time>
      </trkpt>
      <trkpt lat="59.258109" lon="18.09926">
        <ele>27</ele>
        <time>2019-11-16T08:52:15Z</time>
      </trkpt>
      <trkpt lat="59.258048" lon="18.099256">
        <ele>27</ele>
        <time>2019-11-16T08:52:16Z</time>
      </trkpt>
      <trkpt lat="59.257988" lon="18.099245">
        <ele>27</ele>
        <time>2019-11-16T08:52:17Z</time>
      </trkpt>
      <trkpt lat="59.257929" lon="18.099229">
        <ele>0</ele>
        <time>2019-11-16T08:52:17Z</time>
      </trkpt>
      <trkpt lat="59.257871" lon="18.099212">
        <ele>27</ele>
        <time>2019-11-16T08:52:18Z</time>
      </trkpt>
      <trkpt lat="59.257812" lon="18.099195">
        <ele>28</ele>
        <time>2019-11-16T08:52:20Z</time>
      </trkpt>
      <trkpt lat="59.257752" lon="18.099176">
        <ele>28</ele>
        <time>2019-11-16T08:52:21Z</time>
      </trkpt>
      <trkpt lat="59.25769" lon="18.099173">
        <ele>28</ele>
        <time>2019-11-16T08:52:22Z</time>
      </trkpt>
      <trkpt lat="59.25763" lon="18.099197">
        <ele>28</ele>
        <time>2019-11-16T08:52:23Z</time>
      </trkpt>
      <trkpt lat="59.257571" lon="18.099247">
        <ele>28</ele>
        <time>2019-11-16T08:52:24Z</time>
      </trkpt>
      <trkpt lat="59.257512" lon="18.099313">
        <ele>28</ele>
        <time>2019-11-16T08:52:25Z</time>
      </trkpt>
      <trkpt lat="59.257457" lon="18.099396">
        <ele>0</ele>
        <time>2019-11-16T08:52:25Z</time>
      </trkpt>
      <trkpt lat="59.257405" lon="18.099496">
        <ele>28</ele>
        <time>2019-11-16T08:52:26Z</time>
      </trkpt>
      <trkpt lat="59.257357" lon="18.09961">
        <ele>0</ele>
        <time>2019-11-16T08:52:27Z</time>
      </trkpt>
      <trkpt lat="59.25731" lon="18.099732">
        <ele>27</ele>
        <time>2019-11-16T08:52:28Z</time>
      </trkpt>
      <trkpt lat="59.257269" lon="18.09986">
        <ele>27</ele>
        <time>2019-11-16T08:52:30Z</time>
      </trkpt>
      <trkpt lat="59.257231" lon="18.099992">
        <ele>27</ele>
        <time>2019-11-16T08:52:31Z</time>
      </trkpt>
      <trkpt lat="59.257195" lon="18.100124">
        <ele>27</ele>
        <time>2019-11-16T08:52:32Z</time>
      </trkpt>
      <trkpt lat="59.257068" lon="18.100613">
        <ele>0</ele>
        <time>2019-11-16T08:52:35Z</time>
      </trkpt>
      <trkpt lat="59.256997" lon="18.100843">
        <ele>27</ele>
        <time>2019-11-16T08:52:38Z</time>
      </trkpt>
      <trkpt lat="59.256949" lon="18.10104">
        <ele>26</ele>
        <time>2019-11-16T08:52:40Z</time>
      </trkpt>
      <trkpt lat="59.256859" lon="18.101101">
        <ele>0</ele>
        <time>2019-11-16T08:52:41Z</time>
      </trkpt>
      <trkpt lat="59.256801" lon="18.101118">
        <ele>26</ele>
        <time>2019-11-16T08:52:42Z</time>
      </trkpt>
      <trkpt lat="59.256742" lon="18.101114">
        <ele>25</ele>
        <time>2019-11-16T08:52:44Z</time>
      </trkpt>
      <trkpt lat="59.256683" lon="18.101107">
        <ele>25</ele>
        <time>2019-11-16T08:52:45Z</time>
      </trkpt>
      <trkpt lat="59.256626" lon="18.101103">
        <ele>25</ele>
        <time>2019-11-16T08:52:46Z</time>
      </trkpt>
      <trkpt lat="59.256564" lon="18.101101">
        <ele>0</ele>
        <time>2019-11-16T08:52:46Z</time>
      </trkpt>
      <trkpt lat="59.2565" lon="18.101098">
        <ele>25</ele>
        <time>2019-11-16T08:52:47Z</time>
      </trkpt>
      <trkpt lat="59.256438" lon="18.101093">
        <ele>0</ele>
        <time>2019-11-16T08:52:48Z</time>
      </trkpt>
      <trkpt lat="59.256378" lon="18.101087">
        <ele>25</ele>
        <time>2019-11-16T08:52:49Z</time>
      </trkpt>
      <trkpt lat="59.256312" lon="18.101085">
        <ele>25</ele>
        <time>2019-11-16T08:52:51Z</time>
      </trkpt>
      <trkpt lat="59.256246" lon="18.101083">
        <ele>25</ele>
        <time>2019-11-16T08:52:52Z</time>
      </trkpt>
      <trkpt lat="59.256184" lon="18.101077">
        <ele>25</ele>
        <time>2019-11-16T08:52:53Z</time>
      </trkpt>
      <trkpt lat="59.256122" lon="18.101072">
        <ele>25</ele>
        <time>2019-11-16T08:52:54Z</time>
      </trkpt>
      <trkpt lat="59.25606" lon="18.101066">
        <ele>24</ele>
        <time>2019-11-16T08:52:55Z</time>
      </trkpt>
      <trkpt lat="59.256002" lon="18.10106">
        <ele>25</ele>
        <time>2019-11-16T08:52:56Z</time>
      </trkpt>
      <trkpt lat="59.255941" lon="18.101054">
        <ele>0</ele>
        <time>2019-11-16T08:52:56Z</time>
      </trkpt>
      <trkpt lat="59.255882" lon="18.101051">
        <ele>25</ele>
        <time>2019-11-16T08:52:57Z</time>
      </trkpt>
      <trkpt lat="59.255821" lon="18.101048">
        <ele>25</ele>
        <time>2019-11-16T08:52:59Z</time>
      </trkpt>
      <trkpt lat="59.255763" lon="18.101042">
        <ele>25</ele>
        <time>2019-11-16T08:53:00Z</time>
      </trkpt>
      <trkpt lat="59.255703" lon="18.101032">
        <ele>25</ele>
        <time>2019-11-16T08:53:01Z</time>
      </trkpt>
      <trkpt lat="59.255643" lon="18.101019">
        <ele>25</ele>
        <time>2019-11-16T08:53:02Z</time>
      </trkpt>
      <trkpt lat="59.255582" lon="18.101007">
        <ele>25</ele>
        <time>2019-11-16T08:53:03Z</time>
      </trkpt>
      <trkpt lat="59.255521" lon="18.100992">
        <ele>24</ele>
        <time>2019-11-16T08:53:04Z</time>
      </trkpt>
      <trkpt lat="59.255458" lon="18.100976">
        <ele>24</ele>
        <time>2019-11-16T08:53:05Z</time>
      </trkpt>
      <trkpt lat="59.255396" lon="18.100961">
        <ele>0</ele>
        <time>2019-11-16T08:53:05Z</time>
      </trkpt>
      <trkpt lat="59.255333" lon="18.10095">
        <ele>24</ele>
        <time>2019-11-16T08:53:06Z</time>
      </trkpt>
      <trkpt lat="59.25527" lon="18.100941">
        <ele>24</ele>
        <time>2019-11-16T08:53:08Z</time>
      </trkpt>
      <trkpt lat="59.255207" lon="18.100929">
        <ele>24</ele>
        <time>2019-11-16T08:53:09Z</time>
      </trkpt>
      <trkpt lat="59.255146" lon="18.100918">
        <ele>24</ele>
        <time>2019-11-16T08:53:10Z</time>
      </trkpt>
      <trkpt lat="59.255084" lon="18.100906">
        <ele>24</ele>
        <time>2019-11-16T08:53:11Z</time>
      </trkpt>
      <trkpt lat="59.25502" lon="18.100892">
        <ele>24</ele>
        <time>2019-11-16T08:53:12Z</time>
      </trkpt>
      <trkpt lat="59.254956" lon="18.100879">
        <ele>24</ele>
        <time>2019-11-16T08:53:13Z</time>
      </trkpt>
      <trkpt lat="59.254893" lon="18.100868">
        <ele>0</ele>
        <time>2019-11-16T08:53:13Z</time>
      </trkpt>
      <trkpt lat="59.25483" lon="18.100856">
        <ele>25</ele>
        <time>2019-11-16T08:53:14Z</time>
      </trkpt>
      <trkpt lat="59.254768" lon="18.100846">
        <ele>25</ele>
        <time>2019-11-16T08:53:16Z</time>
      </trkpt>
      <trkpt lat="59.254707" lon="18.100829">
        <ele>25</ele>
        <time>2019-11-16T08:53:17Z</time>
      </trkpt>
      <trkpt lat="59.254646" lon="18.100805">
        <ele>25</ele>
        <time>2019-11-16T08:53:18Z</time>
      </trkpt>
      <trkpt lat="59.254585" lon="18.100777">
        <ele>24</ele>
        <time>2019-11-16T08:53:19Z</time>
      </trkpt>
      <trkpt lat="59.254524" lon="18.100745">
        <ele>24</ele>
        <time>2019-11-16T08:53:20Z</time>
      </trkpt>
      <trkpt lat="59.254464" lon="18.100712">
        <ele>0</ele>
        <time>2019-11-16T08:53:20Z</time>
      </trkpt>
      <trkpt lat="59.254407" lon="18.100677">
        <ele>24</ele>
        <time>2019-11-16T08:53:21Z</time>
      </trkpt>
      <trkpt lat="59.254345" lon="18.100648">
        <ele>24</ele>
        <time>2019-11-16T08:53:23Z</time>
      </trkpt>
      <trkpt lat="59.254282" lon="18.100631">
        <ele>24</ele>
        <time>2019-11-16T08:53:24Z</time>
      </trkpt>
      <trkpt lat="59.25422" lon="18.100619">
        <ele>0</ele>
        <time>2019-11-16T08:53:24Z</time>
      </trkpt>
      <trkpt lat="59.25416" lon="18.100614">
        <ele>24</ele>
        <time>2019-11-16T08:53:25Z</time>
      </trkpt>
      <trkpt lat="59.254096" lon="18.100616">
        <ele>24</ele>
        <time>2019-11-16T08:53:27Z</time>
      </trkpt>
      <trkpt lat="59.254035" lon="18.100616">
        <ele>25</ele>
        <time>2019-11-16T08:53:28Z</time>
      </trkpt>
      <trkpt lat="59.253971" lon="18.100609">
        <ele>0</ele>
        <time>2019-11-16T08:53:28Z</time>
      </trkpt>
      <trkpt lat="59.253904" lon="18.100589">
        <ele>24</ele>
        <time>2019-11-16T08:53:29Z</time>
      </trkpt>
      <trkpt lat="59.253837" lon="18.100562">
        <ele>24</ele>
        <time>2019-11-16T08:53:31Z</time>
      </trkpt>
      <trkpt lat="59.253768" lon="18.100539">
        <ele>24</ele>
        <time>2019-11-16T08:53:32Z</time>
      </trkpt>
      <trkpt lat="59.2537" lon="18.100516">
        <ele>23</ele>
        <time>2019-11-16T08:53:33Z</time>
      </trkpt>
      <trkpt lat="59.253633" lon="18.100489">
        <ele>23</ele>
        <time>2019-11-16T08:53:34Z</time>
      </trkpt>
      <trkpt lat="59.253566" lon="18.100456">
        <ele>23</ele>
        <time>2019-11-16T08:53:35Z</time>
      </trkpt>
      <trkpt lat="59.2535" lon="18.100417">
        <ele>23</ele>
        <time>2019-11-16T08:53:36Z</time>
      </trkpt>
      <trkpt lat="59.253434" lon="18.100375">
        <ele>0</ele>
        <time>2019-11-16T08:53:36Z</time>
      </trkpt>
      <trkpt lat="59.253369" lon="18.100326">
        <ele>23</ele>
        <time>2019-11-16T08:53:37Z</time>
      </trkpt>
      <trkpt lat="59.253306" lon="18.100274">
        <ele>22</ele>
        <time>2019-11-16T08:53:39Z</time>
      </trkpt>
      <trkpt lat="59.253242" lon="18.100225">
        <ele>22</ele>
        <time>2019-11-16T08:53:40Z</time>
      </trkpt>
      <trkpt lat="59.253173" lon="18.100187">
        <ele>22</ele>
        <time>2019-11-16T08:53:41Z</time>
      </trkpt>
      <trkpt lat="59.253101" lon="18.100165">
        <ele>21</ele>
        <time>2019-11-16T08:53:42Z</time>
      </trkpt>
      <trkpt lat="59.25303" lon="18.100157">
        <ele>21</ele>
        <time>2019-11-16T08:53:43Z</time>
      </trkpt>
      <trkpt lat="59.252959" lon="18.10016">
        <ele>0</ele>
        <time>2019-11-16T08:53:43Z</time>
      </trkpt>
      <trkpt lat="59.252888" lon="18.10017">
        <ele>21</ele>
        <time>2019-11-16T08:53:44Z</time>
      </trkpt>
      <trkpt lat="59.252817" lon="18.100183">
        <ele>21</ele>
        <time>2019-11-16T08:53:46Z</time>
      </trkpt>
      <trkpt lat="59.252747" lon="18.1002">
        <ele>21</ele>
        <time>2019-11-16T08:53:47Z</time>
      </trkpt>
      <trkpt lat="59.252679" lon="18.100225">
        <ele>21</ele>
        <time>2019-11-16T08:53:48Z</time>
      </trkpt>
      <trkpt lat="59.252611" lon="18.100253">
        <ele>21</ele>
        <time>2019-11-16T08:53:49Z</time>
      </trkpt>
      <trkpt lat="59.252546" lon="18.100281">
        <ele>21</ele>
        <time>2019-11-16T08:53:50Z</time>
      </trkpt>
      <trkpt lat="59.252481" lon="18.100311">
        <ele>0</ele>
        <time>2019-11-16T08:53:50Z</time>
      </trkpt>
      <trkpt lat="59.252417" lon="18.100342">
        <ele>21</ele>
        <time>2019-11-16T08:53:51Z</time>
      </trkpt>
      <trkpt lat="59.252354" lon="18.100374">
        <ele>21</ele>
        <time>2019-11-16T08:53:53Z</time>
      </trkpt>
      <trkpt lat="59.252295" lon="18.10041">
        <ele>22</ele>
        <time>2019-11-16T08:53:54Z</time>
      </trkpt>
      <trkpt lat="59.252239" lon="18.100445">
        <ele>22</ele>
        <time>2019-11-16T08:53:55Z</time>
      </trkpt>
      <trkpt lat="59.252187" lon="18.100479">
        <ele>22</ele>
        <time>2019-11-16T08:53:56Z</time>
      </trkpt>
      <trkpt lat="59.252136" lon="18.100511">
        <ele>22</ele>
        <time>2019-11-16T08:53:57Z</time>
      </trkpt>
      <trkpt lat="59.252086" lon="18.100543">
        <ele>22</ele>
        <time>2019-11-16T08:53:58Z</time>
      </trkpt>
      <trkpt lat="59.252038" lon="18.100573">
        <ele>22</ele>
        <time>2019-11-16T08:53:59Z</time>
      </trkpt>
      <trkpt lat="59.251989" lon="18.100603">
        <ele>0</ele>
        <time>2019-11-16T08:53:59Z</time>
      </trkpt>
      <trkpt lat="59.251942" lon="18.100632">
        <ele>23</ele>
        <time>2019-11-16T08:54:00Z</time>
      </trkpt>
      <trkpt lat="59.251895" lon="18.100659">
        <ele>23</ele>
        <time>2019-11-16T08:54:02Z</time>
      </trkpt>
      <trkpt lat="59.251849" lon="18.100687">
        <ele>0</ele>
        <time>2019-11-16T08:54:02Z</time>
      </trkpt>
      <trkpt lat="59.251806" lon="18.100715">
        <ele>23</ele>
        <time>2019-11-16T08:54:03Z</time>
      </trkpt>
      <trkpt lat="59.251763" lon="18.100743">
        <ele>23</ele>
        <time>2019-11-16T08:54:05Z</time>
      </trkpt>
      <trkpt lat="59.251721" lon="18.100768">
        <ele>24</ele>
        <time>2019-11-16T08:54:06Z</time>
      </trkpt>
      <trkpt lat="59.251679" lon="18.100796">
        <ele>24</ele>
        <time>2019-11-16T08:54:07Z</time>
      </trkpt>
      <trkpt lat="59.251639" lon="18.100822">
        <ele>24</ele>
        <time>2019-11-16T08:54:08Z</time>
      </trkpt>
      <trkpt lat="59.251599" lon="18.100848">
        <ele>24</ele>
        <time>2019-11-16T08:54:09Z</time>
      </trkpt>
      <trkpt lat="59.25156" lon="18.100872">
        <ele>0</ele>
        <time>2019-11-16T08:54:09Z</time>
      </trkpt>
      <trkpt lat="59.251521" lon="18.100896">
        <ele>24</ele>
        <time>2019-11-16T08:54:10Z</time>
      </trkpt>
      <trkpt lat="59.251481" lon="18.100918">
        <ele>24</ele>
        <time>2019-11-16T08:54:12Z</time>
      </trkpt>
      <trkpt lat="59.251441" lon="18.100938">
        <ele>25</ele>
        <time>2019-11-16T08:54:13Z</time>
      </trkpt>
      <trkpt lat="59.2514" lon="18.100952">
        <ele>25</ele>
        <time>2019-11-16T08:54:14Z</time>
      </trkpt>
      <trkpt lat="59.251358" lon="18.100957">
        <ele>25</ele>
        <time>2019-11-16T08:54:15Z</time>
      </trkpt>
      <trkpt lat="59.251316" lon="18.100951">
        <ele>25</ele>
        <time>2019-11-16T08:54:16Z</time>
      </trkpt>
      <trkpt lat="59.251275" lon="18.100936">
        <ele>25</ele>
        <time>2019-11-16T08:54:17Z</time>
      </trkpt>
      <trkpt lat="59.251234" lon="18.100915">
        <ele>25</ele>
        <time>2019-11-16T08:54:18Z</time>
      </trkpt>
      <trkpt lat="59.251194" lon="18.100888">
        <ele>25</ele>
        <time>2019-11-16T08:54:19Z</time>
      </trkpt>
      <trkpt lat="59.251153" lon="18.10086">
        <ele>26</ele>
        <time>2019-11-16T08:54:20Z</time>
      </trkpt>
      <trkpt lat="59.251112" lon="18.100832">
        <ele>26</ele>
        <time>2019-11-16T08:54:21Z</time>
      </trkpt>
      <trkpt lat="59.251073" lon="18.100802">
        <ele>0</ele>
        <time>2019-11-16T08:54:21Z</time>
      </trkpt>
      <trkpt lat="59.251035" lon="18.100768">
        <ele>26</ele>
        <time>2019-11-16T08:54:22Z</time>
      </trkpt>
      <trkpt lat="59.250997" lon="18.100731">
        <ele>26</ele>
        <time>2019-11-16T08:54:24Z</time>
      </trkpt>
      <trkpt lat="59.25096" lon="18.10069">
        <ele>26</ele>
        <time>2019-11-16T08:54:25Z</time>
      </trkpt>
      <trkpt lat="59.250924" lon="18.100645">
        <ele>27</ele>
        <time>2019-11-16T08:54:26Z</time>
      </trkpt>
      <trkpt lat="59.25089" lon="18.100596">
        <ele>27</ele>
        <time>2019-11-16T08:54:27Z</time>
      </trkpt>
      <trkpt lat="59.250857" lon="18.100544">
        <ele>27</ele>
        <time>2019-11-16T08:54:28Z</time>
      </trkpt>
      <trkpt lat="59.250826" lon="18.10049">
        <ele>27</ele>
        <time>2019-11-16T08:54:29Z</time>
      </trkpt>
      <trkpt lat="59.250797" lon="18.100431">
        <ele>27</ele>
        <time>2019-11-16T08:54:30Z</time>
      </trkpt>
      <trkpt lat="59.250769" lon="18.100368">
        <ele>28</ele>
        <time>2019-11-16T08:54:31Z</time>
      </trkpt>
      <trkpt lat="59.250744" lon="18.100303">
        <ele>28</ele>
        <time>2019-11-16T08:54:32Z</time>
      </trkpt>
      <trkpt lat="59.250721" lon="18.100238">
        <ele>28</ele>
        <time>2019-11-16T08:54:33Z</time>
      </trkpt>
      <trkpt lat="59.250698" lon="18.100176">
        <ele>0</ele>
        <time>2019-11-16T08:54:33Z</time>
      </trkpt>
      <trkpt lat="59.25067" lon="18.100116">
        <ele>28</ele>
        <time>2019-11-16T08:54:34Z</time>
      </trkpt>
      <trkpt lat="59.250638" lon="18.100062">
        <ele>28</ele>
        <time>2019-11-16T08:54:36Z</time>
      </trkpt>
      <trkpt lat="59.250603" lon="18.100009">
        <ele>29</ele>
        <time>2019-11-16T08:54:37Z</time>
      </trkpt>
      <trkpt lat="59.250567" lon="18.09996">
        <ele>29</ele>
        <time>2019-11-16T08:54:38Z</time>
      </trkpt>
      <trkpt lat="59.250529" lon="18.099911">
        <ele>29</ele>
        <time>2019-11-16T08:54:39Z</time>
      </trkpt>
      <trkpt lat="59.250487" lon="18.09986">
        <ele>29</ele>
        <time>2019-11-16T08:54:40Z</time>
      </trkpt>
      <trkpt lat="59.250438" lon="18.099818">
        <ele>0</ele>
        <time>2019-11-16T08:54:40Z</time>
      </trkpt>
      <trkpt lat="59.250384" lon="18.099781">
        <ele>29</ele>
        <time>2019-11-16T08:54:41Z</time>
      </trkpt>
      <trkpt lat="59.250325" lon="18.099746">
        <ele>28</ele>
        <time>2019-11-16T08:54:43Z</time>
      </trkpt>
      <trkpt lat="59.250264" lon="18.099716">
        <ele>0</ele>
        <time>2019-11-16T08:54:43Z</time>
      </trkpt>
      <trkpt lat="59.250201" lon="18.099689">
        <ele>28</ele>
        <time>2019-11-16T08:54:44Z</time>
      </trkpt>
      <trkpt lat="59.250136" lon="18.099663">
        <ele>28</ele>
        <time>2019-11-16T08:54:46Z</time>
      </trkpt>
      <trkpt lat="59.250069" lon="18.099636">
        <ele>27</ele>
        <time>2019-11-16T08:54:47Z</time>
      </trkpt>
      <trkpt lat="59.250001" lon="18.099608">
        <ele>27</ele>
        <time>2019-11-16T08:54:48Z</time>
      </trkpt>
      <trkpt lat="59.249931" lon="18.099579">
        <ele>27</ele>
        <time>2019-11-16T08:54:49Z</time>
      </trkpt>
      <trkpt lat="59.249862" lon="18.099546">
        <ele>27</ele>
        <time>2019-11-16T08:54:50Z</time>
      </trkpt>
      <trkpt lat="59.249791" lon="18.099513">
        <ele>27</ele>
        <time>2019-11-16T08:54:51Z</time>
      </trkpt>
      <trkpt lat="59.249716" lon="18.099488">
        <ele>0</ele>
        <time>2019-11-16T08:54:51Z</time>
      </trkpt>
      <trkpt lat="59.249641" lon="18.099476">
        <ele>26</ele>
        <time>2019-11-16T08:54:52Z</time>
      </trkpt>
      <trkpt lat="59.249566" lon="18.099479">
        <ele>26</ele>
        <time>2019-11-16T08:54:54Z</time>
      </trkpt>
      <trkpt lat="59.249494" lon="18.099493">
        <ele>26</ele>
        <time>2019-11-16T08:54:55Z</time>
      </trkpt>
      <trkpt lat="59.249426" lon="18.099517">
        <ele>26</ele>
        <time>2019-11-16T08:54:56Z</time>
      </trkpt>
      <trkpt lat="59.249361" lon="18.099543">
        <ele>26</ele>
        <time>2019-11-16T08:54:57Z</time>
      </trkpt>
      <trkpt lat="59.2493" lon="18.099571">
        <ele>26</ele>
        <time>2019-11-16T08:54:58Z</time>
      </trkpt>
      <trkpt lat="59.249241" lon="18.0996">
        <ele>0</ele>
        <time>2019-11-16T08:54:58Z</time>
      </trkpt>
      <trkpt lat="59.249185" lon="18.099629">
        <ele>26</ele>
        <time>2019-11-16T08:54:59Z</time>
      </trkpt>
      <trkpt lat="59.249129" lon="18.099658">
        <ele>26</ele>
        <time>2019-11-16T08:55:00Z</time>
      </trkpt>
      <trkpt lat="59.249074" lon="18.099689">
        <ele>26</ele>
        <time>2019-11-16T08:55:02Z</time>
      </trkpt>
      <trkpt lat="59.249021" lon="18.099725">
        <ele>26</ele>
        <time>2019-11-16T08:55:03Z</time>
      </trkpt>
      <trkpt lat="59.24897" lon="18.099764">
        <ele>26</ele>
        <time>2019-11-16T08:55:04Z</time>
      </trkpt>
      <trkpt lat="59.248922" lon="18.099807">
        <ele>26</ele>
        <time>2019-11-16T08:55:05Z</time>
      </trkpt>
      <trkpt lat="59.248876" lon="18.099853">
        <ele>26</ele>
        <time>2019-11-16T08:55:06Z</time>
      </trkpt>
      <trkpt lat="59.248831" lon="18.099903">
        <ele>26</ele>
        <time>2019-11-16T08:55:07Z</time>
      </trkpt>
      <trkpt lat="59.248789" lon="18.099958">
        <ele>0</ele>
        <time>2019-11-16T08:55:07Z</time>
      </trkpt>
      <trkpt lat="59.248747" lon="18.100017">
        <ele>26</ele>
        <time>2019-11-16T08:55:08Z</time>
      </trkpt>
      <trkpt lat="59.248708" lon="18.10008">
        <ele>27</ele>
        <time>2019-11-16T08:55:10Z</time>
      </trkpt>
      <trkpt lat="59.248669" lon="18.100144">
        <ele>27</ele>
        <time>2019-11-16T08:55:11Z</time>
      </trkpt>
      <trkpt lat="59.248629" lon="18.100207">
        <ele>27</ele>
        <time>2019-11-16T08:55:12Z</time>
      </trkpt>
      <trkpt lat="59.248588" lon="18.100268">
        <ele>27</ele>
        <time>2019-11-16T08:55:13Z</time>
      </trkpt>
      <trkpt lat="59.248546" lon="18.100327">
        <ele>27</ele>
        <time>2019-11-16T08:55:14Z</time>
      </trkpt>
      <trkpt lat="59.248503" lon="18.100383">
        <ele>27</ele>
        <time>2019-11-16T08:55:15Z</time>
      </trkpt>
      <trkpt lat="59.24846" lon="18.100433">
        <ele>27</ele>
        <time>2019-11-16T08:55:16Z</time>
      </trkpt>
      <trkpt lat="59.248412" lon="18.100481">
        <ele>0</ele>
        <time>2019-11-16T08:55:16Z</time>
      </trkpt>
      <trkpt lat="59.248364" lon="18.10052">
        <ele>27</ele>
        <time>2019-11-16T08:55:17Z</time>
      </trkpt>
      <trkpt lat="59.248321" lon="18.100552">
        <ele>0</ele>
        <time>2019-11-16T08:55:18Z</time>
      </trkpt>
      <trkpt lat="59.248285" lon="18.100583">
        <ele>28</ele>
        <time>2019-11-16T08:55:19Z</time>
      </trkpt>
      <trkpt lat="59.248252" lon="18.100615">
        <ele>28</ele>
        <time>2019-11-16T08:55:21Z</time>
      </trkpt>
      <trkpt lat="59.24822" lon="18.10065">
        <ele>28</ele>
        <time>2019-11-16T08:55:22Z</time>
      </trkpt>
      <trkpt lat="59.24819" lon="18.100686">
        <ele>28</ele>
        <time>2019-11-16T08:55:23Z</time>
      </trkpt>
      <trkpt lat="59.248159" lon="18.100724">
        <ele>28</ele>
        <time>2019-11-16T08:55:24Z</time>
      </trkpt>
      <trkpt lat="59.24813" lon="18.100765">
        <ele>28</ele>
        <time>2019-11-16T08:55:25Z</time>
      </trkpt>
      <trkpt lat="59.248101" lon="18.10081">
        <ele>28</ele>
        <time>2019-11-16T08:55:26Z</time>
      </trkpt>
      <trkpt lat="59.248071" lon="18.100862">
        <ele>29</ele>
        <time>2019-11-16T08:55:27Z</time>
      </trkpt>
      <trkpt lat="59.248045" lon="18.100921">
        <ele>29</ele>
        <time>2019-11-16T08:55:28Z</time>
      </trkpt>
      <trkpt lat="59.248022" lon="18.100981">
        <ele>29</ele>
        <time>2019-11-16T08:55:29Z</time>
      </trkpt>
      <trkpt lat="59.248001" lon="18.101038">
        <ele>0</ele>
        <time>2019-11-16T08:55:29Z</time>
      </trkpt>
      <trkpt lat="59.247979" lon="18.101096">
        <ele>29</ele>
        <time>2019-11-16T08:55:30Z</time>
      </trkpt>
      <trkpt lat="59.247957" lon="18.101156">
        <ele>30</ele>
        <time>2019-11-16T08:55:32Z</time>
      </trkpt>
      <trkpt lat="59.247935" lon="18.101218">
        <ele>30</ele>
        <time>2019-11-16T08:55:33Z</time>
      </trkpt>
      <trkpt lat="59.24791" lon="18.101282">
        <ele>30</ele>
        <time>2019-11-16T08:55:34Z</time>
      </trkpt>
      <trkpt lat="59.247887" lon="18.101342">
        <ele>30</ele>
        <time>2019-11-16T08:55:35Z</time>
      </trkpt>
      <trkpt lat="59.247865" lon="18.1014">
        <ele>31</ele>
        <time>2019-11-16T08:55:36Z</time>
      </trkpt>
      <trkpt lat="59.247845" lon="18.101456">
        <ele>31</ele>
        <time>2019-11-16T08:55:37Z</time>
      </trkpt>
      <trkpt lat="59.247824" lon="18.101517">
        <ele>0</ele>
        <time>2019-11-16T08:55:37Z</time>
      </trkpt>
      <trkpt lat="59.247802" lon="18.101584">
        <ele>31</ele>
        <time>2019-11-16T08:55:38Z</time>
      </trkpt>
      <trkpt lat="59.247782" lon="18.101655">
        <ele>31</ele>
        <time>2019-11-16T08:55:40Z</time>
      </trkpt>
      <trkpt lat="59.247764" lon="18.101729">
        <ele>31</ele>
        <time>2019-11-16T08:55:41Z</time>
      </trkpt>
      <trkpt lat="59.247744" lon="18.101805">
        <ele>31</ele>
        <time>2019-11-16T08:55:42Z</time>
      </trkpt>
      <trkpt lat="59.247724" lon="18.101882">
        <ele>0</ele>
        <time>2019-11-16T08:55:42Z</time>
      </trkpt>
      <trkpt lat="59.247707" lon="18.101957">
        <ele>31</ele>
        <time>2019-11-16T08:55:43Z</time>
      </trkpt>
      <trkpt lat="59.24769" lon="18.102033">
        <ele>32</ele>
        <time>2019-11-16T08:55:45Z</time>
      </trkpt>
      <trkpt lat="59.24767" lon="18.102112">
        <ele>32</ele>
        <time>2019-11-16T08:55:46Z</time>
      </trkpt>
      <trkpt lat="59.247652" lon="18.102188">
        <ele>32</ele>
        <time>2019-11-16T08:55:47Z</time>
      </trkpt>
      <trkpt lat="59.247637" lon="18.102268">
        <ele>32</ele>
        <time>2019-11-16T08:55:48Z</time>
      </trkpt>
      <trkpt lat="59.247619" lon="18.102344">
        <ele>33</ele>
        <time>2019-11-16T08:55:49Z</time>
      </trkpt>
      <trkpt lat="59.247597" lon="18.102422">
        <ele>33</ele>
        <time>2019-11-16T08:55:50Z</time>
      </trkpt>
      <trkpt lat="59.247576" lon="18.102499">
        <ele>33</ele>
        <time>2019-11-16T08:55:51Z</time>
      </trkpt>
      <trkpt lat="59.247554" lon="18.102577">
        <ele>33</ele>
        <time>2019-11-16T08:55:52Z</time>
      </trkpt>
      <trkpt lat="59.247532" lon="18.102657">
        <ele>33</ele>
        <time>2019-11-16T08:55:53Z</time>
      </trkpt>
      <trkpt lat="59.24751" lon="18.102738">
        <ele>0</ele>
        <time>2019-11-16T08:55:53Z</time>
      </trkpt>
      <trkpt lat="59.247488" lon="18.102821">
        <ele>33</ele>
        <time>2019-11-16T08:55:54Z</time>
      </trkpt>
      <trkpt lat="59.247463" lon="18.102907">
        <ele>33</ele>
        <time>2019-11-16T08:55:56Z</time>
      </trkpt>
      <trkpt lat="59.247431" lon="18.102992">
        <ele>0</ele>
        <time>2019-11-16T08:55:56Z</time>
      </trkpt>
      <trkpt lat="59.247394" lon="18.103074">
        <ele>33</ele>
        <time>2019-11-16T08:55:57Z</time>
      </trkpt>
      <trkpt lat="59.247352" lon="18.103153">
        <ele>32</ele>
        <time>2019-11-16T08:55:59Z</time>
      </trkpt>
      <trkpt lat="59.247306" lon="18.103231">
        <ele>32</ele>
        <time>2019-11-16T08:56:00Z</time>
      </trkpt>
      <trkpt lat="59.247255" lon="18.103309">
        <ele>32</ele>
        <time>2019-11-16T08:56:01Z</time>
      </trkpt>
      <trkpt lat="59.247204" lon="18.103388">
        <ele>32</ele>
        <time>2019-11-16T08:56:02Z</time>
      </trkpt>
      <trkpt lat="59.247151" lon="18.103478">
        <ele>0</ele>
        <time>2019-11-16T08:56:02Z</time>
      </trkpt>
      <trkpt lat="59.2471" lon="18.103582">
        <ele>32</ele>
        <time>2019-11-16T08:56:03Z</time>
      </trkpt>
      <trkpt lat="59.247052" lon="18.103705">
        <ele>32</ele>
        <time>2019-11-16T08:56:05Z</time>
      </trkpt>
      <trkpt lat="59.247011" lon="18.103845">
        <ele>32</ele>
        <time>2019-11-16T08:56:06Z</time>
      </trkpt>
      <trkpt lat="59.246977" lon="18.103993">
        <ele>32</ele>
        <time>2019-11-16T08:56:07Z</time>
      </trkpt>
      <trkpt lat="59.246955" lon="18.104147">
        <ele>31</ele>
        <time>2019-11-16T08:56:08Z</time>
      </trkpt>
      <trkpt lat="59.24695" lon="18.104292">
        <ele>0</ele>
        <time>2019-11-16T08:56:08Z</time>
      </trkpt>
      <trkpt lat="59.24695" lon="18.104436">
        <ele>32</ele>
        <time>2019-11-16T08:56:09Z</time>
      </trkpt>
      <trkpt lat="59.246953" lon="18.104573">
        <ele>32</ele>
        <time>2019-11-16T08:56:11Z</time>
      </trkpt>
      <trkpt lat="59.246953" lon="18.104692">
        <ele>32</ele>
        <time>2019-11-16T08:56:12Z</time>
      </trkpt>
      <trkpt lat="59.246932" lon="18.104801">
        <ele>31</ele>
        <time>2019-11-16T08:56:13Z</time>
      </trkpt>
      <trkpt lat="59.246895" lon="18.104887">
        <ele>31</ele>
        <time>2019-11-16T08:56:14Z</time>
      </trkpt>
      <trkpt lat="59.24685" lon="18.104957">
        <ele>31</ele>
        <time>2019-11-16T08:56:15Z</time>
      </trkpt>
      <trkpt lat="59.246811" lon="18.105012">
        <ele>0</ele>
        <time>2019-11-16T08:56:15Z</time>
      </trkpt>
      <trkpt lat="59.24677" lon="18.105063">
        <ele>31</ele>
        <time>2019-11-16T08:56:16Z</time>
      </trkpt>
      <trkpt lat="59.246726" lon="18.105117">
        <ele>0</ele>
        <time>2019-11-16T08:56:17Z</time>
      </trkpt>
      <trkpt lat="59.246682" lon="18.105171">
        <ele>31</ele>
        <time>2019-11-16T08:56:18Z</time>
      </trkpt>
      <trkpt lat="59.246642" lon="18.105226">
        <ele>30</ele>
        <time>2019-11-16T08:56:20Z</time>
      </trkpt>
      <trkpt lat="59.246602" lon="18.105281">
        <ele>30</ele>
        <time>2019-11-16T08:56:21Z</time>
      </trkpt>
      <trkpt lat="59.24656" lon="18.105328">
        <ele>30</ele>
        <time>2019-11-16T08:56:22Z</time>
      </trkpt>
      <trkpt lat="59.246515" lon="18.105358">
        <ele>30</ele>
        <time>2019-11-16T08:56:23Z</time>
      </trkpt>
      <trkpt lat="59.246465" lon="18.105376">
        <ele>29</ele>
        <time>2019-11-16T08:56:24Z</time>
      </trkpt>
      <trkpt lat="59.246417" lon="18.105389">
        <ele>29</ele>
        <time>2019-11-16T08:56:25Z</time>
      </trkpt>
      <trkpt lat="59.246367" lon="18.1054">
        <ele>29</ele>
        <time>2019-11-16T08:56:26Z</time>
      </trkpt>
      <trkpt lat="59.246321" lon="18.105409">
        <ele>28</ele>
        <time>2019-11-16T08:56:27Z</time>
      </trkpt>
      <trkpt lat="59.246277" lon="18.105422">
        <ele>0</ele>
        <time>2019-11-16T08:56:27Z</time>
      </trkpt>
      <trkpt lat="59.246234" lon="18.105439">
        <ele>28</ele>
        <time>2019-11-16T08:56:28Z</time>
      </trkpt>
      <trkpt lat="59.246193" lon="18.105461">
        <ele>28</ele>
        <time>2019-11-16T08:56:30Z</time>
      </trkpt>
      <trkpt lat="59.246156" lon="18.105494">
        <ele>28</ele>
        <time>2019-11-16T08:56:31Z</time>
      </trkpt>
      <trkpt lat="59.246121" lon="18.105539">
        <ele>28</ele>
        <time>2019-11-16T08:56:32Z</time>
      </trkpt>
      <trkpt lat="59.246089" lon="18.105588">
        <ele>28</ele>
        <time>2019-11-16T08:56:33Z</time>
      </trkpt>
      <trkpt lat="59.246057" lon="18.105639">
        <ele>29</ele>
        <time>2019-11-16T08:56:34Z</time>
      </trkpt>
      <trkpt lat="59.246024" lon="18.105688">
        <ele>0</ele>
        <time>2019-11-16T08:56:34Z</time>
      </trkpt>
      <trkpt lat="59.24599" lon="18.105738">
        <ele>29</ele>
        <time>2019-11-16T08:56:35Z</time>
      </trkpt>
      <trkpt lat="59.245957" lon="18.105791">
        <ele>29</ele>
        <time>2019-11-16T08:56:37Z</time>
      </trkpt>
      <trkpt lat="59.245922" lon="18.105844">
        <ele>29</ele>
        <time>2019-11-16T08:56:38Z</time>
      </trkpt>
      <trkpt lat="59.245886" lon="18.105897">
        <ele>0</ele>
        <time>2019-11-16T08:56:38Z</time>
      </trkpt>
      <trkpt lat="59.245851" lon="18.105948">
        <ele>29</ele>
        <time>2019-11-16T08:56:39Z</time>
      </trkpt>
      <trkpt lat="59.245815" lon="18.105998">
        <ele>30</ele>
        <time>2019-11-16T08:56:41Z</time>
      </trkpt>
      <trkpt lat="59.24578" lon="18.106043">
        <ele>30</ele>
        <time>2019-11-16T08:56:42Z</time>
      </trkpt>
      <trkpt lat="59.245745" lon="18.106086">
        <ele>30</ele>
        <time>2019-11-16T08:56:43Z</time>
      </trkpt>
      <trkpt lat="59.245712" lon="18.106131">
        <ele>30</ele>
        <time>2019-11-16T08:56:44Z</time>
      </trkpt>
      <trkpt lat="59.245682" lon="18.106176">
        <ele>30</ele>
        <time>2019-11-16T08:56:45Z</time>
      </trkpt>
      <trkpt lat="59.24565" lon="18.106219">
        <ele>31</ele>
        <time>2019-11-16T08:56:46Z</time>
      </trkpt>
      <trkpt lat="59.24562" lon="18.106262">
        <ele>31</ele>
        <time>2019-11-16T08:56:47Z</time>
      </trkpt>
      <trkpt lat="59.24559" lon="18.106304">
        <ele>31</ele>
        <time>2019-11-16T08:56:48Z</time>
      </trkpt>
      <trkpt lat="59.24556" lon="18.106352">
        <ele>31</ele>
        <time>2019-11-16T08:56:49Z</time>
      </trkpt>
      <trkpt lat="59.245531" lon="18.106397">
        <ele>31</ele>
        <time>2019-11-16T08:56:50Z</time>
      </trkpt>
      <trkpt lat="59.245503" lon="18.106444">
        <ele>31</ele>
        <time>2019-11-16T08:56:51Z</time>
      </trkpt>
      <trkpt lat="59.245477" lon="18.106496">
        <ele>0</ele>
        <time>2019-11-16T08:56:51Z</time>
      </trkpt>
      <trkpt lat="59.245451" lon="18.106549">
        <ele>31</ele>
        <time>2019-11-16T08:56:52Z</time>
      </trkpt>
      <trkpt lat="59.245426" lon="18.106598">
        <ele>0</ele>
        <time>2019-11-16T08:56:53Z</time>
      </trkpt>
      <trkpt lat="59.2454" lon="18.10665">
        <ele>32</ele>
        <time>2019-11-16T08:56:54Z</time>
      </trkpt>
      <trkpt lat="59.245371" lon="18.106705">
        <ele>31</ele>
        <time>2019-11-16T08:56:56Z</time>
      </trkpt>
      <trkpt lat="59.245343" lon="18.106759">
        <ele>31</ele>
        <time>2019-11-16T08:56:57Z</time>
      </trkpt>
      <trkpt lat="59.245312" lon="18.106815">
        <ele>31</ele>
        <time>2019-11-16T08:56:58Z</time>
      </trkpt>
      <trkpt lat="59.24528" lon="18.106872">
        <ele>31</ele>
        <time>2019-11-16T08:56:59Z</time>
      </trkpt>
      <trkpt lat="59.245249" lon="18.106929">
        <ele>31</ele>
        <time>2019-11-16T08:57:00Z</time>
      </trkpt>
      <trkpt lat="59.245219" lon="18.106987">
        <ele>31</ele>
        <time>2019-11-16T08:57:01Z</time>
      </trkpt>
      <trkpt lat="59.245187" lon="18.107049">
        <ele>31</ele>
        <time>2019-11-16T08:57:02Z</time>
      </trkpt>
      <trkpt lat="59.245158" lon="18.107107">
        <ele>31</ele>
        <time>2019-11-16T08:57:03Z</time>
      </trkpt>
      <trkpt lat="59.245128" lon="18.107163">
        <ele>0</ele>
        <time>2019-11-16T08:57:03Z</time>
      </trkpt>
      <trkpt lat="59.2451" lon="18.107215">
        <ele>31</ele>
        <time>2019-11-16T08:57:04Z</time>
      </trkpt>
      <trkpt lat="59.245068" lon="18.107269">
        <ele>31</ele>
        <time>2019-11-16T08:57:06Z</time>
      </trkpt>
      <trkpt lat="59.245037" lon="18.107324">
        <ele>31</ele>
        <time>2019-11-16T08:57:07Z</time>
      </trkpt>
      <trkpt lat="59.245005" lon="18.107376">
        <ele>31</ele>
        <time>2019-11-16T08:57:08Z</time>
      </trkpt>
      <trkpt lat="59.244973" lon="18.107425">
        <ele>0</ele>
        <time>2019-11-16T08:57:08Z</time>
      </trkpt>
      <trkpt lat="59.244943" lon="18.107472">
        <ele>31</ele>
        <time>2019-11-16T08:57:09Z</time>
      </trkpt>
      <trkpt lat="59.244913" lon="18.107521">
        <ele>31</ele>
        <time>2019-11-16T08:57:11Z</time>
      </trkpt>
      <trkpt lat="59.244882" lon="18.107572">
        <ele>31</ele>
        <time>2019-11-16T08:57:12Z</time>
      </trkpt>
      <trkpt lat="59.244852" lon="18.107627">
        <ele>0</ele>
        <time>2019-11-16T08:57:12Z</time>
      </trkpt>
      <trkpt lat="59.244824" lon="18.107683">
        <ele>31</ele>
        <time>2019-11-16T08:57:13Z</time>
      </trkpt>
      <trkpt lat="59.244795" lon="18.107738">
        <ele>31</ele>
        <time>2019-11-16T08:57:15Z</time>
      </trkpt>
      <trkpt lat="59.244765" lon="18.107795">
        <ele>31</ele>
        <time>2019-11-16T08:57:16Z</time>
      </trkpt>
      <trkpt lat="59.244736" lon="18.107852">
        <ele>0</ele>
        <time>2019-11-16T08:57:16Z</time>
      </trkpt>
      <trkpt lat="59.244708" lon="18.10791">
        <ele>31</ele>
        <time>2019-11-16T08:57:17Z</time>
      </trkpt>
      <trkpt lat="59.244679" lon="18.107968">
        <ele>31</ele>
        <time>2019-11-16T08:57:19Z</time>
      </trkpt>
      <trkpt lat="59.244649" lon="18.108027">
        <ele>31</ele>
        <time>2019-11-16T08:57:20Z</time>
      </trkpt>
      <trkpt lat="59.244619" lon="18.108088">
        <ele>31</ele>
        <time>2019-11-16T08:57:21Z</time>
      </trkpt>
      <trkpt lat="59.244587" lon="18.108149">
        <ele>31</ele>
        <time>2019-11-16T08:57:22Z</time>
      </trkpt>
      <trkpt lat="59.244554" lon="18.108212">
        <ele>31</ele>
        <time>2019-11-16T08:57:23Z</time>
      </trkpt>
      <trkpt lat="59.244519" lon="18.108279">
        <ele>31</ele>
        <time>2019-11-16T08:57:24Z</time>
      </trkpt>
      <trkpt lat="59.244482" lon="18.108345">
        <ele>31</ele>
        <time>2019-11-16T08:57:25Z</time>
      </trkpt>
      <trkpt lat="59.244444" lon="18.108412">
        <ele>31</ele>
        <time>2019-11-16T08:57:26Z</time>
      </trkpt>
      <trkpt lat="59.244407" lon="18.108479">
        <ele>31</ele>
        <time>2019-11-16T08:57:27Z</time>
      </trkpt>
      <trkpt lat="59.244371" lon="18.108547">
        <ele>0</ele>
        <time>2019-11-16T08:57:27Z</time>
      </trkpt>
      <trkpt lat="59.244335" lon="18.108619">
        <ele>31</ele>
        <time>2019-11-16T08:57:28Z</time>
      </trkpt>
      <trkpt lat="59.244299" lon="18.108691">
        <ele>31</ele>
        <time>2019-11-16T08:57:30Z</time>
      </trkpt>
      <trkpt lat="59.244262" lon="18.108764">
        <ele>31</ele>
        <time>2019-11-16T08:57:31Z</time>
      </trkpt>
      <trkpt lat="59.244223" lon="18.108837">
        <ele>0</ele>
        <time>2019-11-16T08:57:31Z</time>
      </trkpt>
      <trkpt lat="59.244184" lon="18.108913">
        <ele>31</ele>
        <time>2019-11-16T08:57:32Z</time>
      </trkpt>
      <trkpt lat="59.244146" lon="18.108993">
        <ele>31</ele>
        <time>2019-11-16T08:57:34Z</time>
      </trkpt>
      <trkpt lat="59.244111" lon="18.109077">
        <ele>31</ele>
        <time>2019-11-16T08:57:35Z</time>
      </trkpt>
      <trkpt lat="59.244077" lon="18.109166">
        <ele>31</ele>
        <time>2019-11-16T08:57:36Z</time>
      </trkpt>
      <trkpt lat="59.244045" lon="18.109264">
        <ele>0</ele>
        <time>2019-11-16T08:57:36Z</time>
      </trkpt>
      <trkpt lat="59.244014" lon="18.109363">
        <ele>31</ele>
        <time>2019-11-16T08:57:37Z</time>
      </trkpt>
      <trkpt lat="59.243989" lon="18.109467">
        <ele>30</ele>
        <time>2019-11-16T08:57:39Z</time>
      </trkpt>
      <trkpt lat="59.243968" lon="18.109575">
        <ele>30</ele>
        <time>2019-11-16T08:57:40Z</time>
      </trkpt>
      <trkpt lat="59.243949" lon="18.109687">
        <ele>30</ele>
        <time>2019-11-16T08:57:41Z</time>
      </trkpt>
      <trkpt lat="59.243935" lon="18.109801">
        <ele>30</ele>
        <time>2019-11-16T08:57:42Z</time>
      </trkpt>
      <trkpt lat="59.243925" lon="18.109916">
        <ele>30</ele>
        <time>2019-11-16T08:57:43Z</time>
      </trkpt>
      <trkpt lat="59.243917" lon="18.110031">
        <ele>30</ele>
        <time>2019-11-16T08:57:44Z</time>
      </trkpt>
      <trkpt lat="59.243914" lon="18.110148">
        <ele>0</ele>
        <time>2019-11-16T08:57:44Z</time>
      </trkpt>
      <trkpt lat="59.243912" lon="18.110264">
        <ele>30</ele>
        <time>2019-11-16T08:57:45Z</time>
      </trkpt>
      <trkpt lat="59.243909" lon="18.110384">
        <ele>30</ele>
        <time>2019-11-16T08:57:47Z</time>
      </trkpt>
      <trkpt lat="59.243908" lon="18.110506">
        <ele>30</ele>
        <time>2019-11-16T08:57:48Z</time>
      </trkpt>
      <trkpt lat="59.243908" lon="18.110629">
        <ele>30</ele>
        <time>2019-11-16T08:57:49Z</time>
      </trkpt>
      <trkpt lat="59.24391" lon="18.110756">
        <ele>30</ele>
        <time>2019-11-16T08:57:50Z</time>
      </trkpt>
      <trkpt lat="59.243911" lon="18.110885">
        <ele>0</ele>
        <time>2019-11-16T08:57:50Z</time>
      </trkpt>
      <trkpt lat="59.243912" lon="18.111017">
        <ele>30</ele>
        <time>2019-11-16T08:57:51Z</time>
      </trkpt>
      <trkpt lat="59.243912" lon="18.111153">
        <ele>0</ele>
        <time>2019-11-16T08:57:52Z</time>
      </trkpt>
      <trkpt lat="59.243909" lon="18.11129">
        <ele>30</ele>
        <time>2019-11-16T08:57:53Z</time>
      </trkpt>
      <trkpt lat="59.243908" lon="18.111427">
        <ele>29</ele>
        <time>2019-11-16T08:57:55Z</time>
      </trkpt>
      <trkpt lat="59.243907" lon="18.111566">
        <ele>29</ele>
        <time>2019-11-16T08:57:56Z</time>
      </trkpt>
      <trkpt lat="59.243905" lon="18.111703">
        <ele>29</ele>
        <time>2019-11-16T08:57:57Z</time>
      </trkpt>
      <trkpt lat="59.243904" lon="18.111844">
        <ele>29</ele>
        <time>2019-11-16T08:57:58Z</time>
      </trkpt>
      <trkpt lat="59.243903" lon="18.111986">
        <ele>29</ele>
        <time>2019-11-16T08:57:59Z</time>
      </trkpt>
      <trkpt lat="59.243901" lon="18.112125">
        <ele>0</ele>
        <time>2019-11-16T08:57:59Z</time>
      </trkpt>
      <trkpt lat="59.243897" lon="18.112262">
        <ele>29</ele>
        <time>2019-11-16T08:58:00Z</time>
      </trkpt>
      <trkpt lat="59.243893" lon="18.112398">
        <ele>29</ele>
        <time>2019-11-16T08:58:02Z</time>
      </trkpt>
      <trkpt lat="59.243889" lon="18.112532">
        <ele>29</ele>
        <time>2019-11-16T08:58:03Z</time>
      </trkpt>
      <trkpt lat="59.243884" lon="18.112661">
        <ele>29</ele>
        <time>2019-11-16T08:58:04Z</time>
      </trkpt>
      <trkpt lat="59.243879" lon="18.11279">
        <ele>29</ele>
        <time>2019-11-16T08:58:05Z</time>
      </trkpt>
      <trkpt lat="59.243872" lon="18.112916">
        <ele>29</ele>
        <time>2019-11-16T08:58:06Z</time>
      </trkpt>
      <trkpt lat="59.243864" lon="18.113041">
        <ele>29</ele>
        <time>2019-11-16T08:58:07Z</time>
      </trkpt>
      <trkpt lat="59.243855" lon="18.113166">
        <ele>0</ele>
        <time>2019-11-16T08:58:07Z</time>
      </trkpt>
      <trkpt lat="59.243844" lon="18.113288">
        <ele>29</ele>
        <time>2019-11-16T08:58:08Z</time>
      </trkpt>
      <trkpt lat="59.243833" lon="18.11341">
        <ele>0</ele>
        <time>2019-11-16T08:58:09Z</time>
      </trkpt>
      <trkpt lat="59.243822" lon="18.11353">
        <ele>28</ele>
        <time>2019-11-16T08:58:10Z</time>
      </trkpt>
      <trkpt lat="59.24381" lon="18.113648">
        <ele>28</ele>
        <time>2019-11-16T08:58:12Z</time>
      </trkpt>
      <trkpt lat="59.243797" lon="18.113766">
        <ele>28</ele>
        <time>2019-11-16T08:58:13Z</time>
      </trkpt>
      <trkpt lat="59.243783" lon="18.113884">
        <ele>28</ele>
        <time>2019-11-16T08:58:14Z</time>
      </trkpt>
      <trkpt lat="59.24377" lon="18.113998">
        <ele>28</ele>
        <time>2019-11-16T08:58:15Z</time>
      </trkpt>
      <trkpt lat="59.243756" lon="18.114111">
        <ele>0</ele>
        <time>2019-11-16T08:58:15Z</time>
      </trkpt>
      <trkpt lat="59.243741" lon="18.114222">
        <ele>28</ele>
        <time>2019-11-16T08:58:16Z</time>
      </trkpt>
      <trkpt lat="59.243726" lon="18.114328">
        <ele>28</ele>
        <time>2019-11-16T08:58:18Z</time>
      </trkpt>
      <trkpt lat="59.243711" lon="18.114434">
        <ele>28</ele>
        <time>2019-11-16T08:58:19Z</time>
      </trkpt>
      <trkpt lat="59.243695" lon="18.11454">
        <ele>28</ele>
        <time>2019-11-16T08:58:20Z</time>
      </trkpt>
      <trkpt lat="59.243678" lon="18.114648">
        <ele>28</ele>
        <time>2019-11-16T08:58:21Z</time>
      </trkpt>
      <trkpt lat="59.24366" lon="18.114754">
        <ele>28</ele>
        <time>2019-11-16T08:58:22Z</time>
      </trkpt>
      <trkpt lat="59.243641" lon="18.114862">
        <ele>28</ele>
        <time>2019-11-16T08:58:23Z</time>
      </trkpt>
      <trkpt lat="59.243622" lon="18.114968">
        <ele>0</ele>
        <time>2019-11-16T08:58:23Z</time>
      </trkpt>
      <trkpt lat="59.243606" lon="18.115076">
        <ele>28</ele>
        <time>2019-11-16T08:58:24Z</time>
      </trkpt>
      <trkpt lat="59.243594" lon="18.115186">
        <ele>28</ele>
        <time>2019-11-16T08:58:26Z</time>
      </trkpt>
      <trkpt lat="59.243585" lon="18.115298">
        <ele>28</ele>
        <time>2019-11-16T08:58:27Z</time>
      </trkpt>
      <trkpt lat="59.243576" lon="18.115414">
        <ele>28</ele>
        <time>2019-11-16T08:58:28Z</time>
      </trkpt>
      <trkpt lat="59.243563" lon="18.115528">
        <ele>0</ele>
        <time>2019-11-16T08:58:28Z</time>
      </trkpt>
      <trkpt lat="59.243544" lon="18.115638">
        <ele>27</ele>
        <time>2019-11-16T08:58:29Z</time>
      </trkpt>
      <trkpt lat="59.243516" lon="18.115747">
        <ele>27</ele>
        <time>2019-11-16T08:58:31Z</time>
      </trkpt>
      <trkpt lat="59.243484" lon="18.115852">
        <ele>27</ele>
        <time>2019-11-16T08:58:32Z</time>
      </trkpt>
      <trkpt lat="59.243452" lon="18.115958">
        <ele>0</ele>
        <time>2019-11-16T08:58:32Z</time>
      </trkpt>
      <trkpt lat="59.243417" lon="18.116062">
        <ele>27</ele>
        <time>2019-11-16T08:58:33Z</time>
      </trkpt>
      <trkpt lat="59.243382" lon="18.116165">
        <ele>26</ele>
        <time>2019-11-16T08:58:35Z</time>
      </trkpt>
      <trkpt lat="59.243346" lon="18.116269">
        <ele>26</ele>
        <time>2019-11-16T08:58:36Z</time>
      </trkpt>
      <trkpt lat="59.243312" lon="18.116375">
        <ele>26</ele>
        <time>2019-11-16T08:58:37Z</time>
      </trkpt>
      <trkpt lat="59.243277" lon="18.11648">
        <ele>25</ele>
        <time>2019-11-16T08:58:38Z</time>
      </trkpt>
      <trkpt lat="59.243245" lon="18.116584">
        <ele>25</ele>
        <time>2019-11-16T08:58:39Z</time>
      </trkpt>
      <trkpt lat="59.243213" lon="18.116688">
        <ele>25</ele>
        <time>2019-11-16T08:58:40Z</time>
      </trkpt>
      <trkpt lat="59.24318" lon="18.116794">
        <ele>0</ele>
        <time>2019-11-16T08:58:40Z</time>
      </trkpt>
      <trkpt lat="59.243146" lon="18.116898">
        <ele>25</ele>
        <time>2019-11-16T08:58:41Z</time>
      </trkpt>
      <trkpt lat="59.243114" lon="18.117004">
        <ele>25</ele>
        <time>2019-11-16T08:58:43Z</time>
      </trkpt>
      <trkpt lat="59.243081" lon="18.117108">
        <ele>25</ele>
        <time>2019-11-16T08:58:44Z</time>
      </trkpt>
      <trkpt lat="59.243047" lon="18.117212">
        <ele>24</ele>
        <time>2019-11-16T08:58:45Z</time>
      </trkpt>
      <trkpt lat="59.243014" lon="18.117316">
        <ele>24</ele>
        <time>2019-11-16T08:58:46Z</time>
      </trkpt>
      <trkpt lat="59.242983" lon="18.117421">
        <ele>24</ele>
        <time>2019-11-16T08:58:47Z</time>
      </trkpt>
      <trkpt lat="59.242952" lon="18.117527">
        <ele>0</ele>
        <time>2019-11-16T08:58:47Z</time>
      </trkpt>
      <trkpt lat="59.242921" lon="18.11763">
        <ele>24</ele>
        <time>2019-11-16T08:58:48Z</time>
      </trkpt>
      <trkpt lat="59.242888" lon="18.117734">
        <ele>24</ele>
        <time>2019-11-16T08:58:49Z</time>
      </trkpt>
      <trkpt lat="59.242855" lon="18.117836">
        <ele>24</ele>
        <time>2019-11-16T08:58:51Z</time>
      </trkpt>
      <trkpt lat="59.242822" lon="18.117938">
        <ele>23</ele>
        <time>2019-11-16T08:58:52Z</time>
      </trkpt>
      <trkpt lat="59.242789" lon="18.118036">
        <ele>23</ele>
        <time>2019-11-16T08:58:53Z</time>
      </trkpt>
      <trkpt lat="59.242759" lon="18.118134">
        <ele>23</ele>
        <time>2019-11-16T08:58:54Z</time>
      </trkpt>
      <trkpt lat="59.24273" lon="18.11823">
        <ele>23</ele>
        <time>2019-11-16T08:58:55Z</time>
      </trkpt>
      <trkpt lat="59.242702" lon="18.118322">
        <ele>23</ele>
        <time>2019-11-16T08:58:56Z</time>
      </trkpt>
      <trkpt lat="59.242674" lon="18.118415">
        <ele>0</ele>
        <time>2019-11-16T08:58:56Z</time>
      </trkpt>
      <trkpt lat="59.242647" lon="18.118504">
        <ele>23</ele>
        <time>2019-11-16T08:58:57Z</time>
      </trkpt>
      <trkpt lat="59.242619" lon="18.118594">
        <ele>23</ele>
        <time>2019-11-16T08:58:59Z</time>
      </trkpt>
      <trkpt lat="59.24259" lon="18.118682">
        <ele>24</ele>
        <time>2019-11-16T08:59:00Z</time>
      </trkpt>
      <trkpt lat="59.242559" lon="18.118768">
        <ele>24</ele>
        <time>2019-11-16T08:59:01Z</time>
      </trkpt>
      <trkpt lat="59.242525" lon="18.11885">
        <ele>24</ele>
        <time>2019-11-16T08:59:02Z</time>
      </trkpt>
      <trkpt lat="59.242488" lon="18.118926">
        <ele>24</ele>
        <time>2019-11-16T08:59:03Z</time>
      </trkpt>
      <trkpt lat="59.242448" lon="18.118989">
        <ele>24</ele>
        <time>2019-11-16T08:59:04Z</time>
      </trkpt>
      <trkpt lat="59.242402" lon="18.119046">
        <ele>24</ele>
        <time>2019-11-16T08:59:05Z</time>
      </trkpt>
      <trkpt lat="59.242352" lon="18.119098">
        <ele>0</ele>
        <time>2019-11-16T08:59:05Z</time>
      </trkpt>
      <trkpt lat="59.242302" lon="18.11914">
        <ele>24</ele>
        <time>2019-11-16T08:59:06Z</time>
      </trkpt>
      <trkpt lat="59.242252" lon="18.11918">
        <ele>24</ele>
        <time>2019-11-16T08:59:07Z</time>
      </trkpt>
      <trkpt lat="59.242202" lon="18.119216">
        <ele>25</ele>
        <time>2019-11-16T08:59:09Z</time>
      </trkpt>
      <trkpt lat="59.242151" lon="18.119252">
        <ele>25</ele>
        <time>2019-11-16T08:59:10Z</time>
      </trkpt>
      <trkpt lat="59.242098" lon="18.119284">
        <ele>25</ele>
        <time>2019-11-16T08:59:11Z</time>
      </trkpt>
      <trkpt lat="59.242046" lon="18.11931">
        <ele>25</ele>
        <time>2019-11-16T08:59:12Z</time>
      </trkpt>
      <trkpt lat="59.241995" lon="18.119331">
        <ele>25</ele>
        <time>2019-11-16T08:59:13Z</time>
      </trkpt>
      <trkpt lat="59.241943" lon="18.119352">
        <ele>25</ele>
        <time>2019-11-16T08:59:14Z</time>
      </trkpt>
      <trkpt lat="59.241887" lon="18.119378">
        <ele>0</ele>
        <time>2019-11-16T08:59:14Z</time>
      </trkpt>
      <trkpt lat="59.241829" lon="18.119392">
        <ele>25</ele>
        <time>2019-11-16T08:59:15Z</time>
      </trkpt>
      <trkpt lat="59.24177" lon="18.119382">
        <ele>24</ele>
        <time>2019-11-16T08:59:17Z</time>
      </trkpt>
      <trkpt lat="59.241712" lon="18.119352">
        <ele>24</ele>
        <time>2019-11-16T08:59:18Z</time>
      </trkpt>
      <trkpt lat="59.241654" lon="18.119318">
        <ele>24</ele>
        <time>2019-11-16T08:59:19Z</time>
      </trkpt>
      <trkpt lat="59.241597" lon="18.119292">
        <ele>24</ele>
        <time>2019-11-16T08:59:20Z</time>
      </trkpt>
      <trkpt lat="59.241539" lon="18.11927">
        <ele>24</ele>
        <time>2019-11-16T08:59:21Z</time>
      </trkpt>
      <trkpt lat="59.241482" lon="18.11925">
        <ele>24</ele>
        <time>2019-11-16T08:59:22Z</time>
      </trkpt>
      <trkpt lat="59.241418" lon="18.119232">
        <ele>24</ele>
        <time>2019-11-16T08:59:23Z</time>
      </trkpt>
      <trkpt lat="59.241353" lon="18.119202">
        <ele>0</ele>
        <time>2019-11-16T08:59:23Z</time>
      </trkpt>
      <trkpt lat="59.241279" lon="18.119186">
        <ele>24</ele>
        <time>2019-11-16T08:59:24Z</time>
      </trkpt>
      <trkpt lat="59.241218" lon="18.119198">
        <ele>0</ele>
        <time>2019-11-16T08:59:25Z</time>
      </trkpt>
      <trkpt lat="59.241171" lon="18.119252">
        <ele>24</ele>
        <time>2019-11-16T08:59:26Z</time>
      </trkpt>
      <trkpt lat="59.241142" lon="18.119331">
        <ele>24</ele>
        <time>2019-11-16T08:59:28Z</time>
      </trkpt>
      <trkpt lat="59.241135" lon="18.11942">
        <ele>24</ele>
        <time>2019-11-16T08:59:29Z</time>
      </trkpt>
      <trkpt lat="59.241135" lon="18.119498">
        <ele>24</ele>
        <time>2019-11-16T08:59:30Z</time>
      </trkpt>
      <trkpt lat="59.241136" lon="18.119568">
        <ele>24</ele>
        <time>2019-11-16T08:59:31Z</time>
      </trkpt>
      <trkpt lat="59.241131" lon="18.119636">
        <ele>24</ele>
        <time>2019-11-16T08:59:32Z</time>
      </trkpt>
      <trkpt lat="59.241121" lon="18.119698">
        <ele>23</ele>
        <time>2019-11-16T08:59:33Z</time>
      </trkpt>
      <trkpt lat="59.241107" lon="18.119752">
        <ele>0</ele>
        <time>2019-11-16T08:59:33Z</time>
      </trkpt>
      <trkpt lat="59.241088" lon="18.11978">
        <ele>23</ele>
        <time>2019-11-16T08:59:34Z</time>
      </trkpt>
      <trkpt lat="59.240968" lon="18.11968">
        <ele>23</ele>
        <time>2019-11-16T08:59:38Z</time>
      </trkpt>
      <trkpt lat="59.240903" lon="18.119627">
        <ele>23</ele>
        <time>2019-11-16T08:59:39Z</time>
      </trkpt>
      <trkpt lat="59.240847" lon="18.119597">
        <ele>23</ele>
        <time>2019-11-16T08:59:40Z</time>
      </trkpt>
      <trkpt lat="59.240791" lon="18.119569">
        <ele>23</ele>
        <time>2019-11-16T08:59:41Z</time>
      </trkpt>
      <trkpt lat="59.240735" lon="18.119559">
        <ele>23</ele>
        <time>2019-11-16T08:59:42Z</time>
      </trkpt>
      <trkpt lat="59.24068" lon="18.119559">
        <ele>23</ele>
        <time>2019-11-16T08:59:43Z</time>
      </trkpt>
      <trkpt lat="59.240623" lon="18.119564">
        <ele>0</ele>
        <time>2019-11-16T08:59:43Z</time>
      </trkpt>
      <trkpt lat="59.240569" lon="18.119569">
        <ele>23</ele>
        <time>2019-11-16T08:59:44Z</time>
      </trkpt>
      <trkpt lat="59.240516" lon="18.119552">
        <ele>23</ele>
        <time>2019-11-16T08:59:45Z</time>
      </trkpt>
      <trkpt lat="59.240472" lon="18.119506">
        <ele>23</ele>
        <time>2019-11-16T08:59:47Z</time>
      </trkpt>
      <trkpt lat="59.240435" lon="18.11945">
        <ele>23</ele>
        <time>2019-11-16T08:59:48Z</time>
      </trkpt>
      <trkpt lat="59.240396" lon="18.11941">
        <ele>24</ele>
        <time>2019-11-16T08:59:49Z</time>
      </trkpt>
      <trkpt lat="59.240351" lon="18.119395">
        <ele>24</ele>
        <time>2019-11-16T08:59:50Z</time>
      </trkpt>
      <trkpt lat="59.240304" lon="18.119398">
        <ele>24</ele>
        <time>2019-11-16T08:59:51Z</time>
      </trkpt>
      <trkpt lat="59.240257" lon="18.119418">
        <ele>24</ele>
        <time>2019-11-16T08:59:52Z</time>
      </trkpt>
      <trkpt lat="59.240208" lon="18.119442">
        <ele>24</ele>
        <time>2019-11-16T08:59:53Z</time>
      </trkpt>
      <trkpt lat="59.240158" lon="18.119464">
        <ele>0</ele>
        <time>2019-11-16T08:59:53Z</time>
      </trkpt>
      <trkpt lat="59.240106" lon="18.119488">
        <ele>24</ele>
        <time>2019-11-16T08:59:54Z</time>
      </trkpt>
      <trkpt lat="59.240054" lon="18.11951">
        <ele>24</ele>
        <time>2019-11-16T08:59:56Z</time>
      </trkpt>
      <trkpt lat="59.24" lon="18.119534">
        <ele>24</ele>
        <time>2019-11-16T08:59:57Z</time>
      </trkpt>
      <trkpt lat="59.239947" lon="18.119554">
        <ele>24</ele>
        <time>2019-11-16T08:59:58Z</time>
      </trkpt>
      <trkpt lat="59.239893" lon="18.119576">
        <ele>24</ele>
        <time>2019-11-16T08:59:59Z</time>
      </trkpt>
      <trkpt lat="59.239841" lon="18.119597">
        <ele>24</ele>
        <time>2019-11-16T09:00:00Z</time>
      </trkpt>
      <trkpt lat="59.239788" lon="18.119619">
        <ele>24</ele>
        <time>2019-11-16T09:00:01Z</time>
      </trkpt>
      <trkpt lat="59.239739" lon="18.11964">
        <ele>24</ele>
        <time>2019-11-16T09:00:02Z</time>
      </trkpt>
      <trkpt lat="59.239689" lon="18.119661">
        <ele>24</ele>
        <time>2019-11-16T09:00:03Z</time>
      </trkpt>
      <trkpt lat="59.23964" lon="18.11968">
        <ele>0</ele>
        <time>2019-11-16T09:00:03Z</time>
      </trkpt>
      <trkpt lat="59.23959" lon="18.119697">
        <ele>24</ele>
        <time>2019-11-16T09:00:04Z</time>
      </trkpt>
      <trkpt lat="59.23954" lon="18.119714">
        <ele>24</ele>
        <time>2019-11-16T09:00:06Z</time>
      </trkpt>
      <trkpt lat="59.239488" lon="18.119736">
        <ele>24</ele>
        <time>2019-11-16T09:00:07Z</time>
      </trkpt>
      <trkpt lat="59.239437" lon="18.119756">
        <ele>24</ele>
        <time>2019-11-16T09:00:08Z</time>
      </trkpt>
      <trkpt lat="59.239388" lon="18.119772">
        <ele>24</ele>
        <time>2019-11-16T09:00:09Z</time>
      </trkpt>
      <trkpt lat="59.239339" lon="18.119785">
        <ele>23</ele>
        <time>2019-11-16T09:00:10Z</time>
      </trkpt>
      <trkpt lat="59.239289" lon="18.119799">
        <ele>23</ele>
        <time>2019-11-16T09:00:11Z</time>
      </trkpt>
      <trkpt lat="59.23924" lon="18.119812">
        <ele>23</ele>
        <time>2019-11-16T09:00:12Z</time>
      </trkpt>
      <trkpt lat="59.239191" lon="18.119823">
        <ele>23</ele>
        <time>2019-11-16T09:00:13Z</time>
      </trkpt>
      <trkpt lat="59.239143" lon="18.119834">
        <ele>0</ele>
        <time>2019-11-16T09:00:13Z</time>
      </trkpt>
      <trkpt lat="59.239094" lon="18.119841">
        <ele>23</ele>
        <time>2019-11-16T09:00:14Z</time>
      </trkpt>
      <trkpt lat="59.239047" lon="18.119845">
        <ele>23</ele>
        <time>2019-11-16T09:00:16Z</time>
      </trkpt>
      <trkpt lat="59.238999" lon="18.119848">
        <ele>23</ele>
        <time>2019-11-16T09:00:17Z</time>
      </trkpt>
      <trkpt lat="59.238952" lon="18.11985">
        <ele>23</ele>
        <time>2019-11-16T09:00:18Z</time>
      </trkpt>
      <trkpt lat="59.238904" lon="18.119851">
        <ele>23</ele>
        <time>2019-11-16T09:00:19Z</time>
      </trkpt>
      <trkpt lat="59.238857" lon="18.119848">
        <ele>23</ele>
        <time>2019-11-16T09:00:20Z</time>
      </trkpt>
      <trkpt lat="59.23881" lon="18.119845">
        <ele>23</ele>
        <time>2019-11-16T09:00:21Z</time>
      </trkpt>
      <trkpt lat="59.238763" lon="18.11984">
        <ele>23</ele>
        <time>2019-11-16T09:00:22Z</time>
      </trkpt>
      <trkpt lat="59.238717" lon="18.119833">
        <ele>0</ele>
        <time>2019-11-16T09:00:22Z</time>
      </trkpt>
      <trkpt lat="59.23867" lon="18.119824">
        <ele>23</ele>
        <time>2019-11-16T09:00:23Z</time>
      </trkpt>
      <trkpt lat="59.238623" lon="18.119817">
        <ele>23</ele>
        <time>2019-11-16T09:00:24Z</time>
      </trkpt>
      <trkpt lat="59.238576" lon="18.11981">
        <ele>23</ele>
        <time>2019-11-16T09:00:26Z</time>
      </trkpt>
      <trkpt lat="59.23853" lon="18.119803">
        <ele>23</ele>
        <time>2019-11-16T09:00:27Z</time>
      </trkpt>
      <trkpt lat="59.238483" lon="18.119795">
        <ele>23</ele>
        <time>2019-11-16T09:00:28Z</time>
      </trkpt>
      <trkpt lat="59.238436" lon="18.119788">
        <ele>23</ele>
        <time>2019-11-16T09:00:29Z</time>
      </trkpt>
      <trkpt lat="59.238388" lon="18.11978">
        <ele>23</ele>
        <time>2019-11-16T09:00:30Z</time>
      </trkpt>
      <trkpt lat="59.238339" lon="18.119771">
        <ele>23</ele>
        <time>2019-11-16T09:00:31Z</time>
      </trkpt>
      <trkpt lat="59.238289" lon="18.119763">
        <ele>23</ele>
        <time>2019-11-16T09:00:32Z</time>
      </trkpt>
      <trkpt lat="59.238239" lon="18.119755">
        <ele>23</ele>
        <time>2019-11-16T09:00:33Z</time>
      </trkpt>
      <trkpt lat="59.238188" lon="18.119746">
        <ele>0</ele>
        <time>2019-11-16T09:00:33Z</time>
      </trkpt>
      <trkpt lat="59.238135" lon="18.119741">
        <ele>24</ele>
        <time>2019-11-16T09:00:34Z</time>
      </trkpt>
      <trkpt lat="59.238082" lon="18.119735">
        <ele>24</ele>
        <time>2019-11-16T09:00:36Z</time>
      </trkpt>
      <trkpt lat="59.238031" lon="18.119727">
        <ele>24</ele>
        <time>2019-11-16T09:00:37Z</time>
      </trkpt>
      <trkpt lat="59.237978" lon="18.119721">
        <ele>24</ele>
        <time>2019-11-16T09:00:38Z</time>
      </trkpt>
      <trkpt lat="59.237926" lon="18.119713">
        <ele>24</ele>
        <time>2019-11-16T09:00:39Z</time>
      </trkpt>
      <trkpt lat="59.237872" lon="18.119705">
        <ele>24</ele>
        <time>2019-11-16T09:00:40Z</time>
      </trkpt>
      <trkpt lat="59.237819" lon="18.119698">
        <ele>24</ele>
        <time>2019-11-16T09:00:41Z</time>
      </trkpt>
      <trkpt lat="59.237767" lon="18.119689">
        <ele>0</ele>
        <time>2019-11-16T09:00:41Z</time>
      </trkpt>
      <trkpt lat="59.237713" lon="18.119681">
        <ele>25</ele>
        <time>2019-11-16T09:00:42Z</time>
      </trkpt>
      <trkpt lat="59.237661" lon="18.119673">
        <ele>0</ele>
        <time>2019-11-16T09:00:43Z</time>
      </trkpt>
      <trkpt lat="59.237609" lon="18.119664">
        <ele>25</ele>
        <time>2019-11-16T09:00:44Z</time>
      </trkpt>
      <trkpt lat="59.237556" lon="18.119657">
        <ele>25</ele>
        <time>2019-11-16T09:00:46Z</time>
      </trkpt>
      <trkpt lat="59.237503" lon="18.119651">
        <ele>25</ele>
        <time>2019-11-16T09:00:47Z</time>
      </trkpt>
      <trkpt lat="59.23745" lon="18.119648">
        <ele>25</ele>
        <time>2019-11-16T09:00:48Z</time>
      </trkpt>
      <trkpt lat="59.237397" lon="18.119644">
        <ele>25</ele>
        <time>2019-11-16T09:00:49Z</time>
      </trkpt>
      <trkpt lat="59.237343" lon="18.119636">
        <ele>24</ele>
        <time>2019-11-16T09:00:50Z</time>
      </trkpt>
      <trkpt lat="59.237289" lon="18.119627">
        <ele>24</ele>
        <time>2019-11-16T09:00:51Z</time>
      </trkpt>
      <trkpt lat="59.237235" lon="18.119618">
        <ele>24</ele>
        <time>2019-11-16T09:00:52Z</time>
      </trkpt>
      <trkpt lat="59.23718" lon="18.11961">
        <ele>0</ele>
        <time>2019-11-16T09:00:52Z</time>
      </trkpt>
      <trkpt lat="59.237126" lon="18.119602">
        <ele>24</ele>
        <time>2019-11-16T09:00:53Z</time>
      </trkpt>
      <trkpt lat="59.23707" lon="18.119595">
        <ele>25</ele>
        <time>2019-11-16T09:00:55Z</time>
      </trkpt>
      <trkpt lat="59.237015" lon="18.119586">
        <ele>25</ele>
        <time>2019-11-16T09:00:56Z</time>
      </trkpt>
      <trkpt lat="59.23696" lon="18.119577">
        <ele>25</ele>
        <time>2019-11-16T09:00:57Z</time>
      </trkpt>
      <trkpt lat="59.236905" lon="18.119573">
        <ele>25</ele>
        <time>2019-11-16T09:00:58Z</time>
      </trkpt>
      <trkpt lat="59.236849" lon="18.119569">
        <ele>25</ele>
        <time>2019-11-16T09:00:59Z</time>
      </trkpt>
      <trkpt lat="59.236794" lon="18.119565">
        <ele>25</ele>
        <time>2019-11-16T09:01:00Z</time>
      </trkpt>
      <trkpt lat="59.236739" lon="18.119561">
        <ele>25</ele>
        <time>2019-11-16T09:01:00Z</time>
      </trkpt>
      <trkpt lat="59.236683" lon="18.119559">
        <ele>25</ele>
        <time>2019-11-16T09:01:01Z</time>
      </trkpt>
      <trkpt lat="59.236627" lon="18.119559">
        <ele>26</ele>
        <time>2019-11-16T09:01:02Z</time>
      </trkpt>
      <trkpt lat="59.236571" lon="18.11956">
        <ele>26</ele>
        <time>2019-11-16T09:01:04Z</time>
      </trkpt>
      <trkpt lat="59.236515" lon="18.119563">
        <ele>26</ele>
        <time>2019-11-16T09:01:05Z</time>
      </trkpt>
      <trkpt lat="59.23646" lon="18.119567">
        <ele>26</ele>
        <time>2019-11-16T09:01:06Z</time>
      </trkpt>
      <trkpt lat="59.236404" lon="18.119572">
        <ele>26</ele>
        <time>2019-11-16T09:01:07Z</time>
      </trkpt>
      <trkpt lat="59.236349" lon="18.119581">
        <ele>26</ele>
        <time>2019-11-16T09:01:08Z</time>
      </trkpt>
      <trkpt lat="59.236292" lon="18.11959">
        <ele>26</ele>
        <time>2019-11-16T09:01:09Z</time>
      </trkpt>
      <trkpt lat="59.236236" lon="18.119601">
        <ele>26</ele>
        <time>2019-11-16T09:01:10Z</time>
      </trkpt>
      <trkpt lat="59.236181" lon="18.119613">
        <ele>0</ele>
        <time>2019-11-16T09:01:10Z</time>
      </trkpt>
      <trkpt lat="59.236125" lon="18.119627">
        <ele>26</ele>
        <time>2019-11-16T09:01:11Z</time>
      </trkpt>
      <trkpt lat="59.23607" lon="18.119641">
        <ele>26</ele>
        <time>2019-11-16T09:01:13Z</time>
      </trkpt>
      <trkpt lat="59.236016" lon="18.119656">
        <ele>26</ele>
        <time>2019-11-16T09:01:14Z</time>
      </trkpt>
      <trkpt lat="59.235961" lon="18.119671">
        <ele>26</ele>
        <time>2019-11-16T09:01:15Z</time>
      </trkpt>
      <trkpt lat="59.235907" lon="18.119683">
        <ele>26</ele>
        <time>2019-11-16T09:01:16Z</time>
      </trkpt>
      <trkpt lat="59.235852" lon="18.119699">
        <ele>26</ele>
        <time>2019-11-16T09:01:17Z</time>
      </trkpt>
      <trkpt lat="59.235798" lon="18.119722">
        <ele>26</ele>
        <time>2019-11-16T09:01:18Z</time>
      </trkpt>
      <trkpt lat="59.235745" lon="18.119751">
        <ele>26</ele>
        <time>2019-11-16T09:01:19Z</time>
      </trkpt>
      <trkpt lat="59.235693" lon="18.119783">
        <ele>0</ele>
        <time>2019-11-16T09:01:19Z</time>
      </trkpt>
      <trkpt lat="59.235642" lon="18.119819">
        <ele>26</ele>
        <time>2019-11-16T09:01:20Z</time>
      </trkpt>
      <trkpt lat="59.23559" lon="18.119854">
        <ele>26</ele>
        <time>2019-11-16T09:01:22Z</time>
      </trkpt>
      <trkpt lat="59.235538" lon="18.119889">
        <ele>26</ele>
        <time>2019-11-16T09:01:23Z</time>
      </trkpt>
      <trkpt lat="59.235486" lon="18.119921">
        <ele>26</ele>
        <time>2019-11-16T09:01:24Z</time>
      </trkpt>
      <trkpt lat="59.235433" lon="18.119952">
        <ele>26</ele>
        <time>2019-11-16T09:01:25Z</time>
      </trkpt>
      <trkpt lat="59.235379" lon="18.119983">
        <ele>26</ele>
        <time>2019-11-16T09:01:26Z</time>
      </trkpt>
      <trkpt lat="59.235324" lon="18.120011">
        <ele>26</ele>
        <time>2019-11-16T09:01:27Z</time>
      </trkpt>
      <trkpt lat="59.23527" lon="18.120037">
        <ele>26</ele>
        <time>2019-11-16T09:01:28Z</time>
      </trkpt>
      <trkpt lat="59.235216" lon="18.120059">
        <ele>0</ele>
        <time>2019-11-16T09:01:28Z</time>
      </trkpt>
      <trkpt lat="59.235162" lon="18.120074">
        <ele>26</ele>
        <time>2019-11-16T09:01:29Z</time>
      </trkpt>
      <trkpt lat="59.235108" lon="18.120085">
        <ele>26</ele>
        <time>2019-11-16T09:01:31Z</time>
      </trkpt>
      <trkpt lat="59.235055" lon="18.120094">
        <ele>26</ele>
        <time>2019-11-16T09:01:32Z</time>
      </trkpt>
      <trkpt lat="59.235004" lon="18.120109">
        <ele>26</ele>
        <time>2019-11-16T09:01:33Z</time>
      </trkpt>
      <trkpt lat="59.234955" lon="18.120129">
        <ele>26</ele>
        <time>2019-11-16T09:01:34Z</time>
      </trkpt>
      <trkpt lat="59.234908" lon="18.120152">
        <ele>27</ele>
        <time>2019-11-16T09:01:35Z</time>
      </trkpt>
      <trkpt lat="59.234863" lon="18.120177">
        <ele>27</ele>
        <time>2019-11-16T09:01:36Z</time>
      </trkpt>
      <trkpt lat="59.234819" lon="18.120206">
        <ele>27</ele>
        <time>2019-11-16T09:01:37Z</time>
      </trkpt>
      <trkpt lat="59.234776" lon="18.120236">
        <ele>27</ele>
        <time>2019-11-16T09:01:38Z</time>
      </trkpt>
      <trkpt lat="59.234734" lon="18.120266">
        <ele>0</ele>
        <time>2019-11-16T09:01:38Z</time>
      </trkpt>
      <trkpt lat="59.234692" lon="18.120295">
        <ele>27</ele>
        <time>2019-11-16T09:01:39Z</time>
      </trkpt>
      <trkpt lat="59.234652" lon="18.120322">
        <ele>27</ele>
        <time>2019-11-16T09:01:41Z</time>
      </trkpt>
      <trkpt lat="59.234612" lon="18.12035">
        <ele>27</ele>
        <time>2019-11-16T09:01:42Z</time>
      </trkpt>
      <trkpt lat="59.234576" lon="18.120376">
        <ele>27</ele>
        <time>2019-11-16T09:01:43Z</time>
      </trkpt>
      <trkpt lat="59.234541" lon="18.120401">
        <ele>27</ele>
        <time>2019-11-16T09:01:44Z</time>
      </trkpt>
      <trkpt lat="59.234509" lon="18.120424">
        <ele>27</ele>
        <time>2019-11-16T09:01:45Z</time>
      </trkpt>
      <trkpt lat="59.234478" lon="18.120445">
        <ele>28</ele>
        <time>2019-11-16T09:01:46Z</time>
      </trkpt>
      <trkpt lat="59.234446" lon="18.120467">
        <ele>28</ele>
        <time>2019-11-16T09:01:47Z</time>
      </trkpt>
      <trkpt lat="59.234412" lon="18.12049">
        <ele>28</ele>
        <time>2019-11-16T09:01:48Z</time>
      </trkpt>
      <trkpt lat="59.234379" lon="18.120512">
        <ele>28</ele>
        <time>2019-11-16T09:01:49Z</time>
      </trkpt>
      <trkpt lat="59.234345" lon="18.120535">
        <ele>28</ele>
        <time>2019-11-16T09:01:50Z</time>
      </trkpt>
      <trkpt lat="59.234312" lon="18.120556">
        <ele>28</ele>
        <time>2019-11-16T09:01:51Z</time>
      </trkpt>
      <trkpt lat="59.23428" lon="18.120579">
        <ele>28</ele>
        <time>2019-11-16T09:01:52Z</time>
      </trkpt>
      <trkpt lat="59.234248" lon="18.120603">
        <ele>0</ele>
        <time>2019-11-16T09:01:52Z</time>
      </trkpt>
      <trkpt lat="59.234215" lon="18.120627">
        <ele>28</ele>
        <time>2019-11-16T09:01:53Z</time>
      </trkpt>
      <trkpt lat="59.234182" lon="18.12065">
        <ele>29</ele>
        <time>2019-11-16T09:01:55Z</time>
      </trkpt>
      <trkpt lat="59.23415" lon="18.120673">
        <ele>29</ele>
        <time>2019-11-16T09:01:56Z</time>
      </trkpt>
      <trkpt lat="59.23412" lon="18.120693">
        <ele>29</ele>
        <time>2019-11-16T09:01:57Z</time>
      </trkpt>
      <trkpt lat="59.23409" lon="18.120712">
        <ele>0</ele>
        <time>2019-11-16T09:01:57Z</time>
      </trkpt>
      <trkpt lat="59.234063" lon="18.120728">
        <ele>29</ele>
        <time>2019-11-16T09:01:58Z</time>
      </trkpt>
      <trkpt lat="59.234035" lon="18.120744">
        <ele>29</ele>
        <time>2019-11-16T09:02:00Z</time>
      </trkpt>
      <trkpt lat="59.234007" lon="18.120763">
        <ele>29</ele>
        <time>2019-11-16T09:02:01Z</time>
      </trkpt>
      <trkpt lat="59.23398" lon="18.120783">
        <ele>30</ele>
        <time>2019-11-16T09:02:02Z</time>
      </trkpt>
      <trkpt lat="59.23395" lon="18.120805">
        <ele>30</ele>
        <time>2019-11-16T09:02:03Z</time>
      </trkpt>
      <trkpt lat="59.233921" lon="18.120824">
        <ele>30</ele>
        <time>2019-11-16T09:02:04Z</time>
      </trkpt>
      <trkpt lat="59.233892" lon="18.120842">
        <ele>30</ele>
        <time>2019-11-16T09:02:05Z</time>
      </trkpt>
      <trkpt lat="59.233866" lon="18.120859">
        <ele>30</ele>
        <time>2019-11-16T09:02:06Z</time>
      </trkpt>
      <trkpt lat="59.233838" lon="18.120878">
        <ele>30</ele>
        <time>2019-11-16T09:02:07Z</time>
      </trkpt>
      <trkpt lat="59.233806" lon="18.120902">
        <ele>31</ele>
        <time>2019-11-16T09:02:08Z</time>
      </trkpt>
      <trkpt lat="59.233778" lon="18.12092">
        <ele>0</ele>
        <time>2019-11-16T09:02:08Z</time>
      </trkpt>
      <trkpt lat="59.23375" lon="18.120937">
        <ele>31</ele>
        <time>2019-11-16T09:02:09Z</time>
      </trkpt>
      <trkpt lat="59.233721" lon="18.120955">
        <ele>31</ele>
        <time>2019-11-16T09:02:11Z</time>
      </trkpt>
      <trkpt lat="59.233694" lon="18.120974">
        <ele>31</ele>
        <time>2019-11-16T09:02:12Z</time>
      </trkpt>
      <trkpt lat="59.233667" lon="18.120995">
        <ele>32</ele>
        <time>2019-11-16T09:02:13Z</time>
      </trkpt>
      <trkpt lat="59.233636" lon="18.121017">
        <ele>32</ele>
        <time>2019-11-16T09:02:14Z</time>
      </trkpt>
      <trkpt lat="59.233606" lon="18.121038">
        <ele>32</ele>
        <time>2019-11-16T09:02:15Z</time>
      </trkpt>
      <trkpt lat="59.233578" lon="18.121057">
        <ele>32</ele>
        <time>2019-11-16T09:02:16Z</time>
      </trkpt>
      <trkpt lat="59.233548" lon="18.121078">
        <ele>0</ele>
        <time>2019-11-16T09:02:16Z</time>
      </trkpt>
      <trkpt lat="59.233521" lon="18.121099">
        <ele>32</ele>
        <time>2019-11-16T09:02:17Z</time>
      </trkpt>
      <trkpt lat="59.233494" lon="18.121119">
        <ele>33</ele>
        <time>2019-11-16T09:02:19Z</time>
      </trkpt>
      <trkpt lat="59.233466" lon="18.121137">
        <ele>33</ele>
        <time>2019-11-16T09:02:20Z</time>
      </trkpt>
      <trkpt lat="59.233438" lon="18.121155">
        <ele>33</ele>
        <time>2019-11-16T09:02:21Z</time>
      </trkpt>
      <trkpt lat="59.233411" lon="18.121173">
        <ele>33</ele>
        <time>2019-11-16T09:02:22Z</time>
      </trkpt>
      <trkpt lat="59.233382" lon="18.121192">
        <ele>34</ele>
        <time>2019-11-16T09:02:23Z</time>
      </trkpt>
      <trkpt lat="59.233355" lon="18.121211">
        <ele>34</ele>
        <time>2019-11-16T09:02:24Z</time>
      </trkpt>
      <trkpt lat="59.23333" lon="18.121232">
        <ele>0</ele>
        <time>2019-11-16T09:02:24Z</time>
      </trkpt>
      <trkpt lat="59.233305" lon="18.121254">
        <ele>34</ele>
        <time>2019-11-16T09:02:25Z</time>
      </trkpt>
      <trkpt lat="59.233279" lon="18.121269">
        <ele>34</ele>
        <time>2019-11-16T09:02:27Z</time>
      </trkpt>
      <trkpt lat="59.23325" lon="18.121289">
        <ele>34</ele>
        <time>2019-11-16T09:02:28Z</time>
      </trkpt>
      <trkpt lat="59.233226" lon="18.121309">
        <ele>35</ele>
        <time>2019-11-16T09:02:29Z</time>
      </trkpt>
      <trkpt lat="59.233197" lon="18.12133">
        <ele>35</ele>
        <time>2019-11-16T09:02:30Z</time>
      </trkpt>
      <trkpt lat="59.23317" lon="18.121348">
        <ele>35</ele>
        <time>2019-11-16T09:02:31Z</time>
      </trkpt>
      <trkpt lat="59.233142" lon="18.121369">
        <ele>35</ele>
        <time>2019-11-16T09:02:32Z</time>
      </trkpt>
      <trkpt lat="59.233115" lon="18.121386">
        <ele>35</ele>
        <time>2019-11-16T09:02:33Z</time>
      </trkpt>
      <trkpt lat="59.23309" lon="18.121401">
        <ele>35</ele>
        <time>2019-11-16T09:02:34Z</time>
      </trkpt>
      <trkpt lat="59.233063" lon="18.12141">
        <ele>35</ele>
        <time>2019-11-16T09:02:35Z</time>
      </trkpt>
      <trkpt lat="59.233037" lon="18.121415">
        <ele>0</ele>
        <time>2019-11-16T09:02:35Z</time>
      </trkpt>
      <trkpt lat="59.233012" lon="18.121413">
        <ele>35</ele>
        <time>2019-11-16T09:02:36Z</time>
      </trkpt>
      <trkpt lat="59.232985" lon="18.12141">
        <ele>36</ele>
        <time>2019-11-16T09:02:38Z</time>
      </trkpt>
      <trkpt lat="59.23296" lon="18.121402">
        <ele>36</ele>
        <time>2019-11-16T09:02:39Z</time>
      </trkpt>
      <trkpt lat="59.232931" lon="18.121391">
        <ele>36</ele>
        <time>2019-11-16T09:02:40Z</time>
      </trkpt>
      <trkpt lat="59.232902" lon="18.121374">
        <ele>36</ele>
        <time>2019-11-16T09:02:41Z</time>
      </trkpt>
      <trkpt lat="59.232874" lon="18.121353">
        <ele>36</ele>
        <time>2019-11-16T09:02:42Z</time>
      </trkpt>
      <trkpt lat="59.232848" lon="18.121326">
        <ele>0</ele>
        <time>2019-11-16T09:02:42Z</time>
      </trkpt>
      <trkpt lat="59.23282" lon="18.121294">
        <ele>36</ele>
        <time>2019-11-16T09:02:43Z</time>
      </trkpt>
      <trkpt lat="59.232794" lon="18.121262">
        <ele>37</ele>
        <time>2019-11-16T09:02:45Z</time>
      </trkpt>
      <trkpt lat="59.232766" lon="18.121226">
        <ele>37</ele>
        <time>2019-11-16T09:02:46Z</time>
      </trkpt>
      <trkpt lat="59.232738" lon="18.121184">
        <ele>37</ele>
        <time>2019-11-16T09:02:47Z</time>
      </trkpt>
      <trkpt lat="59.23271" lon="18.121141">
        <ele>37</ele>
        <time>2019-11-16T09:02:48Z</time>
      </trkpt>
      <trkpt lat="59.232678" lon="18.121101">
        <ele>37</ele>
        <time>2019-11-16T09:02:49Z</time>
      </trkpt>
      <trkpt lat="59.232643" lon="18.121072">
        <ele>37</ele>
        <time>2019-11-16T09:02:50Z</time>
      </trkpt>
      <trkpt lat="59.232607" lon="18.12105">
        <ele>37</ele>
        <time>2019-11-16T09:02:51Z</time>
      </trkpt>
      <trkpt lat="59.232578" lon="18.12102">
        <ele>38</ele>
        <time>2019-11-16T09:02:52Z</time>
      </trkpt>
      <trkpt lat="59.232558" lon="18.120975">
        <ele>38</ele>
        <time>2019-11-16T09:02:53Z</time>
      </trkpt>
      <trkpt lat="59.232546" lon="18.12093">
        <ele>38</ele>
        <time>2019-11-16T09:02:54Z</time>
      </trkpt>
      <trkpt lat="59.232538" lon="18.120895">
        <ele>0</ele>
        <time>2019-11-16T09:02:54Z</time>
      </trkpt>
      <trkpt lat="59.232533" lon="18.120855">
        <ele>39</ele>
        <time>2019-11-16T09:02:57Z</time>
      </trkpt>
      <trkpt lat="59.232524" lon="18.1208">
        <ele>39</ele>
        <time>2019-11-16T09:02:59Z</time>
      </trkpt>
      <trkpt lat="59.232511" lon="18.120757">
        <ele>40</ele>
        <time>2019-11-16T09:03:00Z</time>
      </trkpt>
      <trkpt lat="59.232495" lon="18.120702">
        <ele>39</ele>
        <time>2019-11-16T09:03:00Z</time>
      </trkpt>
      <trkpt lat="59.232477" lon="18.120635">
        <ele>40</ele>
        <time>2019-11-16T09:03:01Z</time>
      </trkpt>
      <trkpt lat="59.232459" lon="18.12056">
        <ele>40</ele>
        <time>2019-11-16T09:03:03Z</time>
      </trkpt>
      <trkpt lat="59.232437" lon="18.120486">
        <ele>40</ele>
        <time>2019-11-16T09:03:04Z</time>
      </trkpt>
      <trkpt lat="59.232409" lon="18.120418">
        <ele>41</ele>
        <time>2019-11-16T09:03:05Z</time>
      </trkpt>
      <trkpt lat="59.232371" lon="18.120365">
        <ele>41</ele>
        <time>2019-11-16T09:03:06Z</time>
      </trkpt>
      <trkpt lat="59.232325" lon="18.120328">
        <ele>41</ele>
        <time>2019-11-16T09:03:07Z</time>
      </trkpt>
      <trkpt lat="59.232275" lon="18.120305">
        <ele>41</ele>
        <time>2019-11-16T09:03:08Z</time>
      </trkpt>
      <trkpt lat="59.232223" lon="18.12029">
        <ele>41</ele>
        <time>2019-11-16T09:03:09Z</time>
      </trkpt>
      <trkpt lat="59.232172" lon="18.120284">
        <ele>41</ele>
        <time>2019-11-16T09:03:10Z</time>
      </trkpt>
      <trkpt lat="59.232123" lon="18.120285">
        <ele>42</ele>
        <time>2019-11-16T09:03:11Z</time>
      </trkpt>
      <trkpt lat="59.232075" lon="18.120288">
        <ele>0</ele>
        <time>2019-11-16T09:03:11Z</time>
      </trkpt>
      <trkpt lat="59.232028" lon="18.120292">
        <ele>42</ele>
        <time>2019-11-16T09:03:12Z</time>
      </trkpt>
      <trkpt lat="59.231982" lon="18.120299">
        <ele>0</ele>
        <time>2019-11-16T09:03:13Z</time>
      </trkpt>
      <trkpt lat="59.231937" lon="18.12031">
        <ele>42</ele>
        <time>2019-11-16T09:03:14Z</time>
      </trkpt>
      <trkpt lat="59.231894" lon="18.120325">
        <ele>42</ele>
        <time>2019-11-16T09:03:16Z</time>
      </trkpt>
      <trkpt lat="59.231854" lon="18.120342">
        <ele>43</ele>
        <time>2019-11-16T09:03:17Z</time>
      </trkpt>
      <trkpt lat="59.231814" lon="18.120363">
        <ele>43</ele>
        <time>2019-11-16T09:03:18Z</time>
      </trkpt>
      <trkpt lat="59.231777" lon="18.120381">
        <ele>43</ele>
        <time>2019-11-16T09:03:19Z</time>
      </trkpt>
      <trkpt lat="59.231739" lon="18.120394">
        <ele>43</ele>
        <time>2019-11-16T09:03:20Z</time>
      </trkpt>
      <trkpt lat="59.231702" lon="18.120411">
        <ele>43</ele>
        <time>2019-11-16T09:03:21Z</time>
      </trkpt>
      <trkpt lat="59.231662" lon="18.120434">
        <ele>43</ele>
        <time>2019-11-16T09:03:22Z</time>
      </trkpt>
      <trkpt lat="59.231619" lon="18.120457">
        <ele>43</ele>
        <time>2019-11-16T09:03:23Z</time>
      </trkpt>
      <trkpt lat="59.231577" lon="18.120481">
        <ele>0</ele>
        <time>2019-11-16T09:03:23Z</time>
      </trkpt>
      <trkpt lat="59.231533" lon="18.120507">
        <ele>44</ele>
        <time>2019-11-16T09:03:24Z</time>
      </trkpt>
      <trkpt lat="59.231491" lon="18.120535">
        <ele>44</ele>
        <time>2019-11-16T09:03:26Z</time>
      </trkpt>
      <trkpt lat="59.231447" lon="18.120557">
        <ele>44</ele>
        <time>2019-11-16T09:03:27Z</time>
      </trkpt>
      <trkpt lat="59.231401" lon="18.120574">
        <ele>44</ele>
        <time>2019-11-16T09:03:28Z</time>
      </trkpt>
      <trkpt lat="59.231355" lon="18.120602">
        <ele>44</ele>
        <time>2019-11-16T09:03:29Z</time>
      </trkpt>
      <trkpt lat="59.231306" lon="18.120636">
        <ele>45</ele>
        <time>2019-11-16T09:03:30Z</time>
      </trkpt>
      <trkpt lat="59.231256" lon="18.120675">
        <ele>45</ele>
        <time>2019-11-16T09:03:31Z</time>
      </trkpt>
      <trkpt lat="59.231205" lon="18.120711">
        <ele>45</ele>
        <time>2019-11-16T09:03:32Z</time>
      </trkpt>
      <trkpt lat="59.231153" lon="18.120748">
        <ele>0</ele>
        <time>2019-11-16T09:03:32Z</time>
      </trkpt>
      <trkpt lat="59.231099" lon="18.120787">
        <ele>45</ele>
        <time>2019-11-16T09:03:33Z</time>
      </trkpt>
      <trkpt lat="59.231045" lon="18.12083">
        <ele>46</ele>
        <time>2019-11-16T09:03:34Z</time>
      </trkpt>
      <trkpt lat="59.230988" lon="18.120877">
        <ele>46</ele>
        <time>2019-11-16T09:03:36Z</time>
      </trkpt>
      <trkpt lat="59.230928" lon="18.120917">
        <ele>46</ele>
        <time>2019-11-16T09:03:37Z</time>
      </trkpt>
      <trkpt lat="59.230866" lon="18.120961">
        <ele>46</ele>
        <time>2019-11-16T09:03:38Z</time>
      </trkpt>
      <trkpt lat="59.230805" lon="18.121004">
        <ele>46</ele>
        <time>2019-11-16T09:03:39Z</time>
      </trkpt>
      <trkpt lat="59.230738" lon="18.121042">
        <ele>46</ele>
        <time>2019-11-16T09:03:40Z</time>
      </trkpt>
      <trkpt lat="59.230669" lon="18.121067">
        <ele>46</ele>
        <time>2019-11-16T09:03:41Z</time>
      </trkpt>
      <trkpt lat="59.230599" lon="18.121079">
        <ele>0</ele>
        <time>2019-11-16T09:03:41Z</time>
      </trkpt>
      <trkpt lat="59.230526" lon="18.121087">
        <ele>46</ele>
        <time>2019-11-16T09:03:42Z</time>
      </trkpt>
      <trkpt lat="59.230452" lon="18.121092">
        <ele>45</ele>
        <time>2019-11-16T09:03:44Z</time>
      </trkpt>
      <trkpt lat="59.23038" lon="18.121107">
        <ele>45</ele>
        <time>2019-11-16T09:03:45Z</time>
      </trkpt>
      <trkpt lat="59.230308" lon="18.121134">
        <ele>45</ele>
        <time>2019-11-16T09:03:46Z</time>
      </trkpt>
      <trkpt lat="59.230238" lon="18.121173">
        <ele>45</ele>
        <time>2019-11-16T09:03:47Z</time>
      </trkpt>
      <trkpt lat="59.23017" lon="18.121227">
        <ele>0</ele>
        <time>2019-11-16T09:03:47Z</time>
      </trkpt>
      <trkpt lat="59.230104" lon="18.121288">
        <ele>44</ele>
        <time>2019-11-16T09:03:48Z</time>
      </trkpt>
      <trkpt lat="59.230046" lon="18.121347">
        <ele>44</ele>
        <time>2019-11-16T09:03:50Z</time>
      </trkpt>
      <trkpt lat="59.229982" lon="18.121409">
        <ele>44</ele>
        <time>2019-11-16T09:03:51Z</time>
      </trkpt>
      <trkpt lat="59.229916" lon="18.121477">
        <ele>0</ele>
        <time>2019-11-16T09:03:51Z</time>
      </trkpt>
      <trkpt lat="59.229859" lon="18.121556">
        <ele>43</ele>
        <time>2019-11-16T09:03:52Z</time>
      </trkpt>
      <trkpt lat="59.229814" lon="18.121658">
        <ele>43</ele>
        <time>2019-11-16T09:03:54Z</time>
      </trkpt>
      <trkpt lat="59.229795" lon="18.12178">
        <ele>43</ele>
        <time>2019-11-16T09:03:55Z</time>
      </trkpt>
      <trkpt lat="59.229798" lon="18.121909">
        <ele>0</ele>
        <time>2019-11-16T09:03:55Z</time>
      </trkpt>
      <trkpt lat="59.229817" lon="18.12203">
        <ele>42</ele>
        <time>2019-11-16T09:03:56Z</time>
      </trkpt>
      <trkpt lat="59.229843" lon="18.122142">
        <ele>42</ele>
        <time>2019-11-16T09:03:58Z</time>
      </trkpt>
      <trkpt lat="59.229869" lon="18.122246">
        <ele>42</ele>
        <time>2019-11-16T09:03:59Z</time>
      </trkpt>
      <trkpt lat="59.229895" lon="18.122347">
        <ele>42</ele>
        <time>2019-11-16T09:04:00Z</time>
      </trkpt>
      <trkpt lat="59.229919" lon="18.122447">
        <ele>41</ele>
        <time>2019-11-16T09:04:01Z</time>
      </trkpt>
      <trkpt lat="59.229946" lon="18.122545">
        <ele>41</ele>
        <time>2019-11-16T09:04:02Z</time>
      </trkpt>
      <trkpt lat="59.229971" lon="18.122643">
        <ele>41</ele>
        <time>2019-11-16T09:04:03Z</time>
      </trkpt>
      <trkpt lat="59.229993" lon="18.12274">
        <ele>0</ele>
        <time>2019-11-16T09:04:03Z</time>
      </trkpt>
      <trkpt lat="59.230013" lon="18.122837">
        <ele>41</ele>
        <time>2019-11-16T09:04:04Z</time>
      </trkpt>
      <trkpt lat="59.230029" lon="18.122934">
        <ele>41</ele>
        <time>2019-11-16T09:04:06Z</time>
      </trkpt>
      <trkpt lat="59.230038" lon="18.12303">
        <ele>41</ele>
        <time>2019-11-16T09:04:07Z</time>
      </trkpt>
      <trkpt lat="59.230041" lon="18.123124">
        <ele>41</ele>
        <time>2019-11-16T09:04:08Z</time>
      </trkpt>
      <trkpt lat="59.230038" lon="18.123216">
        <ele>41</ele>
        <time>2019-11-16T09:04:09Z</time>
      </trkpt>
      <trkpt lat="59.230027" lon="18.123306">
        <ele>41</ele>
        <time>2019-11-16T09:04:10Z</time>
      </trkpt>
      <trkpt lat="59.230009" lon="18.123389">
        <ele>0</ele>
        <time>2019-11-16T09:04:10Z</time>
      </trkpt>
      <trkpt lat="59.229984" lon="18.123461">
        <ele>42</ele>
        <time>2019-11-16T09:04:11Z</time>
      </trkpt>
      <trkpt lat="59.229952" lon="18.12352">
        <ele>42</ele>
        <time>2019-11-16T09:04:13Z</time>
      </trkpt>
      <trkpt lat="59.229915" lon="18.123564">
        <ele>0</ele>
        <time>2019-11-16T09:04:13Z</time>
      </trkpt>
      <trkpt lat="59.229874" lon="18.123601">
        <ele>41</ele>
        <time>2019-11-16T09:04:14Z</time>
      </trkpt>
      <trkpt lat="59.229833" lon="18.123638">
        <ele>41</ele>
        <time>2019-11-16T09:04:16Z</time>
      </trkpt>
      <trkpt lat="59.229793" lon="18.123676">
        <ele>41</ele>
        <time>2019-11-16T09:04:17Z</time>
      </trkpt>
      <trkpt lat="59.229752" lon="18.123715">
        <ele>41</ele>
        <time>2019-11-16T09:04:18Z</time>
      </trkpt>
      <trkpt lat="59.229712" lon="18.123754">
        <ele>41</ele>
        <time>2019-11-16T09:04:19Z</time>
      </trkpt>
      <trkpt lat="59.22967" lon="18.123795">
        <ele>41</ele>
        <time>2019-11-16T09:04:20Z</time>
      </trkpt>
      <trkpt lat="59.229629" lon="18.123835">
        <ele>41</ele>
        <time>2019-11-16T09:04:21Z</time>
      </trkpt>
      <trkpt lat="59.229587" lon="18.123875">
        <ele>41</ele>
        <time>2019-11-16T09:04:22Z</time>
      </trkpt>
      <trkpt lat="59.229542" lon="18.123916">
        <ele>41</ele>
        <time>2019-11-16T09:04:23Z</time>
      </trkpt>
      <trkpt lat="59.229497" lon="18.123961">
        <ele>41</ele>
        <time>2019-11-16T09:04:24Z</time>
      </trkpt>
      <trkpt lat="59.229451" lon="18.124007">
        <ele>0</ele>
        <time>2019-11-16T09:04:24Z</time>
      </trkpt>
      <trkpt lat="59.229404" lon="18.124055">
        <ele>41</ele>
        <time>2019-11-16T09:04:25Z</time>
      </trkpt>
      <trkpt lat="59.22936" lon="18.124115">
        <ele>41</ele>
        <time>2019-11-16T09:04:27Z</time>
      </trkpt>
      <trkpt lat="59.229323" lon="18.124196">
        <ele>41</ele>
        <time>2019-11-16T09:04:28Z</time>
      </trkpt>
      <trkpt lat="59.229295" lon="18.124295">
        <ele>41</ele>
        <time>2019-11-16T09:04:29Z</time>
      </trkpt>
      <trkpt lat="59.229279" lon="18.124405">
        <ele>0</ele>
        <time>2019-11-16T09:04:29Z</time>
      </trkpt>
      <trkpt lat="59.229273" lon="18.124519">
        <ele>41</ele>
        <time>2019-11-16T09:04:30Z</time>
      </trkpt>
      <trkpt lat="59.229271" lon="18.124635">
        <ele>41</ele>
        <time>2019-11-16T09:04:32Z</time>
      </trkpt>
      <trkpt lat="59.229268" lon="18.124744">
        <ele>41</ele>
        <time>2019-11-16T09:04:33Z</time>
      </trkpt>
      <trkpt lat="59.22925" lon="18.124836">
        <ele>0</ele>
        <time>2019-11-16T09:04:33Z</time>
      </trkpt>
      <trkpt lat="59.229216" lon="18.124927">
        <ele>41</ele>
        <time>2019-11-16T09:04:34Z</time>
      </trkpt>
      <trkpt lat="59.229179" lon="18.125026">
        <ele>40</ele>
        <time>2019-11-16T09:04:36Z</time>
      </trkpt>
      <trkpt lat="59.229145" lon="18.125128">
        <ele>40</ele>
        <time>2019-11-16T09:04:37Z</time>
      </trkpt>
      <trkpt lat="59.229108" lon="18.125235">
        <ele>40</ele>
        <time>2019-11-16T09:04:38Z</time>
      </trkpt>
      <trkpt lat="59.229076" lon="18.125343">
        <ele>0</ele>
        <time>2019-11-16T09:04:38Z</time>
      </trkpt>
      <trkpt lat="59.229043" lon="18.125449">
        <ele>40</ele>
        <time>2019-11-16T09:04:39Z</time>
      </trkpt>
      <trkpt lat="59.229008" lon="18.125549">
        <ele>40</ele>
        <time>2019-11-16T09:04:41Z</time>
      </trkpt>
      <trkpt lat="59.22897" lon="18.125633">
        <ele>0</ele>
        <time>2019-11-16T09:04:41Z</time>
      </trkpt>
      <trkpt lat="59.228933" lon="18.125712">
        <ele>40</ele>
        <time>2019-11-16T09:04:42Z</time>
      </trkpt>
      <trkpt lat="59.228894" lon="18.125795">
        <ele>40</ele>
        <time>2019-11-16T09:04:44Z</time>
      </trkpt>
      <trkpt lat="59.228855" lon="18.125875">
        <ele>40</ele>
        <time>2019-11-16T09:04:45Z</time>
      </trkpt>
      <trkpt lat="59.228816" lon="18.125945">
        <ele>40</ele>
        <time>2019-11-16T09:04:46Z</time>
      </trkpt>
      <trkpt lat="59.228778" lon="18.126011">
        <ele>40</ele>
        <time>2019-11-16T09:04:47Z</time>
      </trkpt>
      <trkpt lat="59.228751" lon="18.126083">
        <ele>40</ele>
        <time>2019-11-16T09:04:48Z</time>
      </trkpt>
      <trkpt lat="59.22873" lon="18.126159">
        <ele>0</ele>
        <time>2019-11-16T09:04:48Z</time>
      </trkpt>
      <trkpt lat="59.228709" lon="18.126224">
        <ele>40</ele>
        <time>2019-11-16T09:04:49Z</time>
      </trkpt>
      <trkpt lat="59.228685" lon="18.126276">
        <ele>40</ele>
        <time>2019-11-16T09:04:51Z</time>
      </trkpt>
      <trkpt lat="59.228658" lon="18.126322">
        <ele>40</ele>
        <time>2019-11-16T09:04:52Z</time>
      </trkpt>
      <trkpt lat="59.228627" lon="18.126361">
        <ele>0</ele>
        <time>2019-11-16T09:04:52Z</time>
      </trkpt>
      <trkpt lat="59.228589" lon="18.126393">
        <ele>40</ele>
        <time>2019-11-16T09:04:53Z</time>
      </trkpt>
      <trkpt lat="59.228547" lon="18.126408">
        <ele>40</ele>
        <time>2019-11-16T09:04:55Z</time>
      </trkpt>
      <trkpt lat="59.228506" lon="18.126411">
        <ele>41</ele>
        <time>2019-11-16T09:04:56Z</time>
      </trkpt>
      <trkpt lat="59.228465" lon="18.126407">
        <ele>41</ele>
        <time>2019-11-16T09:04:57Z</time>
      </trkpt>
      <trkpt lat="59.228425" lon="18.126402">
        <ele>41</ele>
        <time>2019-11-16T09:04:58Z</time>
      </trkpt>
      <trkpt lat="59.228386" lon="18.126399">
        <ele>41</ele>
        <time>2019-11-16T09:04:59Z</time>
      </trkpt>
      <trkpt lat="59.228346" lon="18.126401">
        <ele>41</ele>
        <time>2019-11-16T09:05:00Z</time>
      </trkpt>
      <trkpt lat="59.228308" lon="18.126406">
        <ele>41</ele>
        <time>2019-11-16T09:05:01Z</time>
      </trkpt>
      <trkpt lat="59.228271" lon="18.126413">
        <ele>41</ele>
        <time>2019-11-16T09:05:02Z</time>
      </trkpt>
      <trkpt lat="59.228233" lon="18.12642">
        <ele>41</ele>
        <time>2019-11-16T09:05:03Z</time>
      </trkpt>
      <trkpt lat="59.228196" lon="18.126426">
        <ele>41</ele>
        <time>2019-11-16T09:05:04Z</time>
      </trkpt>
      <trkpt lat="59.228159" lon="18.126432">
        <ele>0</ele>
        <time>2019-11-16T09:05:04Z</time>
      </trkpt>
      <trkpt lat="59.228123" lon="18.126442">
        <ele>41</ele>
        <time>2019-11-16T09:05:05Z</time>
      </trkpt>
      <trkpt lat="59.228085" lon="18.12645">
        <ele>41</ele>
        <time>2019-11-16T09:05:07Z</time>
      </trkpt>
      <trkpt lat="59.228046" lon="18.12646">
        <ele>0</ele>
        <time>2019-11-16T09:05:07Z</time>
      </trkpt>
      <trkpt lat="59.228007" lon="18.126466">
        <ele>41</ele>
        <time>2019-11-16T09:05:08Z</time>
      </trkpt>
      <trkpt lat="59.227968" lon="18.12647">
        <ele>41</ele>
        <time>2019-11-16T09:05:10Z</time>
      </trkpt>
      <trkpt lat="59.22793" lon="18.126476">
        <ele>41</ele>
        <time>2019-11-16T09:05:11Z</time>
      </trkpt>
      <trkpt lat="59.227893" lon="18.126486">
        <ele>41</ele>
        <time>2019-11-16T09:05:12Z</time>
      </trkpt>
      <trkpt lat="59.227856" lon="18.126498">
        <ele>42</ele>
        <time>2019-11-16T09:05:13Z</time>
      </trkpt>
      <trkpt lat="59.227822" lon="18.126522">
        <ele>42</ele>
        <time>2019-11-16T09:05:14Z</time>
      </trkpt>
      <trkpt lat="59.227791" lon="18.126564">
        <ele>42</ele>
        <time>2019-11-16T09:05:15Z</time>
      </trkpt>
      <trkpt lat="59.227767" lon="18.126622">
        <ele>42</ele>
        <time>2019-11-16T09:05:16Z</time>
      </trkpt>
      <trkpt lat="59.22775" lon="18.126694">
        <ele>42</ele>
        <time>2019-11-16T09:05:17Z</time>
      </trkpt>
      <trkpt lat="59.227736" lon="18.126772">
        <ele>0</ele>
        <time>2019-11-16T09:05:17Z</time>
      </trkpt>
      <trkpt lat="59.227723" lon="18.126852">
        <ele>42</ele>
        <time>2019-11-16T09:05:18Z</time>
      </trkpt>
      <trkpt lat="59.227709" lon="18.12693">
        <ele>42</ele>
        <time>2019-11-16T09:05:20Z</time>
      </trkpt>
      <trkpt lat="59.227693" lon="18.127008">
        <ele>42</ele>
        <time>2019-11-16T09:05:21Z</time>
      </trkpt>
      <trkpt lat="59.227675" lon="18.127086">
        <ele>42</ele>
        <time>2019-11-16T09:05:22Z</time>
      </trkpt>
      <trkpt lat="59.227655" lon="18.127166">
        <ele>42</ele>
        <time>2019-11-16T09:05:23Z</time>
      </trkpt>
      <trkpt lat="59.227632" lon="18.127244">
        <ele>42</ele>
        <time>2019-11-16T09:05:24Z</time>
      </trkpt>
      <trkpt lat="59.227605" lon="18.127324">
        <ele>43</ele>
        <time>2019-11-16T09:05:25Z</time>
      </trkpt>
      <trkpt lat="59.227575" lon="18.127402">
        <ele>43</ele>
        <time>2019-11-16T09:05:26Z</time>
      </trkpt>
      <trkpt lat="59.227544" lon="18.127486">
        <ele>0</ele>
        <time>2019-11-16T09:05:26Z</time>
      </trkpt>
      <trkpt lat="59.227514" lon="18.127568">
        <ele>43</ele>
        <time>2019-11-16T09:05:27Z</time>
      </trkpt>
      <trkpt lat="59.227485" lon="18.127653">
        <ele>0</ele>
        <time>2019-11-16T09:05:28Z</time>
      </trkpt>
      <trkpt lat="59.227455" lon="18.12774">
        <ele>43</ele>
        <time>2019-11-16T09:05:29Z</time>
      </trkpt>
      <trkpt lat="59.227423" lon="18.12783">
        <ele>43</ele>
        <time>2019-11-16T09:05:31Z</time>
      </trkpt>
      <trkpt lat="59.227388" lon="18.127918">
        <ele>43</ele>
        <time>2019-11-16T09:05:32Z</time>
      </trkpt>
      <trkpt lat="59.227355" lon="18.128009">
        <ele>43</ele>
        <time>2019-11-16T09:05:33Z</time>
      </trkpt>
      <trkpt lat="59.227323" lon="18.1281">
        <ele>43</ele>
        <time>2019-11-16T09:05:34Z</time>
      </trkpt>
      <trkpt lat="59.227292" lon="18.128192">
        <ele>43</ele>
        <time>2019-11-16T09:05:35Z</time>
      </trkpt>
      <trkpt lat="59.227261" lon="18.128278">
        <ele>43</ele>
        <time>2019-11-16T09:05:36Z</time>
      </trkpt>
      <trkpt lat="59.227229" lon="18.128365">
        <ele>43</ele>
        <time>2019-11-16T09:05:37Z</time>
      </trkpt>
      <trkpt lat="59.227197" lon="18.128453">
        <ele>0</ele>
        <time>2019-11-16T09:05:37Z</time>
      </trkpt>
      <trkpt lat="59.227164" lon="18.128544">
        <ele>43</ele>
        <time>2019-11-16T09:05:38Z</time>
      </trkpt>
      <trkpt lat="59.227134" lon="18.12863">
        <ele>43</ele>
        <time>2019-11-16T09:05:40Z</time>
      </trkpt>
      <trkpt lat="59.227106" lon="18.128712">
        <ele>43</ele>
        <time>2019-11-16T09:05:41Z</time>
      </trkpt>
      <trkpt lat="59.227081" lon="18.128796">
        <ele>43</ele>
        <time>2019-11-16T09:05:42Z</time>
      </trkpt>
      <trkpt lat="59.227055" lon="18.12888">
        <ele>43</ele>
        <time>2019-11-16T09:05:43Z</time>
      </trkpt>
      <trkpt lat="59.227025" lon="18.128964">
        <ele>43</ele>
        <time>2019-11-16T09:05:44Z</time>
      </trkpt>
      <trkpt lat="59.226995" lon="18.129049">
        <ele>43</ele>
        <time>2019-11-16T09:05:45Z</time>
      </trkpt>
      <trkpt lat="59.226961" lon="18.129134">
        <ele>0</ele>
        <time>2019-11-16T09:05:45Z</time>
      </trkpt>
      <trkpt lat="59.226928" lon="18.129218">
        <ele>43</ele>
        <time>2019-11-16T09:05:46Z</time>
      </trkpt>
      <trkpt lat="59.226898" lon="18.1293">
        <ele>43</ele>
        <time>2019-11-16T09:05:47Z</time>
      </trkpt>
      <trkpt lat="59.226866" lon="18.129386">
        <ele>43</ele>
        <time>2019-11-16T09:05:49Z</time>
      </trkpt>
      <trkpt lat="59.226834" lon="18.129474">
        <ele>43</ele>
        <time>2019-11-16T09:05:50Z</time>
      </trkpt>
      <trkpt lat="59.226801" lon="18.12956">
        <ele>43</ele>
        <time>2019-11-16T09:05:51Z</time>
      </trkpt>
      <trkpt lat="59.226767" lon="18.129648">
        <ele>43</ele>
        <time>2019-11-16T09:05:52Z</time>
      </trkpt>
      <trkpt lat="59.226735" lon="18.129736">
        <ele>43</ele>
        <time>2019-11-16T09:05:53Z</time>
      </trkpt>
      <trkpt lat="59.226704" lon="18.129824">
        <ele>43</ele>
        <time>2019-11-16T09:05:54Z</time>
      </trkpt>
      <trkpt lat="59.226673" lon="18.129912">
        <ele>43</ele>
        <time>2019-11-16T09:05:55Z</time>
      </trkpt>
      <trkpt lat="59.226641" lon="18.130003">
        <ele>0</ele>
        <time>2019-11-16T09:05:55Z</time>
      </trkpt>
      <trkpt lat="59.226608" lon="18.13009">
        <ele>43</ele>
        <time>2019-11-16T09:05:56Z</time>
      </trkpt>
      <trkpt lat="59.226573" lon="18.130178">
        <ele>42</ele>
        <time>2019-11-16T09:05:58Z</time>
      </trkpt>
      <trkpt lat="59.226536" lon="18.130264">
        <ele>42</ele>
        <time>2019-11-16T09:05:59Z</time>
      </trkpt>
      <trkpt lat="59.2265" lon="18.130348">
        <ele>42</ele>
        <time>2019-11-16T09:06:00Z</time>
      </trkpt>
      <trkpt lat="59.22646" lon="18.130429">
        <ele>42</ele>
        <time>2019-11-16T09:06:01Z</time>
      </trkpt>
      <trkpt lat="59.226416" lon="18.130501">
        <ele>42</ele>
        <time>2019-11-16T09:06:02Z</time>
      </trkpt>
      <trkpt lat="59.22637" lon="18.13057">
        <ele>42</ele>
        <time>2019-11-16T09:06:03Z</time>
      </trkpt>
      <trkpt lat="59.226324" lon="18.130639">
        <ele>43</ele>
        <time>2019-11-16T09:06:04Z</time>
      </trkpt>
      <trkpt lat="59.226278" lon="18.130707">
        <ele>0</ele>
        <time>2019-11-16T09:06:04Z</time>
      </trkpt>
      <trkpt lat="59.226234" lon="18.130774">
        <ele>43</ele>
        <time>2019-11-16T09:06:05Z</time>
      </trkpt>
      <trkpt lat="59.226192" lon="18.130842">
        <ele>43</ele>
        <time>2019-11-16T09:06:07Z</time>
      </trkpt>
      <trkpt lat="59.226148" lon="18.130911">
        <ele>43</ele>
        <time>2019-11-16T09:06:08Z</time>
      </trkpt>
      <trkpt lat="59.226103" lon="18.13098">
        <ele>44</ele>
        <time>2019-11-16T09:06:09Z</time>
      </trkpt>
      <trkpt lat="59.226054" lon="18.131051">
        <ele>43</ele>
        <time>2019-11-16T09:06:10Z</time>
      </trkpt>
      <trkpt lat="59.226004" lon="18.131122">
        <ele>43</ele>
        <time>2019-11-16T09:06:11Z</time>
      </trkpt>
      <trkpt lat="59.225952" lon="18.131195">
        <ele>43</ele>
        <time>2019-11-16T09:06:12Z</time>
      </trkpt>
      <trkpt lat="59.225901" lon="18.131266">
        <ele>43</ele>
        <time>2019-11-16T09:06:13Z</time>
      </trkpt>
      <trkpt lat="59.225852" lon="18.131344">
        <ele>0</ele>
        <time>2019-11-16T09:06:13Z</time>
      </trkpt>
      <trkpt lat="59.225812" lon="18.131437">
        <ele>43</ele>
        <time>2019-11-16T09:06:14Z</time>
      </trkpt>
      <trkpt lat="59.225784" lon="18.13155">
        <ele>43</ele>
        <time>2019-11-16T09:06:16Z</time>
      </trkpt>
      <trkpt lat="59.225766" lon="18.13167">
        <ele>43</ele>
        <time>2019-11-16T09:06:17Z</time>
      </trkpt>
      <trkpt lat="59.225747" lon="18.131787">
        <ele>42</ele>
        <time>2019-11-16T09:06:18Z</time>
      </trkpt>
      <trkpt lat="59.225722" lon="18.131898">
        <ele>42</ele>
        <time>2019-11-16T09:06:19Z</time>
      </trkpt>
      <trkpt lat="59.225695" lon="18.131999">
        <ele>42</ele>
        <time>2019-11-16T09:06:20Z</time>
      </trkpt>
      <trkpt lat="59.22566" lon="18.132092">
        <ele>42</ele>
        <time>2019-11-16T09:06:21Z</time>
      </trkpt>
      <trkpt lat="59.225619" lon="18.132167">
        <ele>0</ele>
        <time>2019-11-16T09:06:21Z</time>
      </trkpt>
      <trkpt lat="59.225572" lon="18.132229">
        <ele>42</ele>
        <time>2019-11-16T09:06:22Z</time>
      </trkpt>
      <trkpt lat="59.225523" lon="18.132286">
        <ele>0</ele>
        <time>2019-11-16T09:06:23Z</time>
      </trkpt>
      <trkpt lat="59.225474" lon="18.132346">
        <ele>42</ele>
        <time>2019-11-16T09:06:24Z</time>
      </trkpt>
      <trkpt lat="59.225423" lon="18.132409">
        <ele>41</ele>
        <time>2019-11-16T09:06:26Z</time>
      </trkpt>
      <trkpt lat="59.225373" lon="18.132474">
        <ele>41</ele>
        <time>2019-11-16T09:06:27Z</time>
      </trkpt>
      <trkpt lat="59.225322" lon="18.132545">
        <ele>41</ele>
        <time>2019-11-16T09:06:28Z</time>
      </trkpt>
      <trkpt lat="59.22527" lon="18.132623">
        <ele>41</ele>
        <time>2019-11-16T09:06:29Z</time>
      </trkpt>
      <trkpt lat="59.225217" lon="18.132703">
        <ele>0</ele>
        <time>2019-11-16T09:06:29Z</time>
      </trkpt>
      <trkpt lat="59.225163" lon="18.132789">
        <ele>41</ele>
        <time>2019-11-16T09:06:30Z</time>
      </trkpt>
      <trkpt lat="59.225107" lon="18.132881">
        <ele>41</ele>
        <time>2019-11-16T09:06:32Z</time>
      </trkpt>
      <trkpt lat="59.22505" lon="18.132981">
        <ele>40</ele>
        <time>2019-11-16T09:06:33Z</time>
      </trkpt>
      <trkpt lat="59.224994" lon="18.133082">
        <ele>40</ele>
        <time>2019-11-16T09:06:34Z</time>
      </trkpt>
      <trkpt lat="59.224937" lon="18.133189">
        <ele>40</ele>
        <time>2019-11-16T09:06:35Z</time>
      </trkpt>
      <trkpt lat="59.22488" lon="18.133302">
        <ele>40</ele>
        <time>2019-11-16T09:06:36Z</time>
      </trkpt>
      <trkpt lat="59.224821" lon="18.13342">
        <ele>0</ele>
        <time>2019-11-16T09:06:36Z</time>
      </trkpt>
      <trkpt lat="59.224763" lon="18.133543">
        <ele>40</ele>
        <time>2019-11-16T09:06:37Z</time>
      </trkpt>
      <trkpt lat="59.224705" lon="18.133671">
        <ele>39</ele>
        <time>2019-11-16T09:06:39Z</time>
      </trkpt>
      <trkpt lat="59.224645" lon="18.133804">
        <ele>38</ele>
        <time>2019-11-16T09:06:40Z</time>
      </trkpt>
      <trkpt lat="59.224587" lon="18.133935">
        <ele>37</ele>
        <time>2019-11-16T09:06:41Z</time>
      </trkpt>
      <trkpt lat="59.224532" lon="18.134065">
        <ele>0</ele>
        <time>2019-11-16T09:06:41Z</time>
      </trkpt>
      <trkpt lat="59.22448" lon="18.134191">
        <ele>37</ele>
        <time>2019-11-16T09:06:42Z</time>
      </trkpt>
      <trkpt lat="59.22443" lon="18.134317">
        <ele>36</ele>
        <time>2019-11-16T09:06:43Z</time>
      </trkpt>
      <trkpt lat="59.224381" lon="18.134442">
        <ele>36</ele>
        <time>2019-11-16T09:06:45Z</time>
      </trkpt>
      <trkpt lat="59.224334" lon="18.134566">
        <ele>36</ele>
        <time>2019-11-16T09:06:46Z</time>
      </trkpt>
      <trkpt lat="59.224289" lon="18.134686">
        <ele>36</ele>
        <time>2019-11-16T09:06:47Z</time>
      </trkpt>
      <trkpt lat="59.224245" lon="18.134804">
        <ele>35</ele>
        <time>2019-11-16T09:06:48Z</time>
      </trkpt>
      <trkpt lat="59.224202" lon="18.134916">
        <ele>0</ele>
        <time>2019-11-16T09:06:48Z</time>
      </trkpt>
      <trkpt lat="59.22416" lon="18.135025">
        <ele>35</ele>
        <time>2019-11-16T09:06:49Z</time>
      </trkpt>
      <trkpt lat="59.224118" lon="18.13513">
        <ele>35</ele>
        <time>2019-11-16T09:06:51Z</time>
      </trkpt>
      <trkpt lat="59.224077" lon="18.135234">
        <ele>35</ele>
        <time>2019-11-16T09:06:52Z</time>
      </trkpt>
      <trkpt lat="59.224038" lon="18.135334">
        <ele>35</ele>
        <time>2019-11-16T09:06:53Z</time>
      </trkpt>
      <trkpt lat="59.224" lon="18.135433">
        <ele>35</ele>
        <time>2019-11-16T09:06:54Z</time>
      </trkpt>
      <trkpt lat="59.223962" lon="18.135526">
        <ele>35</ele>
        <time>2019-11-16T09:06:55Z</time>
      </trkpt>
      <trkpt lat="59.223925" lon="18.135617">
        <ele>0</ele>
        <time>2019-11-16T09:06:55Z</time>
      </trkpt>
      <trkpt lat="59.223889" lon="18.135707">
        <ele>36</ele>
        <time>2019-11-16T09:06:56Z</time>
      </trkpt>
      <trkpt lat="59.223854" lon="18.135795">
        <ele>36</ele>
        <time>2019-11-16T09:06:58Z</time>
      </trkpt>
      <trkpt lat="59.223818" lon="18.13588">
        <ele>36</ele>
        <time>2019-11-16T09:06:59Z</time>
      </trkpt>
      <trkpt lat="59.223783" lon="18.135967">
        <ele>36</ele>
        <time>2019-11-16T09:07:00Z</time>
      </trkpt>
      <trkpt lat="59.223749" lon="18.136051">
        <ele>36</ele>
        <time>2019-11-16T09:07:01Z</time>
      </trkpt>
      <trkpt lat="59.223713" lon="18.13613">
        <ele>0</ele>
        <time>2019-11-16T09:07:01Z</time>
      </trkpt>
      <trkpt lat="59.223678" lon="18.136209">
        <ele>36</ele>
        <time>2019-11-16T09:07:02Z</time>
      </trkpt>
      <trkpt lat="59.223643" lon="18.13629">
        <ele>36</ele>
        <time>2019-11-16T09:07:04Z</time>
      </trkpt>
      <trkpt lat="59.223609" lon="18.13637">
        <ele>0</ele>
        <time>2019-11-16T09:07:04Z</time>
      </trkpt>
      <trkpt lat="59.223574" lon="18.136448">
        <ele>36</ele>
        <time>2019-11-16T09:07:05Z</time>
      </trkpt>
      <trkpt lat="59.223536" lon="18.136525">
        <ele>36</ele>
        <time>2019-11-16T09:07:07Z</time>
      </trkpt>
      <trkpt lat="59.223497" lon="18.136601">
        <ele>36</ele>
        <time>2019-11-16T09:07:08Z</time>
      </trkpt>
      <trkpt lat="59.223457" lon="18.136676">
        <ele>36</ele>
        <time>2019-11-16T09:07:09Z</time>
      </trkpt>
      <trkpt lat="59.223416" lon="18.13675">
        <ele>36</ele>
        <time>2019-11-16T09:07:10Z</time>
      </trkpt>
      <trkpt lat="59.223373" lon="18.136823">
        <ele>36</ele>
        <time>2019-11-16T09:07:11Z</time>
      </trkpt>
      <trkpt lat="59.22333" lon="18.136895">
        <ele>36</ele>
        <time>2019-11-16T09:07:12Z</time>
      </trkpt>
      <trkpt lat="59.223287" lon="18.136963">
        <ele>36</ele>
        <time>2019-11-16T09:07:13Z</time>
      </trkpt>
      <trkpt lat="59.223242" lon="18.137028">
        <ele>0</ele>
        <time>2019-11-16T09:07:13Z</time>
      </trkpt>
      <trkpt lat="59.223198" lon="18.137088">
        <ele>36</ele>
        <time>2019-11-16T09:07:14Z</time>
      </trkpt>
      <trkpt lat="59.223152" lon="18.137149">
        <ele>36</ele>
        <time>2019-11-16T09:07:16Z</time>
      </trkpt>
      <trkpt lat="59.223107" lon="18.137206">
        <ele>36</ele>
        <time>2019-11-16T09:07:17Z</time>
      </trkpt>
      <trkpt lat="59.223062" lon="18.137263">
        <ele>36</ele>
        <time>2019-11-16T09:07:18Z</time>
      </trkpt>
      <trkpt lat="59.223015" lon="18.137318">
        <ele>36</ele>
        <time>2019-11-16T09:07:19Z</time>
      </trkpt>
      <trkpt lat="59.222968" lon="18.137373">
        <ele>36</ele>
        <time>2019-11-16T09:07:20Z</time>
      </trkpt>
      <trkpt lat="59.222919" lon="18.137425">
        <ele>0</ele>
        <time>2019-11-16T09:07:20Z</time>
      </trkpt>
      <trkpt lat="59.222869" lon="18.137474">
        <ele>36</ele>
        <time>2019-11-16T09:07:21Z</time>
      </trkpt>
      <trkpt lat="59.222821" lon="18.137519">
        <ele>0</ele>
        <time>2019-11-16T09:07:22Z</time>
      </trkpt>
      <trkpt lat="59.222772" lon="18.137563">
        <ele>36</ele>
        <time>2019-11-16T09:07:23Z</time>
      </trkpt>
      <trkpt lat="59.222724" lon="18.137602">
        <ele>36</ele>
        <time>2019-11-16T09:07:25Z</time>
      </trkpt>
      <trkpt lat="59.222674" lon="18.137642">
        <ele>36</ele>
        <time>2019-11-16T09:07:26Z</time>
      </trkpt>
      <trkpt lat="59.222622" lon="18.137681">
        <ele>36</ele>
        <time>2019-11-16T09:07:27Z</time>
      </trkpt>
      <trkpt lat="59.222571" lon="18.137716">
        <ele>36</ele>
        <time>2019-11-16T09:07:28Z</time>
      </trkpt>
      <trkpt lat="59.222519" lon="18.137751">
        <ele>36</ele>
        <time>2019-11-16T09:07:29Z</time>
      </trkpt>
      <trkpt lat="59.222469" lon="18.137787">
        <ele>36</ele>
        <time>2019-11-16T09:07:30Z</time>
      </trkpt>
      <trkpt lat="59.222417" lon="18.137822">
        <ele>36</ele>
        <time>2019-11-16T09:07:31Z</time>
      </trkpt>
      <trkpt lat="59.222366" lon="18.137853">
        <ele>36</ele>
        <time>2019-11-16T09:07:32Z</time>
      </trkpt>
      <trkpt lat="59.222313" lon="18.137883">
        <ele>0</ele>
        <time>2019-11-16T09:07:32Z</time>
      </trkpt>
      <trkpt lat="59.222261" lon="18.137912">
        <ele>37</ele>
        <time>2019-11-16T09:07:33Z</time>
      </trkpt>
      <trkpt lat="59.222209" lon="18.137938">
        <ele>37</ele>
        <time>2019-11-16T09:07:35Z</time>
      </trkpt>
      <trkpt lat="59.222155" lon="18.137966">
        <ele>37</ele>
        <time>2019-11-16T09:07:36Z</time>
      </trkpt>
      <trkpt lat="59.222103" lon="18.137994">
        <ele>37</ele>
        <time>2019-11-16T09:07:37Z</time>
      </trkpt>
      <trkpt lat="59.222052" lon="18.13802">
        <ele>37</ele>
        <time>2019-11-16T09:07:38Z</time>
      </trkpt>
      <trkpt lat="59.222002" lon="18.138041">
        <ele>37</ele>
        <time>2019-11-16T09:07:39Z</time>
      </trkpt>
      <trkpt lat="59.221954" lon="18.138059">
        <ele>0</ele>
        <time>2019-11-16T09:07:39Z</time>
      </trkpt>
      <trkpt lat="59.221905" lon="18.138079">
        <ele>37</ele>
        <time>2019-11-16T09:07:40Z</time>
      </trkpt>
      <trkpt lat="59.221855" lon="18.1381">
        <ele>0</ele>
        <time>2019-11-16T09:07:41Z</time>
      </trkpt>
      <trkpt lat="59.221802" lon="18.138122">
        <ele>37</ele>
        <time>2019-11-16T09:07:42Z</time>
      </trkpt>
      <trkpt lat="59.221749" lon="18.138143">
        <ele>37</ele>
        <time>2019-11-16T09:07:44Z</time>
      </trkpt>
      <trkpt lat="59.221696" lon="18.138164">
        <ele>37</ele>
        <time>2019-11-16T09:07:45Z</time>
      </trkpt>
      <trkpt lat="59.221641" lon="18.138189">
        <ele>37</ele>
        <time>2019-11-16T09:07:46Z</time>
      </trkpt>
      <trkpt lat="59.221586" lon="18.138214">
        <ele>37</ele>
        <time>2019-11-16T09:07:47Z</time>
      </trkpt>
      <trkpt lat="59.22153" lon="18.138238">
        <ele>37</ele>
        <time>2019-11-16T09:07:48Z</time>
      </trkpt>
      <trkpt lat="59.221473" lon="18.138263">
        <ele>37</ele>
        <time>2019-11-16T09:07:49Z</time>
      </trkpt>
      <trkpt lat="59.221416" lon="18.13829">
        <ele>36</ele>
        <time>2019-11-16T09:07:50Z</time>
      </trkpt>
      <trkpt lat="59.221359" lon="18.138314">
        <ele>0</ele>
        <time>2019-11-16T09:07:50Z</time>
      </trkpt>
      <trkpt lat="59.221302" lon="18.138333">
        <ele>36</ele>
        <time>2019-11-16T09:07:51Z</time>
      </trkpt>
      <trkpt lat="59.221245" lon="18.138352">
        <ele>35</ele>
        <time>2019-11-16T09:07:53Z</time>
      </trkpt>
      <trkpt lat="59.221189" lon="18.138374">
        <ele>35</ele>
        <time>2019-11-16T09:07:54Z</time>
      </trkpt>
      <trkpt lat="59.221135" lon="18.138395">
        <ele>35</ele>
        <time>2019-11-16T09:07:55Z</time>
      </trkpt>
      <trkpt lat="59.22108" lon="18.138415">
        <ele>35</ele>
        <time>2019-11-16T09:07:56Z</time>
      </trkpt>
      <trkpt lat="59.221024" lon="18.138437">
        <ele>35</ele>
        <time>2019-11-16T09:07:57Z</time>
      </trkpt>
      <trkpt lat="59.220966" lon="18.138459">
        <ele>35</ele>
        <time>2019-11-16T09:07:58Z</time>
      </trkpt>
      <trkpt lat="59.220908" lon="18.138482">
        <ele>0</ele>
        <time>2019-11-16T09:07:58Z</time>
      </trkpt>
      <trkpt lat="59.22085" lon="18.138505">
        <ele>35</ele>
        <time>2019-11-16T09:07:59Z</time>
      </trkpt>
      <trkpt lat="59.220791" lon="18.138531">
        <ele>34</ele>
        <time>2019-11-16T09:08:00Z</time>
      </trkpt>
      <trkpt lat="59.220732" lon="18.138559">
        <ele>34</ele>
        <time>2019-11-16T09:08:02Z</time>
      </trkpt>
      <trkpt lat="59.220671" lon="18.13859">
        <ele>34</ele>
        <time>2019-11-16T09:08:03Z</time>
      </trkpt>
      <trkpt lat="59.220608" lon="18.138624">
        <ele>33</ele>
        <time>2019-11-16T09:08:04Z</time>
      </trkpt>
      <trkpt lat="59.220545" lon="18.138664">
        <ele>33</ele>
        <time>2019-11-16T09:08:05Z</time>
      </trkpt>
      <trkpt lat="59.220483" lon="18.138708">
        <ele>33</ele>
        <time>2019-11-16T09:08:06Z</time>
      </trkpt>
      <trkpt lat="59.220421" lon="18.138754">
        <ele>33</ele>
        <time>2019-11-16T09:08:07Z</time>
      </trkpt>
      <trkpt lat="59.220357" lon="18.138804">
        <ele>0</ele>
        <time>2019-11-16T09:08:07Z</time>
      </trkpt>
      <trkpt lat="59.220293" lon="18.138862">
        <ele>33</ele>
        <time>2019-11-16T09:08:08Z</time>
      </trkpt>
      <trkpt lat="59.220227" lon="18.138931">
        <ele>32</ele>
        <time>2019-11-16T09:08:10Z</time>
      </trkpt>
      <trkpt lat="59.220164" lon="18.139007">
        <ele>32</ele>
        <time>2019-11-16T09:08:11Z</time>
      </trkpt>
      <trkpt lat="59.220102" lon="18.139086">
        <ele>32</ele>
        <time>2019-11-16T09:08:12Z</time>
      </trkpt>
      <trkpt lat="59.220039" lon="18.139168">
        <ele>32</ele>
        <time>2019-11-16T09:08:13Z</time>
      </trkpt>
      <trkpt lat="59.219974" lon="18.139254">
        <ele>0</ele>
        <time>2019-11-16T09:08:13Z</time>
      </trkpt>
      <trkpt lat="59.219908" lon="18.139339">
        <ele>32</ele>
        <time>2019-11-16T09:08:14Z</time>
      </trkpt>
      <trkpt lat="59.219841" lon="18.139419">
        <ele>31</ele>
        <time>2019-11-16T09:08:16Z</time>
      </trkpt>
      <trkpt lat="59.219775" lon="18.139492">
        <ele>32</ele>
        <time>2019-11-16T09:08:17Z</time>
      </trkpt>
      <trkpt lat="59.219705" lon="18.139567">
        <ele>0</ele>
        <time>2019-11-16T09:08:17Z</time>
      </trkpt>
      <trkpt lat="59.219636" lon="18.139643">
        <ele>31</ele>
        <time>2019-11-16T09:08:18Z</time>
      </trkpt>
      <trkpt lat="59.219569" lon="18.13972">
        <ele>32</ele>
        <time>2019-11-16T09:08:20Z</time>
      </trkpt>
      <trkpt lat="59.219503" lon="18.139799">
        <ele>0</ele>
        <time>2019-11-16T09:08:20Z</time>
      </trkpt>
      <trkpt lat="59.219436" lon="18.139876">
        <ele>32</ele>
        <time>2019-11-16T09:08:21Z</time>
      </trkpt>
      <trkpt lat="59.21937" lon="18.139954">
        <ele>31</ele>
        <time>2019-11-16T09:08:23Z</time>
      </trkpt>
      <trkpt lat="59.219303" lon="18.140033">
        <ele>31</ele>
        <time>2019-11-16T09:08:24Z</time>
      </trkpt>
      <trkpt lat="59.219237" lon="18.140109">
        <ele>30</ele>
        <time>2019-11-16T09:08:25Z</time>
      </trkpt>
      <trkpt lat="59.219173" lon="18.140183">
        <ele>30</ele>
        <time>2019-11-16T09:08:26Z</time>
      </trkpt>
      <trkpt lat="59.219111" lon="18.140258">
        <ele>0</ele>
        <time>2019-11-16T09:08:26Z</time>
      </trkpt>
      <trkpt lat="59.219048" lon="18.14033">
        <ele>30</ele>
        <time>2019-11-16T09:08:27Z</time>
      </trkpt>
      <trkpt lat="59.218988" lon="18.140399">
        <ele>29</ele>
        <time>2019-11-16T09:08:29Z</time>
      </trkpt>
      <trkpt lat="59.218929" lon="18.140468">
        <ele>29</ele>
        <time>2019-11-16T09:08:30Z</time>
      </trkpt>
      <trkpt lat="59.218871" lon="18.140537">
        <ele>29</ele>
        <time>2019-11-16T09:08:31Z</time>
      </trkpt>
      <trkpt lat="59.218815" lon="18.140607">
        <ele>28</ele>
        <time>2019-11-16T09:08:32Z</time>
      </trkpt>
      <trkpt lat="59.218763" lon="18.140682">
        <ele>28</ele>
        <time>2019-11-16T09:08:33Z</time>
      </trkpt>
      <trkpt lat="59.218714" lon="18.140766">
        <ele>28</ele>
        <time>2019-11-16T09:08:34Z</time>
      </trkpt>
      <trkpt lat="59.218669" lon="18.140854">
        <ele>0</ele>
        <time>2019-11-16T09:08:34Z</time>
      </trkpt>
      <trkpt lat="59.218623" lon="18.14094">
        <ele>28</ele>
        <time>2019-11-16T09:08:35Z</time>
      </trkpt>
      <trkpt lat="59.21858" lon="18.141029">
        <ele>0</ele>
        <time>2019-11-16T09:08:36Z</time>
      </trkpt>
      <trkpt lat="59.218542" lon="18.141125">
        <ele>28</ele>
        <time>2019-11-16T09:08:37Z</time>
      </trkpt>
      <trkpt lat="59.218505" lon="18.141222">
        <ele>28</ele>
        <time>2019-11-16T09:08:39Z</time>
      </trkpt>
      <trkpt lat="59.218467" lon="18.141314">
        <ele>28</ele>
        <time>2019-11-16T09:08:40Z</time>
      </trkpt>
      <trkpt lat="59.218422" lon="18.14139">
        <ele>28</ele>
        <time>2019-11-16T09:08:41Z</time>
      </trkpt>
      <trkpt lat="59.218368" lon="18.141432">
        <ele>28</ele>
        <time>2019-11-16T09:08:42Z</time>
      </trkpt>
      <trkpt lat="59.218309" lon="18.141434">
        <ele>0</ele>
        <time>2019-11-16T09:08:42Z</time>
      </trkpt>
      <trkpt lat="59.218252" lon="18.141415">
        <ele>27</ele>
        <time>2019-11-16T09:08:43Z</time>
      </trkpt>
      <trkpt lat="59.218194" lon="18.141403">
        <ele>27</ele>
        <time>2019-11-16T09:08:45Z</time>
      </trkpt>
      <trkpt lat="59.218138" lon="18.141409">
        <ele>27</ele>
        <time>2019-11-16T09:08:46Z</time>
      </trkpt>
      <trkpt lat="59.218084" lon="18.141431">
        <ele>27</ele>
        <time>2019-11-16T09:08:47Z</time>
      </trkpt>
      <trkpt lat="59.218036" lon="18.141462">
        <ele>27</ele>
        <time>2019-11-16T09:08:48Z</time>
      </trkpt>
      <trkpt lat="59.217995" lon="18.14151">
        <ele>27</ele>
        <time>2019-11-16T09:08:49Z</time>
      </trkpt>
      <trkpt lat="59.217966" lon="18.141577">
        <ele>27</ele>
        <time>2019-11-16T09:08:50Z</time>
      </trkpt>
      <trkpt lat="59.217943" lon="18.141644">
        <ele>27</ele>
        <time>2019-11-16T09:08:51Z</time>
      </trkpt>
      <trkpt lat="59.217914" lon="18.141698">
        <ele>27</ele>
        <time>2019-11-16T09:08:52Z</time>
      </trkpt>
      <trkpt lat="59.217877" lon="18.141743">
        <ele>0</ele>
        <time>2019-11-16T09:08:52Z</time>
      </trkpt>
      <trkpt lat="59.217838" lon="18.141784">
        <ele>27</ele>
        <time>2019-11-16T09:08:53Z</time>
      </trkpt>
      <trkpt lat="59.217795" lon="18.141828">
        <ele>27</ele>
        <time>2019-11-16T09:08:55Z</time>
      </trkpt>
      <trkpt lat="59.217749" lon="18.141875">
        <ele>0</ele>
        <time>2019-11-16T09:08:55Z</time>
      </trkpt>
      <trkpt lat="59.217702" lon="18.141922">
        <ele>27</ele>
        <time>2019-11-16T09:08:56Z</time>
      </trkpt>
      <trkpt lat="59.217653" lon="18.141971">
        <ele>27</ele>
        <time>2019-11-16T09:08:58Z</time>
      </trkpt>
      <trkpt lat="59.217604" lon="18.142024">
        <ele>27</ele>
        <time>2019-11-16T09:08:59Z</time>
      </trkpt>
      <trkpt lat="59.217553" lon="18.142076">
        <ele>27</ele>
        <time>2019-11-16T09:09:00Z</time>
      </trkpt>
      <trkpt lat="59.217502" lon="18.14213">
        <ele>26</ele>
        <time>2019-11-16T09:09:01Z</time>
      </trkpt>
      <trkpt lat="59.217453" lon="18.142188">
        <ele>0</ele>
        <time>2019-11-16T09:09:01Z</time>
      </trkpt>
      <trkpt lat="59.217404" lon="18.142247">
        <ele>26</ele>
        <time>2019-11-16T09:09:02Z</time>
      </trkpt>
      <trkpt lat="59.217358" lon="18.142304">
        <ele>26</ele>
        <time>2019-11-16T09:09:04Z</time>
      </trkpt>
      <trkpt lat="59.21731" lon="18.142362">
        <ele>26</ele>
        <time>2019-11-16T09:09:05Z</time>
      </trkpt>
      <trkpt lat="59.217262" lon="18.14242">
        <ele>26</ele>
        <time>2019-11-16T09:09:06Z</time>
      </trkpt>
      <trkpt lat="59.217214" lon="18.142474">
        <ele>26</ele>
        <time>2019-11-16T09:09:07Z</time>
      </trkpt>
      <trkpt lat="59.217166" lon="18.14253">
        <ele>26</ele>
        <time>2019-11-16T09:09:08Z</time>
      </trkpt>
      <trkpt lat="59.217118" lon="18.142586">
        <ele>26</ele>
        <time>2019-11-16T09:09:09Z</time>
      </trkpt>
      <trkpt lat="59.21707" lon="18.142644">
        <ele>26</ele>
        <time>2019-11-16T09:09:10Z</time>
      </trkpt>
      <trkpt lat="59.217024" lon="18.142701">
        <ele>0</ele>
        <time>2019-11-16T09:09:10Z</time>
      </trkpt>
      <trkpt lat="59.216976" lon="18.142758">
        <ele>26</ele>
        <time>2019-11-16T09:09:11Z</time>
      </trkpt>
      <trkpt lat="59.216926" lon="18.142815">
        <ele>26</ele>
        <time>2019-11-16T09:09:13Z</time>
      </trkpt>
      <trkpt lat="59.216876" lon="18.142874">
        <ele>26</ele>
        <time>2019-11-16T09:09:14Z</time>
      </trkpt>
      <trkpt lat="59.216826" lon="18.142933">
        <ele>0</ele>
        <time>2019-11-16T09:09:14Z</time>
      </trkpt>
      <trkpt lat="59.216773" lon="18.142994">
        <ele>26</ele>
        <time>2019-11-16T09:09:15Z</time>
      </trkpt>
      <trkpt lat="59.216724" lon="18.143052">
        <ele>25</ele>
        <time>2019-11-16T09:09:17Z</time>
      </trkpt>
      <trkpt lat="59.216672" lon="18.143112">
        <ele>25</ele>
        <time>2019-11-16T09:09:18Z</time>
      </trkpt>
      <trkpt lat="59.21662" lon="18.143171">
        <ele>25</ele>
        <time>2019-11-16T09:09:19Z</time>
      </trkpt>
      <trkpt lat="59.216568" lon="18.14323">
        <ele>0</ele>
        <time>2019-11-16T09:09:19Z</time>
      </trkpt>
      <trkpt lat="59.216516" lon="18.143292">
        <ele>25</ele>
        <time>2019-11-16T09:09:20Z</time>
      </trkpt>
      <trkpt lat="59.216466" lon="18.143352">
        <ele>25</ele>
        <time>2019-11-16T09:09:22Z</time>
      </trkpt>
      <trkpt lat="59.216415" lon="18.14341">
        <ele>25</ele>
        <time>2019-11-16T09:09:23Z</time>
      </trkpt>
      <trkpt lat="59.216365" lon="18.143468">
        <ele>25</ele>
        <time>2019-11-16T09:09:24Z</time>
      </trkpt>
      <trkpt lat="59.216318" lon="18.143523">
        <ele>25</ele>
        <time>2019-11-16T09:09:25Z</time>
      </trkpt>
      <trkpt lat="59.216272" lon="18.143579">
        <ele>25</ele>
        <time>2019-11-16T09:09:26Z</time>
      </trkpt>
      <trkpt lat="59.216224" lon="18.143632">
        <ele>25</ele>
        <time>2019-11-16T09:09:27Z</time>
      </trkpt>
      <trkpt lat="59.216178" lon="18.143684">
        <ele>0</ele>
        <time>2019-11-16T09:09:27Z</time>
      </trkpt>
      <trkpt lat="59.216134" lon="18.143736">
        <ele>25</ele>
        <time>2019-11-16T09:09:28Z</time>
      </trkpt>
      <trkpt lat="59.216091" lon="18.14379">
        <ele>25</ele>
        <time>2019-11-16T09:09:30Z</time>
      </trkpt>
      <trkpt lat="59.216048" lon="18.143842">
        <ele>25</ele>
        <time>2019-11-16T09:09:31Z</time>
      </trkpt>
      <trkpt lat="59.216004" lon="18.14389">
        <ele>25</ele>
        <time>2019-11-16T09:09:32Z</time>
      </trkpt>
      <trkpt lat="59.215962" lon="18.143938">
        <ele>25</ele>
        <time>2019-11-16T09:09:33Z</time>
      </trkpt>
      <trkpt lat="59.21592" lon="18.143986">
        <ele>0</ele>
        <time>2019-11-16T09:09:33Z</time>
      </trkpt>
      <trkpt lat="59.215875" lon="18.144038">
        <ele>25</ele>
        <time>2019-11-16T09:09:34Z</time>
      </trkpt>
      <trkpt lat="59.215834" lon="18.144089">
        <ele>25</ele>
        <time>2019-11-16T09:09:36Z</time>
      </trkpt>
      <trkpt lat="59.215788" lon="18.14414">
        <ele>25</ele>
        <time>2019-11-16T09:09:37Z</time>
      </trkpt>
      <trkpt lat="59.215742" lon="18.144191">
        <ele>0</ele>
        <time>2019-11-16T09:09:37Z</time>
      </trkpt>
      <trkpt lat="59.215693" lon="18.144242">
        <ele>25</ele>
        <time>2019-11-16T09:09:38Z</time>
      </trkpt>
      <trkpt lat="59.215648" lon="18.144292">
        <ele>26</ele>
        <time>2019-11-16T09:09:40Z</time>
      </trkpt>
      <trkpt lat="59.215604" lon="18.144343">
        <ele>26</ele>
        <time>2019-11-16T09:09:41Z</time>
      </trkpt>
      <trkpt lat="59.21556" lon="18.144394">
        <ele>26</ele>
        <time>2019-11-16T09:09:42Z</time>
      </trkpt>
      <trkpt lat="59.215516" lon="18.144442">
        <ele>26</ele>
        <time>2019-11-16T09:09:43Z</time>
      </trkpt>
      <trkpt lat="59.215472" lon="18.14449">
        <ele>26</ele>
        <time>2019-11-16T09:09:44Z</time>
      </trkpt>
      <trkpt lat="59.215429" lon="18.14454">
        <ele>26</ele>
        <time>2019-11-16T09:09:45Z</time>
      </trkpt>
      <trkpt lat="59.215388" lon="18.144588">
        <ele>26</ele>
        <time>2019-11-16T09:09:46Z</time>
      </trkpt>
      <trkpt lat="59.215347" lon="18.144636">
        <ele>26</ele>
        <time>2019-11-16T09:09:47Z</time>
      </trkpt>
      <trkpt lat="59.215306" lon="18.144682">
        <ele>0</ele>
        <time>2019-11-16T09:09:47Z</time>
      </trkpt>
      <trkpt lat="59.215267" lon="18.14473">
        <ele>26</ele>
        <time>2019-11-16T09:09:48Z</time>
      </trkpt>
      <trkpt lat="59.215229" lon="18.144778">
        <ele>26</ele>
        <time>2019-11-16T09:09:50Z</time>
      </trkpt>
      <trkpt lat="59.215191" lon="18.144824">
        <ele>27</ele>
        <time>2019-11-16T09:09:51Z</time>
      </trkpt>
      <trkpt lat="59.215154" lon="18.144868">
        <ele>27</ele>
        <time>2019-11-16T09:09:52Z</time>
      </trkpt>
      <trkpt lat="59.215116" lon="18.144912">
        <ele>0</ele>
        <time>2019-11-16T09:09:52Z</time>
      </trkpt>
      <trkpt lat="59.21508" lon="18.144958">
        <ele>27</ele>
        <time>2019-11-16T09:09:53Z</time>
      </trkpt>
      <trkpt lat="59.215044" lon="18.145003">
        <ele>27</ele>
        <time>2019-11-16T09:09:55Z</time>
      </trkpt>
      <trkpt lat="59.215009" lon="18.145046">
        <ele>27</ele>
        <time>2019-11-16T09:09:56Z</time>
      </trkpt>
      <trkpt lat="59.214975" lon="18.145088">
        <ele>27</ele>
        <time>2019-11-16T09:09:57Z</time>
      </trkpt>
      <trkpt lat="59.21494" lon="18.14513">
        <ele>27</ele>
        <time>2019-11-16T09:09:58Z</time>
      </trkpt>
      <trkpt lat="59.214903" lon="18.145174">
        <ele>27</ele>
        <time>2019-11-16T09:09:59Z</time>
      </trkpt>
      <trkpt lat="59.214868" lon="18.145214">
        <ele>0</ele>
        <time>2019-11-16T09:09:59Z</time>
      </trkpt>
      <trkpt lat="59.214835" lon="18.145254">
        <ele>28</ele>
        <time>2019-11-16T09:10:00Z</time>
      </trkpt>
      <trkpt lat="59.214802" lon="18.145293">
        <ele>28</ele>
        <time>2019-11-16T09:10:02Z</time>
      </trkpt>
      <trkpt lat="59.21477" lon="18.14533">
        <ele>28</ele>
        <time>2019-11-16T09:10:03Z</time>
      </trkpt>
      <trkpt lat="59.214733" lon="18.145368">
        <ele>28</ele>
        <time>2019-11-16T09:10:04Z</time>
      </trkpt>
      <trkpt lat="59.214698" lon="18.145408">
        <ele>28</ele>
        <time>2019-11-16T09:10:05Z</time>
      </trkpt>
      <trkpt lat="59.214662" lon="18.14545">
        <ele>28</ele>
        <time>2019-11-16T09:10:06Z</time>
      </trkpt>
      <trkpt lat="59.214627" lon="18.145493">
        <ele>28</ele>
        <time>2019-11-16T09:10:07Z</time>
      </trkpt>
      <trkpt lat="59.21459" lon="18.145538">
        <ele>28</ele>
        <time>2019-11-16T09:10:08Z</time>
      </trkpt>
      <trkpt lat="59.214553" lon="18.145581">
        <ele>28</ele>
        <time>2019-11-16T09:10:09Z</time>
      </trkpt>
      <trkpt lat="59.214517" lon="18.145625">
        <ele>28</ele>
        <time>2019-11-16T09:10:10Z</time>
      </trkpt>
      <trkpt lat="59.214481" lon="18.145668">
        <ele>28</ele>
        <time>2019-11-16T09:10:11Z</time>
      </trkpt>
      <trkpt lat="59.214444" lon="18.145713">
        <ele>0</ele>
        <time>2019-11-16T09:10:11Z</time>
      </trkpt>
      <trkpt lat="59.214408" lon="18.145757">
        <ele>28</ele>
        <time>2019-11-16T09:10:12Z</time>
      </trkpt>
      <trkpt lat="59.214373" lon="18.145798">
        <ele>28</ele>
        <time>2019-11-16T09:10:14Z</time>
      </trkpt>
      <trkpt lat="59.214338" lon="18.145841">
        <ele>28</ele>
        <time>2019-11-16T09:10:15Z</time>
      </trkpt>
      <trkpt lat="59.214303" lon="18.145884">
        <ele>28</ele>
        <time>2019-11-16T09:10:16Z</time>
      </trkpt>
      <trkpt lat="59.214268" lon="18.145925">
        <ele>28</ele>
        <time>2019-11-16T09:10:17Z</time>
      </trkpt>
      <trkpt lat="59.214234" lon="18.145966">
        <ele>29</ele>
        <time>2019-11-16T09:10:18Z</time>
      </trkpt>
      <trkpt lat="59.214201" lon="18.146006">
        <ele>29</ele>
        <time>2019-11-16T09:10:19Z</time>
      </trkpt>
      <trkpt lat="59.214168" lon="18.146048">
        <ele>29</ele>
        <time>2019-11-16T09:10:20Z</time>
      </trkpt>
      <trkpt lat="59.214134" lon="18.146088">
        <ele>29</ele>
        <time>2019-11-16T09:10:21Z</time>
      </trkpt>
      <trkpt lat="59.214099" lon="18.146124">
        <ele>29</ele>
        <time>2019-11-16T09:10:22Z</time>
      </trkpt>
      <trkpt lat="59.214064" lon="18.146162">
        <ele>29</ele>
        <time>2019-11-16T09:10:23Z</time>
      </trkpt>
      <trkpt lat="59.21403" lon="18.146205">
        <ele>0</ele>
        <time>2019-11-16T09:10:23Z</time>
      </trkpt>
      <trkpt lat="59.213994" lon="18.14625">
        <ele>29</ele>
        <time>2019-11-16T09:10:24Z</time>
      </trkpt>
      <trkpt lat="59.213959" lon="18.146291">
        <ele>29</ele>
        <time>2019-11-16T09:10:26Z</time>
      </trkpt>
      <trkpt lat="59.213925" lon="18.146333">
        <ele>29</ele>
        <time>2019-11-16T09:10:27Z</time>
      </trkpt>
      <trkpt lat="59.213891" lon="18.146376">
        <ele>29</ele>
        <time>2019-11-16T09:10:28Z</time>
      </trkpt>
      <trkpt lat="59.213857" lon="18.146418">
        <ele>29</ele>
        <time>2019-11-16T09:10:29Z</time>
      </trkpt>
      <trkpt lat="59.213825" lon="18.146458">
        <ele>29</ele>
        <time>2019-11-16T09:10:30Z</time>
      </trkpt>
      <trkpt lat="59.213792" lon="18.146494">
        <ele>0</ele>
        <time>2019-11-16T09:10:30Z</time>
      </trkpt>
      <trkpt lat="59.213756" lon="18.146528">
        <ele>29</ele>
        <time>2019-11-16T09:10:31Z</time>
      </trkpt>
      <trkpt lat="59.213722" lon="18.146561">
        <ele>29</ele>
        <time>2019-11-16T09:10:33Z</time>
      </trkpt>
      <trkpt lat="59.213688" lon="18.146591">
        <ele>29</ele>
        <time>2019-11-16T09:10:34Z</time>
      </trkpt>
      <trkpt lat="59.213654" lon="18.146621">
        <ele>29</ele>
        <time>2019-11-16T09:10:35Z</time>
      </trkpt>
      <trkpt lat="59.213621" lon="18.146652">
        <ele>29</ele>
        <time>2019-11-16T09:10:36Z</time>
      </trkpt>
      <trkpt lat="59.213589" lon="18.146682">
        <ele>0</ele>
        <time>2019-11-16T09:10:36Z</time>
      </trkpt>
      <trkpt lat="59.213558" lon="18.14671">
        <ele>30</ele>
        <time>2019-11-16T09:10:37Z</time>
      </trkpt>
      <trkpt lat="59.213527" lon="18.146734">
        <ele>30</ele>
        <time>2019-11-16T09:10:39Z</time>
      </trkpt>
      <trkpt lat="59.213497" lon="18.146758">
        <ele>30</ele>
        <time>2019-11-16T09:10:40Z</time>
      </trkpt>
      <trkpt lat="59.213466" lon="18.146782">
        <ele>30</ele>
        <time>2019-11-16T09:10:41Z</time>
      </trkpt>
      <trkpt lat="59.213434" lon="18.146805">
        <ele>30</ele>
        <time>2019-11-16T09:10:42Z</time>
      </trkpt>
      <trkpt lat="59.213402" lon="18.146827">
        <ele>31</ele>
        <time>2019-11-16T09:10:43Z</time>
      </trkpt>
      <trkpt lat="59.213369" lon="18.146847">
        <ele>31</ele>
        <time>2019-11-16T09:10:44Z</time>
      </trkpt>
      <trkpt lat="59.213337" lon="18.146867">
        <ele>31</ele>
        <time>2019-11-16T09:10:45Z</time>
      </trkpt>
      <trkpt lat="59.213305" lon="18.146888">
        <ele>31</ele>
        <time>2019-11-16T09:10:46Z</time>
      </trkpt>
      <trkpt lat="59.213272" lon="18.146909">
        <ele>31</ele>
        <time>2019-11-16T09:10:47Z</time>
      </trkpt>
      <trkpt lat="59.21324" lon="18.146928">
        <ele>31</ele>
        <time>2019-11-16T09:10:48Z</time>
      </trkpt>
      <trkpt lat="59.213206" lon="18.146946">
        <ele>31</ele>
        <time>2019-11-16T09:10:49Z</time>
      </trkpt>
      <trkpt lat="59.213172" lon="18.146964">
        <ele>0</ele>
        <time>2019-11-16T09:10:49Z</time>
      </trkpt>
      <trkpt lat="59.213138" lon="18.14698">
        <ele>31</ele>
        <time>2019-11-16T09:10:50Z</time>
      </trkpt>
      <trkpt lat="59.213104" lon="18.146996">
        <ele>0</ele>
        <time>2019-11-16T09:10:51Z</time>
      </trkpt>
      <trkpt lat="59.213071" lon="18.14701">
        <ele>32</ele>
        <time>2019-11-16T09:10:52Z</time>
      </trkpt>
      <trkpt lat="59.213039" lon="18.147022">
        <ele>32</ele>
        <time>2019-11-16T09:10:54Z</time>
      </trkpt>
      <trkpt lat="59.213007" lon="18.147035">
        <ele>32</ele>
        <time>2019-11-16T09:10:55Z</time>
      </trkpt>
      <trkpt lat="59.212976" lon="18.147049">
        <ele>32</ele>
        <time>2019-11-16T09:10:56Z</time>
      </trkpt>
      <trkpt lat="59.212945" lon="18.147062">
        <ele>32</ele>
        <time>2019-11-16T09:10:57Z</time>
      </trkpt>
      <trkpt lat="59.212917" lon="18.147073">
        <ele>32</ele>
        <time>2019-11-16T09:10:58Z</time>
      </trkpt>
      <trkpt lat="59.212888" lon="18.147083">
        <ele>32</ele>
        <time>2019-11-16T09:10:59Z</time>
      </trkpt>
      <trkpt lat="59.212859" lon="18.147093">
        <ele>32</ele>
        <time>2019-11-16T09:11:00Z</time>
      </trkpt>
      <trkpt lat="59.21283" lon="18.147103">
        <ele>32</ele>
        <time>2019-11-16T09:11:01Z</time>
      </trkpt>
      <trkpt lat="59.212802" lon="18.147112">
        <ele>33</ele>
        <time>2019-11-16T09:11:02Z</time>
      </trkpt>
      <trkpt lat="59.212776" lon="18.147119">
        <ele>33</ele>
        <time>2019-11-16T09:11:03Z</time>
      </trkpt>
      <trkpt lat="59.212753" lon="18.147125">
        <ele>33</ele>
        <time>2019-11-16T09:11:04Z</time>
      </trkpt>
      <trkpt lat="59.212729" lon="18.147131">
        <ele>33</ele>
        <time>2019-11-16T09:11:05Z</time>
      </trkpt>
      <trkpt lat="59.212705" lon="18.147136">
        <ele>33</ele>
        <time>2019-11-16T09:11:06Z</time>
      </trkpt>
      <trkpt lat="59.212681" lon="18.147142">
        <ele>33</ele>
        <time>2019-11-16T09:11:07Z</time>
      </trkpt>
      <trkpt lat="59.212656" lon="18.147148">
        <ele>33</ele>
        <time>2019-11-16T09:11:08Z</time>
      </trkpt>
      <trkpt lat="59.21263" lon="18.147152">
        <ele>0</ele>
        <time>2019-11-16T09:11:08Z</time>
      </trkpt>
      <trkpt lat="59.212606" lon="18.147154">
        <ele>34</ele>
        <time>2019-11-16T09:11:09Z</time>
      </trkpt>
      <trkpt lat="59.212581" lon="18.147157">
        <ele>34</ele>
        <time>2019-11-16T09:11:11Z</time>
      </trkpt>
      <trkpt lat="59.212555" lon="18.14716">
        <ele>35</ele>
        <time>2019-11-16T09:11:12Z</time>
      </trkpt>
      <trkpt lat="59.212528" lon="18.147165">
        <ele>35</ele>
        <time>2019-11-16T09:11:13Z</time>
      </trkpt>
      <trkpt lat="59.212501" lon="18.147169">
        <ele>35</ele>
        <time>2019-11-16T09:11:14Z</time>
      </trkpt>
      <trkpt lat="59.212474" lon="18.147175">
        <ele>35</ele>
        <time>2019-11-16T09:11:15Z</time>
      </trkpt>
      <trkpt lat="59.212448" lon="18.14718">
        <ele>35</ele>
        <time>2019-11-16T09:11:16Z</time>
      </trkpt>
      <trkpt lat="59.212421" lon="18.147184">
        <ele>35</ele>
        <time>2019-11-16T09:11:17Z</time>
      </trkpt>
      <trkpt lat="59.212394" lon="18.147187">
        <ele>35</ele>
        <time>2019-11-16T09:11:18Z</time>
      </trkpt>
      <trkpt lat="59.212367" lon="18.147191">
        <ele>35</ele>
        <time>2019-11-16T09:11:19Z</time>
      </trkpt>
      <trkpt lat="59.212339" lon="18.147193">
        <ele>36</ele>
        <time>2019-11-16T09:11:20Z</time>
      </trkpt>
      <trkpt lat="59.212312" lon="18.147192">
        <ele>36</ele>
        <time>2019-11-16T09:11:21Z</time>
      </trkpt>
      <trkpt lat="59.212283" lon="18.147192">
        <ele>36</ele>
        <time>2019-11-16T09:11:22Z</time>
      </trkpt>
      <trkpt lat="59.212255" lon="18.147192">
        <ele>36</ele>
        <time>2019-11-16T09:11:23Z</time>
      </trkpt>
      <trkpt lat="59.212226" lon="18.147192">
        <ele>37</ele>
        <time>2019-11-16T09:11:24Z</time>
      </trkpt>
      <trkpt lat="59.212198" lon="18.147191">
        <ele>37</ele>
        <time>2019-11-16T09:11:25Z</time>
      </trkpt>
      <trkpt lat="59.212171" lon="18.147189">
        <ele>37</ele>
        <time>2019-11-16T09:11:26Z</time>
      </trkpt>
      <trkpt lat="59.212143" lon="18.147189">
        <ele>37</ele>
        <time>2019-11-16T09:11:27Z</time>
      </trkpt>
      <trkpt lat="59.212116" lon="18.147185">
        <ele>0</ele>
        <time>2019-11-16T09:11:27Z</time>
      </trkpt>
      <trkpt lat="59.21209" lon="18.14718">
        <ele>37</ele>
        <time>2019-11-16T09:11:28Z</time>
      </trkpt>
      <trkpt lat="59.212063" lon="18.147175">
        <ele>38</ele>
        <time>2019-11-16T09:11:30Z</time>
      </trkpt>
      <trkpt lat="59.212037" lon="18.147171">
        <ele>38</ele>
        <time>2019-11-16T09:11:31Z</time>
      </trkpt>
      <trkpt lat="59.212011" lon="18.147169">
        <ele>38</ele>
        <time>2019-11-16T09:11:32Z</time>
      </trkpt>
      <trkpt lat="59.211983" lon="18.147169">
        <ele>38</ele>
        <time>2019-11-16T09:11:33Z</time>
      </trkpt>
      <trkpt lat="59.211955" lon="18.147167">
        <ele>38</ele>
        <time>2019-11-16T09:11:34Z</time>
      </trkpt>
      <trkpt lat="59.211926" lon="18.147164">
        <ele>38</ele>
        <time>2019-11-16T09:11:35Z</time>
      </trkpt>
      <trkpt lat="59.211897" lon="18.147163">
        <ele>38</ele>
        <time>2019-11-16T09:11:36Z</time>
      </trkpt>
      <trkpt lat="59.211869" lon="18.147163">
        <ele>38</ele>
        <time>2019-11-16T09:11:37Z</time>
      </trkpt>
      <trkpt lat="59.211839" lon="18.147164">
        <ele>38</ele>
        <time>2019-11-16T09:11:38Z</time>
      </trkpt>
      <trkpt lat="59.21181" lon="18.147161">
        <ele>39</ele>
        <time>2019-11-16T09:11:39Z</time>
      </trkpt>
      <trkpt lat="59.211782" lon="18.147152">
        <ele>39</ele>
        <time>2019-11-16T09:11:40Z</time>
      </trkpt>
      <trkpt lat="59.211754" lon="18.147141">
        <ele>39</ele>
        <time>2019-11-16T09:11:41Z</time>
      </trkpt>
      <trkpt lat="59.211727" lon="18.147127">
        <ele>40</ele>
        <time>2019-11-16T09:11:42Z</time>
      </trkpt>
      <trkpt lat="59.211699" lon="18.147113">
        <ele>40</ele>
        <time>2019-11-16T09:11:43Z</time>
      </trkpt>
      <trkpt lat="59.21167" lon="18.147101">
        <ele>40</ele>
        <time>2019-11-16T09:11:44Z</time>
      </trkpt>
      <trkpt lat="59.211643" lon="18.147089">
        <ele>0</ele>
        <time>2019-11-16T09:11:44Z</time>
      </trkpt>
      <trkpt lat="59.211616" lon="18.147077">
        <ele>41</ele>
        <time>2019-11-16T09:11:45Z</time>
      </trkpt>
      <trkpt lat="59.211586" lon="18.147065">
        <ele>0</ele>
        <time>2019-11-16T09:11:46Z</time>
      </trkpt>
      <trkpt lat="59.211555" lon="18.147052">
        <ele>41</ele>
        <time>2019-11-16T09:11:47Z</time>
      </trkpt>
      <trkpt lat="59.211523" lon="18.147039">
        <ele>42</ele>
        <time>2019-11-16T09:11:49Z</time>
      </trkpt>
      <trkpt lat="59.211491" lon="18.147025">
        <ele>42</ele>
        <time>2019-11-16T09:11:50Z</time>
      </trkpt>
      <trkpt lat="59.211459" lon="18.14701">
        <ele>42</ele>
        <time>2019-11-16T09:11:51Z</time>
      </trkpt>
      <trkpt lat="59.211427" lon="18.146994">
        <ele>42</ele>
        <time>2019-11-16T09:11:52Z</time>
      </trkpt>
      <trkpt lat="59.211395" lon="18.146979">
        <ele>42</ele>
        <time>2019-11-16T09:11:53Z</time>
      </trkpt>
      <trkpt lat="59.211364" lon="18.146963">
        <ele>42</ele>
        <time>2019-11-16T09:11:54Z</time>
      </trkpt>
      <trkpt lat="59.211331" lon="18.146945">
        <ele>43</ele>
        <time>2019-11-16T09:11:55Z</time>
      </trkpt>
      <trkpt lat="59.211298" lon="18.146925">
        <ele>43</ele>
        <time>2019-11-16T09:11:56Z</time>
      </trkpt>
      <trkpt lat="59.211264" lon="18.146905">
        <ele>43</ele>
        <time>2019-11-16T09:11:57Z</time>
      </trkpt>
      <trkpt lat="59.211232" lon="18.146884">
        <ele>43</ele>
        <time>2019-11-16T09:11:58Z</time>
      </trkpt>
      <trkpt lat="59.2112" lon="18.146863">
        <ele>44</ele>
        <time>2019-11-16T09:11:59Z</time>
      </trkpt>
      <trkpt lat="59.211169" lon="18.146841">
        <ele>44</ele>
        <time>2019-11-16T09:12:00Z</time>
      </trkpt>
      <trkpt lat="59.211138" lon="18.146818">
        <ele>44</ele>
        <time>2019-11-16T09:12:00Z</time>
      </trkpt>
      <trkpt lat="59.211107" lon="18.146797">
        <ele>44</ele>
        <time>2019-11-16T09:12:01Z</time>
      </trkpt>
      <trkpt lat="59.211076" lon="18.146774">
        <ele>45</ele>
        <time>2019-11-16T09:12:03Z</time>
      </trkpt>
      <trkpt lat="59.211047" lon="18.14675">
        <ele>45</ele>
        <time>2019-11-16T09:12:04Z</time>
      </trkpt>
      <trkpt lat="59.211016" lon="18.146725">
        <ele>45</ele>
        <time>2019-11-16T09:12:05Z</time>
      </trkpt>
      <trkpt lat="59.210986" lon="18.1467">
        <ele>0</ele>
        <time>2019-11-16T09:12:05Z</time>
      </trkpt>
      <trkpt lat="59.210957" lon="18.146672">
        <ele>45</ele>
        <time>2019-11-16T09:12:06Z</time>
      </trkpt>
      <trkpt lat="59.210928" lon="18.146643">
        <ele>46</ele>
        <time>2019-11-16T09:12:08Z</time>
      </trkpt>
      <trkpt lat="59.2109" lon="18.146613">
        <ele>0</ele>
        <time>2019-11-16T09:12:08Z</time>
      </trkpt>
      <trkpt lat="59.210869" lon="18.146589">
        <ele>46</ele>
        <time>2019-11-16T09:12:09Z</time>
      </trkpt>
      <trkpt lat="59.21084" lon="18.146562">
        <ele>47</ele>
        <time>2019-11-16T09:12:11Z</time>
      </trkpt>
      <trkpt lat="59.210814" lon="18.146533">
        <ele>47</ele>
        <time>2019-11-16T09:12:12Z</time>
      </trkpt>
      <trkpt lat="59.210786" lon="18.146504">
        <ele>47</ele>
        <time>2019-11-16T09:12:13Z</time>
      </trkpt>
      <trkpt lat="59.210758" lon="18.146474">
        <ele>47</ele>
        <time>2019-11-16T09:12:14Z</time>
      </trkpt>
      <trkpt lat="59.21073" lon="18.146445">
        <ele>47</ele>
        <time>2019-11-16T09:12:15Z</time>
      </trkpt>
      <trkpt lat="59.210704" lon="18.146412">
        <ele>0</ele>
        <time>2019-11-16T09:12:15Z</time>
      </trkpt>
      <trkpt lat="59.210678" lon="18.14638">
        <ele>48</ele>
        <time>2019-11-16T09:12:16Z</time>
      </trkpt>
      <trkpt lat="59.210652" lon="18.146351">
        <ele>49</ele>
        <time>2019-11-16T09:12:18Z</time>
      </trkpt>
      <trkpt lat="59.210625" lon="18.146321">
        <ele>49</ele>
        <time>2019-11-16T09:12:19Z</time>
      </trkpt>
      <trkpt lat="59.210598" lon="18.14629">
        <ele>49</ele>
        <time>2019-11-16T09:12:20Z</time>
      </trkpt>
      <trkpt lat="59.210569" lon="18.146259">
        <ele>49</ele>
        <time>2019-11-16T09:12:21Z</time>
      </trkpt>
      <trkpt lat="59.210539" lon="18.146228">
        <ele>49</ele>
        <time>2019-11-16T09:12:22Z</time>
      </trkpt>
      <trkpt lat="59.210512" lon="18.146192">
        <ele>50</ele>
        <time>2019-11-16T09:12:23Z</time>
      </trkpt>
      <trkpt lat="59.210485" lon="18.146157">
        <ele>50</ele>
        <time>2019-11-16T09:12:24Z</time>
      </trkpt>
      <trkpt lat="59.210457" lon="18.146123">
        <ele>0</ele>
        <time>2019-11-16T09:12:24Z</time>
      </trkpt>
      <trkpt lat="59.210428" lon="18.14609">
        <ele>50</ele>
        <time>2019-11-16T09:12:25Z</time>
      </trkpt>
      <trkpt lat="59.210401" lon="18.146054">
        <ele>51</ele>
        <time>2019-11-16T09:12:27Z</time>
      </trkpt>
      <trkpt lat="59.210373" lon="18.14602">
        <ele>51</ele>
        <time>2019-11-16T09:12:28Z</time>
      </trkpt>
      <trkpt lat="59.210345" lon="18.145991">
        <ele>51</ele>
        <time>2019-11-16T09:12:29Z</time>
      </trkpt>
      <trkpt lat="59.210316" lon="18.145964">
        <ele>51</ele>
        <time>2019-11-16T09:12:30Z</time>
      </trkpt>
      <trkpt lat="59.210287" lon="18.145936">
        <ele>51</ele>
        <time>2019-11-16T09:12:31Z</time>
      </trkpt>
      <trkpt lat="59.210259" lon="18.145906">
        <ele>0</ele>
        <time>2019-11-16T09:12:31Z</time>
      </trkpt>
      <trkpt lat="59.210232" lon="18.145874">
        <ele>52</ele>
        <time>2019-11-16T09:12:32Z</time>
      </trkpt>
      <trkpt lat="59.210205" lon="18.14584">
        <ele>52</ele>
        <time>2019-11-16T09:12:34Z</time>
      </trkpt>
      <trkpt lat="59.210178" lon="18.145805">
        <ele>52</ele>
        <time>2019-11-16T09:12:35Z</time>
      </trkpt>
      <trkpt lat="59.210152" lon="18.145766">
        <ele>53</ele>
        <time>2019-11-16T09:12:36Z</time>
      </trkpt>
      <trkpt lat="59.210125" lon="18.145727">
        <ele>53</ele>
        <time>2019-11-16T09:12:37Z</time>
      </trkpt>
      <trkpt lat="59.210098" lon="18.145689">
        <ele>53</ele>
        <time>2019-11-16T09:12:38Z</time>
      </trkpt>
      <trkpt lat="59.210071" lon="18.145648">
        <ele>53</ele>
        <time>2019-11-16T09:12:39Z</time>
      </trkpt>
      <trkpt lat="59.210045" lon="18.145604">
        <ele>53</ele>
        <time>2019-11-16T09:12:40Z</time>
      </trkpt>
      <trkpt lat="59.210019" lon="18.145558">
        <ele>53</ele>
        <time>2019-11-16T09:12:41Z</time>
      </trkpt>
      <trkpt lat="59.209993" lon="18.145508">
        <ele>54</ele>
        <time>2019-11-16T09:12:42Z</time>
      </trkpt>
      <trkpt lat="59.209968" lon="18.145452">
        <ele>54</ele>
        <time>2019-11-16T09:12:43Z</time>
      </trkpt>
      <trkpt lat="59.209944" lon="18.145393">
        <ele>0</ele>
        <time>2019-11-16T09:12:43Z</time>
      </trkpt>
      <trkpt lat="59.209921" lon="18.145334">
        <ele>54</ele>
        <time>2019-11-16T09:12:44Z</time>
      </trkpt>
      <trkpt lat="59.209896" lon="18.145274">
        <ele>0</ele>
        <time>2019-11-16T09:12:45Z</time>
      </trkpt>
      <trkpt lat="59.209869" lon="18.145215">
        <ele>54</ele>
        <time>2019-11-16T09:12:46Z</time>
      </trkpt>
      <trkpt lat="59.209841" lon="18.145155">
        <ele>54</ele>
        <time>2019-11-16T09:12:48Z</time>
      </trkpt>
      <trkpt lat="59.20981" lon="18.145098">
        <ele>55</ele>
        <time>2019-11-16T09:12:49Z</time>
      </trkpt>
      <trkpt lat="59.209776" lon="18.145044">
        <ele>55</ele>
        <time>2019-11-16T09:12:50Z</time>
      </trkpt>
      <trkpt lat="59.209738" lon="18.144994">
        <ele>54</ele>
        <time>2019-11-16T09:12:51Z</time>
      </trkpt>
      <trkpt lat="59.209698" lon="18.144951">
        <ele>54</ele>
        <time>2019-11-16T09:12:52Z</time>
      </trkpt>
      <trkpt lat="59.209657" lon="18.144919">
        <ele>54</ele>
        <time>2019-11-16T09:12:53Z</time>
      </trkpt>
      <trkpt lat="59.209616" lon="18.14489">
        <ele>54</ele>
        <time>2019-11-16T09:12:54Z</time>
      </trkpt>
      <trkpt lat="59.209578" lon="18.144845">
        <ele>54</ele>
        <time>2019-11-16T09:12:55Z</time>
      </trkpt>
      <trkpt lat="59.209545" lon="18.144783">
        <ele>55</ele>
        <time>2019-11-16T09:12:56Z</time>
      </trkpt>
      <trkpt lat="59.209518" lon="18.14471">
        <ele>0</ele>
        <time>2019-11-16T09:12:56Z</time>
      </trkpt>
      <trkpt lat="59.209503" lon="18.144626">
        <ele>55</ele>
        <time>2019-11-16T09:12:57Z</time>
      </trkpt>
      <trkpt lat="59.209499" lon="18.144541">
        <ele>55</ele>
        <time>2019-11-16T09:12:59Z</time>
      </trkpt>
      <trkpt lat="59.20949" lon="18.144455">
        <ele>55</ele>
        <time>2019-11-16T09:13:00Z</time>
      </trkpt>
      <trkpt lat="59.209476" lon="18.144369">
        <ele>55</ele>
        <time>2019-11-16T09:13:01Z</time>
      </trkpt>
      <trkpt lat="59.209459" lon="18.144285">
        <ele>55</ele>
        <time>2019-11-16T09:13:02Z</time>
      </trkpt>
      <trkpt lat="59.209438" lon="18.144204">
        <ele>0</ele>
        <time>2019-11-16T09:13:02Z</time>
      </trkpt>
      <trkpt lat="59.209414" lon="18.144123">
        <ele>55</ele>
        <time>2019-11-16T09:13:03Z</time>
      </trkpt>
      <trkpt lat="59.209387" lon="18.144044">
        <ele>55</ele>
        <time>2019-11-16T09:13:05Z</time>
      </trkpt>
      <trkpt lat="59.209359" lon="18.143969">
        <ele>56</ele>
        <time>2019-11-16T09:13:06Z</time>
      </trkpt>
      <trkpt lat="59.209331" lon="18.143897">
        <ele>56</ele>
        <time>2019-11-16T09:13:07Z</time>
      </trkpt>
      <trkpt lat="59.209301" lon="18.143826">
        <ele>0</ele>
        <time>2019-11-16T09:13:07Z</time>
      </trkpt>
      <trkpt lat="59.209273" lon="18.143755">
        <ele>56</ele>
        <time>2019-11-16T09:13:08Z</time>
      </trkpt>
      <trkpt lat="59.209245" lon="18.143683">
        <ele>56</ele>
        <time>2019-11-16T09:13:10Z</time>
      </trkpt>
      <trkpt lat="59.209217" lon="18.14361">
        <ele>57</ele>
        <time>2019-11-16T09:13:11Z</time>
      </trkpt>
      <trkpt lat="59.209189" lon="18.143538">
        <ele>57</ele>
        <time>2019-11-16T09:13:12Z</time>
      </trkpt>
      <trkpt lat="59.20916" lon="18.143464">
        <ele>57</ele>
        <time>2019-11-16T09:13:13Z</time>
      </trkpt>
      <trkpt lat="59.20913" lon="18.143388">
        <ele>57</ele>
        <time>2019-11-16T09:13:14Z</time>
      </trkpt>
      <trkpt lat="59.2091" lon="18.143312">
        <ele>57</ele>
        <time>2019-11-16T09:13:15Z</time>
      </trkpt>
      <trkpt lat="59.209068" lon="18.143235">
        <ele>57</ele>
        <time>2019-11-16T09:13:16Z</time>
      </trkpt>
      <trkpt lat="59.209037" lon="18.143157">
        <ele>57</ele>
        <time>2019-11-16T09:13:17Z</time>
      </trkpt>
      <trkpt lat="59.209004" lon="18.143077">
        <ele>0</ele>
        <time>2019-11-16T09:13:17Z</time>
      </trkpt>
      <trkpt lat="59.20897" lon="18.142997">
        <ele>57</ele>
        <time>2019-11-16T09:13:18Z</time>
      </trkpt>
      <trkpt lat="59.208936" lon="18.142914">
        <ele>58</ele>
        <time>2019-11-16T09:13:20Z</time>
      </trkpt>
      <trkpt lat="59.208902" lon="18.142831">
        <ele>58</ele>
        <time>2019-11-16T09:13:21Z</time>
      </trkpt>
      <trkpt lat="59.208867" lon="18.142747">
        <ele>0</ele>
        <time>2019-11-16T09:13:21Z</time>
      </trkpt>
      <trkpt lat="59.208832" lon="18.142663">
        <ele>58</ele>
        <time>2019-11-16T09:13:22Z</time>
      </trkpt>
      <trkpt lat="59.208798" lon="18.142577">
        <ele>58</ele>
        <time>2019-11-16T09:13:24Z</time>
      </trkpt>
      <trkpt lat="59.208765" lon="18.142491">
        <ele>58</ele>
        <time>2019-11-16T09:13:25Z</time>
      </trkpt>
      <trkpt lat="59.208729" lon="18.142408">
        <ele>58</ele>
        <time>2019-11-16T09:13:26Z</time>
      </trkpt>
      <trkpt lat="59.208692" lon="18.142324">
        <ele>58</ele>
        <time>2019-11-16T09:13:27Z</time>
      </trkpt>
      <trkpt lat="59.208655" lon="18.142239">
        <ele>0</ele>
        <time>2019-11-16T09:13:27Z</time>
      </trkpt>
      <trkpt lat="59.208615" lon="18.142154">
        <ele>58</ele>
        <time>2019-11-16T09:13:28Z</time>
      </trkpt>
      <trkpt lat="59.208574" lon="18.142068">
        <ele>58</ele>
        <time>2019-11-16T09:13:30Z</time>
      </trkpt>
      <trkpt lat="59.208531" lon="18.14198">
        <ele>58</ele>
        <time>2019-11-16T09:13:31Z</time>
      </trkpt>
      <trkpt lat="59.208485" lon="18.141893">
        <ele>58</ele>
        <time>2019-11-16T09:13:32Z</time>
      </trkpt>
      <trkpt lat="59.208437" lon="18.141803">
        <ele>58</ele>
        <time>2019-11-16T09:13:33Z</time>
      </trkpt>
      <trkpt lat="59.20839" lon="18.14171">
        <ele>58</ele>
        <time>2019-11-16T09:13:34Z</time>
      </trkpt>
      <trkpt lat="59.208342" lon="18.141619">
        <ele>0</ele>
        <time>2019-11-16T09:13:34Z</time>
      </trkpt>
      <trkpt lat="59.208293" lon="18.141531">
        <ele>58</ele>
        <time>2019-11-16T09:13:35Z</time>
      </trkpt>
      <trkpt lat="59.208243" lon="18.141445">
        <ele>58</ele>
        <time>2019-11-16T09:13:37Z</time>
      </trkpt>
      <trkpt lat="59.208188" lon="18.141358">
        <ele>58</ele>
        <time>2019-11-16T09:13:38Z</time>
      </trkpt>
      <trkpt lat="59.208134" lon="18.141272">
        <ele>58</ele>
        <time>2019-11-16T09:13:39Z</time>
      </trkpt>
      <trkpt lat="59.208073" lon="18.14119">
        <ele>58</ele>
        <time>2019-11-16T09:13:40Z</time>
      </trkpt>
      <trkpt lat="59.208009" lon="18.141111">
        <ele>0</ele>
        <time>2019-11-16T09:13:40Z</time>
      </trkpt>
      <trkpt lat="59.207942" lon="18.141037">
        <ele>58</ele>
        <time>2019-11-16T09:13:41Z</time>
      </trkpt>
      <trkpt lat="59.207879" lon="18.140959">
        <ele>0</ele>
        <time>2019-11-16T09:13:42Z</time>
      </trkpt>
      <trkpt lat="59.207818" lon="18.140885">
        <ele>58</ele>
        <time>2019-11-16T09:13:43Z</time>
      </trkpt>
      <trkpt lat="59.207749" lon="18.140814">
        <ele>58</ele>
        <time>2019-11-16T09:13:45Z</time>
      </trkpt>
      <trkpt lat="59.207667" lon="18.140749">
        <ele>58</ele>
        <time>2019-11-16T09:13:46Z</time>
      </trkpt>
      <trkpt lat="59.207595" lon="18.140686">
        <ele>58</ele>
        <time>2019-11-16T09:13:47Z</time>
      </trkpt>
      <trkpt lat="59.207516" lon="18.14063">
        <ele>58</ele>
        <time>2019-11-16T09:13:48Z</time>
      </trkpt>
      <trkpt lat="59.207437" lon="18.140581">
        <ele>0</ele>
        <time>2019-11-16T09:13:48Z</time>
      </trkpt>
      <trkpt lat="59.207359" lon="18.140535">
        <ele>58</ele>
        <time>2019-11-16T09:13:49Z</time>
      </trkpt>
      <trkpt lat="59.207278" lon="18.140492">
        <ele>58</ele>
        <time>2019-11-16T09:13:51Z</time>
      </trkpt>
      <trkpt lat="59.207196" lon="18.140455">
        <ele>57</ele>
        <time>2019-11-16T09:13:52Z</time>
      </trkpt>
      <trkpt lat="59.207114" lon="18.140422">
        <ele>57</ele>
        <time>2019-11-16T09:13:53Z</time>
      </trkpt>
      <trkpt lat="59.207033" lon="18.140399">
        <ele>56</ele>
        <time>2019-11-16T09:13:54Z</time>
      </trkpt>
      <trkpt lat="59.206951" lon="18.140381">
        <ele>0</ele>
        <time>2019-11-16T09:13:54Z</time>
      </trkpt>
      <trkpt lat="59.20687" lon="18.140364">
        <ele>56</ele>
        <time>2019-11-16T09:13:55Z</time>
      </trkpt>
      <trkpt lat="59.206791" lon="18.140347">
        <ele>55</ele>
        <time>2019-11-16T09:13:57Z</time>
      </trkpt>
      <trkpt lat="59.20671" lon="18.140337">
        <ele>55</ele>
        <time>2019-11-16T09:13:58Z</time>
      </trkpt>
      <trkpt lat="59.20663" lon="18.140335">
        <ele>54</ele>
        <time>2019-11-16T09:13:59Z</time>
      </trkpt>
      <trkpt lat="59.206555" lon="18.140336">
        <ele>0</ele>
        <time>2019-11-16T09:13:59Z</time>
      </trkpt>
      <trkpt lat="59.20648" lon="18.14035">
        <ele>54</ele>
        <time>2019-11-16T09:14:00Z</time>
      </trkpt>
      <trkpt lat="59.206408" lon="18.140388">
        <ele>54</ele>
        <time>2019-11-16T09:14:01Z</time>
      </trkpt>
      <trkpt lat="59.206345" lon="18.140454">
        <ele>53</ele>
        <time>2019-11-16T09:14:03Z</time>
      </trkpt>
      <trkpt lat="59.20629" lon="18.140541">
        <ele>52</ele>
        <time>2019-11-16T09:14:04Z</time>
      </trkpt>
      <trkpt lat="59.206242" lon="18.14064">
        <ele>52</ele>
        <time>2019-11-16T09:14:05Z</time>
      </trkpt>
      <trkpt lat="59.206188" lon="18.140732">
        <ele>51</ele>
        <time>2019-11-16T09:14:06Z</time>
      </trkpt>
      <trkpt lat="59.206122" lon="18.140797">
        <ele>51</ele>
        <time>2019-11-16T09:14:07Z</time>
      </trkpt>
      <trkpt lat="59.206055" lon="18.140844">
        <ele>0</ele>
        <time>2019-11-16T09:14:07Z</time>
      </trkpt>
      <trkpt lat="59.205989" lon="18.14089">
        <ele>51</ele>
        <time>2019-11-16T09:14:08Z</time>
      </trkpt>
      <trkpt lat="59.205923" lon="18.140932">
        <ele>50</ele>
        <time>2019-11-16T09:14:10Z</time>
      </trkpt>
      <trkpt lat="59.205856" lon="18.140978">
        <ele>50</ele>
        <time>2019-11-16T09:14:11Z</time>
      </trkpt>
      <trkpt lat="59.20579" lon="18.141025">
        <ele>50</ele>
        <time>2019-11-16T09:14:12Z</time>
      </trkpt>
      <trkpt lat="59.205726" lon="18.141076">
        <ele>50</ele>
        <time>2019-11-16T09:14:13Z</time>
      </trkpt>
      <trkpt lat="59.205663" lon="18.141128">
        <ele>50</ele>
        <time>2019-11-16T09:14:14Z</time>
      </trkpt>
      <trkpt lat="59.205598" lon="18.14118">
        <ele>0</ele>
        <time>2019-11-16T09:14:14Z</time>
      </trkpt>
      <trkpt lat="59.205531" lon="18.141232">
        <ele>50</ele>
        <time>2019-11-16T09:14:15Z</time>
      </trkpt>
      <trkpt lat="59.205467" lon="18.141288">
        <ele>49</ele>
        <time>2019-11-16T09:14:17Z</time>
      </trkpt>
      <trkpt lat="59.205407" lon="18.14134">
        <ele>49</ele>
        <time>2019-11-16T09:14:18Z</time>
      </trkpt>
      <trkpt lat="59.205345" lon="18.141394">
        <ele>0</ele>
        <time>2019-11-16T09:14:18Z</time>
      </trkpt>
      <trkpt lat="59.205282" lon="18.141446">
        <ele>49</ele>
        <time>2019-11-16T09:14:19Z</time>
      </trkpt>
      <trkpt lat="59.205214" lon="18.1415">
        <ele>48</ele>
        <time>2019-11-16T09:14:21Z</time>
      </trkpt>
      <trkpt lat="59.205144" lon="18.141551">
        <ele>0</ele>
        <time>2019-11-16T09:14:21Z</time>
      </trkpt>
      <trkpt lat="59.205069" lon="18.141604">
        <ele>48</ele>
        <time>2019-11-16T09:14:22Z</time>
      </trkpt>
      <trkpt lat="59.204995" lon="18.141652">
        <ele>48</ele>
        <time>2019-11-16T09:14:24Z</time>
      </trkpt>
      <trkpt lat="59.204922" lon="18.141692">
        <ele>48</ele>
        <time>2019-11-16T09:14:25Z</time>
      </trkpt>
      <trkpt lat="59.204851" lon="18.14173">
        <ele>48</ele>
        <time>2019-11-16T09:14:26Z</time>
      </trkpt>
      <trkpt lat="59.20478" lon="18.141772">
        <ele>48</ele>
        <time>2019-11-16T09:14:27Z</time>
      </trkpt>
      <trkpt lat="59.204712" lon="18.141818">
        <ele>47</ele>
        <time>2019-11-16T09:14:28Z</time>
      </trkpt>
      <trkpt lat="59.204644" lon="18.141864">
        <ele>0</ele>
        <time>2019-11-16T09:14:28Z</time>
      </trkpt>
      <trkpt lat="59.204571" lon="18.141906">
        <ele>47</ele>
        <time>2019-11-16T09:14:29Z</time>
      </trkpt>
      <trkpt lat="59.204496" lon="18.141944">
        <ele>47</ele>
        <time>2019-11-16T09:14:31Z</time>
      </trkpt>
      <trkpt lat="59.204422" lon="18.141978">
        <ele>47</ele>
        <time>2019-11-16T09:14:32Z</time>
      </trkpt>
      <trkpt lat="59.204346" lon="18.142007">
        <ele>47</ele>
        <time>2019-11-16T09:14:33Z</time>
      </trkpt>
      <trkpt lat="59.204268" lon="18.142038">
        <ele>46</ele>
        <time>2019-11-16T09:14:34Z</time>
      </trkpt>
      <trkpt lat="59.20419" lon="18.14207">
        <ele>0</ele>
        <time>2019-11-16T09:14:34Z</time>
      </trkpt>
      <trkpt lat="59.204111" lon="18.142102">
        <ele>46</ele>
        <time>2019-11-16T09:14:35Z</time>
      </trkpt>
      <trkpt lat="59.204035" lon="18.142132">
        <ele>45</ele>
        <time>2019-11-16T09:14:37Z</time>
      </trkpt>
      <trkpt lat="59.20396" lon="18.142158">
        <ele>0</ele>
        <time>2019-11-16T09:14:37Z</time>
      </trkpt>
      <trkpt lat="59.203887" lon="18.142182">
        <ele>45</ele>
        <time>2019-11-16T09:14:38Z</time>
      </trkpt>
      <trkpt lat="59.203816" lon="18.142204">
        <ele>45</ele>
        <time>2019-11-16T09:14:40Z</time>
      </trkpt>
      <trkpt lat="59.203745" lon="18.142224">
        <ele>45</ele>
        <time>2019-11-16T09:14:41Z</time>
      </trkpt>
      <trkpt lat="59.203674" lon="18.14224">
        <ele>0</ele>
        <time>2019-11-16T09:14:41Z</time>
      </trkpt>
      <trkpt lat="59.203605" lon="18.142247">
        <ele>44</ele>
        <time>2019-11-16T09:14:42Z</time>
      </trkpt>
      <trkpt lat="59.203536" lon="18.142252">
        <ele>44</ele>
        <time>2019-11-16T09:14:44Z</time>
      </trkpt>
      <trkpt lat="59.203467" lon="18.14225">
        <ele>44</ele>
        <time>2019-11-16T09:14:45Z</time>
      </trkpt>
      <trkpt lat="59.203399" lon="18.142245">
        <ele>44</ele>
        <time>2019-11-16T09:14:46Z</time>
      </trkpt>
      <trkpt lat="59.203332" lon="18.142242">
        <ele>44</ele>
        <time>2019-11-16T09:14:47Z</time>
      </trkpt>
      <trkpt lat="59.203268" lon="18.14224">
        <ele>43</ele>
        <time>2019-11-16T09:14:48Z</time>
      </trkpt>
      <trkpt lat="59.203205" lon="18.142236">
        <ele>0</ele>
        <time>2019-11-16T09:14:48Z</time>
      </trkpt>
      <trkpt lat="59.203142" lon="18.142231">
        <ele>43</ele>
        <time>2019-11-16T09:14:49Z</time>
      </trkpt>
      <trkpt lat="59.203079" lon="18.142226">
        <ele>43</ele>
        <time>2019-11-16T09:14:51Z</time>
      </trkpt>
      <trkpt lat="59.203016" lon="18.142216">
        <ele>43</ele>
        <time>2019-11-16T09:14:52Z</time>
      </trkpt>
      <trkpt lat="59.202953" lon="18.142204">
        <ele>43</ele>
        <time>2019-11-16T09:14:53Z</time>
      </trkpt>
      <trkpt lat="59.202889" lon="18.142192">
        <ele>43</ele>
        <time>2019-11-16T09:14:54Z</time>
      </trkpt>
      <trkpt lat="59.202825" lon="18.142186">
        <ele>43</ele>
        <time>2019-11-16T09:14:55Z</time>
      </trkpt>
      <trkpt lat="59.202762" lon="18.142188">
        <ele>43</ele>
        <time>2019-11-16T09:14:56Z</time>
      </trkpt>
      <trkpt lat="59.202698" lon="18.142193">
        <ele>0</ele>
        <time>2019-11-16T09:14:56Z</time>
      </trkpt>
      <trkpt lat="59.202633" lon="18.142204">
        <ele>43</ele>
        <time>2019-11-16T09:14:57Z</time>
      </trkpt>
      <trkpt lat="59.202567" lon="18.142217">
        <ele>43</ele>
        <time>2019-11-16T09:14:59Z</time>
      </trkpt>
      <trkpt lat="59.202501" lon="18.142232">
        <ele>43</ele>
        <time>2019-11-16T09:15:00Z</time>
      </trkpt>
      <trkpt lat="59.202432" lon="18.142244">
        <ele>43</ele>
        <time>2019-11-16T09:15:01Z</time>
      </trkpt>
      <trkpt lat="59.202363" lon="18.142244">
        <ele>43</ele>
        <time>2019-11-16T09:15:02Z</time>
      </trkpt>
      <trkpt lat="59.202291" lon="18.14223">
        <ele>43</ele>
        <time>2019-11-16T09:15:03Z</time>
      </trkpt>
      <trkpt lat="59.202215" lon="18.142205">
        <ele>42</ele>
        <time>2019-11-16T09:15:04Z</time>
      </trkpt>
      <trkpt lat="59.202143" lon="18.142175">
        <ele>0</ele>
        <time>2019-11-16T09:15:04Z</time>
      </trkpt>
      <trkpt lat="59.20207" lon="18.142142">
        <ele>42</ele>
        <time>2019-11-16T09:15:05Z</time>
      </trkpt>
      <trkpt lat="59.201998" lon="18.142108">
        <ele>41</ele>
        <time>2019-11-16T09:15:07Z</time>
      </trkpt>
      <trkpt lat="59.201925" lon="18.142074">
        <ele>41</ele>
        <time>2019-11-16T09:15:08Z</time>
      </trkpt>
      <trkpt lat="59.201853" lon="18.142042">
        <ele>41</ele>
        <time>2019-11-16T09:15:09Z</time>
      </trkpt>
      <trkpt lat="59.20178" lon="18.142007">
        <ele>41</ele>
        <time>2019-11-16T09:15:10Z</time>
      </trkpt>
      <trkpt lat="59.201706" lon="18.141972">
        <ele>0</ele>
        <time>2019-11-16T09:15:10Z</time>
      </trkpt>
      <trkpt lat="59.201633" lon="18.141938">
        <ele>41</ele>
        <time>2019-11-16T09:15:11Z</time>
      </trkpt>
      <trkpt lat="59.20156" lon="18.141902">
        <ele>41</ele>
        <time>2019-11-16T09:15:13Z</time>
      </trkpt>
      <trkpt lat="59.201487" lon="18.141861">
        <ele>40</ele>
        <time>2019-11-16T09:15:14Z</time>
      </trkpt>
      <trkpt lat="59.201415" lon="18.141812">
        <ele>40</ele>
        <time>2019-11-16T09:15:15Z</time>
      </trkpt>
      <trkpt lat="59.201344" lon="18.141758">
        <ele>0</ele>
        <time>2019-11-16T09:15:15Z</time>
      </trkpt>
      <trkpt lat="59.201274" lon="18.141699">
        <ele>40</ele>
        <time>2019-11-16T09:15:16Z</time>
      </trkpt>
      <trkpt lat="59.201203" lon="18.141639">
        <ele>0</ele>
        <time>2019-11-16T09:15:17Z</time>
      </trkpt>
      <trkpt lat="59.201131" lon="18.141578">
        <ele>40</ele>
        <time>2019-11-16T09:15:18Z</time>
      </trkpt>
      <trkpt lat="59.201059" lon="18.141516">
        <ele>40</ele>
        <time>2019-11-16T09:15:20Z</time>
      </trkpt>
      <trkpt lat="59.200988" lon="18.141454">
        <ele>40</ele>
        <time>2019-11-16T09:15:21Z</time>
      </trkpt>
      <trkpt lat="59.200915" lon="18.141397">
        <ele>39</ele>
        <time>2019-11-16T09:15:22Z</time>
      </trkpt>
      <trkpt lat="59.200835" lon="18.141349">
        <ele>38</ele>
        <time>2019-11-16T09:15:23Z</time>
      </trkpt>
      <trkpt lat="59.20076" lon="18.141319">
        <ele>0</ele>
        <time>2019-11-16T09:15:23Z</time>
      </trkpt>
      <trkpt lat="59.200684" lon="18.141318">
        <ele>38</ele>
        <time>2019-11-16T09:15:24Z</time>
      </trkpt>
      <trkpt lat="59.200608" lon="18.141351">
        <ele>38</ele>
        <time>2019-11-16T09:15:26Z</time>
      </trkpt>
      <trkpt lat="59.200535" lon="18.141411">
        <ele>38</ele>
        <time>2019-11-16T09:15:27Z</time>
      </trkpt>
      <trkpt lat="59.200466" lon="18.141489">
        <ele>37</ele>
        <time>2019-11-16T09:15:28Z</time>
      </trkpt>
      <trkpt lat="59.200397" lon="18.141569">
        <ele>37</ele>
        <time>2019-11-16T09:15:29Z</time>
      </trkpt>
      <trkpt lat="59.200327" lon="18.141645">
        <ele>0</ele>
        <time>2019-11-16T09:15:29Z</time>
      </trkpt>
      <trkpt lat="59.200256" lon="18.14172">
        <ele>36</ele>
        <time>2019-11-16T09:15:30Z</time>
      </trkpt>
      <trkpt lat="59.200186" lon="18.141796">
        <ele>35</ele>
        <time>2019-11-16T09:15:32Z</time>
      </trkpt>
      <trkpt lat="59.200115" lon="18.141875">
        <ele>35</ele>
        <time>2019-11-16T09:15:33Z</time>
      </trkpt>
      <trkpt lat="59.200042" lon="18.14196">
        <ele>35</ele>
        <time>2019-11-16T09:15:34Z</time>
      </trkpt>
      <trkpt lat="59.19997" lon="18.142051">
        <ele>0</ele>
        <time>2019-11-16T09:15:34Z</time>
      </trkpt>
      <trkpt lat="59.1999" lon="18.142154">
        <ele>34</ele>
        <time>2019-11-16T09:15:35Z</time>
      </trkpt>
      <trkpt lat="59.199833" lon="18.142265">
        <ele>34</ele>
        <time>2019-11-16T09:15:36Z</time>
      </trkpt>
      <trkpt lat="59.199774" lon="18.142389">
        <ele>33</ele>
        <time>2019-11-16T09:15:38Z</time>
      </trkpt>
      <trkpt lat="59.199722" lon="18.142519">
        <ele>33</ele>
        <time>2019-11-16T09:15:39Z</time>
      </trkpt>
      <trkpt lat="59.199675" lon="18.14265">
        <ele>33</ele>
        <time>2019-11-16T09:15:40Z</time>
      </trkpt>
      <trkpt lat="59.199627" lon="18.142769">
        <ele>33</ele>
        <time>2019-11-16T09:15:41Z</time>
      </trkpt>
      <trkpt lat="59.199563" lon="18.142871">
        <ele>0</ele>
        <time>2019-11-16T09:15:41Z</time>
      </trkpt>
      <trkpt lat="59.199496" lon="18.142946">
        <ele>33</ele>
        <time>2019-11-16T09:15:42Z</time>
      </trkpt>
      <trkpt lat="59.19943" lon="18.142989">
        <ele>33</ele>
        <time>2019-11-16T09:15:44Z</time>
      </trkpt>
      <trkpt lat="59.199358" lon="18.143011">
        <ele>32</ele>
        <time>2019-11-16T09:15:45Z</time>
      </trkpt>
      <trkpt lat="59.199287" lon="18.143015">
        <ele>32</ele>
        <time>2019-11-16T09:15:46Z</time>
      </trkpt>
      <trkpt lat="59.199218" lon="18.143012">
        <ele>32</ele>
        <time>2019-11-16T09:15:47Z</time>
      </trkpt>
      <trkpt lat="59.199151" lon="18.143008">
        <ele>32</ele>
        <time>2019-11-16T09:15:48Z</time>
      </trkpt>
      <trkpt lat="59.199086" lon="18.143004">
        <ele>0</ele>
        <time>2019-11-16T09:15:48Z</time>
      </trkpt>
      <trkpt lat="59.19902" lon="18.143">
        <ele>32</ele>
        <time>2019-11-16T09:15:49Z</time>
      </trkpt>
      <trkpt lat="59.198957" lon="18.142995">
        <ele>31</ele>
        <time>2019-11-16T09:15:51Z</time>
      </trkpt>
      <trkpt lat="59.198894" lon="18.142992">
        <ele>31</ele>
        <time>2019-11-16T09:15:52Z</time>
      </trkpt>
      <trkpt lat="59.198831" lon="18.14299">
        <ele>31</ele>
        <time>2019-11-16T09:15:53Z</time>
      </trkpt>
      <trkpt lat="59.198767" lon="18.142987">
        <ele>0</ele>
        <time>2019-11-16T09:15:53Z</time>
      </trkpt>
      <trkpt lat="59.198703" lon="18.142984">
        <ele>31</ele>
        <time>2019-11-16T09:15:54Z</time>
      </trkpt>
      <trkpt lat="59.19864" lon="18.142979">
        <ele>30</ele>
        <time>2019-11-16T09:15:56Z</time>
      </trkpt>
      <trkpt lat="59.198576" lon="18.142965">
        <ele>0</ele>
        <time>2019-11-16T09:15:56Z</time>
      </trkpt>
      <trkpt lat="59.198513" lon="18.142943">
        <ele>30</ele>
        <time>2019-11-16T09:15:57Z</time>
      </trkpt>
      <trkpt lat="59.19845" lon="18.142912">
        <ele>30</ele>
        <time>2019-11-16T09:15:59Z</time>
      </trkpt>
      <trkpt lat="59.198388" lon="18.142873">
        <ele>30</ele>
        <time>2019-11-16T09:16:00Z</time>
      </trkpt>
      <trkpt lat="59.198326" lon="18.142829">
        <ele>30</ele>
        <time>2019-11-16T09:16:01Z</time>
      </trkpt>
      <trkpt lat="59.198263" lon="18.142784">
        <ele>30</ele>
        <time>2019-11-16T09:16:02Z</time>
      </trkpt>
      <trkpt lat="59.198202" lon="18.142735">
        <ele>30</ele>
        <time>2019-11-16T09:16:03Z</time>
      </trkpt>
      <trkpt lat="59.198142" lon="18.142686">
        <ele>30</ele>
        <time>2019-11-16T09:16:04Z</time>
      </trkpt>
      <trkpt lat="59.19808" lon="18.142636">
        <ele>0</ele>
        <time>2019-11-16T09:16:04Z</time>
      </trkpt>
      <trkpt lat="59.198019" lon="18.142587">
        <ele>30</ele>
        <time>2019-11-16T09:16:05Z</time>
      </trkpt>
      <trkpt lat="59.197958" lon="18.142542">
        <ele>30</ele>
        <time>2019-11-16T09:16:07Z</time>
      </trkpt>
      <trkpt lat="59.197897" lon="18.142497">
        <ele>30</ele>
        <time>2019-11-16T09:16:08Z</time>
      </trkpt>
      <trkpt lat="59.197838" lon="18.142452">
        <ele>30</ele>
        <time>2019-11-16T09:16:09Z</time>
      </trkpt>
      <trkpt lat="59.197778" lon="18.142408">
        <ele>30</ele>
        <time>2019-11-16T09:16:10Z</time>
      </trkpt>
      <trkpt lat="59.197718" lon="18.142366">
        <ele>30</ele>
        <time>2019-11-16T09:16:11Z</time>
      </trkpt>
      <trkpt lat="59.197659" lon="18.142322">
        <ele>30</ele>
        <time>2019-11-16T09:16:12Z</time>
      </trkpt>
      <trkpt lat="59.197602" lon="18.142278">
        <ele>0</ele>
        <time>2019-11-16T09:16:12Z</time>
      </trkpt>
      <trkpt lat="59.197545" lon="18.142231">
        <ele>30</ele>
        <time>2019-11-16T09:16:13Z</time>
      </trkpt>
      <trkpt lat="59.19749" lon="18.142186">
        <ele>30</ele>
        <time>2019-11-16T09:16:15Z</time>
      </trkpt>
      <trkpt lat="59.197436" lon="18.14214">
        <ele>30</ele>
        <time>2019-11-16T09:16:16Z</time>
      </trkpt>
      <trkpt lat="59.197384" lon="18.142094">
        <ele>30</ele>
        <time>2019-11-16T09:16:17Z</time>
      </trkpt>
      <trkpt lat="59.197335" lon="18.142044">
        <ele>30</ele>
        <time>2019-11-16T09:16:18Z</time>
      </trkpt>
      <trkpt lat="59.19729" lon="18.141989">
        <ele>30</ele>
        <time>2019-11-16T09:16:19Z</time>
      </trkpt>
      <trkpt lat="59.197248" lon="18.141927">
        <ele>31</ele>
        <time>2019-11-16T09:16:20Z</time>
      </trkpt>
      <trkpt lat="59.197208" lon="18.141864">
        <ele>31</ele>
        <time>2019-11-16T09:16:21Z</time>
      </trkpt>
      <trkpt lat="59.19717" lon="18.141802">
        <ele>0</ele>
        <time>2019-11-16T09:16:21Z</time>
      </trkpt>
      <trkpt lat="59.197131" lon="18.141742">
        <ele>31</ele>
        <time>2019-11-16T09:16:22Z</time>
      </trkpt>
      <trkpt lat="59.197095" lon="18.141682">
        <ele>31</ele>
        <time>2019-11-16T09:16:24Z</time>
      </trkpt>
      <trkpt lat="59.19706" lon="18.14162">
        <ele>31</ele>
        <time>2019-11-16T09:16:25Z</time>
      </trkpt>
      <trkpt lat="59.197026" lon="18.14156">
        <ele>31</ele>
        <time>2019-11-16T09:16:26Z</time>
      </trkpt>
      <trkpt lat="59.196992" lon="18.141508">
        <ele>31</ele>
        <time>2019-11-16T09:16:27Z</time>
      </trkpt>
      <trkpt lat="59.19696" lon="18.141462">
        <ele>31</ele>
        <time>2019-11-16T09:16:28Z</time>
      </trkpt>
      <trkpt lat="59.196931" lon="18.141422">
        <ele>32</ele>
        <time>2019-11-16T09:16:29Z</time>
      </trkpt>
      <trkpt lat="59.196906" lon="18.141384">
        <ele>32</ele>
        <time>2019-11-16T09:16:30Z</time>
      </trkpt>
      <trkpt lat="59.196882" lon="18.14134">
        <ele>32</ele>
        <time>2019-11-16T09:16:31Z</time>
      </trkpt>
      <trkpt lat="59.196857" lon="18.141296">
        <ele>0</ele>
        <time>2019-11-16T09:16:31Z</time>
      </trkpt>
      <trkpt lat="59.196832" lon="18.141252">
        <ele>32</ele>
        <time>2019-11-16T09:16:32Z</time>
      </trkpt>
      <trkpt lat="59.196804" lon="18.141216">
        <ele>0</ele>
        <time>2019-11-16T09:16:33Z</time>
      </trkpt>
      <trkpt lat="59.196775" lon="18.141184">
        <ele>32</ele>
        <time>2019-11-16T09:16:34Z</time>
      </trkpt>
      <trkpt lat="59.196744" lon="18.14115">
        <ele>33</ele>
        <time>2019-11-16T09:16:36Z</time>
      </trkpt>
      <trkpt lat="59.196711" lon="18.141116">
        <ele>33</ele>
        <time>2019-11-16T09:16:37Z</time>
      </trkpt>
      <trkpt lat="59.196679" lon="18.141082">
        <ele>32</ele>
        <time>2019-11-16T09:16:38Z</time>
      </trkpt>
      <trkpt lat="59.196649" lon="18.141052">
        <ele>33</ele>
        <time>2019-11-16T09:16:39Z</time>
      </trkpt>
      <trkpt lat="59.196619" lon="18.14102">
        <ele>33</ele>
        <time>2019-11-16T09:16:40Z</time>
      </trkpt>
      <trkpt lat="59.19659" lon="18.14099">
        <ele>33</ele>
        <time>2019-11-16T09:16:41Z</time>
      </trkpt>
      <trkpt lat="59.196561" lon="18.140964">
        <ele>33</ele>
        <time>2019-11-16T09:16:42Z</time>
      </trkpt>
      <trkpt lat="59.196531" lon="18.14094">
        <ele>33</ele>
        <time>2019-11-16T09:16:43Z</time>
      </trkpt>
      <trkpt lat="59.196501" lon="18.140914">
        <ele>33</ele>
        <time>2019-11-16T09:16:44Z</time>
      </trkpt>
      <trkpt lat="59.196469" lon="18.140892">
        <ele>34</ele>
        <time>2019-11-16T09:16:45Z</time>
      </trkpt>
      <trkpt lat="59.196436" lon="18.140872">
        <ele>34</ele>
        <time>2019-11-16T09:16:46Z</time>
      </trkpt>
      <trkpt lat="59.196403" lon="18.140853">
        <ele>34</ele>
        <time>2019-11-16T09:16:47Z</time>
      </trkpt>
      <trkpt lat="59.19637" lon="18.140838">
        <ele>34</ele>
        <time>2019-11-16T09:16:48Z</time>
      </trkpt>
      <trkpt lat="59.196334" lon="18.140822">
        <ele>0</ele>
        <time>2019-11-16T09:16:48Z</time>
      </trkpt>
      <trkpt lat="59.196298" lon="18.14081">
        <ele>34</ele>
        <time>2019-11-16T09:16:49Z</time>
      </trkpt>
      <trkpt lat="59.196262" lon="18.1408">
        <ele>0</ele>
        <time>2019-11-16T09:16:50Z</time>
      </trkpt>
      <trkpt lat="59.196227" lon="18.140788">
        <ele>34</ele>
        <time>2019-11-16T09:16:51Z</time>
      </trkpt>
      <trkpt lat="59.196191" lon="18.140778">
        <ele>34</ele>
        <time>2019-11-16T09:16:53Z</time>
      </trkpt>
      <trkpt lat="59.196154" lon="18.140769">
        <ele>34</ele>
        <time>2019-11-16T09:16:54Z</time>
      </trkpt>
      <trkpt lat="59.196115" lon="18.140762">
        <ele>34</ele>
        <time>2019-11-16T09:16:55Z</time>
      </trkpt>
      <trkpt lat="59.196074" lon="18.140752">
        <ele>34</ele>
        <time>2019-11-16T09:16:56Z</time>
      </trkpt>
      <trkpt lat="59.196035" lon="18.14074">
        <ele>34</ele>
        <time>2019-11-16T09:16:57Z</time>
      </trkpt>
      <trkpt lat="59.195995" lon="18.140729">
        <ele>34</ele>
        <time>2019-11-16T09:16:58Z</time>
      </trkpt>
      <trkpt lat="59.195954" lon="18.14072">
        <ele>34</ele>
        <time>2019-11-16T09:16:59Z</time>
      </trkpt>
      <trkpt lat="59.195914" lon="18.140712">
        <ele>34</ele>
        <time>2019-11-16T09:17:00Z</time>
      </trkpt>
      <trkpt lat="59.195873" lon="18.140702">
        <ele>34</ele>
        <time>2019-11-16T09:17:00Z</time>
      </trkpt>
      <trkpt lat="59.195832" lon="18.140693">
        <ele>34</ele>
        <time>2019-11-16T09:17:01Z</time>
      </trkpt>
      <trkpt lat="59.195792" lon="18.140685">
        <ele>34</ele>
        <time>2019-11-16T09:17:03Z</time>
      </trkpt>
      <trkpt lat="59.195751" lon="18.14068">
        <ele>34</ele>
        <time>2019-11-16T09:17:04Z</time>
      </trkpt>
      <trkpt lat="59.195711" lon="18.140675">
        <ele>34</ele>
        <time>2019-11-16T09:17:05Z</time>
      </trkpt>
      <trkpt lat="59.195672" lon="18.14067">
        <ele>34</ele>
        <time>2019-11-16T09:17:06Z</time>
      </trkpt>
      <trkpt lat="59.195633" lon="18.140664">
        <ele>34</ele>
        <time>2019-11-16T09:17:07Z</time>
      </trkpt>
      <trkpt lat="59.195595" lon="18.140657">
        <ele>35</ele>
        <time>2019-11-16T09:17:08Z</time>
      </trkpt>
      <trkpt lat="59.195557" lon="18.14065">
        <ele>35</ele>
        <time>2019-11-16T09:17:09Z</time>
      </trkpt>
      <trkpt lat="59.19552" lon="18.140645">
        <ele>0</ele>
        <time>2019-11-16T09:17:09Z</time>
      </trkpt>
      <trkpt lat="59.195483" lon="18.140642">
        <ele>35</ele>
        <time>2019-11-16T09:17:10Z</time>
      </trkpt>
      <trkpt lat="59.195447" lon="18.140636">
        <ele>35</ele>
        <time>2019-11-16T09:17:12Z</time>
      </trkpt>
      <trkpt lat="59.195412" lon="18.140633">
        <ele>35</ele>
        <time>2019-11-16T09:17:13Z</time>
      </trkpt>
      <trkpt lat="59.195376" lon="18.140631">
        <ele>0</ele>
        <time>2019-11-16T09:17:13Z</time>
      </trkpt>
      <trkpt lat="59.19534" lon="18.14063">
        <ele>35</ele>
        <time>2019-11-16T09:17:14Z</time>
      </trkpt>
      <trkpt lat="59.195306" lon="18.140632">
        <ele>36</ele>
        <time>2019-11-16T09:17:16Z</time>
      </trkpt>
      <trkpt lat="59.195271" lon="18.140636">
        <ele>36</ele>
        <time>2019-11-16T09:17:17Z</time>
      </trkpt>
      <trkpt lat="59.195236" lon="18.140643">
        <ele>36</ele>
        <time>2019-11-16T09:17:18Z</time>
      </trkpt>
      <trkpt lat="59.195202" lon="18.140653">
        <ele>36</ele>
        <time>2019-11-16T09:17:19Z</time>
      </trkpt>
      <trkpt lat="59.19517" lon="18.140664">
        <ele>36</ele>
        <time>2019-11-16T09:17:20Z</time>
      </trkpt>
      <trkpt lat="59.195137" lon="18.140675">
        <ele>36</ele>
        <time>2019-11-16T09:17:21Z</time>
      </trkpt>
      <trkpt lat="59.195106" lon="18.140687">
        <ele>36</ele>
        <time>2019-11-16T09:17:22Z</time>
      </trkpt>
      <trkpt lat="59.195075" lon="18.140702">
        <ele>37</ele>
        <time>2019-11-16T09:17:23Z</time>
      </trkpt>
      <trkpt lat="59.195045" lon="18.140719">
        <ele>37</ele>
        <time>2019-11-16T09:17:24Z</time>
      </trkpt>
      <trkpt lat="59.195017" lon="18.140738">
        <ele>37</ele>
        <time>2019-11-16T09:17:25Z</time>
      </trkpt>
      <trkpt lat="59.194988" lon="18.140758">
        <ele>37</ele>
        <time>2019-11-16T09:17:26Z</time>
      </trkpt>
      <trkpt lat="59.19496" lon="18.140779">
        <ele>37</ele>
        <time>2019-11-16T09:17:27Z</time>
      </trkpt>
      <trkpt lat="59.194934" lon="18.140801">
        <ele>37</ele>
        <time>2019-11-16T09:17:28Z</time>
      </trkpt>
      <trkpt lat="59.194906" lon="18.140825">
        <ele>0</ele>
        <time>2019-11-16T09:17:28Z</time>
      </trkpt>
      <trkpt lat="59.194878" lon="18.14085">
        <ele>37</ele>
        <time>2019-11-16T09:17:29Z</time>
      </trkpt>
      <trkpt lat="59.194852" lon="18.140873">
        <ele>37</ele>
        <time>2019-11-16T09:17:30Z</time>
      </trkpt>
      <trkpt lat="59.194826" lon="18.140894">
        <ele>38</ele>
        <time>2019-11-16T09:17:32Z</time>
      </trkpt>
      <trkpt lat="59.1948" lon="18.140915">
        <ele>38</ele>
        <time>2019-11-16T09:17:33Z</time>
      </trkpt>
      <trkpt lat="59.194773" lon="18.140938">
        <ele>38</ele>
        <time>2019-11-16T09:17:34Z</time>
      </trkpt>
      <trkpt lat="59.194746" lon="18.140963">
        <ele>38</ele>
        <time>2019-11-16T09:17:35Z</time>
      </trkpt>
      <trkpt lat="59.19472" lon="18.140989">
        <ele>39</ele>
        <time>2019-11-16T09:17:36Z</time>
      </trkpt>
      <trkpt lat="59.194694" lon="18.141015">
        <ele>39</ele>
        <time>2019-11-16T09:17:37Z</time>
      </trkpt>
      <trkpt lat="59.194669" lon="18.14104">
        <ele>39</ele>
        <time>2019-11-16T09:17:38Z</time>
      </trkpt>
      <trkpt lat="59.194643" lon="18.141065">
        <ele>40</ele>
        <time>2019-11-16T09:17:39Z</time>
      </trkpt>
      <trkpt lat="59.194617" lon="18.14109">
        <ele>40</ele>
        <time>2019-11-16T09:17:40Z</time>
      </trkpt>
      <trkpt lat="59.19459" lon="18.141117">
        <ele>40</ele>
        <time>2019-11-16T09:17:41Z</time>
      </trkpt>
      <trkpt lat="59.194564" lon="18.141143">
        <ele>40</ele>
        <time>2019-11-16T09:17:42Z</time>
      </trkpt>
      <trkpt lat="59.194539" lon="18.141169">
        <ele>41</ele>
        <time>2019-11-16T09:17:43Z</time>
      </trkpt>
      <trkpt lat="59.194511" lon="18.141198">
        <ele>41</ele>
        <time>2019-11-16T09:17:44Z</time>
      </trkpt>
      <trkpt lat="59.194486" lon="18.141224">
        <ele>41</ele>
        <time>2019-11-16T09:17:45Z</time>
      </trkpt>
      <trkpt lat="59.194464" lon="18.141246">
        <ele>41</ele>
        <time>2019-11-16T09:17:46Z</time>
      </trkpt>
      <trkpt lat="59.19444" lon="18.14127">
        <ele>0</ele>
        <time>2019-11-16T09:17:46Z</time>
      </trkpt>
      <trkpt lat="59.194414" lon="18.141295">
        <ele>42</ele>
        <time>2019-11-16T09:17:47Z</time>
      </trkpt>
      <trkpt lat="59.194388" lon="18.141321">
        <ele>42</ele>
        <time>2019-11-16T09:17:48Z</time>
      </trkpt>
      <trkpt lat="59.194361" lon="18.141349">
        <ele>42</ele>
        <time>2019-11-16T09:17:50Z</time>
      </trkpt>
      <trkpt lat="59.194334" lon="18.141372">
        <ele>42</ele>
        <time>2019-11-16T09:17:51Z</time>
      </trkpt>
      <trkpt lat="59.194305" lon="18.141396">
        <ele>43</ele>
        <time>2019-11-16T09:17:52Z</time>
      </trkpt>
      <trkpt lat="59.194275" lon="18.141422">
        <ele>43</ele>
        <time>2019-11-16T09:17:53Z</time>
      </trkpt>
      <trkpt lat="59.194246" lon="18.141448">
        <ele>43</ele>
        <time>2019-11-16T09:17:54Z</time>
      </trkpt>
      <trkpt lat="59.194216" lon="18.141475">
        <ele>43</ele>
        <time>2019-11-16T09:17:55Z</time>
      </trkpt>
      <trkpt lat="59.194188" lon="18.141503">
        <ele>43</ele>
        <time>2019-11-16T09:17:56Z</time>
      </trkpt>
      <trkpt lat="59.194159" lon="18.141533">
        <ele>43</ele>
        <time>2019-11-16T09:17:57Z</time>
      </trkpt>
      <trkpt lat="59.194129" lon="18.141559">
        <ele>43</ele>
        <time>2019-11-16T09:17:58Z</time>
      </trkpt>
      <trkpt lat="59.1941" lon="18.141587">
        <ele>43</ele>
        <time>2019-11-16T09:17:59Z</time>
      </trkpt>
      <trkpt lat="59.194071" lon="18.141616">
        <ele>43</ele>
        <time>2019-11-16T09:18:00Z</time>
      </trkpt>
      <trkpt lat="59.194042" lon="18.141642">
        <ele>43</ele>
        <time>2019-11-16T09:18:01Z</time>
      </trkpt>
      <trkpt lat="59.194011" lon="18.141669">
        <ele>43</ele>
        <time>2019-11-16T09:18:02Z</time>
      </trkpt>
      <trkpt lat="59.19398" lon="18.141697">
        <ele>0</ele>
        <time>2019-11-16T09:18:02Z</time>
      </trkpt>
      <trkpt lat="59.193951" lon="18.141725">
        <ele>43</ele>
        <time>2019-11-16T09:18:03Z</time>
      </trkpt>
      <trkpt lat="59.193921" lon="18.141754">
        <ele>43</ele>
        <time>2019-11-16T09:18:05Z</time>
      </trkpt>
      <trkpt lat="59.193892" lon="18.141781">
        <ele>43</ele>
        <time>2019-11-16T09:18:06Z</time>
      </trkpt>
      <trkpt lat="59.193863" lon="18.141804">
        <ele>0</ele>
        <time>2019-11-16T09:18:06Z</time>
      </trkpt>
      <trkpt lat="59.193832" lon="18.141828">
        <ele>43</ele>
        <time>2019-11-16T09:18:07Z</time>
      </trkpt>
      <trkpt lat="59.193803" lon="18.141853">
        <ele>44</ele>
        <time>2019-11-16T09:18:09Z</time>
      </trkpt>
      <trkpt lat="59.193775" lon="18.141879">
        <ele>44</ele>
        <time>2019-11-16T09:18:10Z</time>
      </trkpt>
      <trkpt lat="59.193747" lon="18.141904">
        <ele>44</ele>
        <time>2019-11-16T09:18:11Z</time>
      </trkpt>
      <trkpt lat="59.193718" lon="18.141931">
        <ele>44</ele>
        <time>2019-11-16T09:18:12Z</time>
      </trkpt>
      <trkpt lat="59.193689" lon="18.141962">
        <ele>44</ele>
        <time>2019-11-16T09:18:13Z</time>
      </trkpt>
      <trkpt lat="59.193662" lon="18.141996">
        <ele>44</ele>
        <time>2019-11-16T09:18:14Z</time>
      </trkpt>
      <trkpt lat="59.193634" lon="18.142029">
        <ele>44</ele>
        <time>2019-11-16T09:18:15Z</time>
      </trkpt>
      <trkpt lat="59.193606" lon="18.142061">
        <ele>44</ele>
        <time>2019-11-16T09:18:16Z</time>
      </trkpt>
      <trkpt lat="59.193576" lon="18.142091">
        <ele>44</ele>
        <time>2019-11-16T09:18:17Z</time>
      </trkpt>
      <trkpt lat="59.193547" lon="18.142119">
        <ele>0</ele>
        <time>2019-11-16T09:18:17Z</time>
      </trkpt>
      <trkpt lat="59.193515" lon="18.142138">
        <ele>45</ele>
        <time>2019-11-16T09:18:18Z</time>
      </trkpt>
      <trkpt lat="59.193482" lon="18.142154">
        <ele>45</ele>
        <time>2019-11-16T09:18:20Z</time>
      </trkpt>
      <trkpt lat="59.193452" lon="18.14218">
        <ele>45</ele>
        <time>2019-11-16T09:18:21Z</time>
      </trkpt>
      <trkpt lat="59.193419" lon="18.142212">
        <ele>45</ele>
        <time>2019-11-16T09:18:22Z</time>
      </trkpt>
      <trkpt lat="59.193386" lon="18.142245">
        <ele>45</ele>
        <time>2019-11-16T09:18:23Z</time>
      </trkpt>
      <trkpt lat="59.19335" lon="18.142277">
        <ele>45</ele>
        <time>2019-11-16T09:18:24Z</time>
      </trkpt>
      <trkpt lat="59.19331" lon="18.142304">
        <ele>45</ele>
        <time>2019-11-16T09:18:25Z</time>
      </trkpt>
      <trkpt lat="59.193269" lon="18.142331">
        <ele>0</ele>
        <time>2019-11-16T09:18:25Z</time>
      </trkpt>
      <trkpt lat="59.193223" lon="18.142367">
        <ele>45</ele>
        <time>2019-11-16T09:18:26Z</time>
      </trkpt>
      <trkpt lat="59.193181" lon="18.142402">
        <ele>45</ele>
        <time>2019-11-16T09:18:28Z</time>
      </trkpt>
      <trkpt lat="59.193139" lon="18.142437">
        <ele>45</ele>
        <time>2019-11-16T09:18:29Z</time>
      </trkpt>
      <trkpt lat="59.193097" lon="18.142478">
        <ele>46</ele>
        <time>2019-11-16T09:18:30Z</time>
      </trkpt>
      <trkpt lat="59.193052" lon="18.142522">
        <ele>0</ele>
        <time>2019-11-16T09:18:30Z</time>
      </trkpt>
      <trkpt lat="59.193007" lon="18.142567">
        <ele>46</ele>
        <time>2019-11-16T09:18:31Z</time>
      </trkpt>
      <trkpt lat="59.192963" lon="18.142613">
        <ele>46</ele>
        <time>2019-11-16T09:18:33Z</time>
      </trkpt>
      <trkpt lat="59.192915" lon="18.142658">
        <ele>46</ele>
        <time>2019-11-16T09:18:34Z</time>
      </trkpt>
      <trkpt lat="59.192864" lon="18.142703">
        <ele>46</ele>
        <time>2019-11-16T09:18:35Z</time>
      </trkpt>
      <trkpt lat="59.192813" lon="18.142749">
        <ele>46</ele>
        <time>2019-11-16T09:18:36Z</time>
      </trkpt>
      <trkpt lat="59.192762" lon="18.142801">
        <ele>46</ele>
        <time>2019-11-16T09:18:37Z</time>
      </trkpt>
      <trkpt lat="59.192711" lon="18.142857">
        <ele>46</ele>
        <time>2019-11-16T09:18:38Z</time>
      </trkpt>
      <trkpt lat="59.192661" lon="18.142909">
        <ele>46</ele>
        <time>2019-11-16T09:18:39Z</time>
      </trkpt>
      <trkpt lat="59.192609" lon="18.142961">
        <ele>0</ele>
        <time>2019-11-16T09:18:39Z</time>
      </trkpt>
      <trkpt lat="59.192556" lon="18.143016">
        <ele>47</ele>
        <time>2019-11-16T09:18:40Z</time>
      </trkpt>
      <trkpt lat="59.192503" lon="18.143072">
        <ele>47</ele>
        <time>2019-11-16T09:18:42Z</time>
      </trkpt>
      <trkpt lat="59.192449" lon="18.143129">
        <ele>47</ele>
        <time>2019-11-16T09:18:43Z</time>
      </trkpt>
      <trkpt lat="59.192393" lon="18.143189">
        <ele>47</ele>
        <time>2019-11-16T09:18:44Z</time>
      </trkpt>
      <trkpt lat="59.192337" lon="18.143252">
        <ele>0</ele>
        <time>2019-11-16T09:18:44Z</time>
      </trkpt>
      <trkpt lat="59.192281" lon="18.143312">
        <ele>47</ele>
        <time>2019-11-16T09:18:45Z</time>
      </trkpt>
      <trkpt lat="59.192221" lon="18.143378">
        <ele>47</ele>
        <time>2019-11-16T09:18:47Z</time>
      </trkpt>
      <trkpt lat="59.192158" lon="18.143447">
        <ele>0</ele>
        <time>2019-11-16T09:18:47Z</time>
      </trkpt>
      <trkpt lat="59.192093" lon="18.143518">
        <ele>47</ele>
        <time>2019-11-16T09:18:48Z</time>
      </trkpt>
      <trkpt lat="59.19203" lon="18.143583">
        <ele>46</ele>
        <time>2019-11-16T09:18:50Z</time>
      </trkpt>
      <trkpt lat="59.191965" lon="18.143645">
        <ele>46</ele>
        <time>2019-11-16T09:18:51Z</time>
      </trkpt>
      <trkpt lat="59.191898" lon="18.143704">
        <ele>46</ele>
        <time>2019-11-16T09:18:52Z</time>
      </trkpt>
      <trkpt lat="59.19183" lon="18.143759">
        <ele>46</ele>
        <time>2019-11-16T09:18:53Z</time>
      </trkpt>
      <trkpt lat="59.191761" lon="18.143813">
        <ele>45</ele>
        <time>2019-11-16T09:18:54Z</time>
      </trkpt>
      <trkpt lat="59.191691" lon="18.143865">
        <ele>0</ele>
        <time>2019-11-16T09:18:54Z</time>
      </trkpt>
      <trkpt lat="59.191619" lon="18.143913">
        <ele>45</ele>
        <time>2019-11-16T09:18:55Z</time>
      </trkpt>
      <trkpt lat="59.191544" lon="18.143957">
        <ele>45</ele>
        <time>2019-11-16T09:18:57Z</time>
      </trkpt>
      <trkpt lat="59.191466" lon="18.143995">
        <ele>44</ele>
        <time>2019-11-16T09:18:58Z</time>
      </trkpt>
      <trkpt lat="59.191386" lon="18.144031">
        <ele>44</ele>
        <time>2019-11-16T09:18:59Z</time>
      </trkpt>
      <trkpt lat="59.191304" lon="18.144066">
        <ele>44</ele>
        <time>2019-11-16T09:19:00Z</time>
      </trkpt>
      <trkpt lat="59.191221" lon="18.144098">
        <ele>43</ele>
        <time>2019-11-16T09:19:00Z</time>
      </trkpt>
      <trkpt lat="59.191137" lon="18.144124">
        <ele>43</ele>
        <time>2019-11-16T09:19:01Z</time>
      </trkpt>
      <trkpt lat="59.19105" lon="18.144142">
        <ele>43</ele>
        <time>2019-11-16T09:19:03Z</time>
      </trkpt>
      <trkpt lat="59.190962" lon="18.144157">
        <ele>0</ele>
        <time>2019-11-16T09:19:03Z</time>
      </trkpt>
      <trkpt lat="59.190873" lon="18.144172">
        <ele>43</ele>
        <time>2019-11-16T09:19:04Z</time>
      </trkpt>
      <trkpt lat="59.190782" lon="18.144191">
        <ele>42</ele>
        <time>2019-11-16T09:19:06Z</time>
      </trkpt>
      <trkpt lat="59.190691" lon="18.144212">
        <ele>0</ele>
        <time>2019-11-16T09:19:06Z</time>
      </trkpt>
      <trkpt lat="59.190599" lon="18.144232">
        <ele>42</ele>
        <time>2019-11-16T09:19:07Z</time>
      </trkpt>
      <trkpt lat="59.19051" lon="18.144253">
        <ele>41</ele>
        <time>2019-11-16T09:19:09Z</time>
      </trkpt>
      <trkpt lat="59.190425" lon="18.144278">
        <ele>41</ele>
        <time>2019-11-16T09:19:10Z</time>
      </trkpt>
      <trkpt lat="59.190345" lon="18.14431">
        <ele>41</ele>
        <time>2019-11-16T09:19:11Z</time>
      </trkpt>
      <trkpt lat="59.190197" lon="18.144361">
        <ele>0</ele>
        <time>2019-11-16T09:19:12Z</time>
      </trkpt>
      <trkpt lat="59.190084" lon="18.14439">
        <ele>41</ele>
        <time>2019-11-16T09:19:15Z</time>
      </trkpt>
      <trkpt lat="59.189955" lon="18.144442">
        <ele>41</ele>
        <time>2019-11-16T09:19:17Z</time>
      </trkpt>
      <trkpt lat="59.189792" lon="18.144493">
        <ele>41</ele>
        <time>2019-11-16T09:19:19Z</time>
      </trkpt>
      <trkpt lat="59.189636" lon="18.144538">
        <ele>0</ele>
        <time>2019-11-16T09:19:20Z</time>
      </trkpt>
      <trkpt lat="59.18957" lon="18.144575">
        <ele>41</ele>
        <time>2019-11-16T09:19:21Z</time>
      </trkpt>
      <trkpt lat="59.189513" lon="18.144618">
        <ele>0</ele>
        <time>2019-11-16T09:19:22Z</time>
      </trkpt>
      <trkpt lat="59.18946" lon="18.144657">
        <ele>40</ele>
        <time>2019-11-16T09:19:23Z</time>
      </trkpt>
      <trkpt lat="59.189408" lon="18.1447">
        <ele>39</ele>
        <time>2019-11-16T09:19:25Z</time>
      </trkpt>
      <trkpt lat="59.18936" lon="18.144741">
        <ele>38</ele>
        <time>2019-11-16T09:19:26Z</time>
      </trkpt>
      <trkpt lat="59.189311" lon="18.144788">
        <ele>0</ele>
        <time>2019-11-16T09:19:26Z</time>
      </trkpt>
      <trkpt lat="59.189265" lon="18.144837">
        <ele>38</ele>
        <time>2019-11-16T09:19:27Z</time>
      </trkpt>
      <trkpt lat="59.189218" lon="18.144891">
        <ele>38</ele>
        <time>2019-11-16T09:19:29Z</time>
      </trkpt>
      <trkpt lat="59.189175" lon="18.144944">
        <ele>38</ele>
        <time>2019-11-16T09:19:30Z</time>
      </trkpt>
      <trkpt lat="59.189135" lon="18.145002">
        <ele>37</ele>
        <time>2019-11-16T09:19:31Z</time>
      </trkpt>
      <trkpt lat="59.189093" lon="18.145066">
        <ele>37</ele>
        <time>2019-11-16T09:19:32Z</time>
      </trkpt>
      <trkpt lat="59.189051" lon="18.145129">
        <ele>36</ele>
        <time>2019-11-16T09:19:33Z</time>
      </trkpt>
      <trkpt lat="59.189009" lon="18.145191">
        <ele>36</ele>
        <time>2019-11-16T09:19:34Z</time>
      </trkpt>
      <trkpt lat="59.188969" lon="18.145251">
        <ele>36</ele>
        <time>2019-11-16T09:19:35Z</time>
      </trkpt>
      <trkpt lat="59.188926" lon="18.14531">
        <ele>36</ele>
        <time>2019-11-16T09:19:36Z</time>
      </trkpt>
      <trkpt lat="59.188881" lon="18.145367">
        <ele>0</ele>
        <time>2019-11-16T09:19:36Z</time>
      </trkpt>
      <trkpt lat="59.188833" lon="18.145425">
        <ele>36</ele>
        <time>2019-11-16T09:19:37Z</time>
      </trkpt>
      <trkpt lat="59.188786" lon="18.145484">
        <ele>0</ele>
        <time>2019-11-16T09:19:38Z</time>
      </trkpt>
      <trkpt lat="59.188739" lon="18.145543">
        <ele>35</ele>
        <time>2019-11-16T09:19:39Z</time>
      </trkpt>
      <trkpt lat="59.188689" lon="18.145599">
        <ele>35</ele>
        <time>2019-11-16T09:19:41Z</time>
      </trkpt>
      <trkpt lat="59.188638" lon="18.145652">
        <ele>0</ele>
        <time>2019-11-16T09:19:41Z</time>
      </trkpt>
      <trkpt lat="59.188583" lon="18.145704">
        <ele>35</ele>
        <time>2019-11-16T09:19:42Z</time>
      </trkpt>
      <trkpt lat="59.188526" lon="18.145753">
        <ele>35</ele>
        <time>2019-11-16T09:19:44Z</time>
      </trkpt>
      <trkpt lat="59.188467" lon="18.145798">
        <ele>0</ele>
        <time>2019-11-16T09:19:44Z</time>
      </trkpt>
      <trkpt lat="59.188408" lon="18.145842">
        <ele>34</ele>
        <time>2019-11-16T09:19:45Z</time>
      </trkpt>
      <trkpt lat="59.188346" lon="18.145888">
        <ele>34</ele>
        <time>2019-11-16T09:19:47Z</time>
      </trkpt>
      <trkpt lat="59.188284" lon="18.145934">
        <ele>34</ele>
        <time>2019-11-16T09:19:48Z</time>
      </trkpt>
      <trkpt lat="59.188222" lon="18.145979">
        <ele>34</ele>
        <time>2019-11-16T09:19:49Z</time>
      </trkpt>
      <trkpt lat="59.188158" lon="18.146018">
        <ele>34</ele>
        <time>2019-11-16T09:19:50Z</time>
      </trkpt>
      <trkpt lat="59.188095" lon="18.146036">
        <ele>34</ele>
        <time>2019-11-16T09:19:51Z</time>
      </trkpt>
      <trkpt lat="59.188029" lon="18.146075">
        <ele>33</ele>
        <time>2019-11-16T09:19:52Z</time>
      </trkpt>
      <trkpt lat="59.187961" lon="18.146125">
        <ele>0</ele>
        <time>2019-11-16T09:19:52Z</time>
      </trkpt>
      <trkpt lat="59.187895" lon="18.14618">
        <ele>33</ele>
        <time>2019-11-16T09:19:53Z</time>
      </trkpt>
      <trkpt lat="59.187828" lon="18.146234">
        <ele>33</ele>
        <time>2019-11-16T09:19:55Z</time>
      </trkpt>
      <trkpt lat="59.187763" lon="18.146281">
        <ele>33</ele>
        <time>2019-11-16T09:19:56Z</time>
      </trkpt>
      <trkpt lat="59.187697" lon="18.146324">
        <ele>32</ele>
        <time>2019-11-16T09:19:57Z</time>
      </trkpt>
      <trkpt lat="59.187632" lon="18.146365">
        <ele>32</ele>
        <time>2019-11-16T09:19:58Z</time>
      </trkpt>
      <trkpt lat="59.187566" lon="18.146403">
        <ele>32</ele>
        <time>2019-11-16T09:19:59Z</time>
      </trkpt>
      <trkpt lat="59.187498" lon="18.146437">
        <ele>0</ele>
        <time>2019-11-16T09:19:59Z</time>
      </trkpt>
      <trkpt lat="59.187431" lon="18.146466">
        <ele>32</ele>
        <time>2019-11-16T09:20:00Z</time>
      </trkpt>
      <trkpt lat="59.187363" lon="18.146489">
        <ele>32</ele>
        <time>2019-11-16T09:20:01Z</time>
      </trkpt>
      <trkpt lat="59.187295" lon="18.146508">
        <ele>32</ele>
        <time>2019-11-16T09:20:03Z</time>
      </trkpt>
      <trkpt lat="59.187229" lon="18.146524">
        <ele>32</ele>
        <time>2019-11-16T09:20:04Z</time>
      </trkpt>
      <trkpt lat="59.187165" lon="18.14654">
        <ele>32</ele>
        <time>2019-11-16T09:20:05Z</time>
      </trkpt>
      <trkpt lat="59.187101" lon="18.146556">
        <ele>32</ele>
        <time>2019-11-16T09:20:06Z</time>
      </trkpt>
      <trkpt lat="59.187037" lon="18.146575">
        <ele>32</ele>
        <time>2019-11-16T09:20:07Z</time>
      </trkpt>
      <trkpt lat="59.186972" lon="18.146596">
        <ele>0</ele>
        <time>2019-11-16T09:20:07Z</time>
      </trkpt>
      <trkpt lat="59.186907" lon="18.146618">
        <ele>32</ele>
        <time>2019-11-16T09:20:08Z</time>
      </trkpt>
      <trkpt lat="59.186842" lon="18.146641">
        <ele>32</ele>
        <time>2019-11-16T09:20:10Z</time>
      </trkpt>
      <trkpt lat="59.186778" lon="18.146664">
        <ele>32</ele>
        <time>2019-11-16T09:20:11Z</time>
      </trkpt>
      <trkpt lat="59.186714" lon="18.146686">
        <ele>32</ele>
        <time>2019-11-16T09:20:12Z</time>
      </trkpt>
      <trkpt lat="59.186649" lon="18.146705">
        <ele>32</ele>
        <time>2019-11-16T09:20:13Z</time>
      </trkpt>
      <trkpt lat="59.186581" lon="18.146724">
        <ele>31</ele>
        <time>2019-11-16T09:20:14Z</time>
      </trkpt>
      <trkpt lat="59.186515" lon="18.14674">
        <ele>0</ele>
        <time>2019-11-16T09:20:14Z</time>
      </trkpt>
      <trkpt lat="59.186448" lon="18.146753">
        <ele>30</ele>
        <time>2019-11-16T09:20:15Z</time>
      </trkpt>
      <trkpt lat="59.186384" lon="18.146765">
        <ele>30</ele>
        <time>2019-11-16T09:20:17Z</time>
      </trkpt>
      <trkpt lat="59.186322" lon="18.146775">
        <ele>30</ele>
        <time>2019-11-16T09:20:18Z</time>
      </trkpt>
      <trkpt lat="59.18626" lon="18.146787">
        <ele>30</ele>
        <time>2019-11-16T09:20:19Z</time>
      </trkpt>
      <trkpt lat="59.186197" lon="18.1468">
        <ele>0</ele>
        <time>2019-11-16T09:20:19Z</time>
      </trkpt>
      <trkpt lat="59.186133" lon="18.146815">
        <ele>30</ele>
        <time>2019-11-16T09:20:20Z</time>
      </trkpt>
      <trkpt lat="59.186072" lon="18.146829">
        <ele>30</ele>
        <time>2019-11-16T09:20:22Z</time>
      </trkpt>
      <trkpt lat="59.186011" lon="18.146836">
        <ele>0</ele>
        <time>2019-11-16T09:20:22Z</time>
      </trkpt>
      <trkpt lat="59.18595" lon="18.146841">
        <ele>30</ele>
        <time>2019-11-16T09:20:23Z</time>
      </trkpt>
      <trkpt lat="59.18589" lon="18.146853">
        <ele>30</ele>
        <time>2019-11-16T09:20:25Z</time>
      </trkpt>
      <trkpt lat="59.185831" lon="18.146868">
        <ele>30</ele>
        <time>2019-11-16T09:20:26Z</time>
      </trkpt>
      <trkpt lat="59.185773" lon="18.146884">
        <ele>30</ele>
        <time>2019-11-16T09:20:27Z</time>
      </trkpt>
      <trkpt lat="59.185713" lon="18.146899">
        <ele>30</ele>
        <time>2019-11-16T09:20:28Z</time>
      </trkpt>
      <trkpt lat="59.185654" lon="18.146914">
        <ele>30</ele>
        <time>2019-11-16T09:20:29Z</time>
      </trkpt>
      <trkpt lat="59.185594" lon="18.146927">
        <ele>30</ele>
        <time>2019-11-16T09:20:30Z</time>
      </trkpt>
      <trkpt lat="59.185537" lon="18.14694">
        <ele>0</ele>
        <time>2019-11-16T09:20:30Z</time>
      </trkpt>
      <trkpt lat="59.185483" lon="18.146953">
        <ele>30</ele>
        <time>2019-11-16T09:20:31Z</time>
      </trkpt>
      <trkpt lat="59.185434" lon="18.14696">
        <ele>30</ele>
        <time>2019-11-16T09:20:33Z</time>
      </trkpt>
      <trkpt lat="59.185388" lon="18.146947">
        <ele>30</ele>
        <time>2019-11-16T09:20:34Z</time>
      </trkpt>
      <trkpt lat="59.18535" lon="18.146903">
        <ele>30</ele>
        <time>2019-11-16T09:20:35Z</time>
      </trkpt>
      <trkpt lat="59.185322" lon="18.146843">
        <ele>30</ele>
        <time>2019-11-16T09:20:36Z</time>
      </trkpt>
      <trkpt lat="59.185295" lon="18.146792">
        <ele>30</ele>
        <time>2019-11-16T09:20:37Z</time>
      </trkpt>
      <trkpt lat="59.185263" lon="18.146759">
        <ele>30</ele>
        <time>2019-11-16T09:20:38Z</time>
      </trkpt>
      <trkpt lat="59.185229" lon="18.146747">
        <ele>0</ele>
        <time>2019-11-16T09:20:38Z</time>
      </trkpt>
      <trkpt lat="59.185194" lon="18.146749">
        <ele>30</ele>
        <time>2019-11-16T09:20:39Z</time>
      </trkpt>
      <trkpt lat="59.185159" lon="18.146762">
        <ele>30</ele>
        <time>2019-11-16T09:20:41Z</time>
      </trkpt>
      <trkpt lat="59.185125" lon="18.146782">
        <ele>30</ele>
        <time>2019-11-16T09:20:42Z</time>
      </trkpt>
      <trkpt lat="59.185091" lon="18.146806">
        <ele>30</ele>
        <time>2019-11-16T09:20:43Z</time>
      </trkpt>
      <trkpt lat="59.185057" lon="18.146835">
        <ele>0</ele>
        <time>2019-11-16T09:20:43Z</time>
      </trkpt>
      <trkpt lat="59.185024" lon="18.146868">
        <ele>30</ele>
        <time>2019-11-16T09:20:44Z</time>
      </trkpt>
      <trkpt lat="59.184989" lon="18.146901">
        <ele>30</ele>
        <time>2019-11-16T09:20:46Z</time>
      </trkpt>
      <trkpt lat="59.184954" lon="18.146931">
        <ele>30</ele>
        <time>2019-11-16T09:20:47Z</time>
      </trkpt>
      <trkpt lat="59.184918" lon="18.146959">
        <ele>30</ele>
        <time>2019-11-16T09:20:48Z</time>
      </trkpt>
      <trkpt lat="59.184881" lon="18.146986">
        <ele>30</ele>
        <time>2019-11-16T09:20:49Z</time>
      </trkpt>
      <trkpt lat="59.184843" lon="18.14701">
        <ele>30</ele>
        <time>2019-11-16T09:20:50Z</time>
      </trkpt>
      <trkpt lat="59.184803" lon="18.14703">
        <ele>30</ele>
        <time>2019-11-16T09:20:51Z</time>
      </trkpt>
      <trkpt lat="59.184764" lon="18.147046">
        <ele>30</ele>
        <time>2019-11-16T09:20:52Z</time>
      </trkpt>
      <trkpt lat="59.184724" lon="18.147059">
        <ele>30</ele>
        <time>2019-11-16T09:20:53Z</time>
      </trkpt>
      <trkpt lat="59.184684" lon="18.147071">
        <ele>30</ele>
        <time>2019-11-16T09:20:54Z</time>
      </trkpt>
      <trkpt lat="59.184644" lon="18.14708">
        <ele>30</ele>
        <time>2019-11-16T09:20:55Z</time>
      </trkpt>
      <trkpt lat="59.184606" lon="18.14709">
        <ele>0</ele>
        <time>2019-11-16T09:20:55Z</time>
      </trkpt>
      <trkpt lat="59.184567" lon="18.1471">
        <ele>30</ele>
        <time>2019-11-16T09:20:56Z</time>
      </trkpt>
      <trkpt lat="59.184528" lon="18.147112">
        <ele>0</ele>
        <time>2019-11-16T09:20:57Z</time>
      </trkpt>
      <trkpt lat="59.184489" lon="18.147124">
        <ele>31</ele>
        <time>2019-11-16T09:20:58Z</time>
      </trkpt>
      <trkpt lat="59.184449" lon="18.147136">
        <ele>31</ele>
        <time>2019-11-16T09:21:00Z</time>
      </trkpt>
      <trkpt lat="59.184409" lon="18.147145">
        <ele>31</ele>
        <time>2019-11-16T09:21:01Z</time>
      </trkpt>
      <trkpt lat="59.18437" lon="18.147154">
        <ele>31</ele>
        <time>2019-11-16T09:21:02Z</time>
      </trkpt>
      <trkpt lat="59.184331" lon="18.147163">
        <ele>31</ele>
        <time>2019-11-16T09:21:03Z</time>
      </trkpt>
      <trkpt lat="59.184294" lon="18.147172">
        <ele>31</ele>
        <time>2019-11-16T09:21:04Z</time>
      </trkpt>
      <trkpt lat="59.184259" lon="18.14718">
        <ele>31</ele>
        <time>2019-11-16T09:21:05Z</time>
      </trkpt>
      <trkpt lat="59.184224" lon="18.147188">
        <ele>31</ele>
        <time>2019-11-16T09:21:06Z</time>
      </trkpt>
      <trkpt lat="59.184192" lon="18.147195">
        <ele>31</ele>
        <time>2019-11-16T09:21:07Z</time>
      </trkpt>
      <trkpt lat="59.184159" lon="18.147202">
        <ele>31</ele>
        <time>2019-11-16T09:21:08Z</time>
      </trkpt>
      <trkpt lat="59.184126" lon="18.147208">
        <ele>31</ele>
        <time>2019-11-16T09:21:09Z</time>
      </trkpt>
      <trkpt lat="59.184094" lon="18.147214">
        <ele>0</ele>
        <time>2019-11-16T09:21:09Z</time>
      </trkpt>
      <trkpt lat="59.184063" lon="18.147218">
        <ele>31</ele>
        <time>2019-11-16T09:21:10Z</time>
      </trkpt>
      <trkpt lat="59.184031" lon="18.147222">
        <ele>32</ele>
        <time>2019-11-16T09:21:12Z</time>
      </trkpt>
      <trkpt lat="59.184" lon="18.147226">
        <ele>32</ele>
        <time>2019-11-16T09:21:13Z</time>
      </trkpt>
      <trkpt lat="59.183969" lon="18.14723">
        <ele>32</ele>
        <time>2019-11-16T09:21:14Z</time>
      </trkpt>
      <trkpt lat="59.183939" lon="18.147239">
        <ele>32</ele>
        <time>2019-11-16T09:21:15Z</time>
      </trkpt>
      <trkpt lat="59.183909" lon="18.147244">
        <ele>32</ele>
        <time>2019-11-16T09:21:16Z</time>
      </trkpt>
      <trkpt lat="59.183877" lon="18.147246">
        <ele>0</ele>
        <time>2019-11-16T09:21:16Z</time>
      </trkpt>
      <trkpt lat="59.183845" lon="18.147248">
        <ele>32</ele>
        <time>2019-11-16T09:21:17Z</time>
      </trkpt>
      <trkpt lat="59.183815" lon="18.147248">
        <ele>33</ele>
        <time>2019-11-16T09:21:19Z</time>
      </trkpt>
      <trkpt lat="59.183784" lon="18.147251">
        <ele>33</ele>
        <time>2019-11-16T09:21:20Z</time>
      </trkpt>
      <trkpt lat="59.183752" lon="18.147254">
        <ele>33</ele>
        <time>2019-11-16T09:21:21Z</time>
      </trkpt>
      <trkpt lat="59.183721" lon="18.147259">
        <ele>33</ele>
        <time>2019-11-16T09:21:22Z</time>
      </trkpt>
      <trkpt lat="59.183689" lon="18.147263">
        <ele>33</ele>
        <time>2019-11-16T09:21:23Z</time>
      </trkpt>
      <trkpt lat="59.183658" lon="18.14727">
        <ele>33</ele>
        <time>2019-11-16T09:21:24Z</time>
      </trkpt>
      <trkpt lat="59.183628" lon="18.147284">
        <ele>33</ele>
        <time>2019-11-16T09:21:25Z</time>
      </trkpt>
      <trkpt lat="59.183598" lon="18.147302">
        <ele>0</ele>
        <time>2019-11-16T09:21:25Z</time>
      </trkpt>
      <trkpt lat="59.183569" lon="18.147321">
        <ele>33</ele>
        <time>2019-11-16T09:21:26Z</time>
      </trkpt>
      <trkpt lat="59.18354" lon="18.147343">
        <ele>33</ele>
        <time>2019-11-16T09:21:28Z</time>
      </trkpt>
      <trkpt lat="59.18351" lon="18.147357">
        <ele>33</ele>
        <time>2019-11-16T09:21:29Z</time>
      </trkpt>
      <trkpt lat="59.18348" lon="18.147365">
        <ele>34</ele>
        <time>2019-11-16T09:21:30Z</time>
      </trkpt>
      <trkpt lat="59.183447" lon="18.147364">
        <ele>34</ele>
        <time>2019-11-16T09:21:31Z</time>
      </trkpt>
      <trkpt lat="59.183413" lon="18.147357">
        <ele>34</ele>
        <time>2019-11-16T09:21:32Z</time>
      </trkpt>
      <trkpt lat="59.183378" lon="18.147344">
        <ele>34</ele>
        <time>2019-11-16T09:21:33Z</time>
      </trkpt>
      <trkpt lat="59.183346" lon="18.147323">
        <ele>34</ele>
        <time>2019-11-16T09:21:34Z</time>
      </trkpt>
      <trkpt lat="59.183315" lon="18.147296">
        <ele>34</ele>
        <time>2019-11-16T09:21:35Z</time>
      </trkpt>
      <trkpt lat="59.183285" lon="18.147267">
        <ele>0</ele>
        <time>2019-11-16T09:21:35Z</time>
      </trkpt>
      <trkpt lat="59.183253" lon="18.147241">
        <ele>34</ele>
        <time>2019-11-16T09:21:36Z</time>
      </trkpt>
      <trkpt lat="59.183221" lon="18.147218">
        <ele>34</ele>
        <time>2019-11-16T09:21:38Z</time>
      </trkpt>
      <trkpt lat="59.183188" lon="18.147201">
        <ele>34</ele>
        <time>2019-11-16T09:21:39Z</time>
      </trkpt>
      <trkpt lat="59.183154" lon="18.147189">
        <ele>34</ele>
        <time>2019-11-16T09:21:40Z</time>
      </trkpt>
      <trkpt lat="59.183119" lon="18.147177">
        <ele>0</ele>
        <time>2019-11-16T09:21:40Z</time>
      </trkpt>
      <trkpt lat="59.183083" lon="18.147161">
        <ele>35</ele>
        <time>2019-11-16T09:21:41Z</time>
      </trkpt>
      <trkpt lat="59.183047" lon="18.147144">
        <ele>35</ele>
        <time>2019-11-16T09:21:43Z</time>
      </trkpt>
      <trkpt lat="59.183013" lon="18.147127">
        <ele>35</ele>
        <time>2019-11-16T09:21:44Z</time>
      </trkpt>
      <trkpt lat="59.182977" lon="18.147111">
        <ele>35</ele>
        <time>2019-11-16T09:21:45Z</time>
      </trkpt>
      <trkpt lat="59.182943" lon="18.147098">
        <ele>36</ele>
        <time>2019-11-16T09:21:46Z</time>
      </trkpt>
      <trkpt lat="59.182909" lon="18.147082">
        <ele>36</ele>
        <time>2019-11-16T09:21:47Z</time>
      </trkpt>
      <trkpt lat="59.182875" lon="18.147062">
        <ele>36</ele>
        <time>2019-11-16T09:21:48Z</time>
      </trkpt>
      <trkpt lat="59.18284" lon="18.147042">
        <ele>36</ele>
        <time>2019-11-16T09:21:49Z</time>
      </trkpt>
      <trkpt lat="59.182804" lon="18.147018">
        <ele>36</ele>
        <time>2019-11-16T09:21:50Z</time>
      </trkpt>
      <trkpt lat="59.182767" lon="18.14699">
        <ele>36</ele>
        <time>2019-11-16T09:21:51Z</time>
      </trkpt>
      <trkpt lat="59.18273" lon="18.14696">
        <ele>36</ele>
        <time>2019-11-16T09:21:52Z</time>
      </trkpt>
      <trkpt lat="59.182692" lon="18.146931">
        <ele>36</ele>
        <time>2019-11-16T09:21:53Z</time>
      </trkpt>
      <trkpt lat="59.182653" lon="18.146902">
        <ele>0</ele>
        <time>2019-11-16T09:21:53Z</time>
      </trkpt>
      <trkpt lat="59.182613" lon="18.146874">
        <ele>37</ele>
        <time>2019-11-16T09:21:54Z</time>
      </trkpt>
      <trkpt lat="59.182573" lon="18.146844">
        <ele>37</ele>
        <time>2019-11-16T09:21:55Z</time>
      </trkpt>
      <trkpt lat="59.182532" lon="18.146812">
        <ele>37</ele>
        <time>2019-11-16T09:21:57Z</time>
      </trkpt>
      <trkpt lat="59.182492" lon="18.146779">
        <ele>37</ele>
        <time>2019-11-16T09:21:58Z</time>
      </trkpt>
      <trkpt lat="59.182455" lon="18.146746">
        <ele>37</ele>
        <time>2019-11-16T09:21:59Z</time>
      </trkpt>
      <trkpt lat="59.182417" lon="18.146714">
        <ele>38</ele>
        <time>2019-11-16T09:22:00Z</time>
      </trkpt>
      <trkpt lat="59.182378" lon="18.146675">
        <ele>38</ele>
        <time>2019-11-16T09:22:01Z</time>
      </trkpt>
      <trkpt lat="59.182339" lon="18.146632">
        <ele>38</ele>
        <time>2019-11-16T09:22:02Z</time>
      </trkpt>
      <trkpt lat="59.1823" lon="18.146585">
        <ele>38</ele>
        <time>2019-11-16T09:22:03Z</time>
      </trkpt>
      <trkpt lat="59.182266" lon="18.146537">
        <ele>39</ele>
        <time>2019-11-16T09:22:04Z</time>
      </trkpt>
      <trkpt lat="59.182231" lon="18.146495">
        <ele>39</ele>
        <time>2019-11-16T09:22:05Z</time>
      </trkpt>
      <trkpt lat="59.182189" lon="18.146454">
        <ele>0</ele>
        <time>2019-11-16T09:22:05Z</time>
      </trkpt>
      <trkpt lat="59.182142" lon="18.146407">
        <ele>39</ele>
        <time>2019-11-16T09:22:06Z</time>
      </trkpt>
      <trkpt lat="59.182096" lon="18.146359">
        <ele>39</ele>
        <time>2019-11-16T09:22:08Z</time>
      </trkpt>
      <trkpt lat="59.182054" lon="18.146311">
        <ele>40</ele>
        <time>2019-11-16T09:22:09Z</time>
      </trkpt>
      <trkpt lat="59.182014" lon="18.146265">
        <ele>40</ele>
        <time>2019-11-16T09:22:10Z</time>
      </trkpt>
      <trkpt lat="59.181974" lon="18.146218">
        <ele>40</ele>
        <time>2019-11-16T09:22:11Z</time>
      </trkpt>
      <trkpt lat="59.181937" lon="18.146173">
        <ele>40</ele>
        <time>2019-11-16T09:22:12Z</time>
      </trkpt>
      <trkpt lat="59.181901" lon="18.146126">
        <ele>40</ele>
        <time>2019-11-16T09:22:13Z</time>
      </trkpt>
      <trkpt lat="59.181865" lon="18.146078">
        <ele>0</ele>
        <time>2019-11-16T09:22:13Z</time>
      </trkpt>
      <trkpt lat="59.181827" lon="18.146033">
        <ele>40</ele>
        <time>2019-11-16T09:22:14Z</time>
      </trkpt>
      <trkpt lat="59.181791" lon="18.145989">
        <ele>40</ele>
        <time>2019-11-16T09:22:16Z</time>
      </trkpt>
      <trkpt lat="59.181752" lon="18.145947">
        <ele>0</ele>
        <time>2019-11-16T09:22:16Z</time>
      </trkpt>
      <trkpt lat="59.181711" lon="18.145903">
        <ele>40</ele>
        <time>2019-11-16T09:22:17Z</time>
      </trkpt>
      <trkpt lat="59.181672" lon="18.14586">
        <ele>41</ele>
        <time>2019-11-16T09:22:19Z</time>
      </trkpt>
      <trkpt lat="59.181631" lon="18.145817">
        <ele>41</ele>
        <time>2019-11-16T09:22:20Z</time>
      </trkpt>
      <trkpt lat="59.181593" lon="18.145772">
        <ele>41</ele>
        <time>2019-11-16T09:22:21Z</time>
      </trkpt>
      <trkpt lat="59.181556" lon="18.145726">
        <ele>41</ele>
        <time>2019-11-16T09:22:22Z</time>
      </trkpt>
      <trkpt lat="59.181523" lon="18.145681">
        <ele>41</ele>
        <time>2019-11-16T09:22:23Z</time>
      </trkpt>
      <trkpt lat="59.181485" lon="18.14564">
        <ele>41</ele>
        <time>2019-11-16T09:22:24Z</time>
      </trkpt>
      <trkpt lat="59.181447" lon="18.145596">
        <ele>41</ele>
        <time>2019-11-16T09:22:25Z</time>
      </trkpt>
      <trkpt lat="59.181409" lon="18.145552">
        <ele>41</ele>
        <time>2019-11-16T09:22:26Z</time>
      </trkpt>
      <trkpt lat="59.181369" lon="18.145502">
        <ele>41</ele>
        <time>2019-11-16T09:22:27Z</time>
      </trkpt>
      <trkpt lat="59.18133" lon="18.145455">
        <ele>0</ele>
        <time>2019-11-16T09:22:27Z</time>
      </trkpt>
      <trkpt lat="59.181289" lon="18.145407">
        <ele>41</ele>
        <time>2019-11-16T09:22:28Z</time>
      </trkpt>
      <trkpt lat="59.181248" lon="18.14535">
        <ele>41</ele>
        <time>2019-11-16T09:22:30Z</time>
      </trkpt>
      <trkpt lat="59.181213" lon="18.14528">
        <ele>41</ele>
        <time>2019-11-16T09:22:31Z</time>
      </trkpt>
      <trkpt lat="59.181176" lon="18.145208">
        <ele>40</ele>
        <time>2019-11-16T09:22:32Z</time>
      </trkpt>
      <trkpt lat="59.181139" lon="18.145136">
        <ele>0</ele>
        <time>2019-11-16T09:22:32Z</time>
      </trkpt>
      <trkpt lat="59.1811" lon="18.145064">
        <ele>40</ele>
        <time>2019-11-16T09:22:33Z</time>
      </trkpt>
      <trkpt lat="59.181056" lon="18.144994">
        <ele>40</ele>
        <time>2019-11-16T09:22:35Z</time>
      </trkpt>
      <trkpt lat="59.181009" lon="18.144926">
        <ele>40</ele>
        <time>2019-11-16T09:22:36Z</time>
      </trkpt>
      <trkpt lat="59.18096" lon="18.144858">
        <ele>0</ele>
        <time>2019-11-16T09:22:36Z</time>
      </trkpt>
      <trkpt lat="59.180909" lon="18.144792">
        <ele>40</ele>
        <time>2019-11-16T09:22:37Z</time>
      </trkpt>
      <trkpt lat="59.180855" lon="18.144727">
        <ele>40</ele>
        <time>2019-11-16T09:22:39Z</time>
      </trkpt>
      <trkpt lat="59.180801" lon="18.144663">
        <ele>40</ele>
        <time>2019-11-16T09:22:40Z</time>
      </trkpt>
      <trkpt lat="59.180746" lon="18.144598">
        <ele>40</ele>
        <time>2019-11-16T09:22:41Z</time>
      </trkpt>
      <trkpt lat="59.18069" lon="18.144534">
        <ele>40</ele>
        <time>2019-11-16T09:22:42Z</time>
      </trkpt>
      <trkpt lat="59.180633" lon="18.144468">
        <ele>39</ele>
        <time>2019-11-16T09:22:43Z</time>
      </trkpt>
      <trkpt lat="59.180575" lon="18.144402">
        <ele>39</ele>
        <time>2019-11-16T09:22:44Z</time>
      </trkpt>
      <trkpt lat="59.180516" lon="18.144334">
        <ele>0</ele>
        <time>2019-11-16T09:22:44Z</time>
      </trkpt>
      <trkpt lat="59.180454" lon="18.144267">
        <ele>39</ele>
        <time>2019-11-16T09:22:45Z</time>
      </trkpt>
      <trkpt lat="59.180392" lon="18.144199">
        <ele>39</ele>
        <time>2019-11-16T09:22:47Z</time>
      </trkpt>
      <trkpt lat="59.180329" lon="18.144131">
        <ele>39</ele>
        <time>2019-11-16T09:22:48Z</time>
      </trkpt>
      <trkpt lat="59.180267" lon="18.144061">
        <ele>39</ele>
        <time>2019-11-16T09:22:49Z</time>
      </trkpt>
      <trkpt lat="59.180204" lon="18.143992">
        <ele>39</ele>
        <time>2019-11-16T09:22:50Z</time>
      </trkpt>
      <trkpt lat="59.18014" lon="18.143922">
        <ele>39</ele>
        <time>2019-11-16T09:22:51Z</time>
      </trkpt>
      <trkpt lat="59.180078" lon="18.143851">
        <ele>0</ele>
        <time>2019-11-16T09:22:51Z</time>
      </trkpt>
      <trkpt lat="59.180013" lon="18.143783">
        <ele>39</ele>
        <time>2019-11-16T09:22:52Z</time>
      </trkpt>
      <trkpt lat="59.179949" lon="18.143714">
        <ele>38</ele>
        <time>2019-11-16T09:22:54Z</time>
      </trkpt>
      <trkpt lat="59.179884" lon="18.143644">
        <ele>38</ele>
        <time>2019-11-16T09:22:55Z</time>
      </trkpt>
      <trkpt lat="59.179819" lon="18.143573">
        <ele>38</ele>
        <time>2019-11-16T09:22:56Z</time>
      </trkpt>
      <trkpt lat="59.179753" lon="18.143503">
        <ele>38</ele>
        <time>2019-11-16T09:22:57Z</time>
      </trkpt>
      <trkpt lat="59.179686" lon="18.143434">
        <ele>38</ele>
        <time>2019-11-16T09:22:58Z</time>
      </trkpt>
      <trkpt lat="59.17962" lon="18.143363">
        <ele>0</ele>
        <time>2019-11-16T09:22:58Z</time>
      </trkpt>
      <trkpt lat="59.179553" lon="18.143294">
        <ele>38</ele>
        <time>2019-11-16T09:22:59Z</time>
      </trkpt>
      <trkpt lat="59.179486" lon="18.143227">
        <ele>38</ele>
        <time>2019-11-16T09:23:01Z</time>
      </trkpt>
      <trkpt lat="59.17942" lon="18.143162">
        <ele>38</ele>
        <time>2019-11-16T09:23:02Z</time>
      </trkpt>
      <trkpt lat="59.179354" lon="18.143102">
        <ele>38</ele>
        <time>2019-11-16T09:23:03Z</time>
      </trkpt>
      <trkpt lat="59.179288" lon="18.143044">
        <ele>38</ele>
        <time>2019-11-16T09:23:04Z</time>
      </trkpt>
      <trkpt lat="59.179222" lon="18.14299">
        <ele>0</ele>
        <time>2019-11-16T09:23:04Z</time>
      </trkpt>
      <trkpt lat="59.179156" lon="18.142939">
        <ele>38</ele>
        <time>2019-11-16T09:23:05Z</time>
      </trkpt>
      <trkpt lat="59.17909" lon="18.142889">
        <ele>37</ele>
        <time>2019-11-16T09:23:07Z</time>
      </trkpt>
      <trkpt lat="59.179025" lon="18.142841">
        <ele>37</ele>
        <time>2019-11-16T09:23:08Z</time>
      </trkpt>
      <trkpt lat="59.17896" lon="18.142794">
        <ele>37</ele>
        <time>2019-11-16T09:23:09Z</time>
      </trkpt>
      <trkpt lat="59.178897" lon="18.142749">
        <ele>37</ele>
        <time>2019-11-16T09:23:10Z</time>
      </trkpt>
      <trkpt lat="59.178834" lon="18.142706">
        <ele>0</ele>
        <time>2019-11-16T09:23:10Z</time>
      </trkpt>
      <trkpt lat="59.178773" lon="18.142666">
        <ele>37</ele>
        <time>2019-11-16T09:23:11Z</time>
      </trkpt>
      <trkpt lat="59.178714" lon="18.142627">
        <ele>0</ele>
        <time>2019-11-16T09:23:12Z</time>
      </trkpt>
      <trkpt lat="59.178656" lon="18.142589">
        <ele>37</ele>
        <time>2019-11-16T09:23:13Z</time>
      </trkpt>
      <trkpt lat="59.178598" lon="18.142552">
        <ele>37</ele>
        <time>2019-11-16T09:23:15Z</time>
      </trkpt>
      <trkpt lat="59.178542" lon="18.142516">
        <ele>37</ele>
        <time>2019-11-16T09:23:16Z</time>
      </trkpt>
      <trkpt lat="59.178487" lon="18.142479">
        <ele>36</ele>
        <time>2019-11-16T09:23:17Z</time>
      </trkpt>
      <trkpt lat="59.178434" lon="18.142439">
        <ele>36</ele>
        <time>2019-11-16T09:23:18Z</time>
      </trkpt>
      <trkpt lat="59.178381" lon="18.142398">
        <ele>36</ele>
        <time>2019-11-16T09:23:19Z</time>
      </trkpt>
      <trkpt lat="59.178327" lon="18.14236">
        <ele>36</ele>
        <time>2019-11-16T09:23:20Z</time>
      </trkpt>
      <trkpt lat="59.178273" lon="18.142324">
        <ele>0</ele>
        <time>2019-11-16T09:23:20Z</time>
      </trkpt>
      <trkpt lat="59.17822" lon="18.142289">
        <ele>36</ele>
        <time>2019-11-16T09:23:21Z</time>
      </trkpt>
      <trkpt lat="59.178166" lon="18.142254">
        <ele>37</ele>
        <time>2019-11-16T09:23:23Z</time>
      </trkpt>
      <trkpt lat="59.178114" lon="18.14222">
        <ele>37</ele>
        <time>2019-11-16T09:23:24Z</time>
      </trkpt>
      <trkpt lat="59.178061" lon="18.142188">
        <ele>37</ele>
        <time>2019-11-16T09:23:25Z</time>
      </trkpt>
      <trkpt lat="59.178007" lon="18.142157">
        <ele>37</ele>
        <time>2019-11-16T09:23:26Z</time>
      </trkpt>
      <trkpt lat="59.177953" lon="18.142125">
        <ele>37</ele>
        <time>2019-11-16T09:23:27Z</time>
      </trkpt>
      <trkpt lat="59.177901" lon="18.142093">
        <ele>37</ele>
        <time>2019-11-16T09:23:28Z</time>
      </trkpt>
      <trkpt lat="59.177848" lon="18.142061">
        <ele>37</ele>
        <time>2019-11-16T09:23:29Z</time>
      </trkpt>
      <trkpt lat="59.177796" lon="18.14203">
        <ele>0</ele>
        <time>2019-11-16T09:23:29Z</time>
      </trkpt>
      <trkpt lat="59.177746" lon="18.141999">
        <ele>37</ele>
        <time>2019-11-16T09:23:30Z</time>
      </trkpt>
      <trkpt lat="59.177697" lon="18.141968">
        <ele>37</ele>
        <time>2019-11-16T09:23:32Z</time>
      </trkpt>
      <trkpt lat="59.17765" lon="18.141939">
        <ele>37</ele>
        <time>2019-11-16T09:23:33Z</time>
      </trkpt>
      <trkpt lat="59.177602" lon="18.141913">
        <ele>37</ele>
        <time>2019-11-16T09:23:34Z</time>
      </trkpt>
      <trkpt lat="59.177555" lon="18.141889">
        <ele>37</ele>
        <time>2019-11-16T09:23:35Z</time>
      </trkpt>
      <trkpt lat="59.177509" lon="18.141863">
        <ele>37</ele>
        <time>2019-11-16T09:23:36Z</time>
      </trkpt>
      <trkpt lat="59.177464" lon="18.141838">
        <ele>37</ele>
        <time>2019-11-16T09:23:37Z</time>
      </trkpt>
      <trkpt lat="59.17742" lon="18.141813">
        <ele>37</ele>
        <time>2019-11-16T09:23:38Z</time>
      </trkpt>
      <trkpt lat="59.177377" lon="18.141787">
        <ele>38</ele>
        <time>2019-11-16T09:23:39Z</time>
      </trkpt>
      <trkpt lat="59.177332" lon="18.141764">
        <ele>38</ele>
        <time>2019-11-16T09:23:40Z</time>
      </trkpt>
      <trkpt lat="59.177288" lon="18.141739">
        <ele>0</ele>
        <time>2019-11-16T09:23:40Z</time>
      </trkpt>
      <trkpt lat="59.177244" lon="18.141714">
        <ele>37</ele>
        <time>2019-11-16T09:23:41Z</time>
      </trkpt>
      <trkpt lat="59.177201" lon="18.141693">
        <ele>38</ele>
        <time>2019-11-16T09:23:43Z</time>
      </trkpt>
      <trkpt lat="59.177158" lon="18.141674">
        <ele>38</ele>
        <time>2019-11-16T09:23:44Z</time>
      </trkpt>
      <trkpt lat="59.177115" lon="18.141656">
        <ele>38</ele>
        <time>2019-11-16T09:23:45Z</time>
      </trkpt>
      <trkpt lat="59.177073" lon="18.141638">
        <ele>38</ele>
        <time>2019-11-16T09:23:46Z</time>
      </trkpt>
      <trkpt lat="59.177031" lon="18.141619">
        <ele>38</ele>
        <time>2019-11-16T09:23:47Z</time>
      </trkpt>
      <trkpt lat="59.176989" lon="18.141599">
        <ele>38</ele>
        <time>2019-11-16T09:23:48Z</time>
      </trkpt>
      <trkpt lat="59.176946" lon="18.14158">
        <ele>0</ele>
        <time>2019-11-16T09:23:48Z</time>
      </trkpt>
      <trkpt lat="59.176903" lon="18.141559">
        <ele>38</ele>
        <time>2019-11-16T09:23:49Z</time>
      </trkpt>
      <trkpt lat="59.17686" lon="18.141539">
        <ele>38</ele>
        <time>2019-11-16T09:23:51Z</time>
      </trkpt>
      <trkpt lat="59.176816" lon="18.141519">
        <ele>0</ele>
        <time>2019-11-16T09:23:51Z</time>
      </trkpt>
      <trkpt lat="59.176774" lon="18.141499">
        <ele>39</ele>
        <time>2019-11-16T09:23:52Z</time>
      </trkpt>
      <trkpt lat="59.176732" lon="18.141479">
        <ele>39</ele>
        <time>2019-11-16T09:23:54Z</time>
      </trkpt>
      <trkpt lat="59.17669" lon="18.141461">
        <ele>39</ele>
        <time>2019-11-16T09:23:55Z</time>
      </trkpt>
      <trkpt lat="59.176647" lon="18.141442">
        <ele>39</ele>
        <time>2019-11-16T09:23:56Z</time>
      </trkpt>
      <trkpt lat="59.176605" lon="18.141422">
        <ele>39</ele>
        <time>2019-11-16T09:23:57Z</time>
      </trkpt>
      <trkpt lat="59.176563" lon="18.141405">
        <ele>39</ele>
        <time>2019-11-16T09:23:58Z</time>
      </trkpt>
      <trkpt lat="59.17652" lon="18.141392">
        <ele>39</ele>
        <time>2019-11-16T09:23:59Z</time>
      </trkpt>
      <trkpt lat="59.176478" lon="18.141381">
        <ele>40</ele>
        <time>2019-11-16T09:24:00Z</time>
      </trkpt>
      <trkpt lat="59.176434" lon="18.141374">
        <ele>40</ele>
        <time>2019-11-16T09:24:01Z</time>
      </trkpt>
      <trkpt lat="59.17639" lon="18.141371">
        <ele>40</ele>
        <time>2019-11-16T09:24:02Z</time>
      </trkpt>
      <trkpt lat="59.176346" lon="18.141372">
        <ele>0</ele>
        <time>2019-11-16T09:24:02Z</time>
      </trkpt>
      <trkpt lat="59.176302" lon="18.141379">
        <ele>40</ele>
        <time>2019-11-16T09:24:03Z</time>
      </trkpt>
      <trkpt lat="59.176257" lon="18.141386">
        <ele>40</ele>
        <time>2019-11-16T09:24:05Z</time>
      </trkpt>
      <trkpt lat="59.176213" lon="18.141399">
        <ele>40</ele>
        <time>2019-11-16T09:24:06Z</time>
      </trkpt>
      <trkpt lat="59.176169" lon="18.141416">
        <ele>40</ele>
        <time>2019-11-16T09:24:07Z</time>
      </trkpt>
      <trkpt lat="59.176127" lon="18.141433">
        <ele>0</ele>
        <time>2019-11-16T09:24:07Z</time>
      </trkpt>
      <trkpt lat="59.176086" lon="18.141447">
        <ele>40</ele>
        <time>2019-11-16T09:24:08Z</time>
      </trkpt>
      <trkpt lat="59.176047" lon="18.141458">
        <ele>40</ele>
        <time>2019-11-16T09:24:10Z</time>
      </trkpt>
      <trkpt lat="59.17601" lon="18.141461">
        <ele>40</ele>
        <time>2019-11-16T09:24:11Z</time>
      </trkpt>
      <trkpt lat="59.175975" lon="18.141451">
        <ele>41</ele>
        <time>2019-11-16T09:24:12Z</time>
      </trkpt>
      <trkpt lat="59.175943" lon="18.141427">
        <ele>41</ele>
        <time>2019-11-16T09:24:13Z</time>
      </trkpt>
      <trkpt lat="59.175914" lon="18.141392">
        <ele>41</ele>
        <time>2019-11-16T09:24:14Z</time>
      </trkpt>
      <trkpt lat="59.175887" lon="18.141348">
        <ele>41</ele>
        <time>2019-11-16T09:24:15Z</time>
      </trkpt>
      <trkpt lat="59.175862" lon="18.141298">
        <ele>0</ele>
        <time>2019-11-16T09:24:15Z</time>
      </trkpt>
      <trkpt lat="59.175834" lon="18.14125">
        <ele>41</ele>
        <time>2019-11-16T09:24:16Z</time>
      </trkpt>
      <trkpt lat="59.175802" lon="18.141215">
        <ele>41</ele>
        <time>2019-11-16T09:24:18Z</time>
      </trkpt>
      <trkpt lat="59.175766" lon="18.141196">
        <ele>41</ele>
        <time>2019-11-16T09:24:19Z</time>
      </trkpt>
      <trkpt lat="59.175729" lon="18.141187">
        <ele>41</ele>
        <time>2019-11-16T09:24:20Z</time>
      </trkpt>
      <trkpt lat="59.175694" lon="18.141185">
        <ele>41</ele>
        <time>2019-11-16T09:24:21Z</time>
      </trkpt>
      <trkpt lat="59.175664" lon="18.141191">
        <ele>41</ele>
        <time>2019-11-16T09:24:22Z</time>
      </trkpt>
      <trkpt lat="59.17564" lon="18.141206">
        <ele>41</ele>
        <time>2019-11-16T09:24:23Z</time>
      </trkpt>
      <trkpt lat="59.175622" lon="18.141222">
        <ele>41</ele>
        <time>2019-11-16T09:24:24Z</time>
      </trkpt>
      <trkpt lat="59.175605" lon="18.141237">
        <ele>41</ele>
        <time>2019-11-16T09:24:25Z</time>
      </trkpt>
      <trkpt lat="59.17559" lon="18.141259">
        <ele>42</ele>
        <time>2019-11-16T09:24:26Z</time>
      </trkpt>
      <trkpt lat="59.175575" lon="18.141288">
        <ele>0</ele>
        <time>2019-11-16T09:24:26Z</time>
      </trkpt>
      <trkpt lat="59.175559" lon="18.141323">
        <ele>42</ele>
        <time>2019-11-16T09:24:27Z</time>
      </trkpt>
      <trkpt lat="59.175544" lon="18.141362">
        <ele>42</ele>
        <time>2019-11-16T09:24:29Z</time>
      </trkpt>
      <trkpt lat="59.175529" lon="18.141403">
        <ele>42</ele>
        <time>2019-11-16T09:24:30Z</time>
      </trkpt>
      <trkpt lat="59.175516" lon="18.141448">
        <ele>42</ele>
        <time>2019-11-16T09:24:31Z</time>
      </trkpt>
      <trkpt lat="59.175498" lon="18.141498">
        <ele>42</ele>
        <time>2019-11-16T09:24:32Z</time>
      </trkpt>
      <trkpt lat="59.175476" lon="18.141552">
        <ele>0</ele>
        <time>2019-11-16T09:24:32Z</time>
      </trkpt>
      <trkpt lat="59.17545" lon="18.14161">
        <ele>42</ele>
        <time>2019-11-16T09:24:33Z</time>
      </trkpt>
      <trkpt lat="59.175423" lon="18.14167">
        <ele>43</ele>
        <time>2019-11-16T09:24:35Z</time>
      </trkpt>
      <trkpt lat="59.175396" lon="18.141722">
        <ele>43</ele>
        <time>2019-11-16T09:24:36Z</time>
      </trkpt>
      <trkpt lat="59.175368" lon="18.141764">
        <ele>43</ele>
        <time>2019-11-16T09:24:37Z</time>
      </trkpt>
      <trkpt lat="59.175341" lon="18.141792">
        <ele>43</ele>
        <time>2019-11-16T09:24:38Z</time>
      </trkpt>
      <trkpt lat="59.175308" lon="18.141812">
        <ele>43</ele>
        <time>2019-11-16T09:24:39Z</time>
      </trkpt>
      <trkpt lat="59.17527" lon="18.141825">
        <ele>44</ele>
        <time>2019-11-16T09:24:40Z</time>
      </trkpt>
      <trkpt lat="59.175232" lon="18.141838">
        <ele>44</ele>
        <time>2019-11-16T09:24:41Z</time>
      </trkpt>
      <trkpt lat="59.175193" lon="18.14185">
        <ele>44</ele>
        <time>2019-11-16T09:24:42Z</time>
      </trkpt>
      <trkpt lat="59.175153" lon="18.141865">
        <ele>44</ele>
        <time>2019-11-16T09:24:43Z</time>
      </trkpt>
      <trkpt lat="59.175111" lon="18.141874">
        <ele>44</ele>
        <time>2019-11-16T09:24:44Z</time>
      </trkpt>
      <trkpt lat="59.175068" lon="18.141877">
        <ele>44</ele>
        <time>2019-11-16T09:24:45Z</time>
      </trkpt>
      <trkpt lat="59.175026" lon="18.14188">
        <ele>0</ele>
        <time>2019-11-16T09:24:45Z</time>
      </trkpt>
      <trkpt lat="59.174985" lon="18.141889">
        <ele>44</ele>
        <time>2019-11-16T09:24:46Z</time>
      </trkpt>
      <trkpt lat="59.174945" lon="18.14191">
        <ele>44</ele>
        <time>2019-11-16T09:24:48Z</time>
      </trkpt>
      <trkpt lat="59.174909" lon="18.141941">
        <ele>44</ele>
        <time>2019-11-16T09:24:49Z</time>
      </trkpt>
      <trkpt lat="59.174872" lon="18.141976">
        <ele>44</ele>
        <time>2019-11-16T09:24:50Z</time>
      </trkpt>
      <trkpt lat="59.174837" lon="18.142012">
        <ele>44</ele>
        <time>2019-11-16T09:24:51Z</time>
      </trkpt>
      <trkpt lat="59.174805" lon="18.142055">
        <ele>44</ele>
        <time>2019-11-16T09:24:52Z</time>
      </trkpt>
      <trkpt lat="59.174774" lon="18.142109">
        <ele>44</ele>
        <time>2019-11-16T09:24:53Z</time>
      </trkpt>
      <trkpt lat="59.174743" lon="18.14217">
        <ele>44</ele>
        <time>2019-11-16T09:24:54Z</time>
      </trkpt>
      <trkpt lat="59.174712" lon="18.14223">
        <ele>44</ele>
        <time>2019-11-16T09:24:55Z</time>
      </trkpt>
      <trkpt lat="59.174674" lon="18.142275">
        <ele>44</ele>
        <time>2019-11-16T09:24:56Z</time>
      </trkpt>
      <trkpt lat="59.174632" lon="18.142296">
        <ele>44</ele>
        <time>2019-11-16T09:24:57Z</time>
      </trkpt>
      <trkpt lat="59.174589" lon="18.142301">
        <ele>0</ele>
        <time>2019-11-16T09:24:57Z</time>
      </trkpt>
      <trkpt lat="59.174547" lon="18.142303">
        <ele>44</ele>
        <time>2019-11-16T09:24:58Z</time>
      </trkpt>
      <trkpt lat="59.174507" lon="18.142307">
        <ele>44</ele>
        <time>2019-11-16T09:25:00Z</time>
      </trkpt>
      <trkpt lat="59.174468" lon="18.142308">
        <ele>44</ele>
        <time>2019-11-16T09:25:01Z</time>
      </trkpt>
      <trkpt lat="59.174428" lon="18.142305">
        <ele>44</ele>
        <time>2019-11-16T09:25:02Z</time>
      </trkpt>
      <trkpt lat="59.174388" lon="18.142302">
        <ele>44</ele>
        <time>2019-11-16T09:25:03Z</time>
      </trkpt>
      <trkpt lat="59.174348" lon="18.142298">
        <ele>44</ele>
        <time>2019-11-16T09:25:04Z</time>
      </trkpt>
      <trkpt lat="59.174309" lon="18.142298">
        <ele>0</ele>
        <time>2019-11-16T09:25:04Z</time>
      </trkpt>
      <trkpt lat="59.174272" lon="18.142301">
        <ele>45</ele>
        <time>2019-11-16T09:25:05Z</time>
      </trkpt>
      <trkpt lat="59.174238" lon="18.142314">
        <ele>45</ele>
        <time>2019-11-16T09:25:07Z</time>
      </trkpt>
      <trkpt lat="59.174208" lon="18.142339">
        <ele>45</ele>
        <time>2019-11-16T09:25:08Z</time>
      </trkpt>
      <trkpt lat="59.174181" lon="18.142367">
        <ele>46</ele>
        <time>2019-11-16T09:25:09Z</time>
      </trkpt>
      <trkpt lat="59.174154" lon="18.142397">
        <ele>46</ele>
        <time>2019-11-16T09:25:10Z</time>
      </trkpt>
      <trkpt lat="59.174126" lon="18.142429">
        <ele>46</ele>
        <time>2019-11-16T09:25:11Z</time>
      </trkpt>
      <trkpt lat="59.174097" lon="18.142462">
        <ele>0</ele>
        <time>2019-11-16T09:25:11Z</time>
      </trkpt>
      <trkpt lat="59.174068" lon="18.142491">
        <ele>46</ele>
        <time>2019-11-16T09:25:12Z</time>
      </trkpt>
      <trkpt lat="59.17404" lon="18.142524">
        <ele>47</ele>
        <time>2019-11-16T09:25:14Z</time>
      </trkpt>
      <trkpt lat="59.174017" lon="18.142563">
        <ele>47</ele>
        <time>2019-11-16T09:25:15Z</time>
      </trkpt>
      <trkpt lat="59.174006" lon="18.142613">
        <ele>47</ele>
        <time>2019-11-16T09:25:16Z</time>
      </trkpt>
      <trkpt lat="59.174002" lon="18.14267">
        <ele>48</ele>
        <time>2019-11-16T09:25:17Z</time>
      </trkpt>
      <trkpt lat="59.173994" lon="18.142729">
        <ele>48</ele>
        <time>2019-11-16T09:25:18Z</time>
      </trkpt>
      <trkpt lat="59.173975" lon="18.142789">
        <ele>48</ele>
        <time>2019-11-16T09:25:19Z</time>
      </trkpt>
      <trkpt lat="59.173954" lon="18.142842">
        <ele>49</ele>
        <time>2019-11-16T09:25:20Z</time>
      </trkpt>
      <trkpt lat="59.173932" lon="18.142898">
        <ele>49</ele>
        <time>2019-11-16T09:25:21Z</time>
      </trkpt>
      <trkpt lat="59.173916" lon="18.142957">
        <ele>49</ele>
        <time>2019-11-16T09:25:22Z</time>
      </trkpt>
      <trkpt lat="59.173905" lon="18.143019">
        <ele>49</ele>
        <time>2019-11-16T09:25:23Z</time>
      </trkpt>
      <trkpt lat="59.173897" lon="18.143084">
        <ele>0</ele>
        <time>2019-11-16T09:25:23Z</time>
      </trkpt>
      <trkpt lat="59.173888" lon="18.143153">
        <ele>50</ele>
        <time>2019-11-16T09:25:24Z</time>
      </trkpt>
      <trkpt lat="59.173881" lon="18.143224">
        <ele>50</ele>
        <time>2019-11-16T09:25:26Z</time>
      </trkpt>
      <trkpt lat="59.173875" lon="18.143297">
        <ele>0</ele>
        <time>2019-11-16T09:25:26Z</time>
      </trkpt>
      <trkpt lat="59.173864" lon="18.143367">
        <ele>50</ele>
        <time>2019-11-16T09:25:27Z</time>
      </trkpt>
      <trkpt lat="59.17385" lon="18.143417">
        <ele>50</ele>
        <time>2019-11-16T09:25:29Z</time>
      </trkpt>
      <trkpt lat="59.173822" lon="18.143446">
        <ele>50</ele>
        <time>2019-11-16T09:25:30Z</time>
      </trkpt>
      <trkpt lat="59.173784" lon="18.143456">
        <ele>51</ele>
        <time>2019-11-16T09:25:31Z</time>
      </trkpt>
      <trkpt lat="59.173744" lon="18.143459">
        <ele>51</ele>
        <time>2019-11-16T09:25:32Z</time>
      </trkpt>
      <trkpt lat="59.173702" lon="18.143461">
        <ele>51</ele>
        <time>2019-11-16T09:25:33Z</time>
      </trkpt>
      <trkpt lat="59.173652" lon="18.143479">
        <ele>51</ele>
        <time>2019-11-16T09:25:34Z</time>
      </trkpt>
      <trkpt lat="59.173614" lon="18.143479">
        <ele>52</ele>
        <time>2019-11-16T09:25:35Z</time>
      </trkpt>
      <trkpt lat="59.173577" lon="18.143473">
        <ele>52</ele>
        <time>2019-11-16T09:25:36Z</time>
      </trkpt>
      <trkpt lat="59.173545" lon="18.143458">
        <ele>52</ele>
        <time>2019-11-16T09:25:37Z</time>
      </trkpt>
      <trkpt lat="59.173516" lon="18.143444">
        <ele>52</ele>
        <time>2019-11-16T09:25:38Z</time>
      </trkpt>
      <trkpt lat="59.173488" lon="18.143432">
        <ele>52</ele>
        <time>2019-11-16T09:25:39Z</time>
      </trkpt>
    </trkseg>
  </trk>
</gpx>